<?xml version="1.0" encoding="UTF-8" standalone="no" ?>
<gpx xmlns="http://www.topografix.com/GPX/1/1" xmlns:xsi="http://www.w3.org/2001/XMLSchema-instance" xsi:schemaLocation="http://www.topografix.com/GPX/1/1 http://www.topografix.com/GPX/1/1/gpx.xsd" version="1.1" creator="VisuGPX - https://www.visugpx.com">
  <metadata>
    <name>S-E-St Aignan Pont St Martin La Chevrolière Le Bignon Chateau Thébaud Vertou St Jacques Pirmil</name>
    <desc><![CDATA[S-E-St Aignan Pont St Martin La Chevrolière Le Bignon Chateau Thébaud Vertou St Jacques Pirmil]]></desc>
  </metadata>
  <trk>
    <name><![CDATA[2021-05-30 17:15 +02:00]]></name>
    <trkseg>
      <trkpt lat="47.16779" lon="-1.62652">
        <ele>72</ele>
        <time>2021-05-30T15:15:39.000Z</time>
      </trkpt>
      <trkpt lat="47.16779" lon="-1.62668">
        <ele>65</ele>
        <time>2021-05-30T15:17:19.000Z</time>
      </trkpt>
      <trkpt lat="47.16773" lon="-1.62679">
        <ele>66</ele>
        <time>2021-05-30T15:17:21.000Z</time>
      </trkpt>
      <trkpt lat="47.16763" lon="-1.62681">
        <ele>68</ele>
        <time>2021-05-30T15:17:23.000Z</time>
      </trkpt>
      <trkpt lat="47.16749" lon="-1.62676">
        <ele>68</ele>
        <time>2021-05-30T15:17:25.000Z</time>
      </trkpt>
      <trkpt lat="47.16737" lon="-1.62681">
        <ele>67</ele>
        <time>2021-05-30T15:17:27.000Z</time>
      </trkpt>
      <trkpt lat="47.16726" lon="-1.62688">
        <ele>67</ele>
        <time>2021-05-30T15:17:29.000Z</time>
      </trkpt>
      <trkpt lat="47.16717" lon="-1.62695">
        <ele>66</ele>
        <time>2021-05-30T15:17:31.000Z</time>
      </trkpt>
      <trkpt lat="47.167" lon="-1.62691">
        <ele>66</ele>
        <time>2021-05-30T15:17:34.000Z</time>
      </trkpt>
      <trkpt lat="47.16696" lon="-1.62672">
        <ele>65</ele>
        <time>2021-05-30T15:17:36.000Z</time>
      </trkpt>
      <trkpt lat="47.16695" lon="-1.62651">
        <ele>65</ele>
        <time>2021-05-30T15:17:38.000Z</time>
      </trkpt>
      <trkpt lat="47.16693" lon="-1.62633">
        <ele>65</ele>
        <time>2021-05-30T15:17:40.000Z</time>
      </trkpt>
      <trkpt lat="47.16692" lon="-1.62613">
        <ele>65</ele>
        <time>2021-05-30T15:17:42.000Z</time>
      </trkpt>
      <trkpt lat="47.16693" lon="-1.62592">
        <ele>64</ele>
        <time>2021-05-30T15:17:44.000Z</time>
      </trkpt>
      <trkpt lat="47.16694" lon="-1.62572">
        <ele>64</ele>
        <time>2021-05-30T15:17:46.000Z</time>
      </trkpt>
      <trkpt lat="47.16696" lon="-1.62549">
        <ele>62</ele>
        <time>2021-05-30T15:17:48.000Z</time>
      </trkpt>
      <trkpt lat="47.16698" lon="-1.62529">
        <ele>62</ele>
        <time>2021-05-30T15:17:50.000Z</time>
      </trkpt>
      <trkpt lat="47.16701" lon="-1.62513">
        <ele>62</ele>
        <time>2021-05-30T15:17:52.000Z</time>
      </trkpt>
      <trkpt lat="47.16705" lon="-1.62494">
        <ele>62</ele>
        <time>2021-05-30T15:17:54.000Z</time>
      </trkpt>
      <trkpt lat="47.16708" lon="-1.62476">
        <ele>62</ele>
        <time>2021-05-30T15:17:56.000Z</time>
      </trkpt>
      <trkpt lat="47.16711" lon="-1.62452">
        <ele>64</ele>
        <time>2021-05-30T15:17:59.000Z</time>
      </trkpt>
      <trkpt lat="47.16713" lon="-1.62435">
        <ele>65</ele>
        <time>2021-05-30T15:18:01.000Z</time>
      </trkpt>
      <trkpt lat="47.16719" lon="-1.62421">
        <ele>64</ele>
        <time>2021-05-30T15:18:03.000Z</time>
      </trkpt>
      <trkpt lat="47.16722" lon="-1.62407">
        <ele>64</ele>
        <time>2021-05-30T15:18:05.000Z</time>
      </trkpt>
      <trkpt lat="47.16712" lon="-1.62395">
        <ele>65</ele>
        <time>2021-05-30T15:18:07.000Z</time>
      </trkpt>
      <trkpt lat="47.16702" lon="-1.62386">
        <ele>65</ele>
        <time>2021-05-30T15:18:09.000Z</time>
      </trkpt>
      <trkpt lat="47.16692" lon="-1.62373">
        <ele>64</ele>
        <time>2021-05-30T15:18:11.000Z</time>
      </trkpt>
      <trkpt lat="47.16681" lon="-1.62365">
        <ele>65</ele>
        <time>2021-05-30T15:18:13.000Z</time>
      </trkpt>
      <trkpt lat="47.1667" lon="-1.62365">
        <ele>65</ele>
        <time>2021-05-30T15:18:15.000Z</time>
      </trkpt>
      <trkpt lat="47.16658" lon="-1.62365">
        <ele>65</ele>
        <time>2021-05-30T15:18:17.000Z</time>
      </trkpt>
      <trkpt lat="47.16648" lon="-1.62369">
        <ele>63</ele>
        <time>2021-05-30T15:18:19.000Z</time>
      </trkpt>
      <trkpt lat="47.16638" lon="-1.6238">
        <ele>63</ele>
        <time>2021-05-30T15:18:21.000Z</time>
      </trkpt>
      <trkpt lat="47.16622" lon="-1.62399">
        <ele>64</ele>
        <time>2021-05-30T15:18:24.000Z</time>
      </trkpt>
      <trkpt lat="47.16614" lon="-1.62412">
        <ele>65</ele>
        <time>2021-05-30T15:18:26.000Z</time>
      </trkpt>
      <trkpt lat="47.16606" lon="-1.62425">
        <ele>65</ele>
        <time>2021-05-30T15:18:28.000Z</time>
      </trkpt>
      <trkpt lat="47.16594" lon="-1.62448">
        <ele>63</ele>
        <time>2021-05-30T15:18:31.000Z</time>
      </trkpt>
      <trkpt lat="47.16587" lon="-1.62464">
        <ele>64</ele>
        <time>2021-05-30T15:18:33.000Z</time>
      </trkpt>
      <trkpt lat="47.16578" lon="-1.62488">
        <ele>65</ele>
        <time>2021-05-30T15:18:36.000Z</time>
      </trkpt>
      <trkpt lat="47.16568" lon="-1.62512">
        <ele>64</ele>
        <time>2021-05-30T15:18:39.000Z</time>
      </trkpt>
      <trkpt lat="47.16562" lon="-1.62528">
        <ele>65</ele>
        <time>2021-05-30T15:18:41.000Z</time>
      </trkpt>
      <trkpt lat="47.16554" lon="-1.6254">
        <ele>67</ele>
        <time>2021-05-30T15:18:43.000Z</time>
      </trkpt>
      <trkpt lat="47.16546" lon="-1.62553">
        <ele>68</ele>
        <time>2021-05-30T15:18:45.000Z</time>
      </trkpt>
      <trkpt lat="47.16537" lon="-1.62563">
        <ele>68</ele>
        <time>2021-05-30T15:18:47.000Z</time>
      </trkpt>
      <trkpt lat="47.16524" lon="-1.62566">
        <ele>69</ele>
        <time>2021-05-30T15:18:49.000Z</time>
      </trkpt>
      <trkpt lat="47.16512" lon="-1.62563">
        <ele>70</ele>
        <time>2021-05-30T15:18:51.000Z</time>
      </trkpt>
      <trkpt lat="47.165" lon="-1.62559">
        <ele>69</ele>
        <time>2021-05-30T15:18:53.000Z</time>
      </trkpt>
      <trkpt lat="47.16488" lon="-1.62556">
        <ele>70</ele>
        <time>2021-05-30T15:18:55.000Z</time>
      </trkpt>
      <trkpt lat="47.16477" lon="-1.62553">
        <ele>70</ele>
        <time>2021-05-30T15:18:57.000Z</time>
      </trkpt>
      <trkpt lat="47.16466" lon="-1.62553">
        <ele>70</ele>
        <time>2021-05-30T15:18:59.000Z</time>
      </trkpt>
      <trkpt lat="47.16454" lon="-1.6255">
        <ele>70</ele>
        <time>2021-05-30T15:19:01.000Z</time>
      </trkpt>
      <trkpt lat="47.16442" lon="-1.62545">
        <ele>70</ele>
        <time>2021-05-30T15:19:03.000Z</time>
      </trkpt>
      <trkpt lat="47.1643" lon="-1.62544">
        <ele>71</ele>
        <time>2021-05-30T15:19:05.000Z</time>
      </trkpt>
      <trkpt lat="47.16416" lon="-1.62559">
        <ele>71</ele>
        <time>2021-05-30T15:19:08.000Z</time>
      </trkpt>
      <trkpt lat="47.16408" lon="-1.62569">
        <ele>71</ele>
        <time>2021-05-30T15:19:10.000Z</time>
      </trkpt>
      <trkpt lat="47.16397" lon="-1.62575">
        <ele>71</ele>
        <time>2021-05-30T15:19:12.000Z</time>
      </trkpt>
      <trkpt lat="47.16383" lon="-1.62582">
        <ele>70</ele>
        <time>2021-05-30T15:19:14.000Z</time>
      </trkpt>
      <trkpt lat="47.1637" lon="-1.62584">
        <ele>71</ele>
        <time>2021-05-30T15:19:16.000Z</time>
      </trkpt>
      <trkpt lat="47.16357" lon="-1.62583">
        <ele>71</ele>
        <time>2021-05-30T15:19:18.000Z</time>
      </trkpt>
      <trkpt lat="47.16344" lon="-1.62581">
        <ele>71</ele>
        <time>2021-05-30T15:19:20.000Z</time>
      </trkpt>
      <trkpt lat="47.16326" lon="-1.62573">
        <ele>70</ele>
        <time>2021-05-30T15:19:23.000Z</time>
      </trkpt>
      <trkpt lat="47.16315" lon="-1.62571">
        <ele>70</ele>
        <time>2021-05-30T15:19:25.000Z</time>
      </trkpt>
      <trkpt lat="47.16301" lon="-1.62576">
        <ele>70</ele>
        <time>2021-05-30T15:19:27.000Z</time>
      </trkpt>
      <trkpt lat="47.1629" lon="-1.62588">
        <ele>70</ele>
        <time>2021-05-30T15:19:29.000Z</time>
      </trkpt>
      <trkpt lat="47.16284" lon="-1.62603">
        <ele>70</ele>
        <time>2021-05-30T15:19:31.000Z</time>
      </trkpt>
      <trkpt lat="47.1628" lon="-1.62621">
        <ele>70</ele>
        <time>2021-05-30T15:19:33.000Z</time>
      </trkpt>
      <trkpt lat="47.16276" lon="-1.62648">
        <ele>70</ele>
        <time>2021-05-30T15:19:36.000Z</time>
      </trkpt>
      <trkpt lat="47.16275" lon="-1.62667">
        <ele>69</ele>
        <time>2021-05-30T15:19:38.000Z</time>
      </trkpt>
      <trkpt lat="47.16278" lon="-1.62695">
        <ele>68</ele>
        <time>2021-05-30T15:19:41.000Z</time>
      </trkpt>
      <trkpt lat="47.16279" lon="-1.62711">
        <ele>69</ele>
        <time>2021-05-30T15:19:43.000Z</time>
      </trkpt>
      <trkpt lat="47.16281" lon="-1.62726">
        <ele>69</ele>
        <time>2021-05-30T15:19:45.000Z</time>
      </trkpt>
      <trkpt lat="47.1625" lon="-1.62744">
        <ele>76</ele>
        <time>2021-05-30T15:19:51.000Z</time>
      </trkpt>
      <trkpt lat="47.16239" lon="-1.62753">
        <ele>77</ele>
        <time>2021-05-30T15:19:53.000Z</time>
      </trkpt>
      <trkpt lat="47.16225" lon="-1.62759">
        <ele>71</ele>
        <time>2021-05-30T15:19:55.000Z</time>
      </trkpt>
      <trkpt lat="47.16216" lon="-1.62763">
        <ele>70</ele>
        <time>2021-05-30T15:19:56.000Z</time>
      </trkpt>
      <trkpt lat="47.16201" lon="-1.62773">
        <ele>68</ele>
        <time>2021-05-30T15:19:58.000Z</time>
      </trkpt>
      <trkpt lat="47.16179" lon="-1.62792">
        <ele>65</ele>
        <time>2021-05-30T15:20:01.000Z</time>
      </trkpt>
      <trkpt lat="47.16164" lon="-1.62806">
        <ele>63</ele>
        <time>2021-05-30T15:20:03.000Z</time>
      </trkpt>
      <trkpt lat="47.16156" lon="-1.62813">
        <ele>62</ele>
        <time>2021-05-30T15:20:04.000Z</time>
      </trkpt>
      <trkpt lat="47.16148" lon="-1.62818">
        <ele>63</ele>
        <time>2021-05-30T15:20:05.000Z</time>
      </trkpt>
      <trkpt lat="47.16126" lon="-1.62837">
        <ele>63</ele>
        <time>2021-05-30T15:20:08.000Z</time>
      </trkpt>
      <trkpt lat="47.16111" lon="-1.62851">
        <ele>63</ele>
        <time>2021-05-30T15:20:10.000Z</time>
      </trkpt>
      <trkpt lat="47.16103" lon="-1.62858">
        <ele>64</ele>
        <time>2021-05-30T15:20:11.000Z</time>
      </trkpt>
      <trkpt lat="47.16088" lon="-1.62871">
        <ele>63</ele>
        <time>2021-05-30T15:20:13.000Z</time>
      </trkpt>
      <trkpt lat="47.1608" lon="-1.62877">
        <ele>63</ele>
        <time>2021-05-30T15:20:14.000Z</time>
      </trkpt>
      <trkpt lat="47.16068" lon="-1.62891">
        <ele>60</ele>
        <time>2021-05-30T15:20:16.000Z</time>
      </trkpt>
      <trkpt lat="47.16059" lon="-1.62898">
        <ele>61</ele>
        <time>2021-05-30T15:20:17.000Z</time>
      </trkpt>
      <trkpt lat="47.16051" lon="-1.62904">
        <ele>61</ele>
        <time>2021-05-30T15:20:18.000Z</time>
      </trkpt>
      <trkpt lat="47.16028" lon="-1.62921">
        <ele>60</ele>
        <time>2021-05-30T15:20:21.000Z</time>
      </trkpt>
      <trkpt lat="47.1602" lon="-1.62927">
        <ele>59</ele>
        <time>2021-05-30T15:20:22.000Z</time>
      </trkpt>
      <trkpt lat="47.16005" lon="-1.6294">
        <ele>58</ele>
        <time>2021-05-30T15:20:24.000Z</time>
      </trkpt>
      <trkpt lat="47.15991" lon="-1.62953">
        <ele>58</ele>
        <time>2021-05-30T15:20:26.000Z</time>
      </trkpt>
      <trkpt lat="47.15976" lon="-1.62968">
        <ele>58</ele>
        <time>2021-05-30T15:20:28.000Z</time>
      </trkpt>
      <trkpt lat="47.15961" lon="-1.62983">
        <ele>57</ele>
        <time>2021-05-30T15:20:30.000Z</time>
      </trkpt>
      <trkpt lat="47.15953" lon="-1.6299">
        <ele>56</ele>
        <time>2021-05-30T15:20:31.000Z</time>
      </trkpt>
      <trkpt lat="47.15939" lon="-1.63002">
        <ele>56</ele>
        <time>2021-05-30T15:20:33.000Z</time>
      </trkpt>
      <trkpt lat="47.15923" lon="-1.63016">
        <ele>57</ele>
        <time>2021-05-30T15:20:35.000Z</time>
      </trkpt>
      <trkpt lat="47.15916" lon="-1.63023">
        <ele>57</ele>
        <time>2021-05-30T15:20:36.000Z</time>
      </trkpt>
      <trkpt lat="47.15902" lon="-1.63039">
        <ele>54</ele>
        <time>2021-05-30T15:20:38.000Z</time>
      </trkpt>
      <trkpt lat="47.15886" lon="-1.6305">
        <ele>55</ele>
        <time>2021-05-30T15:20:40.000Z</time>
      </trkpt>
      <trkpt lat="47.15872" lon="-1.63062">
        <ele>56</ele>
        <time>2021-05-30T15:20:42.000Z</time>
      </trkpt>
      <trkpt lat="47.15859" lon="-1.63074">
        <ele>56</ele>
        <time>2021-05-30T15:20:44.000Z</time>
      </trkpt>
      <trkpt lat="47.1584" lon="-1.6309">
        <ele>52</ele>
        <time>2021-05-30T15:20:47.000Z</time>
      </trkpt>
      <trkpt lat="47.15828" lon="-1.63103">
        <ele>53</ele>
        <time>2021-05-30T15:20:49.000Z</time>
      </trkpt>
      <trkpt lat="47.15804" lon="-1.63122">
        <ele>56</ele>
        <time>2021-05-30T15:20:53.000Z</time>
      </trkpt>
      <trkpt lat="47.15791" lon="-1.63132">
        <ele>56</ele>
        <time>2021-05-30T15:20:55.000Z</time>
      </trkpt>
      <trkpt lat="47.15778" lon="-1.63143">
        <ele>59</ele>
        <time>2021-05-30T15:20:57.000Z</time>
      </trkpt>
      <trkpt lat="47.15767" lon="-1.63154">
        <ele>61</ele>
        <time>2021-05-30T15:20:59.000Z</time>
      </trkpt>
      <trkpt lat="47.15756" lon="-1.63163">
        <ele>62</ele>
        <time>2021-05-30T15:21:01.000Z</time>
      </trkpt>
      <trkpt lat="47.15745" lon="-1.63174">
        <ele>62</ele>
        <time>2021-05-30T15:21:03.000Z</time>
      </trkpt>
      <trkpt lat="47.15732" lon="-1.63186">
        <ele>63</ele>
        <time>2021-05-30T15:21:05.000Z</time>
      </trkpt>
      <trkpt lat="47.15719" lon="-1.63197">
        <ele>63</ele>
        <time>2021-05-30T15:21:07.000Z</time>
      </trkpt>
      <trkpt lat="47.15709" lon="-1.6321">
        <ele>63</ele>
        <time>2021-05-30T15:21:09.000Z</time>
      </trkpt>
      <trkpt lat="47.15695" lon="-1.63219">
        <ele>62</ele>
        <time>2021-05-30T15:21:11.000Z</time>
      </trkpt>
      <trkpt lat="47.15681" lon="-1.6323">
        <ele>62</ele>
        <time>2021-05-30T15:21:13.000Z</time>
      </trkpt>
      <trkpt lat="47.15668" lon="-1.63242">
        <ele>61</ele>
        <time>2021-05-30T15:21:15.000Z</time>
      </trkpt>
      <trkpt lat="47.15656" lon="-1.63253">
        <ele>61</ele>
        <time>2021-05-30T15:21:17.000Z</time>
      </trkpt>
      <trkpt lat="47.15643" lon="-1.63265">
        <ele>61</ele>
        <time>2021-05-30T15:21:19.000Z</time>
      </trkpt>
      <trkpt lat="47.1563" lon="-1.63276">
        <ele>61</ele>
        <time>2021-05-30T15:21:21.000Z</time>
      </trkpt>
      <trkpt lat="47.15617" lon="-1.63287">
        <ele>61</ele>
        <time>2021-05-30T15:21:23.000Z</time>
      </trkpt>
      <trkpt lat="47.15603" lon="-1.63297">
        <ele>62</ele>
        <time>2021-05-30T15:21:25.000Z</time>
      </trkpt>
      <trkpt lat="47.15589" lon="-1.63308">
        <ele>59</ele>
        <time>2021-05-30T15:21:27.000Z</time>
      </trkpt>
      <trkpt lat="47.15578" lon="-1.6332">
        <ele>60</ele>
        <time>2021-05-30T15:21:29.000Z</time>
      </trkpt>
      <trkpt lat="47.15566" lon="-1.63331">
        <ele>61</ele>
        <time>2021-05-30T15:21:31.000Z</time>
      </trkpt>
      <trkpt lat="47.15548" lon="-1.63349">
        <ele>61</ele>
        <time>2021-05-30T15:21:34.000Z</time>
      </trkpt>
      <trkpt lat="47.15536" lon="-1.63359">
        <ele>60</ele>
        <time>2021-05-30T15:21:36.000Z</time>
      </trkpt>
      <trkpt lat="47.1552" lon="-1.63372">
        <ele>62</ele>
        <time>2021-05-30T15:21:39.000Z</time>
      </trkpt>
      <trkpt lat="47.1551" lon="-1.63384">
        <ele>63</ele>
        <time>2021-05-30T15:21:41.000Z</time>
      </trkpt>
      <trkpt lat="47.15499" lon="-1.63393">
        <ele>64</ele>
        <time>2021-05-30T15:21:43.000Z</time>
      </trkpt>
      <trkpt lat="47.15487" lon="-1.63403">
        <ele>65</ele>
        <time>2021-05-30T15:21:45.000Z</time>
      </trkpt>
      <trkpt lat="47.15476" lon="-1.63415">
        <ele>66</ele>
        <time>2021-05-30T15:21:47.000Z</time>
      </trkpt>
      <trkpt lat="47.15463" lon="-1.63425">
        <ele>67</ele>
        <time>2021-05-30T15:21:49.000Z</time>
      </trkpt>
      <trkpt lat="47.15446" lon="-1.63441">
        <ele>67</ele>
        <time>2021-05-30T15:21:52.000Z</time>
      </trkpt>
      <trkpt lat="47.15434" lon="-1.63451">
        <ele>66</ele>
        <time>2021-05-30T15:21:54.000Z</time>
      </trkpt>
      <trkpt lat="47.15423" lon="-1.63463">
        <ele>68</ele>
        <time>2021-05-30T15:21:56.000Z</time>
      </trkpt>
      <trkpt lat="47.15412" lon="-1.63474">
        <ele>68</ele>
        <time>2021-05-30T15:21:58.000Z</time>
      </trkpt>
      <trkpt lat="47.15403" lon="-1.63488">
        <ele>69</ele>
        <time>2021-05-30T15:22:00.000Z</time>
      </trkpt>
      <trkpt lat="47.15395" lon="-1.63501">
        <ele>69</ele>
        <time>2021-05-30T15:22:02.000Z</time>
      </trkpt>
      <trkpt lat="47.15384" lon="-1.63511">
        <ele>69</ele>
        <time>2021-05-30T15:22:04.000Z</time>
      </trkpt>
      <trkpt lat="47.1537" lon="-1.63515">
        <ele>66</ele>
        <time>2021-05-30T15:22:06.000Z</time>
      </trkpt>
      <trkpt lat="47.15358" lon="-1.63522">
        <ele>65</ele>
        <time>2021-05-30T15:22:08.000Z</time>
      </trkpt>
      <trkpt lat="47.15341" lon="-1.6354">
        <ele>67</ele>
        <time>2021-05-30T15:22:11.000Z</time>
      </trkpt>
      <trkpt lat="47.15329" lon="-1.63551">
        <ele>67</ele>
        <time>2021-05-30T15:22:13.000Z</time>
      </trkpt>
      <trkpt lat="47.15316" lon="-1.63562">
        <ele>67</ele>
        <time>2021-05-30T15:22:15.000Z</time>
      </trkpt>
      <trkpt lat="47.15297" lon="-1.63574">
        <ele>66</ele>
        <time>2021-05-30T15:22:18.000Z</time>
      </trkpt>
      <trkpt lat="47.15287" lon="-1.63584">
        <ele>67</ele>
        <time>2021-05-30T15:22:20.000Z</time>
      </trkpt>
      <trkpt lat="47.15279" lon="-1.63594">
        <ele>64</ele>
        <time>2021-05-30T15:22:22.000Z</time>
      </trkpt>
      <trkpt lat="47.15267" lon="-1.63606">
        <ele>63</ele>
        <time>2021-05-30T15:22:24.000Z</time>
      </trkpt>
      <trkpt lat="47.15252" lon="-1.63616">
        <ele>64</ele>
        <time>2021-05-30T15:22:26.000Z</time>
      </trkpt>
      <trkpt lat="47.15238" lon="-1.63626">
        <ele>65</ele>
        <time>2021-05-30T15:22:28.000Z</time>
      </trkpt>
      <trkpt lat="47.15219" lon="-1.6364">
        <ele>65</ele>
        <time>2021-05-30T15:22:31.000Z</time>
      </trkpt>
      <trkpt lat="47.15206" lon="-1.63651">
        <ele>66</ele>
        <time>2021-05-30T15:22:33.000Z</time>
      </trkpt>
      <trkpt lat="47.15194" lon="-1.63663">
        <ele>66</ele>
        <time>2021-05-30T15:22:35.000Z</time>
      </trkpt>
      <trkpt lat="47.15181" lon="-1.63675">
        <ele>67</ele>
        <time>2021-05-30T15:22:37.000Z</time>
      </trkpt>
      <trkpt lat="47.15168" lon="-1.63686">
        <ele>66</ele>
        <time>2021-05-30T15:22:39.000Z</time>
      </trkpt>
      <trkpt lat="47.15149" lon="-1.63704">
        <ele>67</ele>
        <time>2021-05-30T15:22:42.000Z</time>
      </trkpt>
      <trkpt lat="47.15138" lon="-1.63715">
        <ele>66</ele>
        <time>2021-05-30T15:22:44.000Z</time>
      </trkpt>
      <trkpt lat="47.15126" lon="-1.63728">
        <ele>67</ele>
        <time>2021-05-30T15:22:46.000Z</time>
      </trkpt>
      <trkpt lat="47.15114" lon="-1.6374">
        <ele>67</ele>
        <time>2021-05-30T15:22:48.000Z</time>
      </trkpt>
      <trkpt lat="47.15103" lon="-1.63753">
        <ele>67</ele>
        <time>2021-05-30T15:22:50.000Z</time>
      </trkpt>
      <trkpt lat="47.15089" lon="-1.63768">
        <ele>67</ele>
        <time>2021-05-30T15:22:52.000Z</time>
      </trkpt>
      <trkpt lat="47.15071" lon="-1.63786">
        <ele>66</ele>
        <time>2021-05-30T15:22:55.000Z</time>
      </trkpt>
      <trkpt lat="47.15061" lon="-1.638">
        <ele>66</ele>
        <time>2021-05-30T15:22:57.000Z</time>
      </trkpt>
      <trkpt lat="47.15051" lon="-1.63816">
        <ele>66</ele>
        <time>2021-05-30T15:22:59.000Z</time>
      </trkpt>
      <trkpt lat="47.15041" lon="-1.63829">
        <ele>66</ele>
        <time>2021-05-30T15:23:01.000Z</time>
      </trkpt>
      <trkpt lat="47.1503" lon="-1.63843">
        <ele>67</ele>
        <time>2021-05-30T15:23:03.000Z</time>
      </trkpt>
      <trkpt lat="47.1502" lon="-1.63858">
        <ele>67</ele>
        <time>2021-05-30T15:23:05.000Z</time>
      </trkpt>
      <trkpt lat="47.15011" lon="-1.63871">
        <ele>67</ele>
        <time>2021-05-30T15:23:07.000Z</time>
      </trkpt>
      <trkpt lat="47.15001" lon="-1.63885">
        <ele>67</ele>
        <time>2021-05-30T15:23:09.000Z</time>
      </trkpt>
      <trkpt lat="47.14991" lon="-1.63901">
        <ele>67</ele>
        <time>2021-05-30T15:23:11.000Z</time>
      </trkpt>
      <trkpt lat="47.14981" lon="-1.63915">
        <ele>68</ele>
        <time>2021-05-30T15:23:13.000Z</time>
      </trkpt>
      <trkpt lat="47.1497" lon="-1.63929">
        <ele>68</ele>
        <time>2021-05-30T15:23:15.000Z</time>
      </trkpt>
      <trkpt lat="47.1496" lon="-1.63947">
        <ele>69</ele>
        <time>2021-05-30T15:23:17.000Z</time>
      </trkpt>
      <trkpt lat="47.14948" lon="-1.63963">
        <ele>69</ele>
        <time>2021-05-30T15:23:19.000Z</time>
      </trkpt>
      <trkpt lat="47.14938" lon="-1.6398">
        <ele>69</ele>
        <time>2021-05-30T15:23:21.000Z</time>
      </trkpt>
      <trkpt lat="47.14929" lon="-1.63998">
        <ele>69</ele>
        <time>2021-05-30T15:23:23.000Z</time>
      </trkpt>
      <trkpt lat="47.14921" lon="-1.64017">
        <ele>69</ele>
        <time>2021-05-30T15:23:25.000Z</time>
      </trkpt>
      <trkpt lat="47.14909" lon="-1.64033">
        <ele>68</ele>
        <time>2021-05-30T15:23:27.000Z</time>
      </trkpt>
      <trkpt lat="47.14894" lon="-1.64043">
        <ele>67</ele>
        <time>2021-05-30T15:23:29.000Z</time>
      </trkpt>
      <trkpt lat="47.14879" lon="-1.64032">
        <ele>67</ele>
        <time>2021-05-30T15:23:31.000Z</time>
      </trkpt>
      <trkpt lat="47.1487" lon="-1.64015">
        <ele>67</ele>
        <time>2021-05-30T15:23:33.000Z</time>
      </trkpt>
      <trkpt lat="47.14861" lon="-1.64003">
        <ele>67</ele>
        <time>2021-05-30T15:23:35.000Z</time>
      </trkpt>
      <trkpt lat="47.14846" lon="-1.63995">
        <ele>67</ele>
        <time>2021-05-30T15:23:37.000Z</time>
      </trkpt>
      <trkpt lat="47.14833" lon="-1.63986">
        <ele>66</ele>
        <time>2021-05-30T15:23:39.000Z</time>
      </trkpt>
      <trkpt lat="47.14818" lon="-1.63994">
        <ele>67</ele>
        <time>2021-05-30T15:23:41.000Z</time>
      </trkpt>
      <trkpt lat="47.14806" lon="-1.64007">
        <ele>68</ele>
        <time>2021-05-30T15:23:43.000Z</time>
      </trkpt>
      <trkpt lat="47.14788" lon="-1.64027">
        <ele>69</ele>
        <time>2021-05-30T15:23:46.000Z</time>
      </trkpt>
      <trkpt lat="47.14775" lon="-1.64038">
        <ele>69</ele>
        <time>2021-05-30T15:23:48.000Z</time>
      </trkpt>
      <trkpt lat="47.14761" lon="-1.64048">
        <ele>69</ele>
        <time>2021-05-30T15:23:50.000Z</time>
      </trkpt>
      <trkpt lat="47.14739" lon="-1.64058">
        <ele>69</ele>
        <time>2021-05-30T15:23:53.000Z</time>
      </trkpt>
      <trkpt lat="47.14725" lon="-1.64064">
        <ele>70</ele>
        <time>2021-05-30T15:23:55.000Z</time>
      </trkpt>
      <trkpt lat="47.1471" lon="-1.64069">
        <ele>70</ele>
        <time>2021-05-30T15:23:57.000Z</time>
      </trkpt>
      <trkpt lat="47.14696" lon="-1.64075">
        <ele>71</ele>
        <time>2021-05-30T15:23:59.000Z</time>
      </trkpt>
      <trkpt lat="47.14682" lon="-1.64082">
        <ele>71</ele>
        <time>2021-05-30T15:24:01.000Z</time>
      </trkpt>
      <trkpt lat="47.14673" lon="-1.6409">
        <ele>70</ele>
        <time>2021-05-30T15:24:03.000Z</time>
      </trkpt>
      <trkpt lat="47.14659" lon="-1.64095">
        <ele>68</ele>
        <time>2021-05-30T15:24:05.000Z</time>
      </trkpt>
      <trkpt lat="47.14646" lon="-1.64101">
        <ele>66</ele>
        <time>2021-05-30T15:24:07.000Z</time>
      </trkpt>
      <trkpt lat="47.14629" lon="-1.6411">
        <ele>68</ele>
        <time>2021-05-30T15:24:09.000Z</time>
      </trkpt>
      <trkpt lat="47.14612" lon="-1.64118">
        <ele>69</ele>
        <time>2021-05-30T15:24:11.000Z</time>
      </trkpt>
      <trkpt lat="47.14598" lon="-1.64127">
        <ele>69</ele>
        <time>2021-05-30T15:24:13.000Z</time>
      </trkpt>
      <trkpt lat="47.14584" lon="-1.64136">
        <ele>69</ele>
        <time>2021-05-30T15:24:15.000Z</time>
      </trkpt>
      <trkpt lat="47.14575" lon="-1.6414">
        <ele>69</ele>
        <time>2021-05-30T15:24:16.000Z</time>
      </trkpt>
      <trkpt lat="47.14567" lon="-1.64146">
        <ele>69</ele>
        <time>2021-05-30T15:24:17.000Z</time>
      </trkpt>
      <trkpt lat="47.14553" lon="-1.64154">
        <ele>68</ele>
        <time>2021-05-30T15:24:19.000Z</time>
      </trkpt>
      <trkpt lat="47.14539" lon="-1.64162">
        <ele>68</ele>
        <time>2021-05-30T15:24:21.000Z</time>
      </trkpt>
      <trkpt lat="47.14524" lon="-1.64171">
        <ele>65</ele>
        <time>2021-05-30T15:24:23.000Z</time>
      </trkpt>
      <trkpt lat="47.14509" lon="-1.64182">
        <ele>65</ele>
        <time>2021-05-30T15:24:25.000Z</time>
      </trkpt>
      <trkpt lat="47.14495" lon="-1.64189">
        <ele>64</ele>
        <time>2021-05-30T15:24:27.000Z</time>
      </trkpt>
      <trkpt lat="47.14481" lon="-1.64198">
        <ele>64</ele>
        <time>2021-05-30T15:24:29.000Z</time>
      </trkpt>
      <trkpt lat="47.1446" lon="-1.64211">
        <ele>65</ele>
        <time>2021-05-30T15:24:32.000Z</time>
      </trkpt>
      <trkpt lat="47.14446" lon="-1.64216">
        <ele>65</ele>
        <time>2021-05-30T15:24:34.000Z</time>
      </trkpt>
      <trkpt lat="47.14425" lon="-1.6422">
        <ele>66</ele>
        <time>2021-05-30T15:24:37.000Z</time>
      </trkpt>
      <trkpt lat="47.14411" lon="-1.64224">
        <ele>66</ele>
        <time>2021-05-30T15:24:39.000Z</time>
      </trkpt>
      <trkpt lat="47.14397" lon="-1.6423">
        <ele>68</ele>
        <time>2021-05-30T15:24:41.000Z</time>
      </trkpt>
      <trkpt lat="47.14384" lon="-1.64232">
        <ele>68</ele>
        <time>2021-05-30T15:24:43.000Z</time>
      </trkpt>
      <trkpt lat="47.14365" lon="-1.64236">
        <ele>65</ele>
        <time>2021-05-30T15:24:46.000Z</time>
      </trkpt>
      <trkpt lat="47.14353" lon="-1.64237">
        <ele>65</ele>
        <time>2021-05-30T15:24:48.000Z</time>
      </trkpt>
      <trkpt lat="47.14338" lon="-1.64239">
        <ele>65</ele>
        <time>2021-05-30T15:24:50.000Z</time>
      </trkpt>
      <trkpt lat="47.14321" lon="-1.64241">
        <ele>65</ele>
        <time>2021-05-30T15:24:52.000Z</time>
      </trkpt>
      <trkpt lat="47.14304" lon="-1.64242">
        <ele>62</ele>
        <time>2021-05-30T15:24:54.000Z</time>
      </trkpt>
      <trkpt lat="47.1429" lon="-1.64247">
        <ele>63</ele>
        <time>2021-05-30T15:24:56.000Z</time>
      </trkpt>
      <trkpt lat="47.14275" lon="-1.64257">
        <ele>65</ele>
        <time>2021-05-30T15:24:58.000Z</time>
      </trkpt>
      <trkpt lat="47.1426" lon="-1.64267">
        <ele>66</ele>
        <time>2021-05-30T15:25:00.000Z</time>
      </trkpt>
      <trkpt lat="47.14252" lon="-1.64272">
        <ele>66</ele>
        <time>2021-05-30T15:25:01.000Z</time>
      </trkpt>
      <trkpt lat="47.14243" lon="-1.64278">
        <ele>66</ele>
        <time>2021-05-30T15:25:02.000Z</time>
      </trkpt>
      <trkpt lat="47.1423" lon="-1.64291">
        <ele>67</ele>
        <time>2021-05-30T15:25:04.000Z</time>
      </trkpt>
      <trkpt lat="47.14216" lon="-1.64304">
        <ele>67</ele>
        <time>2021-05-30T15:25:06.000Z</time>
      </trkpt>
      <trkpt lat="47.14198" lon="-1.64322">
        <ele>63</ele>
        <time>2021-05-30T15:25:09.000Z</time>
      </trkpt>
      <trkpt lat="47.14187" lon="-1.64338">
        <ele>63</ele>
        <time>2021-05-30T15:25:11.000Z</time>
      </trkpt>
      <trkpt lat="47.14173" lon="-1.64352">
        <ele>63</ele>
        <time>2021-05-30T15:25:13.000Z</time>
      </trkpt>
      <trkpt lat="47.1416" lon="-1.64365">
        <ele>63</ele>
        <time>2021-05-30T15:25:15.000Z</time>
      </trkpt>
      <trkpt lat="47.1414" lon="-1.64377">
        <ele>62</ele>
        <time>2021-05-30T15:25:18.000Z</time>
      </trkpt>
      <trkpt lat="47.14126" lon="-1.64388">
        <ele>63</ele>
        <time>2021-05-30T15:25:20.000Z</time>
      </trkpt>
      <trkpt lat="47.14111" lon="-1.64399">
        <ele>63</ele>
        <time>2021-05-30T15:25:22.000Z</time>
      </trkpt>
      <trkpt lat="47.14097" lon="-1.64411">
        <ele>62</ele>
        <time>2021-05-30T15:25:24.000Z</time>
      </trkpt>
      <trkpt lat="47.14084" lon="-1.64421">
        <ele>63</ele>
        <time>2021-05-30T15:25:26.000Z</time>
      </trkpt>
      <trkpt lat="47.14071" lon="-1.64432">
        <ele>63</ele>
        <time>2021-05-30T15:25:28.000Z</time>
      </trkpt>
      <trkpt lat="47.14057" lon="-1.64443">
        <ele>62</ele>
        <time>2021-05-30T15:25:30.000Z</time>
      </trkpt>
      <trkpt lat="47.14046" lon="-1.64455">
        <ele>62</ele>
        <time>2021-05-30T15:25:32.000Z</time>
      </trkpt>
      <trkpt lat="47.14034" lon="-1.64464">
        <ele>62</ele>
        <time>2021-05-30T15:25:34.000Z</time>
      </trkpt>
      <trkpt lat="47.14021" lon="-1.64475">
        <ele>62</ele>
        <time>2021-05-30T15:25:36.000Z</time>
      </trkpt>
      <trkpt lat="47.14007" lon="-1.64487">
        <ele>61</ele>
        <time>2021-05-30T15:25:38.000Z</time>
      </trkpt>
      <trkpt lat="47.13992" lon="-1.64501">
        <ele>60</ele>
        <time>2021-05-30T15:25:40.000Z</time>
      </trkpt>
      <trkpt lat="47.1398" lon="-1.64514">
        <ele>60</ele>
        <time>2021-05-30T15:25:42.000Z</time>
      </trkpt>
      <trkpt lat="47.1396" lon="-1.64532">
        <ele>62</ele>
        <time>2021-05-30T15:25:45.000Z</time>
      </trkpt>
      <trkpt lat="47.13946" lon="-1.64543">
        <ele>62</ele>
        <time>2021-05-30T15:25:47.000Z</time>
      </trkpt>
      <trkpt lat="47.13933" lon="-1.64555">
        <ele>62</ele>
        <time>2021-05-30T15:25:49.000Z</time>
      </trkpt>
      <trkpt lat="47.13921" lon="-1.64567">
        <ele>62</ele>
        <time>2021-05-30T15:25:51.000Z</time>
      </trkpt>
      <trkpt lat="47.13909" lon="-1.64578">
        <ele>62</ele>
        <time>2021-05-30T15:25:53.000Z</time>
      </trkpt>
      <trkpt lat="47.13895" lon="-1.64587">
        <ele>64</ele>
        <time>2021-05-30T15:25:55.000Z</time>
      </trkpt>
      <trkpt lat="47.13882" lon="-1.64595">
        <ele>65</ele>
        <time>2021-05-30T15:25:57.000Z</time>
      </trkpt>
      <trkpt lat="47.13872" lon="-1.64604">
        <ele>65</ele>
        <time>2021-05-30T15:25:59.000Z</time>
      </trkpt>
      <trkpt lat="47.13856" lon="-1.64605">
        <ele>64</ele>
        <time>2021-05-30T15:26:01.000Z</time>
      </trkpt>
      <trkpt lat="47.1384" lon="-1.64606">
        <ele>63</ele>
        <time>2021-05-30T15:26:03.000Z</time>
      </trkpt>
      <trkpt lat="47.13826" lon="-1.64604">
        <ele>63</ele>
        <time>2021-05-30T15:26:05.000Z</time>
      </trkpt>
      <trkpt lat="47.13811" lon="-1.64605">
        <ele>62</ele>
        <time>2021-05-30T15:26:07.000Z</time>
      </trkpt>
      <trkpt lat="47.13791" lon="-1.64601">
        <ele>62</ele>
        <time>2021-05-30T15:26:10.000Z</time>
      </trkpt>
      <trkpt lat="47.13778" lon="-1.64598">
        <ele>63</ele>
        <time>2021-05-30T15:26:12.000Z</time>
      </trkpt>
      <trkpt lat="47.13764" lon="-1.64596">
        <ele>61</ele>
        <time>2021-05-30T15:26:14.000Z</time>
      </trkpt>
      <trkpt lat="47.1375" lon="-1.64595">
        <ele>58</ele>
        <time>2021-05-30T15:26:16.000Z</time>
      </trkpt>
      <trkpt lat="47.13737" lon="-1.64594">
        <ele>60</ele>
        <time>2021-05-30T15:26:18.000Z</time>
      </trkpt>
      <trkpt lat="47.13723" lon="-1.64588">
        <ele>61</ele>
        <time>2021-05-30T15:26:20.000Z</time>
      </trkpt>
      <trkpt lat="47.1371" lon="-1.64585">
        <ele>61</ele>
        <time>2021-05-30T15:26:22.000Z</time>
      </trkpt>
      <trkpt lat="47.13697" lon="-1.64582">
        <ele>61</ele>
        <time>2021-05-30T15:26:24.000Z</time>
      </trkpt>
      <trkpt lat="47.13684" lon="-1.64578">
        <ele>61</ele>
        <time>2021-05-30T15:26:26.000Z</time>
      </trkpt>
      <trkpt lat="47.13673" lon="-1.64576">
        <ele>62</ele>
        <time>2021-05-30T15:26:28.000Z</time>
      </trkpt>
      <trkpt lat="47.13661" lon="-1.64573">
        <ele>63</ele>
        <time>2021-05-30T15:26:30.000Z</time>
      </trkpt>
      <trkpt lat="47.13641" lon="-1.64568">
        <ele>61</ele>
        <time>2021-05-30T15:26:33.000Z</time>
      </trkpt>
      <trkpt lat="47.1363" lon="-1.64568">
        <ele>62</ele>
        <time>2021-05-30T15:26:35.000Z</time>
      </trkpt>
      <trkpt lat="47.13617" lon="-1.64565">
        <ele>62</ele>
        <time>2021-05-30T15:26:37.000Z</time>
      </trkpt>
      <trkpt lat="47.13605" lon="-1.64562">
        <ele>63</ele>
        <time>2021-05-30T15:26:39.000Z</time>
      </trkpt>
      <trkpt lat="47.13594" lon="-1.64561">
        <ele>64</ele>
        <time>2021-05-30T15:26:41.000Z</time>
      </trkpt>
      <trkpt lat="47.13581" lon="-1.64565">
        <ele>64</ele>
        <time>2021-05-30T15:26:43.000Z</time>
      </trkpt>
      <trkpt lat="47.13571" lon="-1.64569">
        <ele>65</ele>
        <time>2021-05-30T15:26:45.000Z</time>
      </trkpt>
      <trkpt lat="47.13559" lon="-1.64576">
        <ele>65</ele>
        <time>2021-05-30T15:26:47.000Z</time>
      </trkpt>
      <trkpt lat="47.13544" lon="-1.64588">
        <ele>64</ele>
        <time>2021-05-30T15:26:50.000Z</time>
      </trkpt>
      <trkpt lat="47.13532" lon="-1.64599">
        <ele>63</ele>
        <time>2021-05-30T15:26:52.000Z</time>
      </trkpt>
      <trkpt lat="47.13521" lon="-1.64611">
        <ele>64</ele>
        <time>2021-05-30T15:26:54.000Z</time>
      </trkpt>
      <trkpt lat="47.13512" lon="-1.64622">
        <ele>64</ele>
        <time>2021-05-30T15:26:56.000Z</time>
      </trkpt>
      <trkpt lat="47.13497" lon="-1.64638">
        <ele>64</ele>
        <time>2021-05-30T15:26:59.000Z</time>
      </trkpt>
      <trkpt lat="47.13485" lon="-1.64645">
        <ele>65</ele>
        <time>2021-05-30T15:27:01.000Z</time>
      </trkpt>
      <trkpt lat="47.13474" lon="-1.64647">
        <ele>66</ele>
        <time>2021-05-30T15:27:03.000Z</time>
      </trkpt>
      <trkpt lat="47.13461" lon="-1.64647">
        <ele>66</ele>
        <time>2021-05-30T15:27:05.000Z</time>
      </trkpt>
      <trkpt lat="47.13448" lon="-1.64645">
        <ele>65</ele>
        <time>2021-05-30T15:27:07.000Z</time>
      </trkpt>
      <trkpt lat="47.13435" lon="-1.64645">
        <ele>65</ele>
        <time>2021-05-30T15:27:09.000Z</time>
      </trkpt>
      <trkpt lat="47.13423" lon="-1.64645">
        <ele>62</ele>
        <time>2021-05-30T15:27:11.000Z</time>
      </trkpt>
      <trkpt lat="47.13413" lon="-1.64646">
        <ele>63</ele>
        <time>2021-05-30T15:27:13.000Z</time>
      </trkpt>
      <trkpt lat="47.13405" lon="-1.64641">
        <ele>64</ele>
        <time>2021-05-30T15:27:21.000Z</time>
      </trkpt>
      <trkpt lat="47.13398" lon="-1.64626">
        <ele>66</ele>
        <time>2021-05-30T15:27:24.000Z</time>
      </trkpt>
      <trkpt lat="47.13395" lon="-1.6461">
        <ele>66</ele>
        <time>2021-05-30T15:27:26.000Z</time>
      </trkpt>
      <trkpt lat="47.1339" lon="-1.64593">
        <ele>66</ele>
        <time>2021-05-30T15:27:28.000Z</time>
      </trkpt>
      <trkpt lat="47.13386" lon="-1.64575">
        <ele>66</ele>
        <time>2021-05-30T15:27:30.000Z</time>
      </trkpt>
      <trkpt lat="47.13382" lon="-1.64557">
        <ele>65</ele>
        <time>2021-05-30T15:27:32.000Z</time>
      </trkpt>
      <trkpt lat="47.13377" lon="-1.64539">
        <ele>63</ele>
        <time>2021-05-30T15:27:34.000Z</time>
      </trkpt>
      <trkpt lat="47.13372" lon="-1.64523">
        <ele>63</ele>
        <time>2021-05-30T15:27:36.000Z</time>
      </trkpt>
      <trkpt lat="47.13365" lon="-1.64506">
        <ele>63</ele>
        <time>2021-05-30T15:27:38.000Z</time>
      </trkpt>
      <trkpt lat="47.13359" lon="-1.6449">
        <ele>63</ele>
        <time>2021-05-30T15:27:40.000Z</time>
      </trkpt>
      <trkpt lat="47.13352" lon="-1.64474">
        <ele>63</ele>
        <time>2021-05-30T15:27:42.000Z</time>
      </trkpt>
      <trkpt lat="47.13341" lon="-1.64451">
        <ele>64</ele>
        <time>2021-05-30T15:27:45.000Z</time>
      </trkpt>
      <trkpt lat="47.13331" lon="-1.64435">
        <ele>63</ele>
        <time>2021-05-30T15:27:47.000Z</time>
      </trkpt>
      <trkpt lat="47.13324" lon="-1.64415">
        <ele>62</ele>
        <time>2021-05-30T15:27:49.000Z</time>
      </trkpt>
      <trkpt lat="47.13316" lon="-1.64396">
        <ele>62</ele>
        <time>2021-05-30T15:27:51.000Z</time>
      </trkpt>
      <trkpt lat="47.13302" lon="-1.64368">
        <ele>61</ele>
        <time>2021-05-30T15:27:54.000Z</time>
      </trkpt>
      <trkpt lat="47.13293" lon="-1.64349">
        <ele>61</ele>
        <time>2021-05-30T15:27:56.000Z</time>
      </trkpt>
      <trkpt lat="47.13284" lon="-1.6433">
        <ele>61</ele>
        <time>2021-05-30T15:27:58.000Z</time>
      </trkpt>
      <trkpt lat="47.13274" lon="-1.6431">
        <ele>60</ele>
        <time>2021-05-30T15:28:00.000Z</time>
      </trkpt>
      <trkpt lat="47.13264" lon="-1.6429">
        <ele>59</ele>
        <time>2021-05-30T15:28:02.000Z</time>
      </trkpt>
      <trkpt lat="47.13255" lon="-1.6427">
        <ele>58</ele>
        <time>2021-05-30T15:28:04.000Z</time>
      </trkpt>
      <trkpt lat="47.13246" lon="-1.6425">
        <ele>57</ele>
        <time>2021-05-30T15:28:06.000Z</time>
      </trkpt>
      <trkpt lat="47.13239" lon="-1.64231">
        <ele>57</ele>
        <time>2021-05-30T15:28:08.000Z</time>
      </trkpt>
      <trkpt lat="47.13229" lon="-1.64211">
        <ele>56</ele>
        <time>2021-05-30T15:28:10.000Z</time>
      </trkpt>
      <trkpt lat="47.1322" lon="-1.64193">
        <ele>56</ele>
        <time>2021-05-30T15:28:12.000Z</time>
      </trkpt>
      <trkpt lat="47.13211" lon="-1.64174">
        <ele>55</ele>
        <time>2021-05-30T15:28:14.000Z</time>
      </trkpt>
      <trkpt lat="47.13201" lon="-1.64162">
        <ele>53</ele>
        <time>2021-05-30T15:28:16.000Z</time>
      </trkpt>
      <trkpt lat="47.13195" lon="-1.6414">
        <ele>53</ele>
        <time>2021-05-30T15:28:18.000Z</time>
      </trkpt>
      <trkpt lat="47.13187" lon="-1.64119">
        <ele>52</ele>
        <time>2021-05-30T15:28:20.000Z</time>
      </trkpt>
      <trkpt lat="47.13178" lon="-1.64101">
        <ele>52</ele>
        <time>2021-05-30T15:28:22.000Z</time>
      </trkpt>
      <trkpt lat="47.13167" lon="-1.64085">
        <ele>52</ele>
        <time>2021-05-30T15:28:24.000Z</time>
      </trkpt>
      <trkpt lat="47.13159" lon="-1.64067">
        <ele>52</ele>
        <time>2021-05-30T15:28:26.000Z</time>
      </trkpt>
      <trkpt lat="47.13154" lon="-1.64046">
        <ele>52</ele>
        <time>2021-05-30T15:28:28.000Z</time>
      </trkpt>
      <trkpt lat="47.13147" lon="-1.64028">
        <ele>53</ele>
        <time>2021-05-30T15:28:30.000Z</time>
      </trkpt>
      <trkpt lat="47.1314" lon="-1.64011">
        <ele>53</ele>
        <time>2021-05-30T15:28:32.000Z</time>
      </trkpt>
      <trkpt lat="47.13133" lon="-1.63993">
        <ele>53</ele>
        <time>2021-05-30T15:28:34.000Z</time>
      </trkpt>
      <trkpt lat="47.13126" lon="-1.63975">
        <ele>53</ele>
        <time>2021-05-30T15:28:36.000Z</time>
      </trkpt>
      <trkpt lat="47.1312" lon="-1.63957">
        <ele>53</ele>
        <time>2021-05-30T15:28:38.000Z</time>
      </trkpt>
      <trkpt lat="47.13113" lon="-1.63939">
        <ele>52</ele>
        <time>2021-05-30T15:28:40.000Z</time>
      </trkpt>
      <trkpt lat="47.13106" lon="-1.63919">
        <ele>50</ele>
        <time>2021-05-30T15:28:42.000Z</time>
      </trkpt>
      <trkpt lat="47.13099" lon="-1.639">
        <ele>48</ele>
        <time>2021-05-30T15:28:44.000Z</time>
      </trkpt>
      <trkpt lat="47.13092" lon="-1.6388">
        <ele>47</ele>
        <time>2021-05-30T15:28:46.000Z</time>
      </trkpt>
      <trkpt lat="47.13085" lon="-1.63861">
        <ele>47</ele>
        <time>2021-05-30T15:28:48.000Z</time>
      </trkpt>
      <trkpt lat="47.13079" lon="-1.63843">
        <ele>48</ele>
        <time>2021-05-30T15:28:50.000Z</time>
      </trkpt>
      <trkpt lat="47.13072" lon="-1.63826">
        <ele>48</ele>
        <time>2021-05-30T15:28:52.000Z</time>
      </trkpt>
      <trkpt lat="47.13061" lon="-1.638">
        <ele>50</ele>
        <time>2021-05-30T15:28:55.000Z</time>
      </trkpt>
      <trkpt lat="47.13048" lon="-1.63774">
        <ele>49</ele>
        <time>2021-05-30T15:28:58.000Z</time>
      </trkpt>
      <trkpt lat="47.13042" lon="-1.63758">
        <ele>50</ele>
        <time>2021-05-30T15:29:00.000Z</time>
      </trkpt>
      <trkpt lat="47.13033" lon="-1.63742">
        <ele>52</ele>
        <time>2021-05-30T15:29:02.000Z</time>
      </trkpt>
      <trkpt lat="47.13027" lon="-1.6373">
        <ele>49</ele>
        <time>2021-05-30T15:29:04.000Z</time>
      </trkpt>
      <trkpt lat="47.13017" lon="-1.63711">
        <ele>51</ele>
        <time>2021-05-30T15:29:06.000Z</time>
      </trkpt>
      <trkpt lat="47.13013" lon="-1.63695">
        <ele>52</ele>
        <time>2021-05-30T15:29:08.000Z</time>
      </trkpt>
      <trkpt lat="47.12995" lon="-1.63669">
        <ele>51</ele>
        <time>2021-05-30T15:29:11.000Z</time>
      </trkpt>
      <trkpt lat="47.12986" lon="-1.63651">
        <ele>51</ele>
        <time>2021-05-30T15:29:13.000Z</time>
      </trkpt>
      <trkpt lat="47.12983" lon="-1.6363">
        <ele>51</ele>
        <time>2021-05-30T15:29:15.000Z</time>
      </trkpt>
      <trkpt lat="47.12978" lon="-1.63612">
        <ele>51</ele>
        <time>2021-05-30T15:29:17.000Z</time>
      </trkpt>
      <trkpt lat="47.12971" lon="-1.63594">
        <ele>51</ele>
        <time>2021-05-30T15:29:19.000Z</time>
      </trkpt>
      <trkpt lat="47.12963" lon="-1.63576">
        <ele>51</ele>
        <time>2021-05-30T15:29:21.000Z</time>
      </trkpt>
      <trkpt lat="47.12955" lon="-1.63559">
        <ele>50</ele>
        <time>2021-05-30T15:29:23.000Z</time>
      </trkpt>
      <trkpt lat="47.12948" lon="-1.63541">
        <ele>51</ele>
        <time>2021-05-30T15:29:25.000Z</time>
      </trkpt>
      <trkpt lat="47.12941" lon="-1.63524">
        <ele>50</ele>
        <time>2021-05-30T15:29:27.000Z</time>
      </trkpt>
      <trkpt lat="47.12932" lon="-1.63512">
        <ele>50</ele>
        <time>2021-05-30T15:29:29.000Z</time>
      </trkpt>
      <trkpt lat="47.12926" lon="-1.6349">
        <ele>50</ele>
        <time>2021-05-30T15:29:31.000Z</time>
      </trkpt>
      <trkpt lat="47.1292" lon="-1.6347">
        <ele>50</ele>
        <time>2021-05-30T15:29:33.000Z</time>
      </trkpt>
      <trkpt lat="47.12913" lon="-1.6345">
        <ele>49</ele>
        <time>2021-05-30T15:29:35.000Z</time>
      </trkpt>
      <trkpt lat="47.12906" lon="-1.63432">
        <ele>49</ele>
        <time>2021-05-30T15:29:37.000Z</time>
      </trkpt>
      <trkpt lat="47.129" lon="-1.63413">
        <ele>49</ele>
        <time>2021-05-30T15:29:39.000Z</time>
      </trkpt>
      <trkpt lat="47.12893" lon="-1.63395">
        <ele>50</ele>
        <time>2021-05-30T15:29:41.000Z</time>
      </trkpt>
      <trkpt lat="47.12887" lon="-1.63375">
        <ele>50</ele>
        <time>2021-05-30T15:29:43.000Z</time>
      </trkpt>
      <trkpt lat="47.12879" lon="-1.63358">
        <ele>50</ele>
        <time>2021-05-30T15:29:45.000Z</time>
      </trkpt>
      <trkpt lat="47.12871" lon="-1.6334">
        <ele>50</ele>
        <time>2021-05-30T15:29:47.000Z</time>
      </trkpt>
      <trkpt lat="47.12864" lon="-1.63322">
        <ele>50</ele>
        <time>2021-05-30T15:29:49.000Z</time>
      </trkpt>
      <trkpt lat="47.12857" lon="-1.63304">
        <ele>50</ele>
        <time>2021-05-30T15:29:51.000Z</time>
      </trkpt>
      <trkpt lat="47.12849" lon="-1.63286">
        <ele>51</ele>
        <time>2021-05-30T15:29:53.000Z</time>
      </trkpt>
      <trkpt lat="47.12841" lon="-1.63268">
        <ele>51</ele>
        <time>2021-05-30T15:29:55.000Z</time>
      </trkpt>
      <trkpt lat="47.12834" lon="-1.6325">
        <ele>51</ele>
        <time>2021-05-30T15:29:57.000Z</time>
      </trkpt>
      <trkpt lat="47.12827" lon="-1.63231">
        <ele>52</ele>
        <time>2021-05-30T15:29:59.000Z</time>
      </trkpt>
      <trkpt lat="47.12821" lon="-1.63213">
        <ele>52</ele>
        <time>2021-05-30T15:30:01.000Z</time>
      </trkpt>
      <trkpt lat="47.12814" lon="-1.63195">
        <ele>52</ele>
        <time>2021-05-30T15:30:03.000Z</time>
      </trkpt>
      <trkpt lat="47.12807" lon="-1.63177">
        <ele>52</ele>
        <time>2021-05-30T15:30:05.000Z</time>
      </trkpt>
      <trkpt lat="47.12799" lon="-1.63159">
        <ele>53</ele>
        <time>2021-05-30T15:30:07.000Z</time>
      </trkpt>
      <trkpt lat="47.12791" lon="-1.63141">
        <ele>53</ele>
        <time>2021-05-30T15:30:09.000Z</time>
      </trkpt>
      <trkpt lat="47.12783" lon="-1.63123">
        <ele>53</ele>
        <time>2021-05-30T15:30:11.000Z</time>
      </trkpt>
      <trkpt lat="47.12776" lon="-1.63104">
        <ele>54</ele>
        <time>2021-05-30T15:30:13.000Z</time>
      </trkpt>
      <trkpt lat="47.1277" lon="-1.63087">
        <ele>54</ele>
        <time>2021-05-30T15:30:15.000Z</time>
      </trkpt>
      <trkpt lat="47.12763" lon="-1.63077">
        <ele>53</ele>
        <time>2021-05-30T15:30:17.000Z</time>
      </trkpt>
      <trkpt lat="47.12751" lon="-1.63051">
        <ele>57</ele>
        <time>2021-05-30T15:30:20.000Z</time>
      </trkpt>
      <trkpt lat="47.12744" lon="-1.63032">
        <ele>57</ele>
        <time>2021-05-30T15:30:22.000Z</time>
      </trkpt>
      <trkpt lat="47.12737" lon="-1.63012">
        <ele>57</ele>
        <time>2021-05-30T15:30:24.000Z</time>
      </trkpt>
      <trkpt lat="47.12732" lon="-1.62994">
        <ele>57</ele>
        <time>2021-05-30T15:30:26.000Z</time>
      </trkpt>
      <trkpt lat="47.12725" lon="-1.62976">
        <ele>56</ele>
        <time>2021-05-30T15:30:28.000Z</time>
      </trkpt>
      <trkpt lat="47.1272" lon="-1.62958">
        <ele>56</ele>
        <time>2021-05-30T15:30:30.000Z</time>
      </trkpt>
      <trkpt lat="47.12714" lon="-1.62941">
        <ele>56</ele>
        <time>2021-05-30T15:30:32.000Z</time>
      </trkpt>
      <trkpt lat="47.12708" lon="-1.62925">
        <ele>55</ele>
        <time>2021-05-30T15:30:34.000Z</time>
      </trkpt>
      <trkpt lat="47.12701" lon="-1.62908">
        <ele>54</ele>
        <time>2021-05-30T15:30:36.000Z</time>
      </trkpt>
      <trkpt lat="47.12695" lon="-1.62892">
        <ele>54</ele>
        <time>2021-05-30T15:30:38.000Z</time>
      </trkpt>
      <trkpt lat="47.12689" lon="-1.62876">
        <ele>54</ele>
        <time>2021-05-30T15:30:40.000Z</time>
      </trkpt>
      <trkpt lat="47.12683" lon="-1.6286">
        <ele>54</ele>
        <time>2021-05-30T15:30:42.000Z</time>
      </trkpt>
      <trkpt lat="47.12677" lon="-1.62845">
        <ele>54</ele>
        <time>2021-05-30T15:30:44.000Z</time>
      </trkpt>
      <trkpt lat="47.1267" lon="-1.62829">
        <ele>54</ele>
        <time>2021-05-30T15:30:46.000Z</time>
      </trkpt>
      <trkpt lat="47.12661" lon="-1.62815">
        <ele>54</ele>
        <time>2021-05-30T15:30:48.000Z</time>
      </trkpt>
      <trkpt lat="47.12655" lon="-1.62798">
        <ele>53</ele>
        <time>2021-05-30T15:30:50.000Z</time>
      </trkpt>
      <trkpt lat="47.12651" lon="-1.62778">
        <ele>52</ele>
        <time>2021-05-30T15:30:52.000Z</time>
      </trkpt>
      <trkpt lat="47.12643" lon="-1.62761">
        <ele>53</ele>
        <time>2021-05-30T15:30:54.000Z</time>
      </trkpt>
      <trkpt lat="47.12635" lon="-1.62747">
        <ele>51</ele>
        <time>2021-05-30T15:30:56.000Z</time>
      </trkpt>
      <trkpt lat="47.12627" lon="-1.62731">
        <ele>51</ele>
        <time>2021-05-30T15:30:58.000Z</time>
      </trkpt>
      <trkpt lat="47.12617" lon="-1.62714">
        <ele>50</ele>
        <time>2021-05-30T15:31:00.000Z</time>
      </trkpt>
      <trkpt lat="47.12609" lon="-1.62697">
        <ele>50</ele>
        <time>2021-05-30T15:31:02.000Z</time>
      </trkpt>
      <trkpt lat="47.12597" lon="-1.62671">
        <ele>49</ele>
        <time>2021-05-30T15:31:05.000Z</time>
      </trkpt>
      <trkpt lat="47.12589" lon="-1.62654">
        <ele>49</ele>
        <time>2021-05-30T15:31:07.000Z</time>
      </trkpt>
      <trkpt lat="47.12581" lon="-1.62636">
        <ele>49</ele>
        <time>2021-05-30T15:31:09.000Z</time>
      </trkpt>
      <trkpt lat="47.12575" lon="-1.62617">
        <ele>49</ele>
        <time>2021-05-30T15:31:11.000Z</time>
      </trkpt>
      <trkpt lat="47.12568" lon="-1.62598">
        <ele>49</ele>
        <time>2021-05-30T15:31:13.000Z</time>
      </trkpt>
      <trkpt lat="47.12565" lon="-1.62579">
        <ele>50</ele>
        <time>2021-05-30T15:31:15.000Z</time>
      </trkpt>
      <trkpt lat="47.12562" lon="-1.62559">
        <ele>50</ele>
        <time>2021-05-30T15:31:17.000Z</time>
      </trkpt>
      <trkpt lat="47.12555" lon="-1.6253">
        <ele>50</ele>
        <time>2021-05-30T15:31:20.000Z</time>
      </trkpt>
      <trkpt lat="47.1255" lon="-1.62511">
        <ele>51</ele>
        <time>2021-05-30T15:31:22.000Z</time>
      </trkpt>
      <trkpt lat="47.12547" lon="-1.62489">
        <ele>51</ele>
        <time>2021-05-30T15:31:24.000Z</time>
      </trkpt>
      <trkpt lat="47.12542" lon="-1.62469">
        <ele>51</ele>
        <time>2021-05-30T15:31:26.000Z</time>
      </trkpt>
      <trkpt lat="47.12535" lon="-1.62439">
        <ele>51</ele>
        <time>2021-05-30T15:31:29.000Z</time>
      </trkpt>
      <trkpt lat="47.12529" lon="-1.62421">
        <ele>53</ele>
        <time>2021-05-30T15:31:31.000Z</time>
      </trkpt>
      <trkpt lat="47.12522" lon="-1.62401">
        <ele>52</ele>
        <time>2021-05-30T15:31:33.000Z</time>
      </trkpt>
      <trkpt lat="47.12515" lon="-1.62383">
        <ele>52</ele>
        <time>2021-05-30T15:31:35.000Z</time>
      </trkpt>
      <trkpt lat="47.12508" lon="-1.62368">
        <ele>53</ele>
        <time>2021-05-30T15:31:37.000Z</time>
      </trkpt>
      <trkpt lat="47.12499" lon="-1.62349">
        <ele>55</ele>
        <time>2021-05-30T15:31:39.000Z</time>
      </trkpt>
      <trkpt lat="47.12491" lon="-1.62331">
        <ele>53</ele>
        <time>2021-05-30T15:31:41.000Z</time>
      </trkpt>
      <trkpt lat="47.12483" lon="-1.62314">
        <ele>52</ele>
        <time>2021-05-30T15:31:43.000Z</time>
      </trkpt>
      <trkpt lat="47.12473" lon="-1.62298">
        <ele>51</ele>
        <time>2021-05-30T15:31:45.000Z</time>
      </trkpt>
      <trkpt lat="47.12458" lon="-1.62277">
        <ele>49</ele>
        <time>2021-05-30T15:31:48.000Z</time>
      </trkpt>
      <trkpt lat="47.12447" lon="-1.62261">
        <ele>49</ele>
        <time>2021-05-30T15:31:50.000Z</time>
      </trkpt>
      <trkpt lat="47.12438" lon="-1.62247">
        <ele>49</ele>
        <time>2021-05-30T15:31:52.000Z</time>
      </trkpt>
      <trkpt lat="47.1243" lon="-1.62232">
        <ele>49</ele>
        <time>2021-05-30T15:31:54.000Z</time>
      </trkpt>
      <trkpt lat="47.12421" lon="-1.62216">
        <ele>49</ele>
        <time>2021-05-30T15:31:56.000Z</time>
      </trkpt>
      <trkpt lat="47.12412" lon="-1.62201">
        <ele>48</ele>
        <time>2021-05-30T15:31:58.000Z</time>
      </trkpt>
      <trkpt lat="47.12404" lon="-1.62185">
        <ele>46</ele>
        <time>2021-05-30T15:32:00.000Z</time>
      </trkpt>
      <trkpt lat="47.12397" lon="-1.62168">
        <ele>47</ele>
        <time>2021-05-30T15:32:02.000Z</time>
      </trkpt>
      <trkpt lat="47.12392" lon="-1.62151">
        <ele>47</ele>
        <time>2021-05-30T15:32:04.000Z</time>
      </trkpt>
      <trkpt lat="47.12387" lon="-1.62133">
        <ele>47</ele>
        <time>2021-05-30T15:32:06.000Z</time>
      </trkpt>
      <trkpt lat="47.12382" lon="-1.62115">
        <ele>49</ele>
        <time>2021-05-30T15:32:08.000Z</time>
      </trkpt>
      <trkpt lat="47.12379" lon="-1.62094">
        <ele>48</ele>
        <time>2021-05-30T15:32:10.000Z</time>
      </trkpt>
      <trkpt lat="47.12377" lon="-1.62076">
        <ele>49</ele>
        <time>2021-05-30T15:32:12.000Z</time>
      </trkpt>
      <trkpt lat="47.12379" lon="-1.62057">
        <ele>50</ele>
        <time>2021-05-30T15:32:14.000Z</time>
      </trkpt>
      <trkpt lat="47.12379" lon="-1.6204">
        <ele>50</ele>
        <time>2021-05-30T15:32:16.000Z</time>
      </trkpt>
      <trkpt lat="47.12382" lon="-1.62022">
        <ele>50</ele>
        <time>2021-05-30T15:32:18.000Z</time>
      </trkpt>
      <trkpt lat="47.12385" lon="-1.62003">
        <ele>51</ele>
        <time>2021-05-30T15:32:20.000Z</time>
      </trkpt>
      <trkpt lat="47.1239" lon="-1.61984">
        <ele>51</ele>
        <time>2021-05-30T15:32:22.000Z</time>
      </trkpt>
      <trkpt lat="47.12394" lon="-1.61966">
        <ele>51</ele>
        <time>2021-05-30T15:32:24.000Z</time>
      </trkpt>
      <trkpt lat="47.12397" lon="-1.61946">
        <ele>52</ele>
        <time>2021-05-30T15:32:26.000Z</time>
      </trkpt>
      <trkpt lat="47.12402" lon="-1.61931">
        <ele>53</ele>
        <time>2021-05-30T15:32:28.000Z</time>
      </trkpt>
      <trkpt lat="47.12407" lon="-1.61913">
        <ele>53</ele>
        <time>2021-05-30T15:32:30.000Z</time>
      </trkpt>
      <trkpt lat="47.12411" lon="-1.61896">
        <ele>53</ele>
        <time>2021-05-30T15:32:32.000Z</time>
      </trkpt>
      <trkpt lat="47.12416" lon="-1.6188">
        <ele>53</ele>
        <time>2021-05-30T15:32:34.000Z</time>
      </trkpt>
      <trkpt lat="47.12422" lon="-1.61865">
        <ele>54</ele>
        <time>2021-05-30T15:32:36.000Z</time>
      </trkpt>
      <trkpt lat="47.12426" lon="-1.61847">
        <ele>54</ele>
        <time>2021-05-30T15:32:38.000Z</time>
      </trkpt>
      <trkpt lat="47.12431" lon="-1.6183">
        <ele>55</ele>
        <time>2021-05-30T15:32:40.000Z</time>
      </trkpt>
      <trkpt lat="47.12436" lon="-1.61813">
        <ele>55</ele>
        <time>2021-05-30T15:32:42.000Z</time>
      </trkpt>
      <trkpt lat="47.12439" lon="-1.61796">
        <ele>55</ele>
        <time>2021-05-30T15:32:44.000Z</time>
      </trkpt>
      <trkpt lat="47.12442" lon="-1.61779">
        <ele>56</ele>
        <time>2021-05-30T15:32:46.000Z</time>
      </trkpt>
      <trkpt lat="47.12447" lon="-1.61763">
        <ele>56</ele>
        <time>2021-05-30T15:32:48.000Z</time>
      </trkpt>
      <trkpt lat="47.12452" lon="-1.61746">
        <ele>55</ele>
        <time>2021-05-30T15:32:50.000Z</time>
      </trkpt>
      <trkpt lat="47.12457" lon="-1.6173">
        <ele>56</ele>
        <time>2021-05-30T15:32:52.000Z</time>
      </trkpt>
      <trkpt lat="47.12462" lon="-1.61715">
        <ele>56</ele>
        <time>2021-05-30T15:32:54.000Z</time>
      </trkpt>
      <trkpt lat="47.12466" lon="-1.61699">
        <ele>56</ele>
        <time>2021-05-30T15:32:56.000Z</time>
      </trkpt>
      <trkpt lat="47.12471" lon="-1.61672">
        <ele>56</ele>
        <time>2021-05-30T15:32:59.000Z</time>
      </trkpt>
      <trkpt lat="47.12473" lon="-1.61655">
        <ele>56</ele>
        <time>2021-05-30T15:33:01.000Z</time>
      </trkpt>
      <trkpt lat="47.12475" lon="-1.61638">
        <ele>57</ele>
        <time>2021-05-30T15:33:03.000Z</time>
      </trkpt>
      <trkpt lat="47.12475" lon="-1.61625">
        <ele>58</ele>
        <time>2021-05-30T15:33:05.000Z</time>
      </trkpt>
      <trkpt lat="47.12474" lon="-1.61604">
        <ele>58</ele>
        <time>2021-05-30T15:33:07.000Z</time>
      </trkpt>
      <trkpt lat="47.12472" lon="-1.61585">
        <ele>58</ele>
        <time>2021-05-30T15:33:09.000Z</time>
      </trkpt>
      <trkpt lat="47.12471" lon="-1.61566">
        <ele>58</ele>
        <time>2021-05-30T15:33:11.000Z</time>
      </trkpt>
      <trkpt lat="47.12469" lon="-1.61547">
        <ele>58</ele>
        <time>2021-05-30T15:33:13.000Z</time>
      </trkpt>
      <trkpt lat="47.12467" lon="-1.6153">
        <ele>58</ele>
        <time>2021-05-30T15:33:15.000Z</time>
      </trkpt>
      <trkpt lat="47.12465" lon="-1.61512">
        <ele>58</ele>
        <time>2021-05-30T15:33:17.000Z</time>
      </trkpt>
      <trkpt lat="47.12463" lon="-1.61494">
        <ele>58</ele>
        <time>2021-05-30T15:33:19.000Z</time>
      </trkpt>
      <trkpt lat="47.12461" lon="-1.61477">
        <ele>58</ele>
        <time>2021-05-30T15:33:21.000Z</time>
      </trkpt>
      <trkpt lat="47.12458" lon="-1.6146">
        <ele>59</ele>
        <time>2021-05-30T15:33:23.000Z</time>
      </trkpt>
      <trkpt lat="47.12454" lon="-1.61443">
        <ele>59</ele>
        <time>2021-05-30T15:33:25.000Z</time>
      </trkpt>
      <trkpt lat="47.12453" lon="-1.61428">
        <ele>58</ele>
        <time>2021-05-30T15:33:27.000Z</time>
      </trkpt>
      <trkpt lat="47.12454" lon="-1.61404">
        <ele>56</ele>
        <time>2021-05-30T15:33:30.000Z</time>
      </trkpt>
      <trkpt lat="47.12453" lon="-1.61384">
        <ele>58</ele>
        <time>2021-05-30T15:33:32.000Z</time>
      </trkpt>
      <trkpt lat="47.12453" lon="-1.61365">
        <ele>58</ele>
        <time>2021-05-30T15:33:34.000Z</time>
      </trkpt>
      <trkpt lat="47.12455" lon="-1.61347">
        <ele>57</ele>
        <time>2021-05-30T15:33:36.000Z</time>
      </trkpt>
      <trkpt lat="47.12456" lon="-1.61332">
        <ele>58</ele>
        <time>2021-05-30T15:33:38.000Z</time>
      </trkpt>
      <trkpt lat="47.12462" lon="-1.61316">
        <ele>58</ele>
        <time>2021-05-30T15:33:40.000Z</time>
      </trkpt>
      <trkpt lat="47.12469" lon="-1.61291">
        <ele>59</ele>
        <time>2021-05-30T15:33:43.000Z</time>
      </trkpt>
      <trkpt lat="47.12473" lon="-1.61277">
        <ele>58</ele>
        <time>2021-05-30T15:33:45.000Z</time>
      </trkpt>
      <trkpt lat="47.1248" lon="-1.61262">
        <ele>60</ele>
        <time>2021-05-30T15:33:47.000Z</time>
      </trkpt>
      <trkpt lat="47.12485" lon="-1.61246">
        <ele>60</ele>
        <time>2021-05-30T15:33:49.000Z</time>
      </trkpt>
      <trkpt lat="47.1249" lon="-1.61228">
        <ele>59</ele>
        <time>2021-05-30T15:33:51.000Z</time>
      </trkpt>
      <trkpt lat="47.12494" lon="-1.6121">
        <ele>59</ele>
        <time>2021-05-30T15:33:53.000Z</time>
      </trkpt>
      <trkpt lat="47.12497" lon="-1.61194">
        <ele>59</ele>
        <time>2021-05-30T15:33:55.000Z</time>
      </trkpt>
      <trkpt lat="47.12499" lon="-1.61177">
        <ele>59</ele>
        <time>2021-05-30T15:33:57.000Z</time>
      </trkpt>
      <trkpt lat="47.12501" lon="-1.61159">
        <ele>58</ele>
        <time>2021-05-30T15:33:59.000Z</time>
      </trkpt>
      <trkpt lat="47.12502" lon="-1.61139">
        <ele>58</ele>
        <time>2021-05-30T15:34:01.000Z</time>
      </trkpt>
      <trkpt lat="47.12504" lon="-1.6112">
        <ele>58</ele>
        <time>2021-05-30T15:34:03.000Z</time>
      </trkpt>
      <trkpt lat="47.12505" lon="-1.61103">
        <ele>57</ele>
        <time>2021-05-30T15:34:05.000Z</time>
      </trkpt>
      <trkpt lat="47.12507" lon="-1.61084">
        <ele>57</ele>
        <time>2021-05-30T15:34:07.000Z</time>
      </trkpt>
      <trkpt lat="47.12508" lon="-1.61065">
        <ele>58</ele>
        <time>2021-05-30T15:34:09.000Z</time>
      </trkpt>
      <trkpt lat="47.12512" lon="-1.61039">
        <ele>58</ele>
        <time>2021-05-30T15:34:12.000Z</time>
      </trkpt>
      <trkpt lat="47.12514" lon="-1.61021">
        <ele>57</ele>
        <time>2021-05-30T15:34:14.000Z</time>
      </trkpt>
      <trkpt lat="47.12517" lon="-1.60985">
        <ele>56</ele>
        <time>2021-05-30T15:34:18.000Z</time>
      </trkpt>
      <trkpt lat="47.12518" lon="-1.60966">
        <ele>58</ele>
        <time>2021-05-30T15:34:20.000Z</time>
      </trkpt>
      <trkpt lat="47.12521" lon="-1.60946">
        <ele>57</ele>
        <time>2021-05-30T15:34:22.000Z</time>
      </trkpt>
      <trkpt lat="47.12523" lon="-1.60928">
        <ele>56</ele>
        <time>2021-05-30T15:34:24.000Z</time>
      </trkpt>
      <trkpt lat="47.12524" lon="-1.6091">
        <ele>57</ele>
        <time>2021-05-30T15:34:26.000Z</time>
      </trkpt>
      <trkpt lat="47.12526" lon="-1.60892">
        <ele>57</ele>
        <time>2021-05-30T15:34:28.000Z</time>
      </trkpt>
      <trkpt lat="47.12528" lon="-1.60873">
        <ele>56</ele>
        <time>2021-05-30T15:34:30.000Z</time>
      </trkpt>
      <trkpt lat="47.12529" lon="-1.60854">
        <ele>56</ele>
        <time>2021-05-30T15:34:32.000Z</time>
      </trkpt>
      <trkpt lat="47.12529" lon="-1.60838">
        <ele>57</ele>
        <time>2021-05-30T15:34:34.000Z</time>
      </trkpt>
      <trkpt lat="47.12532" lon="-1.60821">
        <ele>58</ele>
        <time>2021-05-30T15:34:36.000Z</time>
      </trkpt>
      <trkpt lat="47.12533" lon="-1.60802">
        <ele>59</ele>
        <time>2021-05-30T15:34:38.000Z</time>
      </trkpt>
      <trkpt lat="47.12533" lon="-1.6078">
        <ele>56</ele>
        <time>2021-05-30T15:34:40.000Z</time>
      </trkpt>
      <trkpt lat="47.12536" lon="-1.60753">
        <ele>55</ele>
        <time>2021-05-30T15:34:43.000Z</time>
      </trkpt>
      <trkpt lat="47.12539" lon="-1.60735">
        <ele>55</ele>
        <time>2021-05-30T15:34:45.000Z</time>
      </trkpt>
      <trkpt lat="47.1254" lon="-1.60716">
        <ele>55</ele>
        <time>2021-05-30T15:34:47.000Z</time>
      </trkpt>
      <trkpt lat="47.1254" lon="-1.6069">
        <ele>56</ele>
        <time>2021-05-30T15:34:50.000Z</time>
      </trkpt>
      <trkpt lat="47.1254" lon="-1.60671">
        <ele>55</ele>
        <time>2021-05-30T15:34:52.000Z</time>
      </trkpt>
      <trkpt lat="47.12539" lon="-1.60652">
        <ele>56</ele>
        <time>2021-05-30T15:34:54.000Z</time>
      </trkpt>
      <trkpt lat="47.12536" lon="-1.60625">
        <ele>52</ele>
        <time>2021-05-30T15:34:57.000Z</time>
      </trkpt>
      <trkpt lat="47.12534" lon="-1.60607">
        <ele>55</ele>
        <time>2021-05-30T15:34:59.000Z</time>
      </trkpt>
      <trkpt lat="47.12536" lon="-1.60588">
        <ele>56</ele>
        <time>2021-05-30T15:35:01.000Z</time>
      </trkpt>
      <trkpt lat="47.12536" lon="-1.6057">
        <ele>56</ele>
        <time>2021-05-30T15:35:03.000Z</time>
      </trkpt>
      <trkpt lat="47.12536" lon="-1.60551">
        <ele>56</ele>
        <time>2021-05-30T15:35:05.000Z</time>
      </trkpt>
      <trkpt lat="47.12535" lon="-1.60523">
        <ele>56</ele>
        <time>2021-05-30T15:35:08.000Z</time>
      </trkpt>
      <trkpt lat="47.12533" lon="-1.60504">
        <ele>56</ele>
        <time>2021-05-30T15:35:10.000Z</time>
      </trkpt>
      <trkpt lat="47.12532" lon="-1.60487">
        <ele>55</ele>
        <time>2021-05-30T15:35:12.000Z</time>
      </trkpt>
      <trkpt lat="47.1253" lon="-1.60469">
        <ele>55</ele>
        <time>2021-05-30T15:35:14.000Z</time>
      </trkpt>
      <trkpt lat="47.12527" lon="-1.60452">
        <ele>54</ele>
        <time>2021-05-30T15:35:16.000Z</time>
      </trkpt>
      <trkpt lat="47.12522" lon="-1.60426">
        <ele>54</ele>
        <time>2021-05-30T15:35:19.000Z</time>
      </trkpt>
      <trkpt lat="47.12518" lon="-1.60409">
        <ele>52</ele>
        <time>2021-05-30T15:35:21.000Z</time>
      </trkpt>
      <trkpt lat="47.12514" lon="-1.60393">
        <ele>50</ele>
        <time>2021-05-30T15:35:23.000Z</time>
      </trkpt>
      <trkpt lat="47.12509" lon="-1.60364">
        <ele>51</ele>
        <time>2021-05-30T15:35:26.000Z</time>
      </trkpt>
      <trkpt lat="47.12505" lon="-1.60345">
        <ele>52</ele>
        <time>2021-05-30T15:35:28.000Z</time>
      </trkpt>
      <trkpt lat="47.12502" lon="-1.60327">
        <ele>51</ele>
        <time>2021-05-30T15:35:30.000Z</time>
      </trkpt>
      <trkpt lat="47.12499" lon="-1.60309">
        <ele>52</ele>
        <time>2021-05-30T15:35:32.000Z</time>
      </trkpt>
      <trkpt lat="47.12495" lon="-1.60289">
        <ele>52</ele>
        <time>2021-05-30T15:35:34.000Z</time>
      </trkpt>
      <trkpt lat="47.12491" lon="-1.60271">
        <ele>52</ele>
        <time>2021-05-30T15:35:36.000Z</time>
      </trkpt>
      <trkpt lat="47.12486" lon="-1.60255">
        <ele>50</ele>
        <time>2021-05-30T15:35:38.000Z</time>
      </trkpt>
      <trkpt lat="47.12482" lon="-1.60236">
        <ele>50</ele>
        <time>2021-05-30T15:35:40.000Z</time>
      </trkpt>
      <trkpt lat="47.1248" lon="-1.60208">
        <ele>52</ele>
        <time>2021-05-30T15:35:43.000Z</time>
      </trkpt>
      <trkpt lat="47.12475" lon="-1.60181">
        <ele>52</ele>
        <time>2021-05-30T15:35:46.000Z</time>
      </trkpt>
      <trkpt lat="47.1247" lon="-1.60165">
        <ele>51</ele>
        <time>2021-05-30T15:35:48.000Z</time>
      </trkpt>
      <trkpt lat="47.1247" lon="-1.60145">
        <ele>54</ele>
        <time>2021-05-30T15:35:50.000Z</time>
      </trkpt>
      <trkpt lat="47.12471" lon="-1.60126">
        <ele>55</ele>
        <time>2021-05-30T15:35:52.000Z</time>
      </trkpt>
      <trkpt lat="47.1247" lon="-1.60089">
        <ele>56</ele>
        <time>2021-05-30T15:35:56.000Z</time>
      </trkpt>
      <trkpt lat="47.12469" lon="-1.6007">
        <ele>56</ele>
        <time>2021-05-30T15:35:58.000Z</time>
      </trkpt>
      <trkpt lat="47.12469" lon="-1.6005">
        <ele>55</ele>
        <time>2021-05-30T15:36:00.000Z</time>
      </trkpt>
      <trkpt lat="47.12468" lon="-1.60033">
        <ele>55</ele>
        <time>2021-05-30T15:36:02.000Z</time>
      </trkpt>
      <trkpt lat="47.12467" lon="-1.60013">
        <ele>55</ele>
        <time>2021-05-30T15:36:04.000Z</time>
      </trkpt>
      <trkpt lat="47.12466" lon="-1.59995">
        <ele>55</ele>
        <time>2021-05-30T15:36:06.000Z</time>
      </trkpt>
      <trkpt lat="47.12465" lon="-1.59976">
        <ele>56</ele>
        <time>2021-05-30T15:36:08.000Z</time>
      </trkpt>
      <trkpt lat="47.12464" lon="-1.5996">
        <ele>55</ele>
        <time>2021-05-30T15:36:10.000Z</time>
      </trkpt>
      <trkpt lat="47.12463" lon="-1.59935">
        <ele>56</ele>
        <time>2021-05-30T15:36:13.000Z</time>
      </trkpt>
      <trkpt lat="47.12462" lon="-1.59914">
        <ele>57</ele>
        <time>2021-05-30T15:36:15.000Z</time>
      </trkpt>
      <trkpt lat="47.12461" lon="-1.59897">
        <ele>58</ele>
        <time>2021-05-30T15:36:17.000Z</time>
      </trkpt>
      <trkpt lat="47.12459" lon="-1.59878">
        <ele>58</ele>
        <time>2021-05-30T15:36:19.000Z</time>
      </trkpt>
      <trkpt lat="47.12458" lon="-1.59859">
        <ele>57</ele>
        <time>2021-05-30T15:36:21.000Z</time>
      </trkpt>
      <trkpt lat="47.12458" lon="-1.5984">
        <ele>58</ele>
        <time>2021-05-30T15:36:23.000Z</time>
      </trkpt>
      <trkpt lat="47.12458" lon="-1.59819">
        <ele>57</ele>
        <time>2021-05-30T15:36:25.000Z</time>
      </trkpt>
      <trkpt lat="47.12458" lon="-1.598">
        <ele>57</ele>
        <time>2021-05-30T15:36:27.000Z</time>
      </trkpt>
      <trkpt lat="47.12458" lon="-1.59782">
        <ele>56</ele>
        <time>2021-05-30T15:36:29.000Z</time>
      </trkpt>
      <trkpt lat="47.12457" lon="-1.59764">
        <ele>56</ele>
        <time>2021-05-30T15:36:31.000Z</time>
      </trkpt>
      <trkpt lat="47.12456" lon="-1.59746">
        <ele>56</ele>
        <time>2021-05-30T15:36:33.000Z</time>
      </trkpt>
      <trkpt lat="47.12455" lon="-1.59728">
        <ele>56</ele>
        <time>2021-05-30T15:36:35.000Z</time>
      </trkpt>
      <trkpt lat="47.12451" lon="-1.5971">
        <ele>57</ele>
        <time>2021-05-30T15:36:37.000Z</time>
      </trkpt>
      <trkpt lat="47.12452" lon="-1.5969">
        <ele>56</ele>
        <time>2021-05-30T15:36:39.000Z</time>
      </trkpt>
      <trkpt lat="47.12451" lon="-1.59673">
        <ele>55</ele>
        <time>2021-05-30T15:36:41.000Z</time>
      </trkpt>
      <trkpt lat="47.12449" lon="-1.59655">
        <ele>56</ele>
        <time>2021-05-30T15:36:43.000Z</time>
      </trkpt>
      <trkpt lat="47.12449" lon="-1.59637">
        <ele>56</ele>
        <time>2021-05-30T15:36:45.000Z</time>
      </trkpt>
      <trkpt lat="47.12449" lon="-1.59619">
        <ele>56</ele>
        <time>2021-05-30T15:36:47.000Z</time>
      </trkpt>
      <trkpt lat="47.12449" lon="-1.59601">
        <ele>55</ele>
        <time>2021-05-30T15:36:49.000Z</time>
      </trkpt>
      <trkpt lat="47.12446" lon="-1.59583">
        <ele>55</ele>
        <time>2021-05-30T15:36:51.000Z</time>
      </trkpt>
      <trkpt lat="47.12444" lon="-1.59565">
        <ele>55</ele>
        <time>2021-05-30T15:36:53.000Z</time>
      </trkpt>
      <trkpt lat="47.12446" lon="-1.59537">
        <ele>54</ele>
        <time>2021-05-30T15:36:56.000Z</time>
      </trkpt>
      <trkpt lat="47.12443" lon="-1.59519">
        <ele>50</ele>
        <time>2021-05-30T15:36:58.000Z</time>
      </trkpt>
      <trkpt lat="47.12443" lon="-1.59501">
        <ele>51</ele>
        <time>2021-05-30T15:37:00.000Z</time>
      </trkpt>
      <trkpt lat="47.12443" lon="-1.59482">
        <ele>52</ele>
        <time>2021-05-30T15:37:02.000Z</time>
      </trkpt>
      <trkpt lat="47.12443" lon="-1.59463">
        <ele>52</ele>
        <time>2021-05-30T15:37:04.000Z</time>
      </trkpt>
      <trkpt lat="47.12441" lon="-1.59441">
        <ele>52</ele>
        <time>2021-05-30T15:37:06.000Z</time>
      </trkpt>
      <trkpt lat="47.12439" lon="-1.59421">
        <ele>52</ele>
        <time>2021-05-30T15:37:08.000Z</time>
      </trkpt>
      <trkpt lat="47.1244" lon="-1.59405">
        <ele>51</ele>
        <time>2021-05-30T15:37:10.000Z</time>
      </trkpt>
      <trkpt lat="47.12439" lon="-1.59387">
        <ele>51</ele>
        <time>2021-05-30T15:37:12.000Z</time>
      </trkpt>
      <trkpt lat="47.12437" lon="-1.59371">
        <ele>51</ele>
        <time>2021-05-30T15:37:14.000Z</time>
      </trkpt>
      <trkpt lat="47.12435" lon="-1.59342">
        <ele>50</ele>
        <time>2021-05-30T15:37:17.000Z</time>
      </trkpt>
      <trkpt lat="47.12436" lon="-1.59322">
        <ele>51</ele>
        <time>2021-05-30T15:37:19.000Z</time>
      </trkpt>
      <trkpt lat="47.12435" lon="-1.59304">
        <ele>51</ele>
        <time>2021-05-30T15:37:21.000Z</time>
      </trkpt>
      <trkpt lat="47.12428" lon="-1.59276">
        <ele>47</ele>
        <time>2021-05-30T15:37:24.000Z</time>
      </trkpt>
      <trkpt lat="47.12428" lon="-1.59259">
        <ele>48</ele>
        <time>2021-05-30T15:37:26.000Z</time>
      </trkpt>
      <trkpt lat="47.1243" lon="-1.5924">
        <ele>49</ele>
        <time>2021-05-30T15:37:28.000Z</time>
      </trkpt>
      <trkpt lat="47.12427" lon="-1.59222">
        <ele>49</ele>
        <time>2021-05-30T15:37:30.000Z</time>
      </trkpt>
      <trkpt lat="47.12424" lon="-1.59207">
        <ele>48</ele>
        <time>2021-05-30T15:37:32.000Z</time>
      </trkpt>
      <trkpt lat="47.12424" lon="-1.59186">
        <ele>48</ele>
        <time>2021-05-30T15:37:34.000Z</time>
      </trkpt>
      <trkpt lat="47.12426" lon="-1.59167">
        <ele>48</ele>
        <time>2021-05-30T15:37:36.000Z</time>
      </trkpt>
      <trkpt lat="47.12426" lon="-1.59148">
        <ele>48</ele>
        <time>2021-05-30T15:37:38.000Z</time>
      </trkpt>
      <trkpt lat="47.12426" lon="-1.5913">
        <ele>49</ele>
        <time>2021-05-30T15:37:40.000Z</time>
      </trkpt>
      <trkpt lat="47.12426" lon="-1.59111">
        <ele>49</ele>
        <time>2021-05-30T15:37:42.000Z</time>
      </trkpt>
      <trkpt lat="47.12423" lon="-1.59091">
        <ele>47</ele>
        <time>2021-05-30T15:37:44.000Z</time>
      </trkpt>
      <trkpt lat="47.12422" lon="-1.59075">
        <ele>49</ele>
        <time>2021-05-30T15:37:46.000Z</time>
      </trkpt>
      <trkpt lat="47.12422" lon="-1.5905">
        <ele>50</ele>
        <time>2021-05-30T15:37:49.000Z</time>
      </trkpt>
      <trkpt lat="47.12422" lon="-1.59034">
        <ele>51</ele>
        <time>2021-05-30T15:37:51.000Z</time>
      </trkpt>
      <trkpt lat="47.12421" lon="-1.59018">
        <ele>51</ele>
        <time>2021-05-30T15:37:53.000Z</time>
      </trkpt>
      <trkpt lat="47.12419" lon="-1.58993">
        <ele>51</ele>
        <time>2021-05-30T15:37:56.000Z</time>
      </trkpt>
      <trkpt lat="47.1242" lon="-1.58977">
        <ele>52</ele>
        <time>2021-05-30T15:37:58.000Z</time>
      </trkpt>
      <trkpt lat="47.12419" lon="-1.58961">
        <ele>53</ele>
        <time>2021-05-30T15:38:00.000Z</time>
      </trkpt>
      <trkpt lat="47.12418" lon="-1.58945">
        <ele>53</ele>
        <time>2021-05-30T15:38:02.000Z</time>
      </trkpt>
      <trkpt lat="47.12416" lon="-1.58929">
        <ele>54</ele>
        <time>2021-05-30T15:38:04.000Z</time>
      </trkpt>
      <trkpt lat="47.12415" lon="-1.58912">
        <ele>54</ele>
        <time>2021-05-30T15:38:06.000Z</time>
      </trkpt>
      <trkpt lat="47.12414" lon="-1.58896">
        <ele>55</ele>
        <time>2021-05-30T15:38:08.000Z</time>
      </trkpt>
      <trkpt lat="47.12411" lon="-1.58879">
        <ele>53</ele>
        <time>2021-05-30T15:38:10.000Z</time>
      </trkpt>
      <trkpt lat="47.12407" lon="-1.5886">
        <ele>53</ele>
        <time>2021-05-30T15:38:12.000Z</time>
      </trkpt>
      <trkpt lat="47.12406" lon="-1.58841">
        <ele>55</ele>
        <time>2021-05-30T15:38:15.000Z</time>
      </trkpt>
      <trkpt lat="47.12406" lon="-1.58824">
        <ele>55</ele>
        <time>2021-05-30T15:38:17.000Z</time>
      </trkpt>
      <trkpt lat="47.12405" lon="-1.58809">
        <ele>55</ele>
        <time>2021-05-30T15:38:19.000Z</time>
      </trkpt>
      <trkpt lat="47.12401" lon="-1.5879">
        <ele>57</ele>
        <time>2021-05-30T15:38:22.000Z</time>
      </trkpt>
      <trkpt lat="47.12398" lon="-1.58772">
        <ele>57</ele>
        <time>2021-05-30T15:38:24.000Z</time>
      </trkpt>
      <trkpt lat="47.12395" lon="-1.58756">
        <ele>57</ele>
        <time>2021-05-30T15:38:26.000Z</time>
      </trkpt>
      <trkpt lat="47.1239" lon="-1.58735">
        <ele>57</ele>
        <time>2021-05-30T15:38:29.000Z</time>
      </trkpt>
      <trkpt lat="47.12385" lon="-1.58718">
        <ele>56</ele>
        <time>2021-05-30T15:38:31.000Z</time>
      </trkpt>
      <trkpt lat="47.12378" lon="-1.58697">
        <ele>52</ele>
        <time>2021-05-30T15:38:34.000Z</time>
      </trkpt>
      <trkpt lat="47.12373" lon="-1.58683">
        <ele>53</ele>
        <time>2021-05-30T15:38:36.000Z</time>
      </trkpt>
      <trkpt lat="47.12372" lon="-1.58666">
        <ele>55</ele>
        <time>2021-05-30T15:38:38.000Z</time>
      </trkpt>
      <trkpt lat="47.12369" lon="-1.58645">
        <ele>56</ele>
        <time>2021-05-30T15:38:40.000Z</time>
      </trkpt>
      <trkpt lat="47.12366" lon="-1.58627">
        <ele>53</ele>
        <time>2021-05-30T15:38:42.000Z</time>
      </trkpt>
      <trkpt lat="47.12363" lon="-1.58613">
        <ele>51</ele>
        <time>2021-05-30T15:38:44.000Z</time>
      </trkpt>
      <trkpt lat="47.12355" lon="-1.58591">
        <ele>52</ele>
        <time>2021-05-30T15:38:46.000Z</time>
      </trkpt>
      <trkpt lat="47.12353" lon="-1.5857">
        <ele>52</ele>
        <time>2021-05-30T15:38:48.000Z</time>
      </trkpt>
      <trkpt lat="47.12348" lon="-1.58552">
        <ele>48</ele>
        <time>2021-05-30T15:38:50.000Z</time>
      </trkpt>
      <trkpt lat="47.12343" lon="-1.58534">
        <ele>49</ele>
        <time>2021-05-30T15:38:52.000Z</time>
      </trkpt>
      <trkpt lat="47.12339" lon="-1.58516">
        <ele>50</ele>
        <time>2021-05-30T15:38:54.000Z</time>
      </trkpt>
      <trkpt lat="47.12336" lon="-1.58496">
        <ele>51</ele>
        <time>2021-05-30T15:38:56.000Z</time>
      </trkpt>
      <trkpt lat="47.12332" lon="-1.58479">
        <ele>50</ele>
        <time>2021-05-30T15:38:58.000Z</time>
      </trkpt>
      <trkpt lat="47.12326" lon="-1.58464">
        <ele>51</ele>
        <time>2021-05-30T15:39:00.000Z</time>
      </trkpt>
      <trkpt lat="47.1232" lon="-1.58451">
        <ele>51</ele>
        <time>2021-05-30T15:39:02.000Z</time>
      </trkpt>
      <trkpt lat="47.12314" lon="-1.5844">
        <ele>53</ele>
        <time>2021-05-30T15:39:04.000Z</time>
      </trkpt>
      <trkpt lat="47.1231" lon="-1.58428">
        <ele>53</ele>
        <time>2021-05-30T15:39:06.000Z</time>
      </trkpt>
      <trkpt lat="47.123" lon="-1.58414">
        <ele>54</ele>
        <time>2021-05-30T15:39:08.000Z</time>
      </trkpt>
      <trkpt lat="47.12294" lon="-1.58403">
        <ele>55</ele>
        <time>2021-05-30T15:39:10.000Z</time>
      </trkpt>
      <trkpt lat="47.12294" lon="-1.58385">
        <ele>56</ele>
        <time>2021-05-30T15:39:12.000Z</time>
      </trkpt>
      <trkpt lat="47.12293" lon="-1.58366">
        <ele>56</ele>
        <time>2021-05-30T15:39:14.000Z</time>
      </trkpt>
      <trkpt lat="47.12288" lon="-1.58348">
        <ele>56</ele>
        <time>2021-05-30T15:39:16.000Z</time>
      </trkpt>
      <trkpt lat="47.12278" lon="-1.58334">
        <ele>56</ele>
        <time>2021-05-30T15:39:18.000Z</time>
      </trkpt>
      <trkpt lat="47.12267" lon="-1.58322">
        <ele>57</ele>
        <time>2021-05-30T15:39:20.000Z</time>
      </trkpt>
      <trkpt lat="47.12255" lon="-1.58312">
        <ele>56</ele>
        <time>2021-05-30T15:39:22.000Z</time>
      </trkpt>
      <trkpt lat="47.12243" lon="-1.583">
        <ele>56</ele>
        <time>2021-05-30T15:39:24.000Z</time>
      </trkpt>
      <trkpt lat="47.12226" lon="-1.58284">
        <ele>55</ele>
        <time>2021-05-30T15:39:27.000Z</time>
      </trkpt>
      <trkpt lat="47.12215" lon="-1.58273">
        <ele>54</ele>
        <time>2021-05-30T15:39:29.000Z</time>
      </trkpt>
      <trkpt lat="47.12204" lon="-1.58262">
        <ele>53</ele>
        <time>2021-05-30T15:39:31.000Z</time>
      </trkpt>
      <trkpt lat="47.12193" lon="-1.5825">
        <ele>53</ele>
        <time>2021-05-30T15:39:33.000Z</time>
      </trkpt>
      <trkpt lat="47.12181" lon="-1.58239">
        <ele>53</ele>
        <time>2021-05-30T15:39:35.000Z</time>
      </trkpt>
      <trkpt lat="47.1217" lon="-1.58228">
        <ele>53</ele>
        <time>2021-05-30T15:39:37.000Z</time>
      </trkpt>
      <trkpt lat="47.12158" lon="-1.58217">
        <ele>54</ele>
        <time>2021-05-30T15:39:39.000Z</time>
      </trkpt>
      <trkpt lat="47.12146" lon="-1.58207">
        <ele>54</ele>
        <time>2021-05-30T15:39:41.000Z</time>
      </trkpt>
      <trkpt lat="47.12135" lon="-1.58196">
        <ele>54</ele>
        <time>2021-05-30T15:39:43.000Z</time>
      </trkpt>
      <trkpt lat="47.12125" lon="-1.58187">
        <ele>55</ele>
        <time>2021-05-30T15:39:45.000Z</time>
      </trkpt>
      <trkpt lat="47.12115" lon="-1.58179">
        <ele>55</ele>
        <time>2021-05-30T15:39:47.000Z</time>
      </trkpt>
      <trkpt lat="47.12103" lon="-1.58169">
        <ele>54</ele>
        <time>2021-05-30T15:39:50.000Z</time>
      </trkpt>
      <trkpt lat="47.12093" lon="-1.58159">
        <ele>54</ele>
        <time>2021-05-30T15:39:52.000Z</time>
      </trkpt>
      <trkpt lat="47.1208" lon="-1.5815">
        <ele>55</ele>
        <time>2021-05-30T15:39:54.000Z</time>
      </trkpt>
      <trkpt lat="47.12067" lon="-1.58147">
        <ele>56</ele>
        <time>2021-05-30T15:39:56.000Z</time>
      </trkpt>
      <trkpt lat="47.12045" lon="-1.58131">
        <ele>58</ele>
        <time>2021-05-30T15:40:00.000Z</time>
      </trkpt>
      <trkpt lat="47.12034" lon="-1.58123">
        <ele>58</ele>
        <time>2021-05-30T15:40:02.000Z</time>
      </trkpt>
      <trkpt lat="47.12022" lon="-1.58118">
        <ele>57</ele>
        <time>2021-05-30T15:40:04.000Z</time>
      </trkpt>
      <trkpt lat="47.12009" lon="-1.58113">
        <ele>56</ele>
        <time>2021-05-30T15:40:06.000Z</time>
      </trkpt>
      <trkpt lat="47.11999" lon="-1.58108">
        <ele>57</ele>
        <time>2021-05-30T15:40:08.000Z</time>
      </trkpt>
      <trkpt lat="47.11987" lon="-1.58103">
        <ele>56</ele>
        <time>2021-05-30T15:40:10.000Z</time>
      </trkpt>
      <trkpt lat="47.11968" lon="-1.58097">
        <ele>56</ele>
        <time>2021-05-30T15:40:13.000Z</time>
      </trkpt>
      <trkpt lat="47.11955" lon="-1.58093">
        <ele>56</ele>
        <time>2021-05-30T15:40:15.000Z</time>
      </trkpt>
      <trkpt lat="47.11943" lon="-1.5809">
        <ele>56</ele>
        <time>2021-05-30T15:40:17.000Z</time>
      </trkpt>
      <trkpt lat="47.1193" lon="-1.58087">
        <ele>55</ele>
        <time>2021-05-30T15:40:19.000Z</time>
      </trkpt>
      <trkpt lat="47.11917" lon="-1.58084">
        <ele>55</ele>
        <time>2021-05-30T15:40:21.000Z</time>
      </trkpt>
      <trkpt lat="47.11904" lon="-1.58083">
        <ele>56</ele>
        <time>2021-05-30T15:40:23.000Z</time>
      </trkpt>
      <trkpt lat="47.1189" lon="-1.5808">
        <ele>55</ele>
        <time>2021-05-30T15:40:25.000Z</time>
      </trkpt>
      <trkpt lat="47.11876" lon="-1.58081">
        <ele>54</ele>
        <time>2021-05-30T15:40:27.000Z</time>
      </trkpt>
      <trkpt lat="47.11862" lon="-1.58077">
        <ele>54</ele>
        <time>2021-05-30T15:40:29.000Z</time>
      </trkpt>
      <trkpt lat="47.11849" lon="-1.58071">
        <ele>55</ele>
        <time>2021-05-30T15:40:31.000Z</time>
      </trkpt>
      <trkpt lat="47.11835" lon="-1.58066">
        <ele>55</ele>
        <time>2021-05-30T15:40:33.000Z</time>
      </trkpt>
      <trkpt lat="47.11821" lon="-1.58066">
        <ele>54</ele>
        <time>2021-05-30T15:40:35.000Z</time>
      </trkpt>
      <trkpt lat="47.11806" lon="-1.58061">
        <ele>55</ele>
        <time>2021-05-30T15:40:37.000Z</time>
      </trkpt>
      <trkpt lat="47.11791" lon="-1.58056">
        <ele>55</ele>
        <time>2021-05-30T15:40:39.000Z</time>
      </trkpt>
      <trkpt lat="47.11776" lon="-1.58052">
        <ele>55</ele>
        <time>2021-05-30T15:40:41.000Z</time>
      </trkpt>
      <trkpt lat="47.11763" lon="-1.58051">
        <ele>55</ele>
        <time>2021-05-30T15:40:43.000Z</time>
      </trkpt>
      <trkpt lat="47.1175" lon="-1.58046">
        <ele>54</ele>
        <time>2021-05-30T15:40:45.000Z</time>
      </trkpt>
      <trkpt lat="47.11736" lon="-1.58043">
        <ele>55</ele>
        <time>2021-05-30T15:40:47.000Z</time>
      </trkpt>
      <trkpt lat="47.1171" lon="-1.58037">
        <ele>54</ele>
        <time>2021-05-30T15:40:50.000Z</time>
      </trkpt>
      <trkpt lat="47.11695" lon="-1.58035">
        <ele>54</ele>
        <time>2021-05-30T15:40:52.000Z</time>
      </trkpt>
      <trkpt lat="47.11683" lon="-1.58037">
        <ele>54</ele>
        <time>2021-05-30T15:40:54.000Z</time>
      </trkpt>
      <trkpt lat="47.11669" lon="-1.58036">
        <ele>54</ele>
        <time>2021-05-30T15:40:56.000Z</time>
      </trkpt>
      <trkpt lat="47.11654" lon="-1.58039">
        <ele>54</ele>
        <time>2021-05-30T15:40:58.000Z</time>
      </trkpt>
      <trkpt lat="47.1164" lon="-1.58048">
        <ele>53</ele>
        <time>2021-05-30T15:41:00.000Z</time>
      </trkpt>
      <trkpt lat="47.11627" lon="-1.58048">
        <ele>52</ele>
        <time>2021-05-30T15:41:02.000Z</time>
      </trkpt>
      <trkpt lat="47.11613" lon="-1.5804">
        <ele>53</ele>
        <time>2021-05-30T15:41:04.000Z</time>
      </trkpt>
      <trkpt lat="47.116" lon="-1.58036">
        <ele>52</ele>
        <time>2021-05-30T15:41:06.000Z</time>
      </trkpt>
      <trkpt lat="47.11578" lon="-1.58039">
        <ele>52</ele>
        <time>2021-05-30T15:41:09.000Z</time>
      </trkpt>
      <trkpt lat="47.11564" lon="-1.58037">
        <ele>53</ele>
        <time>2021-05-30T15:41:11.000Z</time>
      </trkpt>
      <trkpt lat="47.1155" lon="-1.58036">
        <ele>53</ele>
        <time>2021-05-30T15:41:13.000Z</time>
      </trkpt>
      <trkpt lat="47.11539" lon="-1.58039">
        <ele>52</ele>
        <time>2021-05-30T15:41:15.000Z</time>
      </trkpt>
      <trkpt lat="47.11522" lon="-1.58039">
        <ele>53</ele>
        <time>2021-05-30T15:41:18.000Z</time>
      </trkpt>
      <trkpt lat="47.11508" lon="-1.58035">
        <ele>55</ele>
        <time>2021-05-30T15:41:20.000Z</time>
      </trkpt>
      <trkpt lat="47.1149" lon="-1.58035">
        <ele>56</ele>
        <time>2021-05-30T15:41:22.000Z</time>
      </trkpt>
      <trkpt lat="47.11473" lon="-1.58037">
        <ele>57</ele>
        <time>2021-05-30T15:41:24.000Z</time>
      </trkpt>
      <trkpt lat="47.11448" lon="-1.58043">
        <ele>56</ele>
        <time>2021-05-30T15:41:27.000Z</time>
      </trkpt>
      <trkpt lat="47.11427" lon="-1.58052">
        <ele>56</ele>
        <time>2021-05-30T15:41:30.000Z</time>
      </trkpt>
      <trkpt lat="47.11413" lon="-1.5806">
        <ele>55</ele>
        <time>2021-05-30T15:41:32.000Z</time>
      </trkpt>
      <trkpt lat="47.11393" lon="-1.58073">
        <ele>54</ele>
        <time>2021-05-30T15:41:35.000Z</time>
      </trkpt>
      <trkpt lat="47.11373" lon="-1.58085">
        <ele>52</ele>
        <time>2021-05-30T15:41:38.000Z</time>
      </trkpt>
      <trkpt lat="47.11361" lon="-1.58095">
        <ele>52</ele>
        <time>2021-05-30T15:41:40.000Z</time>
      </trkpt>
      <trkpt lat="47.11348" lon="-1.58101">
        <ele>51</ele>
        <time>2021-05-30T15:41:42.000Z</time>
      </trkpt>
      <trkpt lat="47.11335" lon="-1.58109">
        <ele>51</ele>
        <time>2021-05-30T15:41:44.000Z</time>
      </trkpt>
      <trkpt lat="47.11321" lon="-1.58118">
        <ele>52</ele>
        <time>2021-05-30T15:41:46.000Z</time>
      </trkpt>
      <trkpt lat="47.11307" lon="-1.58128">
        <ele>50</ele>
        <time>2021-05-30T15:41:48.000Z</time>
      </trkpt>
      <trkpt lat="47.11292" lon="-1.58136">
        <ele>50</ele>
        <time>2021-05-30T15:41:50.000Z</time>
      </trkpt>
      <trkpt lat="47.11279" lon="-1.58146">
        <ele>49</ele>
        <time>2021-05-30T15:41:52.000Z</time>
      </trkpt>
      <trkpt lat="47.11261" lon="-1.58163">
        <ele>47</ele>
        <time>2021-05-30T15:41:55.000Z</time>
      </trkpt>
      <trkpt lat="47.1125" lon="-1.58176">
        <ele>47</ele>
        <time>2021-05-30T15:41:57.000Z</time>
      </trkpt>
      <trkpt lat="47.11237" lon="-1.58189">
        <ele>48</ele>
        <time>2021-05-30T15:41:59.000Z</time>
      </trkpt>
      <trkpt lat="47.11224" lon="-1.58202">
        <ele>48</ele>
        <time>2021-05-30T15:42:01.000Z</time>
      </trkpt>
      <trkpt lat="47.11214" lon="-1.58215">
        <ele>49</ele>
        <time>2021-05-30T15:42:03.000Z</time>
      </trkpt>
      <trkpt lat="47.11199" lon="-1.58236">
        <ele>47</ele>
        <time>2021-05-30T15:42:06.000Z</time>
      </trkpt>
      <trkpt lat="47.11183" lon="-1.58256">
        <ele>48</ele>
        <time>2021-05-30T15:42:09.000Z</time>
      </trkpt>
      <trkpt lat="47.11173" lon="-1.58271">
        <ele>47</ele>
        <time>2021-05-30T15:42:11.000Z</time>
      </trkpt>
      <trkpt lat="47.11164" lon="-1.58285">
        <ele>48</ele>
        <time>2021-05-30T15:42:13.000Z</time>
      </trkpt>
      <trkpt lat="47.11155" lon="-1.58299">
        <ele>48</ele>
        <time>2021-05-30T15:42:15.000Z</time>
      </trkpt>
      <trkpt lat="47.11145" lon="-1.58312">
        <ele>47</ele>
        <time>2021-05-30T15:42:17.000Z</time>
      </trkpt>
      <trkpt lat="47.11137" lon="-1.58328">
        <ele>46</ele>
        <time>2021-05-30T15:42:19.000Z</time>
      </trkpt>
      <trkpt lat="47.11128" lon="-1.58343">
        <ele>46</ele>
        <time>2021-05-30T15:42:21.000Z</time>
      </trkpt>
      <trkpt lat="47.11118" lon="-1.58357">
        <ele>47</ele>
        <time>2021-05-30T15:42:23.000Z</time>
      </trkpt>
      <trkpt lat="47.11108" lon="-1.58372">
        <ele>47</ele>
        <time>2021-05-30T15:42:25.000Z</time>
      </trkpt>
      <trkpt lat="47.11099" lon="-1.58387">
        <ele>47</ele>
        <time>2021-05-30T15:42:27.000Z</time>
      </trkpt>
      <trkpt lat="47.1109" lon="-1.58402">
        <ele>47</ele>
        <time>2021-05-30T15:42:29.000Z</time>
      </trkpt>
      <trkpt lat="47.11079" lon="-1.58416">
        <ele>48</ele>
        <time>2021-05-30T15:42:31.000Z</time>
      </trkpt>
      <trkpt lat="47.1107" lon="-1.58431">
        <ele>49</ele>
        <time>2021-05-30T15:42:33.000Z</time>
      </trkpt>
      <trkpt lat="47.11054" lon="-1.58454">
        <ele>50</ele>
        <time>2021-05-30T15:42:36.000Z</time>
      </trkpt>
      <trkpt lat="47.11045" lon="-1.58468">
        <ele>50</ele>
        <time>2021-05-30T15:42:38.000Z</time>
      </trkpt>
      <trkpt lat="47.11027" lon="-1.58496">
        <ele>50</ele>
        <time>2021-05-30T15:42:42.000Z</time>
      </trkpt>
      <trkpt lat="47.11018" lon="-1.58512">
        <ele>50</ele>
        <time>2021-05-30T15:42:44.000Z</time>
      </trkpt>
      <trkpt lat="47.11008" lon="-1.58525">
        <ele>51</ele>
        <time>2021-05-30T15:42:46.000Z</time>
      </trkpt>
      <trkpt lat="47.10998" lon="-1.5854">
        <ele>51</ele>
        <time>2021-05-30T15:42:48.000Z</time>
      </trkpt>
      <trkpt lat="47.10988" lon="-1.58554">
        <ele>52</ele>
        <time>2021-05-30T15:42:50.000Z</time>
      </trkpt>
      <trkpt lat="47.1098" lon="-1.5857">
        <ele>48</ele>
        <time>2021-05-30T15:42:52.000Z</time>
      </trkpt>
      <trkpt lat="47.10971" lon="-1.58584">
        <ele>50</ele>
        <time>2021-05-30T15:42:54.000Z</time>
      </trkpt>
      <trkpt lat="47.1096" lon="-1.586">
        <ele>52</ele>
        <time>2021-05-30T15:42:56.000Z</time>
      </trkpt>
      <trkpt lat="47.10949" lon="-1.58614">
        <ele>52</ele>
        <time>2021-05-30T15:42:58.000Z</time>
      </trkpt>
      <trkpt lat="47.10936" lon="-1.58632">
        <ele>52</ele>
        <time>2021-05-30T15:43:01.000Z</time>
      </trkpt>
      <trkpt lat="47.10926" lon="-1.58648">
        <ele>56</ele>
        <time>2021-05-30T15:43:03.000Z</time>
      </trkpt>
      <trkpt lat="47.10916" lon="-1.58663">
        <ele>57</ele>
        <time>2021-05-30T15:43:05.000Z</time>
      </trkpt>
      <trkpt lat="47.10907" lon="-1.58677">
        <ele>56</ele>
        <time>2021-05-30T15:43:07.000Z</time>
      </trkpt>
      <trkpt lat="47.109" lon="-1.58693">
        <ele>58</ele>
        <time>2021-05-30T15:43:09.000Z</time>
      </trkpt>
      <trkpt lat="47.1089" lon="-1.58709">
        <ele>59</ele>
        <time>2021-05-30T15:43:11.000Z</time>
      </trkpt>
      <trkpt lat="47.1088" lon="-1.58722">
        <ele>58</ele>
        <time>2021-05-30T15:43:13.000Z</time>
      </trkpt>
      <trkpt lat="47.10869" lon="-1.58735">
        <ele>58</ele>
        <time>2021-05-30T15:43:15.000Z</time>
      </trkpt>
      <trkpt lat="47.1086" lon="-1.58749">
        <ele>58</ele>
        <time>2021-05-30T15:43:17.000Z</time>
      </trkpt>
      <trkpt lat="47.1085" lon="-1.58763">
        <ele>58</ele>
        <time>2021-05-30T15:43:19.000Z</time>
      </trkpt>
      <trkpt lat="47.1084" lon="-1.58779">
        <ele>57</ele>
        <time>2021-05-30T15:43:21.000Z</time>
      </trkpt>
      <trkpt lat="47.1083" lon="-1.58794">
        <ele>56</ele>
        <time>2021-05-30T15:43:23.000Z</time>
      </trkpt>
      <trkpt lat="47.1082" lon="-1.58806">
        <ele>56</ele>
        <time>2021-05-30T15:43:25.000Z</time>
      </trkpt>
      <trkpt lat="47.1081" lon="-1.58821">
        <ele>57</ele>
        <time>2021-05-30T15:43:27.000Z</time>
      </trkpt>
      <trkpt lat="47.10801" lon="-1.58835">
        <ele>58</ele>
        <time>2021-05-30T15:43:29.000Z</time>
      </trkpt>
      <trkpt lat="47.10793" lon="-1.58849">
        <ele>57</ele>
        <time>2021-05-30T15:43:31.000Z</time>
      </trkpt>
      <trkpt lat="47.10783" lon="-1.58864">
        <ele>58</ele>
        <time>2021-05-30T15:43:33.000Z</time>
      </trkpt>
      <trkpt lat="47.10777" lon="-1.5888">
        <ele>58</ele>
        <time>2021-05-30T15:43:35.000Z</time>
      </trkpt>
      <trkpt lat="47.10767" lon="-1.58896">
        <ele>59</ele>
        <time>2021-05-30T15:43:37.000Z</time>
      </trkpt>
      <trkpt lat="47.10751" lon="-1.58917">
        <ele>59</ele>
        <time>2021-05-30T15:43:40.000Z</time>
      </trkpt>
      <trkpt lat="47.10743" lon="-1.58933">
        <ele>59</ele>
        <time>2021-05-30T15:43:42.000Z</time>
      </trkpt>
      <trkpt lat="47.10738" lon="-1.5895">
        <ele>60</ele>
        <time>2021-05-30T15:43:44.000Z</time>
      </trkpt>
      <trkpt lat="47.10732" lon="-1.58968">
        <ele>59</ele>
        <time>2021-05-30T15:43:46.000Z</time>
      </trkpt>
      <trkpt lat="47.10723" lon="-1.58986">
        <ele>59</ele>
        <time>2021-05-30T15:43:48.000Z</time>
      </trkpt>
      <trkpt lat="47.10716" lon="-1.59003">
        <ele>59</ele>
        <time>2021-05-30T15:43:50.000Z</time>
      </trkpt>
      <trkpt lat="47.10709" lon="-1.59021">
        <ele>60</ele>
        <time>2021-05-30T15:43:52.000Z</time>
      </trkpt>
      <trkpt lat="47.10702" lon="-1.59039">
        <ele>60</ele>
        <time>2021-05-30T15:43:54.000Z</time>
      </trkpt>
      <trkpt lat="47.10695" lon="-1.59057">
        <ele>59</ele>
        <time>2021-05-30T15:43:56.000Z</time>
      </trkpt>
      <trkpt lat="47.10688" lon="-1.59076">
        <ele>59</ele>
        <time>2021-05-30T15:43:58.000Z</time>
      </trkpt>
      <trkpt lat="47.10681" lon="-1.59097">
        <ele>59</ele>
        <time>2021-05-30T15:44:00.000Z</time>
      </trkpt>
      <trkpt lat="47.10674" lon="-1.59116">
        <ele>59</ele>
        <time>2021-05-30T15:44:02.000Z</time>
      </trkpt>
      <trkpt lat="47.10667" lon="-1.59135">
        <ele>58</ele>
        <time>2021-05-30T15:44:04.000Z</time>
      </trkpt>
      <trkpt lat="47.1066" lon="-1.59155">
        <ele>57</ele>
        <time>2021-05-30T15:44:06.000Z</time>
      </trkpt>
      <trkpt lat="47.10652" lon="-1.59174">
        <ele>56</ele>
        <time>2021-05-30T15:44:08.000Z</time>
      </trkpt>
      <trkpt lat="47.10644" lon="-1.59193">
        <ele>56</ele>
        <time>2021-05-30T15:44:10.000Z</time>
      </trkpt>
      <trkpt lat="47.10638" lon="-1.59203">
        <ele>57</ele>
        <time>2021-05-30T15:44:11.000Z</time>
      </trkpt>
      <trkpt lat="47.10628" lon="-1.59221">
        <ele>56</ele>
        <time>2021-05-30T15:44:13.000Z</time>
      </trkpt>
      <trkpt lat="47.10619" lon="-1.5924">
        <ele>56</ele>
        <time>2021-05-30T15:44:15.000Z</time>
      </trkpt>
      <trkpt lat="47.1061" lon="-1.59259">
        <ele>55</ele>
        <time>2021-05-30T15:44:17.000Z</time>
      </trkpt>
      <trkpt lat="47.106" lon="-1.59277">
        <ele>55</ele>
        <time>2021-05-30T15:44:19.000Z</time>
      </trkpt>
      <trkpt lat="47.10588" lon="-1.59295">
        <ele>55</ele>
        <time>2021-05-30T15:44:21.000Z</time>
      </trkpt>
      <trkpt lat="47.10576" lon="-1.59313">
        <ele>55</ele>
        <time>2021-05-30T15:44:23.000Z</time>
      </trkpt>
      <trkpt lat="47.10567" lon="-1.59335">
        <ele>51</ele>
        <time>2021-05-30T15:44:25.000Z</time>
      </trkpt>
      <trkpt lat="47.1056" lon="-1.59346">
        <ele>50</ele>
        <time>2021-05-30T15:44:26.000Z</time>
      </trkpt>
      <trkpt lat="47.10554" lon="-1.59356">
        <ele>50</ele>
        <time>2021-05-30T15:44:27.000Z</time>
      </trkpt>
      <trkpt lat="47.10542" lon="-1.59373">
        <ele>52</ele>
        <time>2021-05-30T15:44:29.000Z</time>
      </trkpt>
      <trkpt lat="47.10531" lon="-1.59391">
        <ele>52</ele>
        <time>2021-05-30T15:44:31.000Z</time>
      </trkpt>
      <trkpt lat="47.10519" lon="-1.5941">
        <ele>52</ele>
        <time>2021-05-30T15:44:33.000Z</time>
      </trkpt>
      <trkpt lat="47.10508" lon="-1.59428">
        <ele>52</ele>
        <time>2021-05-30T15:44:35.000Z</time>
      </trkpt>
      <trkpt lat="47.10497" lon="-1.59446">
        <ele>52</ele>
        <time>2021-05-30T15:44:37.000Z</time>
      </trkpt>
      <trkpt lat="47.10486" lon="-1.59465">
        <ele>52</ele>
        <time>2021-05-30T15:44:39.000Z</time>
      </trkpt>
      <trkpt lat="47.10476" lon="-1.59483">
        <ele>52</ele>
        <time>2021-05-30T15:44:41.000Z</time>
      </trkpt>
      <trkpt lat="47.10465" lon="-1.59501">
        <ele>53</ele>
        <time>2021-05-30T15:44:43.000Z</time>
      </trkpt>
      <trkpt lat="47.10454" lon="-1.59519">
        <ele>52</ele>
        <time>2021-05-30T15:44:45.000Z</time>
      </trkpt>
      <trkpt lat="47.10444" lon="-1.59536">
        <ele>52</ele>
        <time>2021-05-30T15:44:47.000Z</time>
      </trkpt>
      <trkpt lat="47.10435" lon="-1.59555">
        <ele>52</ele>
        <time>2021-05-30T15:44:49.000Z</time>
      </trkpt>
      <trkpt lat="47.10425" lon="-1.59574">
        <ele>50</ele>
        <time>2021-05-30T15:44:51.000Z</time>
      </trkpt>
      <trkpt lat="47.10408" lon="-1.59602">
        <ele>49</ele>
        <time>2021-05-30T15:44:54.000Z</time>
      </trkpt>
      <trkpt lat="47.10395" lon="-1.5962">
        <ele>50</ele>
        <time>2021-05-30T15:44:56.000Z</time>
      </trkpt>
      <trkpt lat="47.10382" lon="-1.59638">
        <ele>49</ele>
        <time>2021-05-30T15:44:58.000Z</time>
      </trkpt>
      <trkpt lat="47.10376" lon="-1.59648">
        <ele>49</ele>
        <time>2021-05-30T15:44:59.000Z</time>
      </trkpt>
      <trkpt lat="47.10366" lon="-1.59668">
        <ele>50</ele>
        <time>2021-05-30T15:45:01.000Z</time>
      </trkpt>
      <trkpt lat="47.10355" lon="-1.59687">
        <ele>50</ele>
        <time>2021-05-30T15:45:03.000Z</time>
      </trkpt>
      <trkpt lat="47.10344" lon="-1.59706">
        <ele>49</ele>
        <time>2021-05-30T15:45:05.000Z</time>
      </trkpt>
      <trkpt lat="47.10332" lon="-1.59723">
        <ele>50</ele>
        <time>2021-05-30T15:45:07.000Z</time>
      </trkpt>
      <trkpt lat="47.1032" lon="-1.59742">
        <ele>48</ele>
        <time>2021-05-30T15:45:09.000Z</time>
      </trkpt>
      <trkpt lat="47.10309" lon="-1.59761">
        <ele>49</ele>
        <time>2021-05-30T15:45:11.000Z</time>
      </trkpt>
      <trkpt lat="47.10298" lon="-1.59779">
        <ele>49</ele>
        <time>2021-05-30T15:45:13.000Z</time>
      </trkpt>
      <trkpt lat="47.10287" lon="-1.59798">
        <ele>49</ele>
        <time>2021-05-30T15:45:15.000Z</time>
      </trkpt>
      <trkpt lat="47.10276" lon="-1.59816">
        <ele>49</ele>
        <time>2021-05-30T15:45:17.000Z</time>
      </trkpt>
      <trkpt lat="47.10265" lon="-1.59835">
        <ele>48</ele>
        <time>2021-05-30T15:45:19.000Z</time>
      </trkpt>
      <trkpt lat="47.10254" lon="-1.59852">
        <ele>47</ele>
        <time>2021-05-30T15:45:21.000Z</time>
      </trkpt>
      <trkpt lat="47.10243" lon="-1.5987">
        <ele>47</ele>
        <time>2021-05-30T15:45:23.000Z</time>
      </trkpt>
      <trkpt lat="47.10229" lon="-1.59898">
        <ele>48</ele>
        <time>2021-05-30T15:45:26.000Z</time>
      </trkpt>
      <trkpt lat="47.10218" lon="-1.59917">
        <ele>48</ele>
        <time>2021-05-30T15:45:28.000Z</time>
      </trkpt>
      <trkpt lat="47.10208" lon="-1.59935">
        <ele>47</ele>
        <time>2021-05-30T15:45:30.000Z</time>
      </trkpt>
      <trkpt lat="47.10198" lon="-1.59953">
        <ele>47</ele>
        <time>2021-05-30T15:45:32.000Z</time>
      </trkpt>
      <trkpt lat="47.10188" lon="-1.59972">
        <ele>48</ele>
        <time>2021-05-30T15:45:34.000Z</time>
      </trkpt>
      <trkpt lat="47.10176" lon="-1.59987">
        <ele>47</ele>
        <time>2021-05-30T15:45:36.000Z</time>
      </trkpt>
      <trkpt lat="47.10166" lon="-1.60005">
        <ele>47</ele>
        <time>2021-05-30T15:45:38.000Z</time>
      </trkpt>
      <trkpt lat="47.10154" lon="-1.60025">
        <ele>48</ele>
        <time>2021-05-30T15:45:40.000Z</time>
      </trkpt>
      <trkpt lat="47.10143" lon="-1.60043">
        <ele>48</ele>
        <time>2021-05-30T15:45:42.000Z</time>
      </trkpt>
      <trkpt lat="47.10133" lon="-1.60059">
        <ele>45</ele>
        <time>2021-05-30T15:45:44.000Z</time>
      </trkpt>
      <trkpt lat="47.10125" lon="-1.60072">
        <ele>45</ele>
        <time>2021-05-30T15:45:46.000Z</time>
      </trkpt>
      <trkpt lat="47.10114" lon="-1.60094">
        <ele>48</ele>
        <time>2021-05-30T15:45:48.000Z</time>
      </trkpt>
      <trkpt lat="47.10105" lon="-1.60115">
        <ele>47</ele>
        <time>2021-05-30T15:45:50.000Z</time>
      </trkpt>
      <trkpt lat="47.10102" lon="-1.60137">
        <ele>48</ele>
        <time>2021-05-30T15:45:52.000Z</time>
      </trkpt>
      <trkpt lat="47.10096" lon="-1.60158">
        <ele>48</ele>
        <time>2021-05-30T15:45:54.000Z</time>
      </trkpt>
      <trkpt lat="47.10087" lon="-1.60177">
        <ele>49</ele>
        <time>2021-05-30T15:45:56.000Z</time>
      </trkpt>
      <trkpt lat="47.10083" lon="-1.602">
        <ele>49</ele>
        <time>2021-05-30T15:45:58.000Z</time>
      </trkpt>
      <trkpt lat="47.10081" lon="-1.60223">
        <ele>49</ele>
        <time>2021-05-30T15:46:00.000Z</time>
      </trkpt>
      <trkpt lat="47.10079" lon="-1.60246">
        <ele>49</ele>
        <time>2021-05-30T15:46:02.000Z</time>
      </trkpt>
      <trkpt lat="47.10076" lon="-1.6028">
        <ele>49</ele>
        <time>2021-05-30T15:46:05.000Z</time>
      </trkpt>
      <trkpt lat="47.10073" lon="-1.60303">
        <ele>50</ele>
        <time>2021-05-30T15:46:07.000Z</time>
      </trkpt>
      <trkpt lat="47.10071" lon="-1.60326">
        <ele>50</ele>
        <time>2021-05-30T15:46:09.000Z</time>
      </trkpt>
      <trkpt lat="47.10068" lon="-1.60349">
        <ele>51</ele>
        <time>2021-05-30T15:46:11.000Z</time>
      </trkpt>
      <trkpt lat="47.10067" lon="-1.60372">
        <ele>52</ele>
        <time>2021-05-30T15:46:13.000Z</time>
      </trkpt>
      <trkpt lat="47.10064" lon="-1.60395">
        <ele>51</ele>
        <time>2021-05-30T15:46:15.000Z</time>
      </trkpt>
      <trkpt lat="47.10062" lon="-1.60418">
        <ele>51</ele>
        <time>2021-05-30T15:46:17.000Z</time>
      </trkpt>
      <trkpt lat="47.10058" lon="-1.60441">
        <ele>52</ele>
        <time>2021-05-30T15:46:19.000Z</time>
      </trkpt>
      <trkpt lat="47.10055" lon="-1.60462">
        <ele>52</ele>
        <time>2021-05-30T15:46:21.000Z</time>
      </trkpt>
      <trkpt lat="47.10051" lon="-1.60486">
        <ele>52</ele>
        <time>2021-05-30T15:46:23.000Z</time>
      </trkpt>
      <trkpt lat="47.10049" lon="-1.60509">
        <ele>51</ele>
        <time>2021-05-30T15:46:25.000Z</time>
      </trkpt>
      <trkpt lat="47.10042" lon="-1.60527">
        <ele>50</ele>
        <time>2021-05-30T15:46:27.000Z</time>
      </trkpt>
      <trkpt lat="47.10035" lon="-1.60546">
        <ele>51</ele>
        <time>2021-05-30T15:46:29.000Z</time>
      </trkpt>
      <trkpt lat="47.10027" lon="-1.60575">
        <ele>49</ele>
        <time>2021-05-30T15:46:32.000Z</time>
      </trkpt>
      <trkpt lat="47.10022" lon="-1.60597">
        <ele>48</ele>
        <time>2021-05-30T15:46:34.000Z</time>
      </trkpt>
      <trkpt lat="47.10014" lon="-1.60618">
        <ele>50</ele>
        <time>2021-05-30T15:46:36.000Z</time>
      </trkpt>
      <trkpt lat="47.10007" lon="-1.6064">
        <ele>51</ele>
        <time>2021-05-30T15:46:38.000Z</time>
      </trkpt>
      <trkpt lat="47.10001" lon="-1.60661">
        <ele>52</ele>
        <time>2021-05-30T15:46:40.000Z</time>
      </trkpt>
      <trkpt lat="47.09997" lon="-1.60682">
        <ele>49</ele>
        <time>2021-05-30T15:46:42.000Z</time>
      </trkpt>
      <trkpt lat="47.09989" lon="-1.60704">
        <ele>50</ele>
        <time>2021-05-30T15:46:44.000Z</time>
      </trkpt>
      <trkpt lat="47.09981" lon="-1.60726">
        <ele>50</ele>
        <time>2021-05-30T15:46:46.000Z</time>
      </trkpt>
      <trkpt lat="47.09975" lon="-1.60749">
        <ele>49</ele>
        <time>2021-05-30T15:46:48.000Z</time>
      </trkpt>
      <trkpt lat="47.09968" lon="-1.60773">
        <ele>49</ele>
        <time>2021-05-30T15:46:50.000Z</time>
      </trkpt>
      <trkpt lat="47.09961" lon="-1.60791">
        <ele>50</ele>
        <time>2021-05-30T15:46:52.000Z</time>
      </trkpt>
      <trkpt lat="47.09955" lon="-1.6081">
        <ele>50</ele>
        <time>2021-05-30T15:46:54.000Z</time>
      </trkpt>
      <trkpt lat="47.0995" lon="-1.60832">
        <ele>49</ele>
        <time>2021-05-30T15:46:56.000Z</time>
      </trkpt>
      <trkpt lat="47.09944" lon="-1.60852">
        <ele>49</ele>
        <time>2021-05-30T15:46:58.000Z</time>
      </trkpt>
      <trkpt lat="47.09935" lon="-1.60871">
        <ele>50</ele>
        <time>2021-05-30T15:47:00.000Z</time>
      </trkpt>
      <trkpt lat="47.09926" lon="-1.6089">
        <ele>51</ele>
        <time>2021-05-30T15:47:02.000Z</time>
      </trkpt>
      <trkpt lat="47.09918" lon="-1.6091">
        <ele>51</ele>
        <time>2021-05-30T15:47:04.000Z</time>
      </trkpt>
      <trkpt lat="47.09911" lon="-1.60931">
        <ele>51</ele>
        <time>2021-05-30T15:47:06.000Z</time>
      </trkpt>
      <trkpt lat="47.09895" lon="-1.60971">
        <ele>51</ele>
        <time>2021-05-30T15:47:10.000Z</time>
      </trkpt>
      <trkpt lat="47.09888" lon="-1.60992">
        <ele>51</ele>
        <time>2021-05-30T15:47:12.000Z</time>
      </trkpt>
      <trkpt lat="47.09879" lon="-1.61012">
        <ele>51</ele>
        <time>2021-05-30T15:47:14.000Z</time>
      </trkpt>
      <trkpt lat="47.09871" lon="-1.61032">
        <ele>50</ele>
        <time>2021-05-30T15:47:16.000Z</time>
      </trkpt>
      <trkpt lat="47.09862" lon="-1.61053">
        <ele>50</ele>
        <time>2021-05-30T15:47:18.000Z</time>
      </trkpt>
      <trkpt lat="47.09847" lon="-1.61084">
        <ele>49</ele>
        <time>2021-05-30T15:47:21.000Z</time>
      </trkpt>
      <trkpt lat="47.09833" lon="-1.61098">
        <ele>47</ele>
        <time>2021-05-30T15:47:23.000Z</time>
      </trkpt>
      <trkpt lat="47.09824" lon="-1.61101">
        <ele>47</ele>
        <time>2021-05-30T15:47:24.000Z</time>
      </trkpt>
      <trkpt lat="47.09815" lon="-1.61105">
        <ele>48</ele>
        <time>2021-05-30T15:47:25.000Z</time>
      </trkpt>
      <trkpt lat="47.09806" lon="-1.61109">
        <ele>48</ele>
        <time>2021-05-30T15:47:26.000Z</time>
      </trkpt>
      <trkpt lat="47.09797" lon="-1.61112">
        <ele>45</ele>
        <time>2021-05-30T15:47:27.000Z</time>
      </trkpt>
      <trkpt lat="47.0978" lon="-1.61117">
        <ele>43</ele>
        <time>2021-05-30T15:47:29.000Z</time>
      </trkpt>
      <trkpt lat="47.09757" lon="-1.61118">
        <ele>45</ele>
        <time>2021-05-30T15:47:32.000Z</time>
      </trkpt>
      <trkpt lat="47.09742" lon="-1.61119">
        <ele>45</ele>
        <time>2021-05-30T15:47:34.000Z</time>
      </trkpt>
      <trkpt lat="47.09728" lon="-1.6112">
        <ele>45</ele>
        <time>2021-05-30T15:47:36.000Z</time>
      </trkpt>
      <trkpt lat="47.09709" lon="-1.61121">
        <ele>46</ele>
        <time>2021-05-30T15:47:39.000Z</time>
      </trkpt>
      <trkpt lat="47.09694" lon="-1.61122">
        <ele>47</ele>
        <time>2021-05-30T15:47:41.000Z</time>
      </trkpt>
      <trkpt lat="47.0968" lon="-1.61124">
        <ele>47</ele>
        <time>2021-05-30T15:47:43.000Z</time>
      </trkpt>
      <trkpt lat="47.09665" lon="-1.61126">
        <ele>48</ele>
        <time>2021-05-30T15:47:45.000Z</time>
      </trkpt>
      <trkpt lat="47.09643" lon="-1.61129">
        <ele>47</ele>
        <time>2021-05-30T15:47:48.000Z</time>
      </trkpt>
      <trkpt lat="47.09629" lon="-1.61133">
        <ele>48</ele>
        <time>2021-05-30T15:47:50.000Z</time>
      </trkpt>
      <trkpt lat="47.09616" lon="-1.61137">
        <ele>49</ele>
        <time>2021-05-30T15:47:52.000Z</time>
      </trkpt>
      <trkpt lat="47.09603" lon="-1.61138">
        <ele>50</ele>
        <time>2021-05-30T15:47:54.000Z</time>
      </trkpt>
      <trkpt lat="47.09584" lon="-1.61139">
        <ele>50</ele>
        <time>2021-05-30T15:47:57.000Z</time>
      </trkpt>
      <trkpt lat="47.09572" lon="-1.6114">
        <ele>50</ele>
        <time>2021-05-30T15:47:59.000Z</time>
      </trkpt>
      <trkpt lat="47.09558" lon="-1.61141">
        <ele>49</ele>
        <time>2021-05-30T15:48:01.000Z</time>
      </trkpt>
      <trkpt lat="47.09546" lon="-1.61143">
        <ele>50</ele>
        <time>2021-05-30T15:48:03.000Z</time>
      </trkpt>
      <trkpt lat="47.09533" lon="-1.61145">
        <ele>50</ele>
        <time>2021-05-30T15:48:05.000Z</time>
      </trkpt>
      <trkpt lat="47.09512" lon="-1.61151">
        <ele>49</ele>
        <time>2021-05-30T15:48:08.000Z</time>
      </trkpt>
      <trkpt lat="47.09498" lon="-1.61159">
        <ele>50</ele>
        <time>2021-05-30T15:48:10.000Z</time>
      </trkpt>
      <trkpt lat="47.09486" lon="-1.61165">
        <ele>51</ele>
        <time>2021-05-30T15:48:12.000Z</time>
      </trkpt>
      <trkpt lat="47.09475" lon="-1.61174">
        <ele>52</ele>
        <time>2021-05-30T15:48:14.000Z</time>
      </trkpt>
      <trkpt lat="47.09465" lon="-1.61189">
        <ele>50</ele>
        <time>2021-05-30T15:48:16.000Z</time>
      </trkpt>
      <trkpt lat="47.09454" lon="-1.61205">
        <ele>50</ele>
        <time>2021-05-30T15:48:18.000Z</time>
      </trkpt>
      <trkpt lat="47.09443" lon="-1.61215">
        <ele>50</ele>
        <time>2021-05-30T15:48:20.000Z</time>
      </trkpt>
      <trkpt lat="47.09433" lon="-1.61225">
        <ele>50</ele>
        <time>2021-05-30T15:48:22.000Z</time>
      </trkpt>
      <trkpt lat="47.09424" lon="-1.61236">
        <ele>51</ele>
        <time>2021-05-30T15:48:24.000Z</time>
      </trkpt>
      <trkpt lat="47.09412" lon="-1.61246">
        <ele>50</ele>
        <time>2021-05-30T15:48:26.000Z</time>
      </trkpt>
      <trkpt lat="47.09398" lon="-1.61238">
        <ele>51</ele>
        <time>2021-05-30T15:48:28.000Z</time>
      </trkpt>
      <trkpt lat="47.09385" lon="-1.61229">
        <ele>52</ele>
        <time>2021-05-30T15:48:30.000Z</time>
      </trkpt>
      <trkpt lat="47.09365" lon="-1.61221">
        <ele>52</ele>
        <time>2021-05-30T15:48:33.000Z</time>
      </trkpt>
      <trkpt lat="47.09352" lon="-1.61216">
        <ele>52</ele>
        <time>2021-05-30T15:48:35.000Z</time>
      </trkpt>
      <trkpt lat="47.09338" lon="-1.61213">
        <ele>53</ele>
        <time>2021-05-30T15:48:37.000Z</time>
      </trkpt>
      <trkpt lat="47.09324" lon="-1.61208">
        <ele>54</ele>
        <time>2021-05-30T15:48:39.000Z</time>
      </trkpt>
      <trkpt lat="47.09311" lon="-1.61205">
        <ele>54</ele>
        <time>2021-05-30T15:48:41.000Z</time>
      </trkpt>
      <trkpt lat="47.09298" lon="-1.61203">
        <ele>54</ele>
        <time>2021-05-30T15:48:43.000Z</time>
      </trkpt>
      <trkpt lat="47.09285" lon="-1.612">
        <ele>52</ele>
        <time>2021-05-30T15:48:45.000Z</time>
      </trkpt>
      <trkpt lat="47.09265" lon="-1.61193">
        <ele>52</ele>
        <time>2021-05-30T15:48:49.000Z</time>
      </trkpt>
      <trkpt lat="47.09256" lon="-1.6119">
        <ele>54</ele>
        <time>2021-05-30T15:48:53.000Z</time>
      </trkpt>
      <trkpt lat="47.09247" lon="-1.61187">
        <ele>57</ele>
        <time>2021-05-30T15:49:09.000Z</time>
      </trkpt>
      <trkpt lat="47.09233" lon="-1.61179">
        <ele>58</ele>
        <time>2021-05-30T15:49:12.000Z</time>
      </trkpt>
      <trkpt lat="47.09221" lon="-1.61171">
        <ele>56</ele>
        <time>2021-05-30T15:49:14.000Z</time>
      </trkpt>
      <trkpt lat="47.09213" lon="-1.61156">
        <ele>55</ele>
        <time>2021-05-30T15:49:16.000Z</time>
      </trkpt>
      <trkpt lat="47.09208" lon="-1.61138">
        <ele>54</ele>
        <time>2021-05-30T15:49:18.000Z</time>
      </trkpt>
      <trkpt lat="47.09207" lon="-1.61116">
        <ele>54</ele>
        <time>2021-05-30T15:49:20.000Z</time>
      </trkpt>
      <trkpt lat="47.09206" lon="-1.61096">
        <ele>54</ele>
        <time>2021-05-30T15:49:22.000Z</time>
      </trkpt>
      <trkpt lat="47.09204" lon="-1.61077">
        <ele>54</ele>
        <time>2021-05-30T15:49:24.000Z</time>
      </trkpt>
      <trkpt lat="47.09201" lon="-1.61038">
        <ele>52</ele>
        <time>2021-05-30T15:49:28.000Z</time>
      </trkpt>
      <trkpt lat="47.09198" lon="-1.6102">
        <ele>52</ele>
        <time>2021-05-30T15:49:30.000Z</time>
      </trkpt>
      <trkpt lat="47.09198" lon="-1.61003">
        <ele>54</ele>
        <time>2021-05-30T15:49:32.000Z</time>
      </trkpt>
      <trkpt lat="47.09197" lon="-1.60982">
        <ele>55</ele>
        <time>2021-05-30T15:49:34.000Z</time>
      </trkpt>
      <trkpt lat="47.09193" lon="-1.60966">
        <ele>53</ele>
        <time>2021-05-30T15:49:36.000Z</time>
      </trkpt>
      <trkpt lat="47.09193" lon="-1.60945">
        <ele>52</ele>
        <time>2021-05-30T15:49:38.000Z</time>
      </trkpt>
      <trkpt lat="47.0919" lon="-1.60928">
        <ele>51</ele>
        <time>2021-05-30T15:49:40.000Z</time>
      </trkpt>
      <trkpt lat="47.09186" lon="-1.60911">
        <ele>51</ele>
        <time>2021-05-30T15:49:42.000Z</time>
      </trkpt>
      <trkpt lat="47.09183" lon="-1.60894">
        <ele>51</ele>
        <time>2021-05-30T15:49:44.000Z</time>
      </trkpt>
      <trkpt lat="47.09179" lon="-1.60876">
        <ele>52</ele>
        <time>2021-05-30T15:49:46.000Z</time>
      </trkpt>
      <trkpt lat="47.09175" lon="-1.60857">
        <ele>52</ele>
        <time>2021-05-30T15:49:48.000Z</time>
      </trkpt>
      <trkpt lat="47.0917" lon="-1.6084">
        <ele>52</ele>
        <time>2021-05-30T15:49:50.000Z</time>
      </trkpt>
      <trkpt lat="47.09165" lon="-1.60823">
        <ele>51</ele>
        <time>2021-05-30T15:49:52.000Z</time>
      </trkpt>
      <trkpt lat="47.09161" lon="-1.60807">
        <ele>52</ele>
        <time>2021-05-30T15:49:54.000Z</time>
      </trkpt>
      <trkpt lat="47.09159" lon="-1.60788">
        <ele>53</ele>
        <time>2021-05-30T15:49:56.000Z</time>
      </trkpt>
      <trkpt lat="47.09156" lon="-1.6077">
        <ele>53</ele>
        <time>2021-05-30T15:49:58.000Z</time>
      </trkpt>
      <trkpt lat="47.09153" lon="-1.60752">
        <ele>52</ele>
        <time>2021-05-30T15:50:00.000Z</time>
      </trkpt>
      <trkpt lat="47.09147" lon="-1.60734">
        <ele>51</ele>
        <time>2021-05-30T15:50:02.000Z</time>
      </trkpt>
      <trkpt lat="47.09144" lon="-1.60716">
        <ele>52</ele>
        <time>2021-05-30T15:50:04.000Z</time>
      </trkpt>
      <trkpt lat="47.09141" lon="-1.60698">
        <ele>52</ele>
        <time>2021-05-30T15:50:06.000Z</time>
      </trkpt>
      <trkpt lat="47.09131" lon="-1.60681">
        <ele>52</ele>
        <time>2021-05-30T15:50:08.000Z</time>
      </trkpt>
      <trkpt lat="47.09131" lon="-1.60662">
        <ele>53</ele>
        <time>2021-05-30T15:50:10.000Z</time>
      </trkpt>
      <trkpt lat="47.09127" lon="-1.60645">
        <ele>52</ele>
        <time>2021-05-30T15:50:12.000Z</time>
      </trkpt>
      <trkpt lat="47.09123" lon="-1.60627">
        <ele>52</ele>
        <time>2021-05-30T15:50:14.000Z</time>
      </trkpt>
      <trkpt lat="47.09117" lon="-1.60611">
        <ele>52</ele>
        <time>2021-05-30T15:50:16.000Z</time>
      </trkpt>
      <trkpt lat="47.09108" lon="-1.60585">
        <ele>51</ele>
        <time>2021-05-30T15:50:19.000Z</time>
      </trkpt>
      <trkpt lat="47.09102" lon="-1.6057">
        <ele>50</ele>
        <time>2021-05-30T15:50:21.000Z</time>
      </trkpt>
      <trkpt lat="47.09095" lon="-1.60552">
        <ele>51</ele>
        <time>2021-05-30T15:50:23.000Z</time>
      </trkpt>
      <trkpt lat="47.09089" lon="-1.60535">
        <ele>52</ele>
        <time>2021-05-30T15:50:25.000Z</time>
      </trkpt>
      <trkpt lat="47.09082" lon="-1.60519">
        <ele>52</ele>
        <time>2021-05-30T15:50:27.000Z</time>
      </trkpt>
      <trkpt lat="47.09075" lon="-1.60504">
        <ele>52</ele>
        <time>2021-05-30T15:50:29.000Z</time>
      </trkpt>
      <trkpt lat="47.09068" lon="-1.60488">
        <ele>52</ele>
        <time>2021-05-30T15:50:31.000Z</time>
      </trkpt>
      <trkpt lat="47.09061" lon="-1.60472">
        <ele>53</ele>
        <time>2021-05-30T15:50:33.000Z</time>
      </trkpt>
      <trkpt lat="47.09054" lon="-1.60458">
        <ele>53</ele>
        <time>2021-05-30T15:50:35.000Z</time>
      </trkpt>
      <trkpt lat="47.09045" lon="-1.60443">
        <ele>52</ele>
        <time>2021-05-30T15:50:37.000Z</time>
      </trkpt>
      <trkpt lat="47.09036" lon="-1.60431">
        <ele>51</ele>
        <time>2021-05-30T15:50:39.000Z</time>
      </trkpt>
      <trkpt lat="47.09023" lon="-1.60411">
        <ele>51</ele>
        <time>2021-05-30T15:50:42.000Z</time>
      </trkpt>
      <trkpt lat="47.09014" lon="-1.60396">
        <ele>52</ele>
        <time>2021-05-30T15:50:44.000Z</time>
      </trkpt>
      <trkpt lat="47.0901" lon="-1.60378">
        <ele>53</ele>
        <time>2021-05-30T15:50:46.000Z</time>
      </trkpt>
      <trkpt lat="47.09003" lon="-1.60363">
        <ele>52</ele>
        <time>2021-05-30T15:50:48.000Z</time>
      </trkpt>
      <trkpt lat="47.08993" lon="-1.60342">
        <ele>54</ele>
        <time>2021-05-30T15:50:51.000Z</time>
      </trkpt>
      <trkpt lat="47.08985" lon="-1.60328">
        <ele>54</ele>
        <time>2021-05-30T15:50:53.000Z</time>
      </trkpt>
      <trkpt lat="47.08978" lon="-1.60313">
        <ele>54</ele>
        <time>2021-05-30T15:50:55.000Z</time>
      </trkpt>
      <trkpt lat="47.08969" lon="-1.60299">
        <ele>55</ele>
        <time>2021-05-30T15:50:57.000Z</time>
      </trkpt>
      <trkpt lat="47.08963" lon="-1.60282">
        <ele>55</ele>
        <time>2021-05-30T15:50:59.000Z</time>
      </trkpt>
      <trkpt lat="47.08955" lon="-1.60267">
        <ele>54</ele>
        <time>2021-05-30T15:51:01.000Z</time>
      </trkpt>
      <trkpt lat="47.08949" lon="-1.60252">
        <ele>54</ele>
        <time>2021-05-30T15:51:03.000Z</time>
      </trkpt>
      <trkpt lat="47.08941" lon="-1.60236">
        <ele>54</ele>
        <time>2021-05-30T15:51:05.000Z</time>
      </trkpt>
      <trkpt lat="47.08934" lon="-1.60221">
        <ele>54</ele>
        <time>2021-05-30T15:51:07.000Z</time>
      </trkpt>
      <trkpt lat="47.08926" lon="-1.60206">
        <ele>55</ele>
        <time>2021-05-30T15:51:09.000Z</time>
      </trkpt>
      <trkpt lat="47.08918" lon="-1.60192">
        <ele>55</ele>
        <time>2021-05-30T15:51:11.000Z</time>
      </trkpt>
      <trkpt lat="47.0891" lon="-1.60177">
        <ele>55</ele>
        <time>2021-05-30T15:51:13.000Z</time>
      </trkpt>
      <trkpt lat="47.08903" lon="-1.60162">
        <ele>55</ele>
        <time>2021-05-30T15:51:15.000Z</time>
      </trkpt>
      <trkpt lat="47.08896" lon="-1.60148">
        <ele>55</ele>
        <time>2021-05-30T15:51:17.000Z</time>
      </trkpt>
      <trkpt lat="47.08889" lon="-1.60134">
        <ele>55</ele>
        <time>2021-05-30T15:51:19.000Z</time>
      </trkpt>
      <trkpt lat="47.08882" lon="-1.6012">
        <ele>55</ele>
        <time>2021-05-30T15:51:21.000Z</time>
      </trkpt>
      <trkpt lat="47.08874" lon="-1.60104">
        <ele>55</ele>
        <time>2021-05-30T15:51:23.000Z</time>
      </trkpt>
      <trkpt lat="47.08867" lon="-1.60089">
        <ele>54</ele>
        <time>2021-05-30T15:51:25.000Z</time>
      </trkpt>
      <trkpt lat="47.0886" lon="-1.60074">
        <ele>54</ele>
        <time>2021-05-30T15:51:27.000Z</time>
      </trkpt>
      <trkpt lat="47.08851" lon="-1.6006">
        <ele>53</ele>
        <time>2021-05-30T15:51:29.000Z</time>
      </trkpt>
      <trkpt lat="47.08843" lon="-1.60047">
        <ele>54</ele>
        <time>2021-05-30T15:51:31.000Z</time>
      </trkpt>
      <trkpt lat="47.08837" lon="-1.60033">
        <ele>53</ele>
        <time>2021-05-30T15:51:33.000Z</time>
      </trkpt>
      <trkpt lat="47.08831" lon="-1.60018">
        <ele>55</ele>
        <time>2021-05-30T15:51:35.000Z</time>
      </trkpt>
      <trkpt lat="47.08824" lon="-1.60003">
        <ele>56</ele>
        <time>2021-05-30T15:51:37.000Z</time>
      </trkpt>
      <trkpt lat="47.08814" lon="-1.59988">
        <ele>56</ele>
        <time>2021-05-30T15:51:39.000Z</time>
      </trkpt>
      <trkpt lat="47.08805" lon="-1.59972">
        <ele>55</ele>
        <time>2021-05-30T15:51:41.000Z</time>
      </trkpt>
      <trkpt lat="47.08798" lon="-1.59956">
        <ele>54</ele>
        <time>2021-05-30T15:51:43.000Z</time>
      </trkpt>
      <trkpt lat="47.0879" lon="-1.59941">
        <ele>54</ele>
        <time>2021-05-30T15:51:45.000Z</time>
      </trkpt>
      <trkpt lat="47.08782" lon="-1.59925">
        <ele>54</ele>
        <time>2021-05-30T15:51:47.000Z</time>
      </trkpt>
      <trkpt lat="47.08774" lon="-1.59911">
        <ele>53</ele>
        <time>2021-05-30T15:51:49.000Z</time>
      </trkpt>
      <trkpt lat="47.08763" lon="-1.59888">
        <ele>53</ele>
        <time>2021-05-30T15:51:52.000Z</time>
      </trkpt>
      <trkpt lat="47.08756" lon="-1.59873">
        <ele>53</ele>
        <time>2021-05-30T15:51:54.000Z</time>
      </trkpt>
      <trkpt lat="47.08748" lon="-1.59858">
        <ele>52</ele>
        <time>2021-05-30T15:51:56.000Z</time>
      </trkpt>
      <trkpt lat="47.0874" lon="-1.59845">
        <ele>52</ele>
        <time>2021-05-30T15:51:58.000Z</time>
      </trkpt>
      <trkpt lat="47.08732" lon="-1.5983">
        <ele>51</ele>
        <time>2021-05-30T15:52:00.000Z</time>
      </trkpt>
      <trkpt lat="47.08725" lon="-1.59816">
        <ele>52</ele>
        <time>2021-05-30T15:52:02.000Z</time>
      </trkpt>
      <trkpt lat="47.08714" lon="-1.59796">
        <ele>50</ele>
        <time>2021-05-30T15:52:05.000Z</time>
      </trkpt>
      <trkpt lat="47.08709" lon="-1.59781">
        <ele>49</ele>
        <time>2021-05-30T15:52:07.000Z</time>
      </trkpt>
      <trkpt lat="47.087" lon="-1.59764">
        <ele>50</ele>
        <time>2021-05-30T15:52:09.000Z</time>
      </trkpt>
      <trkpt lat="47.08693" lon="-1.59748">
        <ele>50</ele>
        <time>2021-05-30T15:52:11.000Z</time>
      </trkpt>
      <trkpt lat="47.08686" lon="-1.59733">
        <ele>50</ele>
        <time>2021-05-30T15:52:13.000Z</time>
      </trkpt>
      <trkpt lat="47.08679" lon="-1.59719">
        <ele>50</ele>
        <time>2021-05-30T15:52:15.000Z</time>
      </trkpt>
      <trkpt lat="47.08673" lon="-1.59702">
        <ele>51</ele>
        <time>2021-05-30T15:52:17.000Z</time>
      </trkpt>
      <trkpt lat="47.08666" lon="-1.59686">
        <ele>51</ele>
        <time>2021-05-30T15:52:19.000Z</time>
      </trkpt>
      <trkpt lat="47.0866" lon="-1.5967">
        <ele>51</ele>
        <time>2021-05-30T15:52:21.000Z</time>
      </trkpt>
      <trkpt lat="47.08654" lon="-1.59653">
        <ele>51</ele>
        <time>2021-05-30T15:52:23.000Z</time>
      </trkpt>
      <trkpt lat="47.08648" lon="-1.59637">
        <ele>50</ele>
        <time>2021-05-30T15:52:25.000Z</time>
      </trkpt>
      <trkpt lat="47.08641" lon="-1.59621">
        <ele>50</ele>
        <time>2021-05-30T15:52:27.000Z</time>
      </trkpt>
      <trkpt lat="47.08635" lon="-1.59605">
        <ele>51</ele>
        <time>2021-05-30T15:52:29.000Z</time>
      </trkpt>
      <trkpt lat="47.08628" lon="-1.5959">
        <ele>51</ele>
        <time>2021-05-30T15:52:31.000Z</time>
      </trkpt>
      <trkpt lat="47.08621" lon="-1.59577">
        <ele>51</ele>
        <time>2021-05-30T15:52:33.000Z</time>
      </trkpt>
      <trkpt lat="47.08611" lon="-1.59549">
        <ele>50</ele>
        <time>2021-05-30T15:52:36.000Z</time>
      </trkpt>
      <trkpt lat="47.08606" lon="-1.59532">
        <ele>50</ele>
        <time>2021-05-30T15:52:38.000Z</time>
      </trkpt>
      <trkpt lat="47.086" lon="-1.59518">
        <ele>50</ele>
        <time>2021-05-30T15:52:40.000Z</time>
      </trkpt>
      <trkpt lat="47.08593" lon="-1.59503">
        <ele>50</ele>
        <time>2021-05-30T15:52:42.000Z</time>
      </trkpt>
      <trkpt lat="47.08587" lon="-1.59486">
        <ele>50</ele>
        <time>2021-05-30T15:52:44.000Z</time>
      </trkpt>
      <trkpt lat="47.08581" lon="-1.5947">
        <ele>50</ele>
        <time>2021-05-30T15:52:46.000Z</time>
      </trkpt>
      <trkpt lat="47.08574" lon="-1.59456">
        <ele>49</ele>
        <time>2021-05-30T15:52:48.000Z</time>
      </trkpt>
      <trkpt lat="47.08566" lon="-1.59439">
        <ele>49</ele>
        <time>2021-05-30T15:52:50.000Z</time>
      </trkpt>
      <trkpt lat="47.08561" lon="-1.59422">
        <ele>49</ele>
        <time>2021-05-30T15:52:52.000Z</time>
      </trkpt>
      <trkpt lat="47.08555" lon="-1.59405">
        <ele>49</ele>
        <time>2021-05-30T15:52:54.000Z</time>
      </trkpt>
      <trkpt lat="47.08545" lon="-1.5938">
        <ele>49</ele>
        <time>2021-05-30T15:52:57.000Z</time>
      </trkpt>
      <trkpt lat="47.08539" lon="-1.59364">
        <ele>49</ele>
        <time>2021-05-30T15:52:59.000Z</time>
      </trkpt>
      <trkpt lat="47.08532" lon="-1.59347">
        <ele>49</ele>
        <time>2021-05-30T15:53:01.000Z</time>
      </trkpt>
      <trkpt lat="47.08526" lon="-1.59331">
        <ele>48</ele>
        <time>2021-05-30T15:53:03.000Z</time>
      </trkpt>
      <trkpt lat="47.08516" lon="-1.59307">
        <ele>48</ele>
        <time>2021-05-30T15:53:06.000Z</time>
      </trkpt>
      <trkpt lat="47.08506" lon="-1.59282">
        <ele>48</ele>
        <time>2021-05-30T15:53:09.000Z</time>
      </trkpt>
      <trkpt lat="47.08499" lon="-1.59266">
        <ele>49</ele>
        <time>2021-05-30T15:53:11.000Z</time>
      </trkpt>
      <trkpt lat="47.08496" lon="-1.59248">
        <ele>48</ele>
        <time>2021-05-30T15:53:13.000Z</time>
      </trkpt>
      <trkpt lat="47.08491" lon="-1.59232">
        <ele>47</ele>
        <time>2021-05-30T15:53:15.000Z</time>
      </trkpt>
      <trkpt lat="47.08483" lon="-1.59216">
        <ele>47</ele>
        <time>2021-05-30T15:53:17.000Z</time>
      </trkpt>
      <trkpt lat="47.08476" lon="-1.59201">
        <ele>46</ele>
        <time>2021-05-30T15:53:19.000Z</time>
      </trkpt>
      <trkpt lat="47.0847" lon="-1.59188">
        <ele>46</ele>
        <time>2021-05-30T15:53:21.000Z</time>
      </trkpt>
      <trkpt lat="47.08463" lon="-1.59174">
        <ele>48</ele>
        <time>2021-05-30T15:53:23.000Z</time>
      </trkpt>
      <trkpt lat="47.08456" lon="-1.59162">
        <ele>48</ele>
        <time>2021-05-30T15:53:25.000Z</time>
      </trkpt>
      <trkpt lat="47.0845" lon="-1.59148">
        <ele>47</ele>
        <time>2021-05-30T15:53:27.000Z</time>
      </trkpt>
      <trkpt lat="47.08445" lon="-1.59132">
        <ele>49</ele>
        <time>2021-05-30T15:53:29.000Z</time>
      </trkpt>
      <trkpt lat="47.08439" lon="-1.59116">
        <ele>50</ele>
        <time>2021-05-30T15:53:31.000Z</time>
      </trkpt>
      <trkpt lat="47.08433" lon="-1.59101">
        <ele>50</ele>
        <time>2021-05-30T15:53:33.000Z</time>
      </trkpt>
      <trkpt lat="47.08426" lon="-1.59085">
        <ele>50</ele>
        <time>2021-05-30T15:53:35.000Z</time>
      </trkpt>
      <trkpt lat="47.08418" lon="-1.59069">
        <ele>49</ele>
        <time>2021-05-30T15:53:37.000Z</time>
      </trkpt>
      <trkpt lat="47.08413" lon="-1.59054">
        <ele>49</ele>
        <time>2021-05-30T15:53:39.000Z</time>
      </trkpt>
      <trkpt lat="47.08407" lon="-1.5904">
        <ele>49</ele>
        <time>2021-05-30T15:53:41.000Z</time>
      </trkpt>
      <trkpt lat="47.08395" lon="-1.59011">
        <ele>49</ele>
        <time>2021-05-30T15:53:45.000Z</time>
      </trkpt>
      <trkpt lat="47.08389" lon="-1.58995">
        <ele>50</ele>
        <time>2021-05-30T15:53:47.000Z</time>
      </trkpt>
      <trkpt lat="47.08382" lon="-1.58981">
        <ele>49</ele>
        <time>2021-05-30T15:53:49.000Z</time>
      </trkpt>
      <trkpt lat="47.08375" lon="-1.58965">
        <ele>49</ele>
        <time>2021-05-30T15:53:51.000Z</time>
      </trkpt>
      <trkpt lat="47.0837" lon="-1.58949">
        <ele>49</ele>
        <time>2021-05-30T15:53:53.000Z</time>
      </trkpt>
      <trkpt lat="47.08364" lon="-1.58933">
        <ele>49</ele>
        <time>2021-05-30T15:53:55.000Z</time>
      </trkpt>
      <trkpt lat="47.08356" lon="-1.58917">
        <ele>50</ele>
        <time>2021-05-30T15:53:57.000Z</time>
      </trkpt>
      <trkpt lat="47.0835" lon="-1.58901">
        <ele>49</ele>
        <time>2021-05-30T15:53:59.000Z</time>
      </trkpt>
      <trkpt lat="47.08344" lon="-1.58884">
        <ele>49</ele>
        <time>2021-05-30T15:54:01.000Z</time>
      </trkpt>
      <trkpt lat="47.08332" lon="-1.5885">
        <ele>48</ele>
        <time>2021-05-30T15:54:05.000Z</time>
      </trkpt>
      <trkpt lat="47.08325" lon="-1.58835">
        <ele>48</ele>
        <time>2021-05-30T15:54:07.000Z</time>
      </trkpt>
      <trkpt lat="47.08318" lon="-1.58818">
        <ele>48</ele>
        <time>2021-05-30T15:54:09.000Z</time>
      </trkpt>
      <trkpt lat="47.08312" lon="-1.58802">
        <ele>48</ele>
        <time>2021-05-30T15:54:11.000Z</time>
      </trkpt>
      <trkpt lat="47.08305" lon="-1.58785">
        <ele>47</ele>
        <time>2021-05-30T15:54:13.000Z</time>
      </trkpt>
      <trkpt lat="47.08298" lon="-1.58771">
        <ele>48</ele>
        <time>2021-05-30T15:54:15.000Z</time>
      </trkpt>
      <trkpt lat="47.08289" lon="-1.5875">
        <ele>49</ele>
        <time>2021-05-30T15:54:18.000Z</time>
      </trkpt>
      <trkpt lat="47.08283" lon="-1.58735">
        <ele>50</ele>
        <time>2021-05-30T15:54:20.000Z</time>
      </trkpt>
      <trkpt lat="47.08276" lon="-1.58718">
        <ele>50</ele>
        <time>2021-05-30T15:54:22.000Z</time>
      </trkpt>
      <trkpt lat="47.08269" lon="-1.58705">
        <ele>50</ele>
        <time>2021-05-30T15:54:24.000Z</time>
      </trkpt>
      <trkpt lat="47.08261" lon="-1.58681">
        <ele>51</ele>
        <time>2021-05-30T15:54:27.000Z</time>
      </trkpt>
      <trkpt lat="47.08254" lon="-1.58666">
        <ele>51</ele>
        <time>2021-05-30T15:54:29.000Z</time>
      </trkpt>
      <trkpt lat="47.08246" lon="-1.58651">
        <ele>49</ele>
        <time>2021-05-30T15:54:31.000Z</time>
      </trkpt>
      <trkpt lat="47.08238" lon="-1.58625">
        <ele>49</ele>
        <time>2021-05-30T15:54:34.000Z</time>
      </trkpt>
      <trkpt lat="47.08233" lon="-1.58609">
        <ele>49</ele>
        <time>2021-05-30T15:54:36.000Z</time>
      </trkpt>
      <trkpt lat="47.08228" lon="-1.58594">
        <ele>49</ele>
        <time>2021-05-30T15:54:38.000Z</time>
      </trkpt>
      <trkpt lat="47.08217" lon="-1.58572">
        <ele>48</ele>
        <time>2021-05-30T15:54:41.000Z</time>
      </trkpt>
      <trkpt lat="47.08211" lon="-1.58556">
        <ele>48</ele>
        <time>2021-05-30T15:54:43.000Z</time>
      </trkpt>
      <trkpt lat="47.082" lon="-1.5854">
        <ele>45</ele>
        <time>2021-05-30T15:54:45.000Z</time>
      </trkpt>
      <trkpt lat="47.08196" lon="-1.58522">
        <ele>47</ele>
        <time>2021-05-30T15:54:47.000Z</time>
      </trkpt>
      <trkpt lat="47.08185" lon="-1.58499">
        <ele>47</ele>
        <time>2021-05-30T15:54:50.000Z</time>
      </trkpt>
      <trkpt lat="47.08179" lon="-1.58486">
        <ele>49</ele>
        <time>2021-05-30T15:54:52.000Z</time>
      </trkpt>
      <trkpt lat="47.08172" lon="-1.58471">
        <ele>50</ele>
        <time>2021-05-30T15:54:54.000Z</time>
      </trkpt>
      <trkpt lat="47.08163" lon="-1.58445">
        <ele>52</ele>
        <time>2021-05-30T15:54:57.000Z</time>
      </trkpt>
      <trkpt lat="47.08158" lon="-1.58428">
        <ele>52</ele>
        <time>2021-05-30T15:54:59.000Z</time>
      </trkpt>
      <trkpt lat="47.08153" lon="-1.58411">
        <ele>52</ele>
        <time>2021-05-30T15:55:01.000Z</time>
      </trkpt>
      <trkpt lat="47.08147" lon="-1.58395">
        <ele>52</ele>
        <time>2021-05-30T15:55:03.000Z</time>
      </trkpt>
      <trkpt lat="47.08144" lon="-1.58378">
        <ele>53</ele>
        <time>2021-05-30T15:55:05.000Z</time>
      </trkpt>
      <trkpt lat="47.08139" lon="-1.58352">
        <ele>53</ele>
        <time>2021-05-30T15:55:08.000Z</time>
      </trkpt>
      <trkpt lat="47.08136" lon="-1.58335">
        <ele>52</ele>
        <time>2021-05-30T15:55:10.000Z</time>
      </trkpt>
      <trkpt lat="47.08131" lon="-1.58319">
        <ele>49</ele>
        <time>2021-05-30T15:55:12.000Z</time>
      </trkpt>
      <trkpt lat="47.08131" lon="-1.583">
        <ele>50</ele>
        <time>2021-05-30T15:55:14.000Z</time>
      </trkpt>
      <trkpt lat="47.08129" lon="-1.58283">
        <ele>51</ele>
        <time>2021-05-30T15:55:16.000Z</time>
      </trkpt>
      <trkpt lat="47.08126" lon="-1.58267">
        <ele>51</ele>
        <time>2021-05-30T15:55:18.000Z</time>
      </trkpt>
      <trkpt lat="47.08124" lon="-1.5825">
        <ele>51</ele>
        <time>2021-05-30T15:55:20.000Z</time>
      </trkpt>
      <trkpt lat="47.08121" lon="-1.58231">
        <ele>50</ele>
        <time>2021-05-30T15:55:22.000Z</time>
      </trkpt>
      <trkpt lat="47.08115" lon="-1.58216">
        <ele>49</ele>
        <time>2021-05-30T15:55:24.000Z</time>
      </trkpt>
      <trkpt lat="47.08109" lon="-1.58201">
        <ele>48</ele>
        <time>2021-05-30T15:55:26.000Z</time>
      </trkpt>
      <trkpt lat="47.08099" lon="-1.58177">
        <ele>49</ele>
        <time>2021-05-30T15:55:29.000Z</time>
      </trkpt>
      <trkpt lat="47.08091" lon="-1.58163">
        <ele>51</ele>
        <time>2021-05-30T15:55:31.000Z</time>
      </trkpt>
      <trkpt lat="47.08083" lon="-1.58151">
        <ele>51</ele>
        <time>2021-05-30T15:55:33.000Z</time>
      </trkpt>
      <trkpt lat="47.08075" lon="-1.58136">
        <ele>52</ele>
        <time>2021-05-30T15:55:35.000Z</time>
      </trkpt>
      <trkpt lat="47.08066" lon="-1.58122">
        <ele>52</ele>
        <time>2021-05-30T15:55:37.000Z</time>
      </trkpt>
      <trkpt lat="47.08059" lon="-1.58107">
        <ele>53</ele>
        <time>2021-05-30T15:55:39.000Z</time>
      </trkpt>
      <trkpt lat="47.08051" lon="-1.58094">
        <ele>53</ele>
        <time>2021-05-30T15:55:41.000Z</time>
      </trkpt>
      <trkpt lat="47.08044" lon="-1.5808">
        <ele>53</ele>
        <time>2021-05-30T15:55:43.000Z</time>
      </trkpt>
      <trkpt lat="47.08036" lon="-1.58065">
        <ele>54</ele>
        <time>2021-05-30T15:55:45.000Z</time>
      </trkpt>
      <trkpt lat="47.08029" lon="-1.58053">
        <ele>54</ele>
        <time>2021-05-30T15:55:47.000Z</time>
      </trkpt>
      <trkpt lat="47.08018" lon="-1.5804">
        <ele>53</ele>
        <time>2021-05-30T15:55:49.000Z</time>
      </trkpt>
      <trkpt lat="47.0801" lon="-1.58029">
        <ele>53</ele>
        <time>2021-05-30T15:55:51.000Z</time>
      </trkpt>
      <trkpt lat="47.08005" lon="-1.58009">
        <ele>53</ele>
        <time>2021-05-30T15:55:53.000Z</time>
      </trkpt>
      <trkpt lat="47.07999" lon="-1.57993">
        <ele>54</ele>
        <time>2021-05-30T15:55:55.000Z</time>
      </trkpt>
      <trkpt lat="47.07992" lon="-1.57976">
        <ele>53</ele>
        <time>2021-05-30T15:55:57.000Z</time>
      </trkpt>
      <trkpt lat="47.07985" lon="-1.57961">
        <ele>54</ele>
        <time>2021-05-30T15:55:59.000Z</time>
      </trkpt>
      <trkpt lat="47.07979" lon="-1.57944">
        <ele>54</ele>
        <time>2021-05-30T15:56:01.000Z</time>
      </trkpt>
      <trkpt lat="47.07973" lon="-1.57927">
        <ele>54</ele>
        <time>2021-05-30T15:56:03.000Z</time>
      </trkpt>
      <trkpt lat="47.07967" lon="-1.57911">
        <ele>54</ele>
        <time>2021-05-30T15:56:05.000Z</time>
      </trkpt>
      <trkpt lat="47.07957" lon="-1.57885">
        <ele>53</ele>
        <time>2021-05-30T15:56:08.000Z</time>
      </trkpt>
      <trkpt lat="47.07951" lon="-1.5787">
        <ele>53</ele>
        <time>2021-05-30T15:56:10.000Z</time>
      </trkpt>
      <trkpt lat="47.07944" lon="-1.57855">
        <ele>53</ele>
        <time>2021-05-30T15:56:12.000Z</time>
      </trkpt>
      <trkpt lat="47.07938" lon="-1.57838">
        <ele>51</ele>
        <time>2021-05-30T15:56:14.000Z</time>
      </trkpt>
      <trkpt lat="47.07932" lon="-1.57821">
        <ele>51</ele>
        <time>2021-05-30T15:56:16.000Z</time>
      </trkpt>
      <trkpt lat="47.07926" lon="-1.57806">
        <ele>51</ele>
        <time>2021-05-30T15:56:18.000Z</time>
      </trkpt>
      <trkpt lat="47.07919" lon="-1.5779">
        <ele>52</ele>
        <time>2021-05-30T15:56:20.000Z</time>
      </trkpt>
      <trkpt lat="47.07909" lon="-1.57765">
        <ele>52</ele>
        <time>2021-05-30T15:56:23.000Z</time>
      </trkpt>
      <trkpt lat="47.07903" lon="-1.57749">
        <ele>52</ele>
        <time>2021-05-30T15:56:25.000Z</time>
      </trkpt>
      <trkpt lat="47.07896" lon="-1.57733">
        <ele>52</ele>
        <time>2021-05-30T15:56:27.000Z</time>
      </trkpt>
      <trkpt lat="47.07889" lon="-1.57717">
        <ele>51</ele>
        <time>2021-05-30T15:56:29.000Z</time>
      </trkpt>
      <trkpt lat="47.07879" lon="-1.57693">
        <ele>52</ele>
        <time>2021-05-30T15:56:32.000Z</time>
      </trkpt>
      <trkpt lat="47.07872" lon="-1.57675">
        <ele>52</ele>
        <time>2021-05-30T15:56:34.000Z</time>
      </trkpt>
      <trkpt lat="47.07865" lon="-1.57659">
        <ele>52</ele>
        <time>2021-05-30T15:56:36.000Z</time>
      </trkpt>
      <trkpt lat="47.07857" lon="-1.57644">
        <ele>52</ele>
        <time>2021-05-30T15:56:38.000Z</time>
      </trkpt>
      <trkpt lat="47.0785" lon="-1.57626">
        <ele>52</ele>
        <time>2021-05-30T15:56:40.000Z</time>
      </trkpt>
      <trkpt lat="47.07846" lon="-1.57607">
        <ele>52</ele>
        <time>2021-05-30T15:56:42.000Z</time>
      </trkpt>
      <trkpt lat="47.07841" lon="-1.57589">
        <ele>53</ele>
        <time>2021-05-30T15:56:44.000Z</time>
      </trkpt>
      <trkpt lat="47.07835" lon="-1.57572">
        <ele>49</ele>
        <time>2021-05-30T15:56:46.000Z</time>
      </trkpt>
      <trkpt lat="47.07831" lon="-1.57553">
        <ele>50</ele>
        <time>2021-05-30T15:56:48.000Z</time>
      </trkpt>
      <trkpt lat="47.07827" lon="-1.57536">
        <ele>50</ele>
        <time>2021-05-30T15:56:50.000Z</time>
      </trkpt>
      <trkpt lat="47.07821" lon="-1.57518">
        <ele>49</ele>
        <time>2021-05-30T15:56:52.000Z</time>
      </trkpt>
      <trkpt lat="47.07815" lon="-1.575">
        <ele>48</ele>
        <time>2021-05-30T15:56:54.000Z</time>
      </trkpt>
      <trkpt lat="47.07812" lon="-1.57483">
        <ele>48</ele>
        <time>2021-05-30T15:56:56.000Z</time>
      </trkpt>
      <trkpt lat="47.07808" lon="-1.57465">
        <ele>49</ele>
        <time>2021-05-30T15:56:58.000Z</time>
      </trkpt>
      <trkpt lat="47.07803" lon="-1.57447">
        <ele>49</ele>
        <time>2021-05-30T15:57:00.000Z</time>
      </trkpt>
      <trkpt lat="47.07798" lon="-1.5743">
        <ele>48</ele>
        <time>2021-05-30T15:57:02.000Z</time>
      </trkpt>
      <trkpt lat="47.07789" lon="-1.57402">
        <ele>49</ele>
        <time>2021-05-30T15:57:05.000Z</time>
      </trkpt>
      <trkpt lat="47.07784" lon="-1.57388">
        <ele>49</ele>
        <time>2021-05-30T15:57:07.000Z</time>
      </trkpt>
      <trkpt lat="47.07779" lon="-1.57372">
        <ele>51</ele>
        <time>2021-05-30T15:57:09.000Z</time>
      </trkpt>
      <trkpt lat="47.07772" lon="-1.57352">
        <ele>51</ele>
        <time>2021-05-30T15:57:12.000Z</time>
      </trkpt>
      <trkpt lat="47.0778" lon="-1.5734">
        <ele>52</ele>
        <time>2021-05-30T15:57:14.000Z</time>
      </trkpt>
      <trkpt lat="47.07791" lon="-1.57329">
        <ele>53</ele>
        <time>2021-05-30T15:57:16.000Z</time>
      </trkpt>
      <trkpt lat="47.07802" lon="-1.57317">
        <ele>52</ele>
        <time>2021-05-30T15:57:18.000Z</time>
      </trkpt>
      <trkpt lat="47.07815" lon="-1.573">
        <ele>51</ele>
        <time>2021-05-30T15:57:21.000Z</time>
      </trkpt>
      <trkpt lat="47.07824" lon="-1.57288">
        <ele>52</ele>
        <time>2021-05-30T15:57:23.000Z</time>
      </trkpt>
      <trkpt lat="47.07833" lon="-1.57278">
        <ele>53</ele>
        <time>2021-05-30T15:57:25.000Z</time>
      </trkpt>
      <trkpt lat="47.07841" lon="-1.57267">
        <ele>55</ele>
        <time>2021-05-30T15:57:27.000Z</time>
      </trkpt>
      <trkpt lat="47.07852" lon="-1.5725">
        <ele>56</ele>
        <time>2021-05-30T15:57:30.000Z</time>
      </trkpt>
      <trkpt lat="47.07859" lon="-1.57233">
        <ele>57</ele>
        <time>2021-05-30T15:57:33.000Z</time>
      </trkpt>
      <trkpt lat="47.07863" lon="-1.57219">
        <ele>58</ele>
        <time>2021-05-30T15:57:35.000Z</time>
      </trkpt>
      <trkpt lat="47.0787" lon="-1.57188">
        <ele>60</ele>
        <time>2021-05-30T15:57:39.000Z</time>
      </trkpt>
      <trkpt lat="47.07872" lon="-1.57171">
        <ele>58</ele>
        <time>2021-05-30T15:57:41.000Z</time>
      </trkpt>
      <trkpt lat="47.07872" lon="-1.57155">
        <ele>58</ele>
        <time>2021-05-30T15:57:43.000Z</time>
      </trkpt>
      <trkpt lat="47.07876" lon="-1.57142">
        <ele>59</ele>
        <time>2021-05-30T15:57:45.000Z</time>
      </trkpt>
      <trkpt lat="47.07879" lon="-1.57127">
        <ele>59</ele>
        <time>2021-05-30T15:57:47.000Z</time>
      </trkpt>
      <trkpt lat="47.07881" lon="-1.57112">
        <ele>59</ele>
        <time>2021-05-30T15:57:49.000Z</time>
      </trkpt>
      <trkpt lat="47.07884" lon="-1.57097">
        <ele>59</ele>
        <time>2021-05-30T15:57:51.000Z</time>
      </trkpt>
      <trkpt lat="47.07886" lon="-1.57081">
        <ele>61</ele>
        <time>2021-05-30T15:57:53.000Z</time>
      </trkpt>
      <trkpt lat="47.07891" lon="-1.57056">
        <ele>61</ele>
        <time>2021-05-30T15:57:56.000Z</time>
      </trkpt>
      <trkpt lat="47.07892" lon="-1.57039">
        <ele>60</ele>
        <time>2021-05-30T15:57:58.000Z</time>
      </trkpt>
      <trkpt lat="47.07893" lon="-1.57025">
        <ele>63</ele>
        <time>2021-05-30T15:58:00.000Z</time>
      </trkpt>
      <trkpt lat="47.07897" lon="-1.57013">
        <ele>64</ele>
        <time>2021-05-30T15:58:02.000Z</time>
      </trkpt>
      <trkpt lat="47.07901" lon="-1.56997">
        <ele>66</ele>
        <time>2021-05-30T15:58:04.000Z</time>
      </trkpt>
      <trkpt lat="47.07907" lon="-1.56976">
        <ele>63</ele>
        <time>2021-05-30T15:58:07.000Z</time>
      </trkpt>
      <trkpt lat="47.07908" lon="-1.5696">
        <ele>64</ele>
        <time>2021-05-30T15:58:09.000Z</time>
      </trkpt>
      <trkpt lat="47.0791" lon="-1.56943">
        <ele>65</ele>
        <time>2021-05-30T15:58:11.000Z</time>
      </trkpt>
      <trkpt lat="47.07914" lon="-1.56928">
        <ele>65</ele>
        <time>2021-05-30T15:58:13.000Z</time>
      </trkpt>
      <trkpt lat="47.07917" lon="-1.56913">
        <ele>64</ele>
        <time>2021-05-30T15:58:15.000Z</time>
      </trkpt>
      <trkpt lat="47.07918" lon="-1.56896">
        <ele>65</ele>
        <time>2021-05-30T15:58:17.000Z</time>
      </trkpt>
      <trkpt lat="47.07923" lon="-1.56881">
        <ele>65</ele>
        <time>2021-05-30T15:58:19.000Z</time>
      </trkpt>
      <trkpt lat="47.07926" lon="-1.56866">
        <ele>65</ele>
        <time>2021-05-30T15:58:21.000Z</time>
      </trkpt>
      <trkpt lat="47.07929" lon="-1.5685">
        <ele>64</ele>
        <time>2021-05-30T15:58:23.000Z</time>
      </trkpt>
      <trkpt lat="47.0793" lon="-1.56834">
        <ele>63</ele>
        <time>2021-05-30T15:58:25.000Z</time>
      </trkpt>
      <trkpt lat="47.07931" lon="-1.56819">
        <ele>63</ele>
        <time>2021-05-30T15:58:27.000Z</time>
      </trkpt>
      <trkpt lat="47.07926" lon="-1.56795">
        <ele>60</ele>
        <time>2021-05-30T15:58:30.000Z</time>
      </trkpt>
      <trkpt lat="47.07926" lon="-1.5678">
        <ele>61</ele>
        <time>2021-05-30T15:58:32.000Z</time>
      </trkpt>
      <trkpt lat="47.07924" lon="-1.56759">
        <ele>62</ele>
        <time>2021-05-30T15:58:35.000Z</time>
      </trkpt>
      <trkpt lat="47.07917" lon="-1.56748">
        <ele>62</ele>
        <time>2021-05-30T15:58:37.000Z</time>
      </trkpt>
      <trkpt lat="47.0791" lon="-1.56739">
        <ele>64</ele>
        <time>2021-05-30T15:58:39.000Z</time>
      </trkpt>
      <trkpt lat="47.07908" lon="-1.56722">
        <ele>64</ele>
        <time>2021-05-30T15:58:41.000Z</time>
      </trkpt>
      <trkpt lat="47.07911" lon="-1.56707">
        <ele>64</ele>
        <time>2021-05-30T15:58:43.000Z</time>
      </trkpt>
      <trkpt lat="47.07917" lon="-1.56685">
        <ele>62</ele>
        <time>2021-05-30T15:58:46.000Z</time>
      </trkpt>
      <trkpt lat="47.07923" lon="-1.56671">
        <ele>64</ele>
        <time>2021-05-30T15:58:48.000Z</time>
      </trkpt>
      <trkpt lat="47.07926" lon="-1.56657">
        <ele>64</ele>
        <time>2021-05-30T15:58:50.000Z</time>
      </trkpt>
      <trkpt lat="47.07928" lon="-1.56636">
        <ele>64</ele>
        <time>2021-05-30T15:58:53.000Z</time>
      </trkpt>
      <trkpt lat="47.07927" lon="-1.56622">
        <ele>65</ele>
        <time>2021-05-30T15:58:55.000Z</time>
      </trkpt>
      <trkpt lat="47.07926" lon="-1.56605">
        <ele>64</ele>
        <time>2021-05-30T15:58:57.000Z</time>
      </trkpt>
      <trkpt lat="47.07928" lon="-1.5659">
        <ele>65</ele>
        <time>2021-05-30T15:58:59.000Z</time>
      </trkpt>
      <trkpt lat="47.07931" lon="-1.56574">
        <ele>64</ele>
        <time>2021-05-30T15:59:01.000Z</time>
      </trkpt>
      <trkpt lat="47.07933" lon="-1.56558">
        <ele>63</ele>
        <time>2021-05-30T15:59:03.000Z</time>
      </trkpt>
      <trkpt lat="47.07932" lon="-1.56544">
        <ele>65</ele>
        <time>2021-05-30T15:59:05.000Z</time>
      </trkpt>
      <trkpt lat="47.07932" lon="-1.56529">
        <ele>66</ele>
        <time>2021-05-30T15:59:07.000Z</time>
      </trkpt>
      <trkpt lat="47.07932" lon="-1.56513">
        <ele>66</ele>
        <time>2021-05-30T15:59:09.000Z</time>
      </trkpt>
      <trkpt lat="47.07933" lon="-1.56498">
        <ele>63</ele>
        <time>2021-05-30T15:59:11.000Z</time>
      </trkpt>
      <trkpt lat="47.07933" lon="-1.5648">
        <ele>64</ele>
        <time>2021-05-30T15:59:13.000Z</time>
      </trkpt>
      <trkpt lat="47.07932" lon="-1.56465">
        <ele>64</ele>
        <time>2021-05-30T15:59:15.000Z</time>
      </trkpt>
      <trkpt lat="47.07927" lon="-1.56451">
        <ele>61</ele>
        <time>2021-05-30T15:59:17.000Z</time>
      </trkpt>
      <trkpt lat="47.07919" lon="-1.56434">
        <ele>59</ele>
        <time>2021-05-30T15:59:20.000Z</time>
      </trkpt>
      <trkpt lat="47.07916" lon="-1.56421">
        <ele>59</ele>
        <time>2021-05-30T15:59:22.000Z</time>
      </trkpt>
      <trkpt lat="47.07915" lon="-1.56406">
        <ele>61</ele>
        <time>2021-05-30T15:59:24.000Z</time>
      </trkpt>
      <trkpt lat="47.07919" lon="-1.56391">
        <ele>61</ele>
        <time>2021-05-30T15:59:26.000Z</time>
      </trkpt>
      <trkpt lat="47.07922" lon="-1.56376">
        <ele>61</ele>
        <time>2021-05-30T15:59:28.000Z</time>
      </trkpt>
      <trkpt lat="47.07926" lon="-1.5636">
        <ele>63</ele>
        <time>2021-05-30T15:59:30.000Z</time>
      </trkpt>
      <trkpt lat="47.07929" lon="-1.56343">
        <ele>61</ele>
        <time>2021-05-30T15:59:32.000Z</time>
      </trkpt>
      <trkpt lat="47.07935" lon="-1.56329">
        <ele>61</ele>
        <time>2021-05-30T15:59:34.000Z</time>
      </trkpt>
      <trkpt lat="47.07947" lon="-1.5632">
        <ele>62</ele>
        <time>2021-05-30T15:59:36.000Z</time>
      </trkpt>
      <trkpt lat="47.07958" lon="-1.56313">
        <ele>62</ele>
        <time>2021-05-30T15:59:38.000Z</time>
      </trkpt>
      <trkpt lat="47.07977" lon="-1.56307">
        <ele>62</ele>
        <time>2021-05-30T15:59:41.000Z</time>
      </trkpt>
      <trkpt lat="47.07995" lon="-1.56303">
        <ele>62</ele>
        <time>2021-05-30T15:59:44.000Z</time>
      </trkpt>
      <trkpt lat="47.08014" lon="-1.56298">
        <ele>61</ele>
        <time>2021-05-30T15:59:47.000Z</time>
      </trkpt>
      <trkpt lat="47.08026" lon="-1.56295">
        <ele>59</ele>
        <time>2021-05-30T15:59:49.000Z</time>
      </trkpt>
      <trkpt lat="47.08037" lon="-1.5629">
        <ele>60</ele>
        <time>2021-05-30T15:59:51.000Z</time>
      </trkpt>
      <trkpt lat="47.08048" lon="-1.56286">
        <ele>59</ele>
        <time>2021-05-30T15:59:53.000Z</time>
      </trkpt>
      <trkpt lat="47.08059" lon="-1.56279">
        <ele>60</ele>
        <time>2021-05-30T15:59:55.000Z</time>
      </trkpt>
      <trkpt lat="47.08069" lon="-1.5627">
        <ele>60</ele>
        <time>2021-05-30T15:59:57.000Z</time>
      </trkpt>
      <trkpt lat="47.08076" lon="-1.56261">
        <ele>59</ele>
        <time>2021-05-30T15:59:59.000Z</time>
      </trkpt>
      <trkpt lat="47.08087" lon="-1.56249">
        <ele>60</ele>
        <time>2021-05-30T16:00:01.000Z</time>
      </trkpt>
      <trkpt lat="47.08095" lon="-1.56238">
        <ele>60</ele>
        <time>2021-05-30T16:00:03.000Z</time>
      </trkpt>
      <trkpt lat="47.08102" lon="-1.56226">
        <ele>60</ele>
        <time>2021-05-30T16:00:05.000Z</time>
      </trkpt>
      <trkpt lat="47.08105" lon="-1.56214">
        <ele>60</ele>
        <time>2021-05-30T16:00:07.000Z</time>
      </trkpt>
      <trkpt lat="47.08116" lon="-1.56187">
        <ele>62</ele>
        <time>2021-05-30T16:00:11.000Z</time>
      </trkpt>
      <trkpt lat="47.08121" lon="-1.56173">
        <ele>62</ele>
        <time>2021-05-30T16:00:13.000Z</time>
      </trkpt>
      <trkpt lat="47.08126" lon="-1.56159">
        <ele>64</ele>
        <time>2021-05-30T16:00:15.000Z</time>
      </trkpt>
      <trkpt lat="47.08129" lon="-1.56146">
        <ele>64</ele>
        <time>2021-05-30T16:00:17.000Z</time>
      </trkpt>
      <trkpt lat="47.08132" lon="-1.56132">
        <ele>65</ele>
        <time>2021-05-30T16:00:19.000Z</time>
      </trkpt>
      <trkpt lat="47.08138" lon="-1.56117">
        <ele>65</ele>
        <time>2021-05-30T16:00:21.000Z</time>
      </trkpt>
      <trkpt lat="47.08144" lon="-1.56101">
        <ele>65</ele>
        <time>2021-05-30T16:00:23.000Z</time>
      </trkpt>
      <trkpt lat="47.08149" lon="-1.56085">
        <ele>66</ele>
        <time>2021-05-30T16:00:25.000Z</time>
      </trkpt>
      <trkpt lat="47.08154" lon="-1.56069">
        <ele>65</ele>
        <time>2021-05-30T16:00:27.000Z</time>
      </trkpt>
      <trkpt lat="47.08158" lon="-1.56055">
        <ele>65</ele>
        <time>2021-05-30T16:00:29.000Z</time>
      </trkpt>
      <trkpt lat="47.08163" lon="-1.56042">
        <ele>65</ele>
        <time>2021-05-30T16:00:31.000Z</time>
      </trkpt>
      <trkpt lat="47.08172" lon="-1.56014">
        <ele>68</ele>
        <time>2021-05-30T16:00:35.000Z</time>
      </trkpt>
      <trkpt lat="47.08177" lon="-1.56">
        <ele>68</ele>
        <time>2021-05-30T16:00:37.000Z</time>
      </trkpt>
      <trkpt lat="47.08183" lon="-1.55985">
        <ele>69</ele>
        <time>2021-05-30T16:00:39.000Z</time>
      </trkpt>
      <trkpt lat="47.08187" lon="-1.55971">
        <ele>69</ele>
        <time>2021-05-30T16:00:41.000Z</time>
      </trkpt>
      <trkpt lat="47.08192" lon="-1.55959">
        <ele>69</ele>
        <time>2021-05-30T16:00:43.000Z</time>
      </trkpt>
      <trkpt lat="47.08197" lon="-1.55945">
        <ele>68</ele>
        <time>2021-05-30T16:00:45.000Z</time>
      </trkpt>
      <trkpt lat="47.082" lon="-1.55927">
        <ele>70</ele>
        <time>2021-05-30T16:00:48.000Z</time>
      </trkpt>
      <trkpt lat="47.08206" lon="-1.55908">
        <ele>68</ele>
        <time>2021-05-30T16:00:50.000Z</time>
      </trkpt>
      <trkpt lat="47.08212" lon="-1.55892">
        <ele>69</ele>
        <time>2021-05-30T16:00:52.000Z</time>
      </trkpt>
      <trkpt lat="47.08217" lon="-1.55877">
        <ele>69</ele>
        <time>2021-05-30T16:00:54.000Z</time>
      </trkpt>
      <trkpt lat="47.08221" lon="-1.55861">
        <ele>68</ele>
        <time>2021-05-30T16:00:56.000Z</time>
      </trkpt>
      <trkpt lat="47.08227" lon="-1.55846">
        <ele>68</ele>
        <time>2021-05-30T16:00:58.000Z</time>
      </trkpt>
      <trkpt lat="47.08232" lon="-1.55831">
        <ele>67</ele>
        <time>2021-05-30T16:01:00.000Z</time>
      </trkpt>
      <trkpt lat="47.08237" lon="-1.55816">
        <ele>68</ele>
        <time>2021-05-30T16:01:02.000Z</time>
      </trkpt>
      <trkpt lat="47.08243" lon="-1.55801">
        <ele>69</ele>
        <time>2021-05-30T16:01:04.000Z</time>
      </trkpt>
      <trkpt lat="47.0825" lon="-1.55778">
        <ele>69</ele>
        <time>2021-05-30T16:01:07.000Z</time>
      </trkpt>
      <trkpt lat="47.08254" lon="-1.55764">
        <ele>67</ele>
        <time>2021-05-30T16:01:09.000Z</time>
      </trkpt>
      <trkpt lat="47.08259" lon="-1.55748">
        <ele>68</ele>
        <time>2021-05-30T16:01:12.000Z</time>
      </trkpt>
      <trkpt lat="47.08268" lon="-1.55725">
        <ele>71</ele>
        <time>2021-05-30T16:01:15.000Z</time>
      </trkpt>
      <trkpt lat="47.08273" lon="-1.55707">
        <ele>69</ele>
        <time>2021-05-30T16:01:17.000Z</time>
      </trkpt>
      <trkpt lat="47.08278" lon="-1.55689">
        <ele>67</ele>
        <time>2021-05-30T16:01:19.000Z</time>
      </trkpt>
      <trkpt lat="47.08282" lon="-1.55674">
        <ele>67</ele>
        <time>2021-05-30T16:01:21.000Z</time>
      </trkpt>
      <trkpt lat="47.08287" lon="-1.55658">
        <ele>67</ele>
        <time>2021-05-30T16:01:23.000Z</time>
      </trkpt>
      <trkpt lat="47.08294" lon="-1.5564">
        <ele>64</ele>
        <time>2021-05-30T16:01:25.000Z</time>
      </trkpt>
      <trkpt lat="47.083" lon="-1.55625">
        <ele>66</ele>
        <time>2021-05-30T16:01:27.000Z</time>
      </trkpt>
      <trkpt lat="47.08305" lon="-1.55608">
        <ele>66</ele>
        <time>2021-05-30T16:01:29.000Z</time>
      </trkpt>
      <trkpt lat="47.08309" lon="-1.55593">
        <ele>66</ele>
        <time>2021-05-30T16:01:31.000Z</time>
      </trkpt>
      <trkpt lat="47.08313" lon="-1.55577">
        <ele>66</ele>
        <time>2021-05-30T16:01:33.000Z</time>
      </trkpt>
      <trkpt lat="47.08317" lon="-1.55561">
        <ele>66</ele>
        <time>2021-05-30T16:01:35.000Z</time>
      </trkpt>
      <trkpt lat="47.08324" lon="-1.55545">
        <ele>66</ele>
        <time>2021-05-30T16:01:37.000Z</time>
      </trkpt>
      <trkpt lat="47.08331" lon="-1.55527">
        <ele>65</ele>
        <time>2021-05-30T16:01:39.000Z</time>
      </trkpt>
      <trkpt lat="47.08337" lon="-1.5551">
        <ele>65</ele>
        <time>2021-05-30T16:01:41.000Z</time>
      </trkpt>
      <trkpt lat="47.08343" lon="-1.55494">
        <ele>64</ele>
        <time>2021-05-30T16:01:43.000Z</time>
      </trkpt>
      <trkpt lat="47.08348" lon="-1.55478">
        <ele>65</ele>
        <time>2021-05-30T16:01:45.000Z</time>
      </trkpt>
      <trkpt lat="47.08353" lon="-1.55462">
        <ele>64</ele>
        <time>2021-05-30T16:01:47.000Z</time>
      </trkpt>
      <trkpt lat="47.08362" lon="-1.5544">
        <ele>65</ele>
        <time>2021-05-30T16:01:50.000Z</time>
      </trkpt>
      <trkpt lat="47.08366" lon="-1.55422">
        <ele>66</ele>
        <time>2021-05-30T16:01:52.000Z</time>
      </trkpt>
      <trkpt lat="47.08371" lon="-1.55404">
        <ele>65</ele>
        <time>2021-05-30T16:01:54.000Z</time>
      </trkpt>
      <trkpt lat="47.08376" lon="-1.55389">
        <ele>64</ele>
        <time>2021-05-30T16:01:56.000Z</time>
      </trkpt>
      <trkpt lat="47.0838" lon="-1.55372">
        <ele>63</ele>
        <time>2021-05-30T16:01:58.000Z</time>
      </trkpt>
      <trkpt lat="47.08386" lon="-1.55345">
        <ele>66</ele>
        <time>2021-05-30T16:02:01.000Z</time>
      </trkpt>
      <trkpt lat="47.0839" lon="-1.55326">
        <ele>65</ele>
        <time>2021-05-30T16:02:03.000Z</time>
      </trkpt>
      <trkpt lat="47.08393" lon="-1.55309">
        <ele>65</ele>
        <time>2021-05-30T16:02:05.000Z</time>
      </trkpt>
      <trkpt lat="47.08396" lon="-1.55291">
        <ele>65</ele>
        <time>2021-05-30T16:02:07.000Z</time>
      </trkpt>
      <trkpt lat="47.084" lon="-1.55273">
        <ele>64</ele>
        <time>2021-05-30T16:02:09.000Z</time>
      </trkpt>
      <trkpt lat="47.08403" lon="-1.55256">
        <ele>64</ele>
        <time>2021-05-30T16:02:11.000Z</time>
      </trkpt>
      <trkpt lat="47.08405" lon="-1.55239">
        <ele>65</ele>
        <time>2021-05-30T16:02:13.000Z</time>
      </trkpt>
      <trkpt lat="47.08408" lon="-1.55222">
        <ele>64</ele>
        <time>2021-05-30T16:02:15.000Z</time>
      </trkpt>
      <trkpt lat="47.08414" lon="-1.55194">
        <ele>63</ele>
        <time>2021-05-30T16:02:18.000Z</time>
      </trkpt>
      <trkpt lat="47.08416" lon="-1.55176">
        <ele>64</ele>
        <time>2021-05-30T16:02:20.000Z</time>
      </trkpt>
      <trkpt lat="47.08418" lon="-1.55157">
        <ele>60</ele>
        <time>2021-05-30T16:02:22.000Z</time>
      </trkpt>
      <trkpt lat="47.08422" lon="-1.55138">
        <ele>61</ele>
        <time>2021-05-30T16:02:24.000Z</time>
      </trkpt>
      <trkpt lat="47.08428" lon="-1.55111">
        <ele>62</ele>
        <time>2021-05-30T16:02:27.000Z</time>
      </trkpt>
      <trkpt lat="47.08431" lon="-1.55096">
        <ele>62</ele>
        <time>2021-05-30T16:02:29.000Z</time>
      </trkpt>
      <trkpt lat="47.08431" lon="-1.55077">
        <ele>62</ele>
        <time>2021-05-30T16:02:31.000Z</time>
      </trkpt>
      <trkpt lat="47.08433" lon="-1.55056">
        <ele>61</ele>
        <time>2021-05-30T16:02:33.000Z</time>
      </trkpt>
      <trkpt lat="47.08442" lon="-1.55021">
        <ele>60</ele>
        <time>2021-05-30T16:02:36.000Z</time>
      </trkpt>
      <trkpt lat="47.08444" lon="-1.55004">
        <ele>60</ele>
        <time>2021-05-30T16:02:38.000Z</time>
      </trkpt>
      <trkpt lat="47.08448" lon="-1.54984">
        <ele>61</ele>
        <time>2021-05-30T16:02:40.000Z</time>
      </trkpt>
      <trkpt lat="47.08452" lon="-1.54965">
        <ele>62</ele>
        <time>2021-05-30T16:02:42.000Z</time>
      </trkpt>
      <trkpt lat="47.08455" lon="-1.54946">
        <ele>63</ele>
        <time>2021-05-30T16:02:44.000Z</time>
      </trkpt>
      <trkpt lat="47.08459" lon="-1.54917">
        <ele>64</ele>
        <time>2021-05-30T16:02:47.000Z</time>
      </trkpt>
      <trkpt lat="47.08462" lon="-1.54899">
        <ele>64</ele>
        <time>2021-05-30T16:02:49.000Z</time>
      </trkpt>
      <trkpt lat="47.08465" lon="-1.54881">
        <ele>65</ele>
        <time>2021-05-30T16:02:51.000Z</time>
      </trkpt>
      <trkpt lat="47.08468" lon="-1.54862">
        <ele>65</ele>
        <time>2021-05-30T16:02:53.000Z</time>
      </trkpt>
      <trkpt lat="47.08474" lon="-1.54834">
        <ele>62</ele>
        <time>2021-05-30T16:02:56.000Z</time>
      </trkpt>
      <trkpt lat="47.08478" lon="-1.54813">
        <ele>63</ele>
        <time>2021-05-30T16:02:58.000Z</time>
      </trkpt>
      <trkpt lat="47.08482" lon="-1.54795">
        <ele>62</ele>
        <time>2021-05-30T16:03:00.000Z</time>
      </trkpt>
      <trkpt lat="47.08483" lon="-1.54777">
        <ele>61</ele>
        <time>2021-05-30T16:03:02.000Z</time>
      </trkpt>
      <trkpt lat="47.08486" lon="-1.54758">
        <ele>62</ele>
        <time>2021-05-30T16:03:04.000Z</time>
      </trkpt>
      <trkpt lat="47.08489" lon="-1.54737">
        <ele>62</ele>
        <time>2021-05-30T16:03:06.000Z</time>
      </trkpt>
      <trkpt lat="47.08493" lon="-1.54718">
        <ele>63</ele>
        <time>2021-05-30T16:03:08.000Z</time>
      </trkpt>
      <trkpt lat="47.08496" lon="-1.54701">
        <ele>64</ele>
        <time>2021-05-30T16:03:10.000Z</time>
      </trkpt>
      <trkpt lat="47.08498" lon="-1.54681">
        <ele>63</ele>
        <time>2021-05-30T16:03:13.000Z</time>
      </trkpt>
      <trkpt lat="47.08502" lon="-1.54649">
        <ele>66</ele>
        <time>2021-05-30T16:03:16.000Z</time>
      </trkpt>
      <trkpt lat="47.08506" lon="-1.54627">
        <ele>65</ele>
        <time>2021-05-30T16:03:18.000Z</time>
      </trkpt>
      <trkpt lat="47.08508" lon="-1.54609">
        <ele>65</ele>
        <time>2021-05-30T16:03:20.000Z</time>
      </trkpt>
      <trkpt lat="47.08512" lon="-1.54588">
        <ele>65</ele>
        <time>2021-05-30T16:03:22.000Z</time>
      </trkpt>
      <trkpt lat="47.08516" lon="-1.54566">
        <ele>66</ele>
        <time>2021-05-30T16:03:24.000Z</time>
      </trkpt>
      <trkpt lat="47.08518" lon="-1.54548">
        <ele>65</ele>
        <time>2021-05-30T16:03:26.000Z</time>
      </trkpt>
      <trkpt lat="47.08522" lon="-1.54528">
        <ele>66</ele>
        <time>2021-05-30T16:03:28.000Z</time>
      </trkpt>
      <trkpt lat="47.08526" lon="-1.54508">
        <ele>66</ele>
        <time>2021-05-30T16:03:30.000Z</time>
      </trkpt>
      <trkpt lat="47.0853" lon="-1.54488">
        <ele>66</ele>
        <time>2021-05-30T16:03:32.000Z</time>
      </trkpt>
      <trkpt lat="47.08535" lon="-1.5447">
        <ele>64</ele>
        <time>2021-05-30T16:03:34.000Z</time>
      </trkpt>
      <trkpt lat="47.08539" lon="-1.54456">
        <ele>68</ele>
        <time>2021-05-30T16:03:36.000Z</time>
      </trkpt>
      <trkpt lat="47.08543" lon="-1.54437">
        <ele>71</ele>
        <time>2021-05-30T16:03:38.000Z</time>
      </trkpt>
      <trkpt lat="47.0855" lon="-1.54418">
        <ele>70</ele>
        <time>2021-05-30T16:03:40.000Z</time>
      </trkpt>
      <trkpt lat="47.08559" lon="-1.54391">
        <ele>69</ele>
        <time>2021-05-30T16:03:43.000Z</time>
      </trkpt>
      <trkpt lat="47.08565" lon="-1.54371">
        <ele>69</ele>
        <time>2021-05-30T16:03:45.000Z</time>
      </trkpt>
      <trkpt lat="47.08572" lon="-1.54352">
        <ele>68</ele>
        <time>2021-05-30T16:03:47.000Z</time>
      </trkpt>
      <trkpt lat="47.08579" lon="-1.54334">
        <ele>65</ele>
        <time>2021-05-30T16:03:49.000Z</time>
      </trkpt>
      <trkpt lat="47.08585" lon="-1.54316">
        <ele>65</ele>
        <time>2021-05-30T16:03:51.000Z</time>
      </trkpt>
      <trkpt lat="47.0859" lon="-1.54297">
        <ele>66</ele>
        <time>2021-05-30T16:03:53.000Z</time>
      </trkpt>
      <trkpt lat="47.086" lon="-1.5427">
        <ele>65</ele>
        <time>2021-05-30T16:03:56.000Z</time>
      </trkpt>
      <trkpt lat="47.08608" lon="-1.54254">
        <ele>64</ele>
        <time>2021-05-30T16:03:58.000Z</time>
      </trkpt>
      <trkpt lat="47.08614" lon="-1.54235">
        <ele>63</ele>
        <time>2021-05-30T16:04:00.000Z</time>
      </trkpt>
      <trkpt lat="47.0862" lon="-1.54214">
        <ele>63</ele>
        <time>2021-05-30T16:04:02.000Z</time>
      </trkpt>
      <trkpt lat="47.08626" lon="-1.54195">
        <ele>63</ele>
        <time>2021-05-30T16:04:04.000Z</time>
      </trkpt>
      <trkpt lat="47.08629" lon="-1.54175">
        <ele>64</ele>
        <time>2021-05-30T16:04:06.000Z</time>
      </trkpt>
      <trkpt lat="47.0863" lon="-1.54156">
        <ele>64</ele>
        <time>2021-05-30T16:04:08.000Z</time>
      </trkpt>
      <trkpt lat="47.08628" lon="-1.54126">
        <ele>63</ele>
        <time>2021-05-30T16:04:11.000Z</time>
      </trkpt>
      <trkpt lat="47.08626" lon="-1.54106">
        <ele>63</ele>
        <time>2021-05-30T16:04:13.000Z</time>
      </trkpt>
      <trkpt lat="47.08624" lon="-1.54086">
        <ele>64</ele>
        <time>2021-05-30T16:04:15.000Z</time>
      </trkpt>
      <trkpt lat="47.08621" lon="-1.54066">
        <ele>63</ele>
        <time>2021-05-30T16:04:17.000Z</time>
      </trkpt>
      <trkpt lat="47.08617" lon="-1.54046">
        <ele>62</ele>
        <time>2021-05-30T16:04:19.000Z</time>
      </trkpt>
      <trkpt lat="47.08613" lon="-1.54027">
        <ele>62</ele>
        <time>2021-05-30T16:04:21.000Z</time>
      </trkpt>
      <trkpt lat="47.08611" lon="-1.54008">
        <ele>62</ele>
        <time>2021-05-30T16:04:23.000Z</time>
      </trkpt>
      <trkpt lat="47.0861" lon="-1.53987">
        <ele>64</ele>
        <time>2021-05-30T16:04:25.000Z</time>
      </trkpt>
      <trkpt lat="47.0861" lon="-1.53967">
        <ele>64</ele>
        <time>2021-05-30T16:04:27.000Z</time>
      </trkpt>
      <trkpt lat="47.08609" lon="-1.53946">
        <ele>64</ele>
        <time>2021-05-30T16:04:29.000Z</time>
      </trkpt>
      <trkpt lat="47.0861" lon="-1.53928">
        <ele>63</ele>
        <time>2021-05-30T16:04:31.000Z</time>
      </trkpt>
      <trkpt lat="47.08612" lon="-1.53912">
        <ele>64</ele>
        <time>2021-05-30T16:04:33.000Z</time>
      </trkpt>
      <trkpt lat="47.08616" lon="-1.53897">
        <ele>64</ele>
        <time>2021-05-30T16:04:35.000Z</time>
      </trkpt>
      <trkpt lat="47.08619" lon="-1.53878">
        <ele>65</ele>
        <time>2021-05-30T16:04:37.000Z</time>
      </trkpt>
      <trkpt lat="47.08624" lon="-1.53861">
        <ele>65</ele>
        <time>2021-05-30T16:04:39.000Z</time>
      </trkpt>
      <trkpt lat="47.08632" lon="-1.53835">
        <ele>64</ele>
        <time>2021-05-30T16:04:42.000Z</time>
      </trkpt>
      <trkpt lat="47.08638" lon="-1.53817">
        <ele>65</ele>
        <time>2021-05-30T16:04:44.000Z</time>
      </trkpt>
      <trkpt lat="47.08643" lon="-1.53799">
        <ele>65</ele>
        <time>2021-05-30T16:04:46.000Z</time>
      </trkpt>
      <trkpt lat="47.08649" lon="-1.53782">
        <ele>65</ele>
        <time>2021-05-30T16:04:48.000Z</time>
      </trkpt>
      <trkpt lat="47.08654" lon="-1.53764">
        <ele>65</ele>
        <time>2021-05-30T16:04:50.000Z</time>
      </trkpt>
      <trkpt lat="47.0866" lon="-1.53747">
        <ele>66</ele>
        <time>2021-05-30T16:04:52.000Z</time>
      </trkpt>
      <trkpt lat="47.08665" lon="-1.5373">
        <ele>66</ele>
        <time>2021-05-30T16:04:54.000Z</time>
      </trkpt>
      <trkpt lat="47.0867" lon="-1.53713">
        <ele>66</ele>
        <time>2021-05-30T16:04:56.000Z</time>
      </trkpt>
      <trkpt lat="47.08679" lon="-1.5368">
        <ele>63</ele>
        <time>2021-05-30T16:05:00.000Z</time>
      </trkpt>
      <trkpt lat="47.08684" lon="-1.53664">
        <ele>64</ele>
        <time>2021-05-30T16:05:02.000Z</time>
      </trkpt>
      <trkpt lat="47.0869" lon="-1.53645">
        <ele>64</ele>
        <time>2021-05-30T16:05:04.000Z</time>
      </trkpt>
      <trkpt lat="47.08697" lon="-1.53627">
        <ele>65</ele>
        <time>2021-05-30T16:05:06.000Z</time>
      </trkpt>
      <trkpt lat="47.08702" lon="-1.53609">
        <ele>66</ele>
        <time>2021-05-30T16:05:08.000Z</time>
      </trkpt>
      <trkpt lat="47.08708" lon="-1.53592">
        <ele>66</ele>
        <time>2021-05-30T16:05:10.000Z</time>
      </trkpt>
      <trkpt lat="47.08714" lon="-1.53575">
        <ele>66</ele>
        <time>2021-05-30T16:05:12.000Z</time>
      </trkpt>
      <trkpt lat="47.08719" lon="-1.53558">
        <ele>67</ele>
        <time>2021-05-30T16:05:14.000Z</time>
      </trkpt>
      <trkpt lat="47.08727" lon="-1.53534">
        <ele>67</ele>
        <time>2021-05-30T16:05:17.000Z</time>
      </trkpt>
      <trkpt lat="47.08732" lon="-1.53518">
        <ele>66</ele>
        <time>2021-05-30T16:05:19.000Z</time>
      </trkpt>
      <trkpt lat="47.08736" lon="-1.53502">
        <ele>67</ele>
        <time>2021-05-30T16:05:21.000Z</time>
      </trkpt>
      <trkpt lat="47.08744" lon="-1.53478">
        <ele>66</ele>
        <time>2021-05-30T16:05:24.000Z</time>
      </trkpt>
      <trkpt lat="47.08749" lon="-1.53463">
        <ele>66</ele>
        <time>2021-05-30T16:05:26.000Z</time>
      </trkpt>
      <trkpt lat="47.08753" lon="-1.53448">
        <ele>66</ele>
        <time>2021-05-30T16:05:28.000Z</time>
      </trkpt>
      <trkpt lat="47.08759" lon="-1.53432">
        <ele>66</ele>
        <time>2021-05-30T16:05:30.000Z</time>
      </trkpt>
      <trkpt lat="47.08764" lon="-1.53417">
        <ele>66</ele>
        <time>2021-05-30T16:05:32.000Z</time>
      </trkpt>
      <trkpt lat="47.0877" lon="-1.53401">
        <ele>66</ele>
        <time>2021-05-30T16:05:34.000Z</time>
      </trkpt>
      <trkpt lat="47.08775" lon="-1.53385">
        <ele>66</ele>
        <time>2021-05-30T16:05:36.000Z</time>
      </trkpt>
      <trkpt lat="47.08782" lon="-1.53361">
        <ele>67</ele>
        <time>2021-05-30T16:05:39.000Z</time>
      </trkpt>
      <trkpt lat="47.08786" lon="-1.53344">
        <ele>63</ele>
        <time>2021-05-30T16:05:41.000Z</time>
      </trkpt>
      <trkpt lat="47.08793" lon="-1.53328">
        <ele>64</ele>
        <time>2021-05-30T16:05:43.000Z</time>
      </trkpt>
      <trkpt lat="47.088" lon="-1.53312">
        <ele>64</ele>
        <time>2021-05-30T16:05:45.000Z</time>
      </trkpt>
      <trkpt lat="47.08807" lon="-1.53295">
        <ele>65</ele>
        <time>2021-05-30T16:05:47.000Z</time>
      </trkpt>
      <trkpt lat="47.08814" lon="-1.53279">
        <ele>64</ele>
        <time>2021-05-30T16:05:49.000Z</time>
      </trkpt>
      <trkpt lat="47.0882" lon="-1.53263">
        <ele>64</ele>
        <time>2021-05-30T16:05:51.000Z</time>
      </trkpt>
      <trkpt lat="47.08827" lon="-1.53248">
        <ele>64</ele>
        <time>2021-05-30T16:05:53.000Z</time>
      </trkpt>
      <trkpt lat="47.08838" lon="-1.53224">
        <ele>63</ele>
        <time>2021-05-30T16:05:56.000Z</time>
      </trkpt>
      <trkpt lat="47.08845" lon="-1.53209">
        <ele>63</ele>
        <time>2021-05-30T16:05:58.000Z</time>
      </trkpt>
      <trkpt lat="47.08852" lon="-1.53194">
        <ele>63</ele>
        <time>2021-05-30T16:06:00.000Z</time>
      </trkpt>
      <trkpt lat="47.0886" lon="-1.53179">
        <ele>63</ele>
        <time>2021-05-30T16:06:02.000Z</time>
      </trkpt>
      <trkpt lat="47.08869" lon="-1.53164">
        <ele>62</ele>
        <time>2021-05-30T16:06:04.000Z</time>
      </trkpt>
      <trkpt lat="47.08878" lon="-1.53151">
        <ele>62</ele>
        <time>2021-05-30T16:06:06.000Z</time>
      </trkpt>
      <trkpt lat="47.08889" lon="-1.53141">
        <ele>64</ele>
        <time>2021-05-30T16:06:08.000Z</time>
      </trkpt>
      <trkpt lat="47.08899" lon="-1.53131">
        <ele>64</ele>
        <time>2021-05-30T16:06:10.000Z</time>
      </trkpt>
      <trkpt lat="47.0891" lon="-1.53121">
        <ele>64</ele>
        <time>2021-05-30T16:06:12.000Z</time>
      </trkpt>
      <trkpt lat="47.08927" lon="-1.5311">
        <ele>64</ele>
        <time>2021-05-30T16:06:15.000Z</time>
      </trkpt>
      <trkpt lat="47.08936" lon="-1.53102">
        <ele>64</ele>
        <time>2021-05-30T16:06:17.000Z</time>
      </trkpt>
      <trkpt lat="47.08946" lon="-1.53093">
        <ele>63</ele>
        <time>2021-05-30T16:06:19.000Z</time>
      </trkpt>
      <trkpt lat="47.08958" lon="-1.53089">
        <ele>63</ele>
        <time>2021-05-30T16:06:21.000Z</time>
      </trkpt>
      <trkpt lat="47.08979" lon="-1.53088">
        <ele>64</ele>
        <time>2021-05-30T16:06:24.000Z</time>
      </trkpt>
      <trkpt lat="47.08993" lon="-1.53087">
        <ele>63</ele>
        <time>2021-05-30T16:06:26.000Z</time>
      </trkpt>
      <trkpt lat="47.09005" lon="-1.53083">
        <ele>63</ele>
        <time>2021-05-30T16:06:28.000Z</time>
      </trkpt>
      <trkpt lat="47.09018" lon="-1.53081">
        <ele>63</ele>
        <time>2021-05-30T16:06:30.000Z</time>
      </trkpt>
      <trkpt lat="47.09038" lon="-1.53077">
        <ele>62</ele>
        <time>2021-05-30T16:06:33.000Z</time>
      </trkpt>
      <trkpt lat="47.09049" lon="-1.53073">
        <ele>62</ele>
        <time>2021-05-30T16:06:35.000Z</time>
      </trkpt>
      <trkpt lat="47.0906" lon="-1.53068">
        <ele>63</ele>
        <time>2021-05-30T16:06:37.000Z</time>
      </trkpt>
      <trkpt lat="47.09073" lon="-1.5306">
        <ele>62</ele>
        <time>2021-05-30T16:06:39.000Z</time>
      </trkpt>
      <trkpt lat="47.09083" lon="-1.5305">
        <ele>62</ele>
        <time>2021-05-30T16:06:41.000Z</time>
      </trkpt>
      <trkpt lat="47.09092" lon="-1.53039">
        <ele>62</ele>
        <time>2021-05-30T16:06:43.000Z</time>
      </trkpt>
      <trkpt lat="47.09101" lon="-1.53026">
        <ele>61</ele>
        <time>2021-05-30T16:06:45.000Z</time>
      </trkpt>
      <trkpt lat="47.09108" lon="-1.53014">
        <ele>61</ele>
        <time>2021-05-30T16:06:47.000Z</time>
      </trkpt>
      <trkpt lat="47.09111" lon="-1.52999">
        <ele>61</ele>
        <time>2021-05-30T16:06:51.000Z</time>
      </trkpt>
      <trkpt lat="47.0911" lon="-1.52983">
        <ele>62</ele>
        <time>2021-05-30T16:06:54.000Z</time>
      </trkpt>
      <trkpt lat="47.09114" lon="-1.52968">
        <ele>62</ele>
        <time>2021-05-30T16:06:56.000Z</time>
      </trkpt>
      <trkpt lat="47.09124" lon="-1.52956">
        <ele>61</ele>
        <time>2021-05-30T16:06:58.000Z</time>
      </trkpt>
      <trkpt lat="47.09132" lon="-1.52941">
        <ele>60</ele>
        <time>2021-05-30T16:07:00.000Z</time>
      </trkpt>
      <trkpt lat="47.09134" lon="-1.52921">
        <ele>60</ele>
        <time>2021-05-30T16:07:02.000Z</time>
      </trkpt>
      <trkpt lat="47.09135" lon="-1.52903">
        <ele>60</ele>
        <time>2021-05-30T16:07:04.000Z</time>
      </trkpt>
      <trkpt lat="47.09135" lon="-1.52882">
        <ele>56</ele>
        <time>2021-05-30T16:07:07.000Z</time>
      </trkpt>
      <trkpt lat="47.09134" lon="-1.52857">
        <ele>58</ele>
        <time>2021-05-30T16:07:09.000Z</time>
      </trkpt>
      <trkpt lat="47.09133" lon="-1.52836">
        <ele>58</ele>
        <time>2021-05-30T16:07:11.000Z</time>
      </trkpt>
      <trkpt lat="47.09133" lon="-1.52817">
        <ele>56</ele>
        <time>2021-05-30T16:07:13.000Z</time>
      </trkpt>
      <trkpt lat="47.09132" lon="-1.52798">
        <ele>58</ele>
        <time>2021-05-30T16:07:15.000Z</time>
      </trkpt>
      <trkpt lat="47.09132" lon="-1.52777">
        <ele>59</ele>
        <time>2021-05-30T16:07:17.000Z</time>
      </trkpt>
      <trkpt lat="47.09131" lon="-1.52749">
        <ele>61</ele>
        <time>2021-05-30T16:07:20.000Z</time>
      </trkpt>
      <trkpt lat="47.09128" lon="-1.52734">
        <ele>61</ele>
        <time>2021-05-30T16:07:22.000Z</time>
      </trkpt>
      <trkpt lat="47.09122" lon="-1.52714">
        <ele>61</ele>
        <time>2021-05-30T16:07:24.000Z</time>
      </trkpt>
      <trkpt lat="47.09115" lon="-1.52698">
        <ele>62</ele>
        <time>2021-05-30T16:07:26.000Z</time>
      </trkpt>
      <trkpt lat="47.09107" lon="-1.52683">
        <ele>62</ele>
        <time>2021-05-30T16:07:28.000Z</time>
      </trkpt>
      <trkpt lat="47.09098" lon="-1.52672">
        <ele>62</ele>
        <time>2021-05-30T16:07:30.000Z</time>
      </trkpt>
      <trkpt lat="47.09091" lon="-1.52658">
        <ele>63</ele>
        <time>2021-05-30T16:07:32.000Z</time>
      </trkpt>
      <trkpt lat="47.09097" lon="-1.52627">
        <ele>63</ele>
        <time>2021-05-30T16:07:35.000Z</time>
      </trkpt>
      <trkpt lat="47.09102" lon="-1.52609">
        <ele>62</ele>
        <time>2021-05-30T16:07:37.000Z</time>
      </trkpt>
      <trkpt lat="47.09106" lon="-1.5259">
        <ele>61</ele>
        <time>2021-05-30T16:07:39.000Z</time>
      </trkpt>
      <trkpt lat="47.09109" lon="-1.5257">
        <ele>60</ele>
        <time>2021-05-30T16:07:41.000Z</time>
      </trkpt>
      <trkpt lat="47.09111" lon="-1.52551">
        <ele>60</ele>
        <time>2021-05-30T16:07:43.000Z</time>
      </trkpt>
      <trkpt lat="47.09111" lon="-1.52516">
        <ele>58</ele>
        <time>2021-05-30T16:07:46.000Z</time>
      </trkpt>
      <trkpt lat="47.0911" lon="-1.52495">
        <ele>59</ele>
        <time>2021-05-30T16:07:48.000Z</time>
      </trkpt>
      <trkpt lat="47.09114" lon="-1.52477">
        <ele>59</ele>
        <time>2021-05-30T16:07:50.000Z</time>
      </trkpt>
      <trkpt lat="47.09116" lon="-1.52458">
        <ele>60</ele>
        <time>2021-05-30T16:07:52.000Z</time>
      </trkpt>
      <trkpt lat="47.09118" lon="-1.52439">
        <ele>60</ele>
        <time>2021-05-30T16:07:54.000Z</time>
      </trkpt>
      <trkpt lat="47.0912" lon="-1.52418">
        <ele>60</ele>
        <time>2021-05-30T16:07:56.000Z</time>
      </trkpt>
      <trkpt lat="47.0912" lon="-1.52398">
        <ele>60</ele>
        <time>2021-05-30T16:07:58.000Z</time>
      </trkpt>
      <trkpt lat="47.09122" lon="-1.52377">
        <ele>60</ele>
        <time>2021-05-30T16:08:00.000Z</time>
      </trkpt>
      <trkpt lat="47.09125" lon="-1.52358">
        <ele>59</ele>
        <time>2021-05-30T16:08:02.000Z</time>
      </trkpt>
      <trkpt lat="47.09127" lon="-1.52339">
        <ele>60</ele>
        <time>2021-05-30T16:08:04.000Z</time>
      </trkpt>
      <trkpt lat="47.09128" lon="-1.5232">
        <ele>61</ele>
        <time>2021-05-30T16:08:06.000Z</time>
      </trkpt>
      <trkpt lat="47.09129" lon="-1.52301">
        <ele>61</ele>
        <time>2021-05-30T16:08:08.000Z</time>
      </trkpt>
      <trkpt lat="47.09131" lon="-1.52282">
        <ele>61</ele>
        <time>2021-05-30T16:08:10.000Z</time>
      </trkpt>
      <trkpt lat="47.09133" lon="-1.52264">
        <ele>61</ele>
        <time>2021-05-30T16:08:12.000Z</time>
      </trkpt>
      <trkpt lat="47.09137" lon="-1.52247">
        <ele>61</ele>
        <time>2021-05-30T16:08:14.000Z</time>
      </trkpt>
      <trkpt lat="47.09141" lon="-1.52229">
        <ele>61</ele>
        <time>2021-05-30T16:08:16.000Z</time>
      </trkpt>
      <trkpt lat="47.09146" lon="-1.52212">
        <ele>60</ele>
        <time>2021-05-30T16:08:18.000Z</time>
      </trkpt>
      <trkpt lat="47.0915" lon="-1.52194">
        <ele>60</ele>
        <time>2021-05-30T16:08:20.000Z</time>
      </trkpt>
      <trkpt lat="47.09161" lon="-1.52171">
        <ele>59</ele>
        <time>2021-05-30T16:08:23.000Z</time>
      </trkpt>
      <trkpt lat="47.09169" lon="-1.52155">
        <ele>59</ele>
        <time>2021-05-30T16:08:25.000Z</time>
      </trkpt>
      <trkpt lat="47.09176" lon="-1.52138">
        <ele>58</ele>
        <time>2021-05-30T16:08:27.000Z</time>
      </trkpt>
      <trkpt lat="47.09184" lon="-1.52121">
        <ele>58</ele>
        <time>2021-05-30T16:08:29.000Z</time>
      </trkpt>
      <trkpt lat="47.09191" lon="-1.52104">
        <ele>58</ele>
        <time>2021-05-30T16:08:31.000Z</time>
      </trkpt>
      <trkpt lat="47.09198" lon="-1.52087">
        <ele>57</ele>
        <time>2021-05-30T16:08:33.000Z</time>
      </trkpt>
      <trkpt lat="47.09206" lon="-1.5207">
        <ele>57</ele>
        <time>2021-05-30T16:08:35.000Z</time>
      </trkpt>
      <trkpt lat="47.09213" lon="-1.52052">
        <ele>57</ele>
        <time>2021-05-30T16:08:37.000Z</time>
      </trkpt>
      <trkpt lat="47.09221" lon="-1.52035">
        <ele>57</ele>
        <time>2021-05-30T16:08:39.000Z</time>
      </trkpt>
      <trkpt lat="47.09232" lon="-1.52009">
        <ele>56</ele>
        <time>2021-05-30T16:08:42.000Z</time>
      </trkpt>
      <trkpt lat="47.09239" lon="-1.51994">
        <ele>56</ele>
        <time>2021-05-30T16:08:44.000Z</time>
      </trkpt>
      <trkpt lat="47.09247" lon="-1.51976">
        <ele>56</ele>
        <time>2021-05-30T16:08:46.000Z</time>
      </trkpt>
      <trkpt lat="47.09254" lon="-1.5196">
        <ele>56</ele>
        <time>2021-05-30T16:08:48.000Z</time>
      </trkpt>
      <trkpt lat="47.09261" lon="-1.51945">
        <ele>56</ele>
        <time>2021-05-30T16:08:50.000Z</time>
      </trkpt>
      <trkpt lat="47.09268" lon="-1.51929">
        <ele>56</ele>
        <time>2021-05-30T16:08:52.000Z</time>
      </trkpt>
      <trkpt lat="47.09273" lon="-1.51914">
        <ele>57</ele>
        <time>2021-05-30T16:08:54.000Z</time>
      </trkpt>
      <trkpt lat="47.09279" lon="-1.51899">
        <ele>57</ele>
        <time>2021-05-30T16:08:56.000Z</time>
      </trkpt>
      <trkpt lat="47.09286" lon="-1.51883">
        <ele>56</ele>
        <time>2021-05-30T16:08:58.000Z</time>
      </trkpt>
      <trkpt lat="47.09293" lon="-1.51866">
        <ele>56</ele>
        <time>2021-05-30T16:09:00.000Z</time>
      </trkpt>
      <trkpt lat="47.093" lon="-1.5185">
        <ele>56</ele>
        <time>2021-05-30T16:09:02.000Z</time>
      </trkpt>
      <trkpt lat="47.0931" lon="-1.51825">
        <ele>55</ele>
        <time>2021-05-30T16:09:05.000Z</time>
      </trkpt>
      <trkpt lat="47.09317" lon="-1.5181">
        <ele>54</ele>
        <time>2021-05-30T16:09:07.000Z</time>
      </trkpt>
      <trkpt lat="47.09325" lon="-1.51793">
        <ele>54</ele>
        <time>2021-05-30T16:09:09.000Z</time>
      </trkpt>
      <trkpt lat="47.09333" lon="-1.51774">
        <ele>54</ele>
        <time>2021-05-30T16:09:11.000Z</time>
      </trkpt>
      <trkpt lat="47.0934" lon="-1.51758">
        <ele>54</ele>
        <time>2021-05-30T16:09:13.000Z</time>
      </trkpt>
      <trkpt lat="47.09347" lon="-1.51741">
        <ele>53</ele>
        <time>2021-05-30T16:09:15.000Z</time>
      </trkpt>
      <trkpt lat="47.09355" lon="-1.51724">
        <ele>53</ele>
        <time>2021-05-30T16:09:17.000Z</time>
      </trkpt>
      <trkpt lat="47.09366" lon="-1.517">
        <ele>52</ele>
        <time>2021-05-30T16:09:20.000Z</time>
      </trkpt>
      <trkpt lat="47.09373" lon="-1.51682">
        <ele>52</ele>
        <time>2021-05-30T16:09:22.000Z</time>
      </trkpt>
      <trkpt lat="47.0938" lon="-1.51664">
        <ele>52</ele>
        <time>2021-05-30T16:09:24.000Z</time>
      </trkpt>
      <trkpt lat="47.09388" lon="-1.51646">
        <ele>53</ele>
        <time>2021-05-30T16:09:26.000Z</time>
      </trkpt>
      <trkpt lat="47.09398" lon="-1.51618">
        <ele>51</ele>
        <time>2021-05-30T16:09:29.000Z</time>
      </trkpt>
      <trkpt lat="47.09404" lon="-1.51599">
        <ele>50</ele>
        <time>2021-05-30T16:09:31.000Z</time>
      </trkpt>
      <trkpt lat="47.09412" lon="-1.51584">
        <ele>51</ele>
        <time>2021-05-30T16:09:33.000Z</time>
      </trkpt>
      <trkpt lat="47.09421" lon="-1.51567">
        <ele>49</ele>
        <time>2021-05-30T16:09:35.000Z</time>
      </trkpt>
      <trkpt lat="47.09429" lon="-1.51551">
        <ele>48</ele>
        <time>2021-05-30T16:09:37.000Z</time>
      </trkpt>
      <trkpt lat="47.09439" lon="-1.51529">
        <ele>55</ele>
        <time>2021-05-30T16:09:40.000Z</time>
      </trkpt>
      <trkpt lat="47.09446" lon="-1.51512">
        <ele>56</ele>
        <time>2021-05-30T16:09:42.000Z</time>
      </trkpt>
      <trkpt lat="47.09453" lon="-1.51495">
        <ele>57</ele>
        <time>2021-05-30T16:09:44.000Z</time>
      </trkpt>
      <trkpt lat="47.09458" lon="-1.5148">
        <ele>55</ele>
        <time>2021-05-30T16:09:46.000Z</time>
      </trkpt>
      <trkpt lat="47.09465" lon="-1.51463">
        <ele>55</ele>
        <time>2021-05-30T16:09:48.000Z</time>
      </trkpt>
      <trkpt lat="47.09477" lon="-1.51438">
        <ele>56</ele>
        <time>2021-05-30T16:09:51.000Z</time>
      </trkpt>
      <trkpt lat="47.09484" lon="-1.51423">
        <ele>56</ele>
        <time>2021-05-30T16:09:53.000Z</time>
      </trkpt>
      <trkpt lat="47.0949" lon="-1.51406">
        <ele>57</ele>
        <time>2021-05-30T16:09:55.000Z</time>
      </trkpt>
      <trkpt lat="47.09495" lon="-1.51389">
        <ele>56</ele>
        <time>2021-05-30T16:09:57.000Z</time>
      </trkpt>
      <trkpt lat="47.09498" lon="-1.51369">
        <ele>57</ele>
        <time>2021-05-30T16:09:59.000Z</time>
      </trkpt>
      <trkpt lat="47.09501" lon="-1.5135">
        <ele>56</ele>
        <time>2021-05-30T16:10:01.000Z</time>
      </trkpt>
      <trkpt lat="47.09501" lon="-1.5133">
        <ele>56</ele>
        <time>2021-05-30T16:10:03.000Z</time>
      </trkpt>
      <trkpt lat="47.09498" lon="-1.51311">
        <ele>57</ele>
        <time>2021-05-30T16:10:05.000Z</time>
      </trkpt>
      <trkpt lat="47.09494" lon="-1.51293">
        <ele>57</ele>
        <time>2021-05-30T16:10:07.000Z</time>
      </trkpt>
      <trkpt lat="47.09489" lon="-1.51275">
        <ele>57</ele>
        <time>2021-05-30T16:10:09.000Z</time>
      </trkpt>
      <trkpt lat="47.09483" lon="-1.51259">
        <ele>54</ele>
        <time>2021-05-30T16:10:11.000Z</time>
      </trkpt>
      <trkpt lat="47.09477" lon="-1.5124">
        <ele>55</ele>
        <time>2021-05-30T16:10:13.000Z</time>
      </trkpt>
      <trkpt lat="47.09472" lon="-1.51219">
        <ele>54</ele>
        <time>2021-05-30T16:10:15.000Z</time>
      </trkpt>
      <trkpt lat="47.09466" lon="-1.51199">
        <ele>54</ele>
        <time>2021-05-30T16:10:17.000Z</time>
      </trkpt>
      <trkpt lat="47.0946" lon="-1.51184">
        <ele>55</ele>
        <time>2021-05-30T16:10:19.000Z</time>
      </trkpt>
      <trkpt lat="47.09456" lon="-1.51165">
        <ele>55</ele>
        <time>2021-05-30T16:10:21.000Z</time>
      </trkpt>
      <trkpt lat="47.0945" lon="-1.51133">
        <ele>55</ele>
        <time>2021-05-30T16:10:24.000Z</time>
      </trkpt>
      <trkpt lat="47.09445" lon="-1.51115">
        <ele>53</ele>
        <time>2021-05-30T16:10:26.000Z</time>
      </trkpt>
      <trkpt lat="47.09442" lon="-1.51096">
        <ele>52</ele>
        <time>2021-05-30T16:10:28.000Z</time>
      </trkpt>
      <trkpt lat="47.09436" lon="-1.51078">
        <ele>52</ele>
        <time>2021-05-30T16:10:30.000Z</time>
      </trkpt>
      <trkpt lat="47.0943" lon="-1.51059">
        <ele>53</ele>
        <time>2021-05-30T16:10:32.000Z</time>
      </trkpt>
      <trkpt lat="47.09425" lon="-1.51042">
        <ele>53</ele>
        <time>2021-05-30T16:10:34.000Z</time>
      </trkpt>
      <trkpt lat="47.09418" lon="-1.51026">
        <ele>54</ele>
        <time>2021-05-30T16:10:36.000Z</time>
      </trkpt>
      <trkpt lat="47.09413" lon="-1.51008">
        <ele>55</ele>
        <time>2021-05-30T16:10:38.000Z</time>
      </trkpt>
      <trkpt lat="47.0941" lon="-1.50991">
        <ele>54</ele>
        <time>2021-05-30T16:10:40.000Z</time>
      </trkpt>
      <trkpt lat="47.09406" lon="-1.50974">
        <ele>54</ele>
        <time>2021-05-30T16:10:42.000Z</time>
      </trkpt>
      <trkpt lat="47.09402" lon="-1.50957">
        <ele>55</ele>
        <time>2021-05-30T16:10:44.000Z</time>
      </trkpt>
      <trkpt lat="47.09399" lon="-1.5094">
        <ele>56</ele>
        <time>2021-05-30T16:10:46.000Z</time>
      </trkpt>
      <trkpt lat="47.09395" lon="-1.50922">
        <ele>57</ele>
        <time>2021-05-30T16:10:48.000Z</time>
      </trkpt>
      <trkpt lat="47.0939" lon="-1.50904">
        <ele>56</ele>
        <time>2021-05-30T16:10:50.000Z</time>
      </trkpt>
      <trkpt lat="47.09386" lon="-1.50878">
        <ele>54</ele>
        <time>2021-05-30T16:10:53.000Z</time>
      </trkpt>
      <trkpt lat="47.09386" lon="-1.50859">
        <ele>53</ele>
        <time>2021-05-30T16:10:55.000Z</time>
      </trkpt>
      <trkpt lat="47.09387" lon="-1.50841">
        <ele>53</ele>
        <time>2021-05-30T16:10:57.000Z</time>
      </trkpt>
      <trkpt lat="47.09387" lon="-1.50828">
        <ele>53</ele>
        <time>2021-05-30T16:10:59.000Z</time>
      </trkpt>
      <trkpt lat="47.09386" lon="-1.50811">
        <ele>52</ele>
        <time>2021-05-30T16:11:01.000Z</time>
      </trkpt>
      <trkpt lat="47.09392" lon="-1.50788">
        <ele>54</ele>
        <time>2021-05-30T16:11:04.000Z</time>
      </trkpt>
      <trkpt lat="47.09395" lon="-1.50774">
        <ele>54</ele>
        <time>2021-05-30T16:11:06.000Z</time>
      </trkpt>
      <trkpt lat="47.094" lon="-1.50756">
        <ele>56</ele>
        <time>2021-05-30T16:11:08.000Z</time>
      </trkpt>
      <trkpt lat="47.09402" lon="-1.50741">
        <ele>57</ele>
        <time>2021-05-30T16:11:10.000Z</time>
      </trkpt>
      <trkpt lat="47.09404" lon="-1.50726">
        <ele>57</ele>
        <time>2021-05-30T16:11:12.000Z</time>
      </trkpt>
      <trkpt lat="47.09406" lon="-1.50712">
        <ele>57</ele>
        <time>2021-05-30T16:11:14.000Z</time>
      </trkpt>
      <trkpt lat="47.09408" lon="-1.50697">
        <ele>59</ele>
        <time>2021-05-30T16:11:16.000Z</time>
      </trkpt>
      <trkpt lat="47.09409" lon="-1.50682">
        <ele>60</ele>
        <time>2021-05-30T16:11:18.000Z</time>
      </trkpt>
      <trkpt lat="47.09413" lon="-1.50665">
        <ele>60</ele>
        <time>2021-05-30T16:11:20.000Z</time>
      </trkpt>
      <trkpt lat="47.09415" lon="-1.5065">
        <ele>60</ele>
        <time>2021-05-30T16:11:22.000Z</time>
      </trkpt>
      <trkpt lat="47.09417" lon="-1.50636">
        <ele>60</ele>
        <time>2021-05-30T16:11:24.000Z</time>
      </trkpt>
      <trkpt lat="47.09422" lon="-1.50612">
        <ele>60</ele>
        <time>2021-05-30T16:11:27.000Z</time>
      </trkpt>
      <trkpt lat="47.09425" lon="-1.50596">
        <ele>60</ele>
        <time>2021-05-30T16:11:29.000Z</time>
      </trkpt>
      <trkpt lat="47.09428" lon="-1.50582">
        <ele>60</ele>
        <time>2021-05-30T16:11:31.000Z</time>
      </trkpt>
      <trkpt lat="47.09432" lon="-1.5056">
        <ele>59</ele>
        <time>2021-05-30T16:11:34.000Z</time>
      </trkpt>
      <trkpt lat="47.09435" lon="-1.50544">
        <ele>59</ele>
        <time>2021-05-30T16:11:36.000Z</time>
      </trkpt>
      <trkpt lat="47.09435" lon="-1.50525">
        <ele>56</ele>
        <time>2021-05-30T16:11:38.000Z</time>
      </trkpt>
      <trkpt lat="47.09441" lon="-1.50498">
        <ele>55</ele>
        <time>2021-05-30T16:11:41.000Z</time>
      </trkpt>
      <trkpt lat="47.09444" lon="-1.50484">
        <ele>56</ele>
        <time>2021-05-30T16:11:43.000Z</time>
      </trkpt>
      <trkpt lat="47.09448" lon="-1.50469">
        <ele>57</ele>
        <time>2021-05-30T16:11:45.000Z</time>
      </trkpt>
      <trkpt lat="47.09451" lon="-1.50451">
        <ele>57</ele>
        <time>2021-05-30T16:11:47.000Z</time>
      </trkpt>
      <trkpt lat="47.09457" lon="-1.5041">
        <ele>56</ele>
        <time>2021-05-30T16:11:51.000Z</time>
      </trkpt>
      <trkpt lat="47.0946" lon="-1.50387">
        <ele>57</ele>
        <time>2021-05-30T16:11:53.000Z</time>
      </trkpt>
      <trkpt lat="47.09465" lon="-1.50363">
        <ele>56</ele>
        <time>2021-05-30T16:11:55.000Z</time>
      </trkpt>
      <trkpt lat="47.09469" lon="-1.50339">
        <ele>56</ele>
        <time>2021-05-30T16:11:57.000Z</time>
      </trkpt>
      <trkpt lat="47.09473" lon="-1.50314">
        <ele>55</ele>
        <time>2021-05-30T16:11:59.000Z</time>
      </trkpt>
      <trkpt lat="47.09475" lon="-1.5029">
        <ele>55</ele>
        <time>2021-05-30T16:12:01.000Z</time>
      </trkpt>
      <trkpt lat="47.09477" lon="-1.50267">
        <ele>53</ele>
        <time>2021-05-30T16:12:03.000Z</time>
      </trkpt>
      <trkpt lat="47.09482" lon="-1.50249">
        <ele>51</ele>
        <time>2021-05-30T16:12:05.000Z</time>
      </trkpt>
      <trkpt lat="47.09489" lon="-1.50218">
        <ele>53</ele>
        <time>2021-05-30T16:12:08.000Z</time>
      </trkpt>
      <trkpt lat="47.09493" lon="-1.50201">
        <ele>52</ele>
        <time>2021-05-30T16:12:10.000Z</time>
      </trkpt>
      <trkpt lat="47.09497" lon="-1.50183">
        <ele>52</ele>
        <time>2021-05-30T16:12:12.000Z</time>
      </trkpt>
      <trkpt lat="47.09501" lon="-1.50168">
        <ele>55</ele>
        <time>2021-05-30T16:12:14.000Z</time>
      </trkpt>
      <trkpt lat="47.09502" lon="-1.50149">
        <ele>56</ele>
        <time>2021-05-30T16:12:16.000Z</time>
      </trkpt>
      <trkpt lat="47.09505" lon="-1.5013">
        <ele>55</ele>
        <time>2021-05-30T16:12:18.000Z</time>
      </trkpt>
      <trkpt lat="47.09507" lon="-1.50112">
        <ele>55</ele>
        <time>2021-05-30T16:12:20.000Z</time>
      </trkpt>
      <trkpt lat="47.09511" lon="-1.50094">
        <ele>56</ele>
        <time>2021-05-30T16:12:22.000Z</time>
      </trkpt>
      <trkpt lat="47.09515" lon="-1.50078">
        <ele>57</ele>
        <time>2021-05-30T16:12:24.000Z</time>
      </trkpt>
      <trkpt lat="47.09517" lon="-1.50061">
        <ele>57</ele>
        <time>2021-05-30T16:12:26.000Z</time>
      </trkpt>
      <trkpt lat="47.09521" lon="-1.50044">
        <ele>57</ele>
        <time>2021-05-30T16:12:28.000Z</time>
      </trkpt>
      <trkpt lat="47.09525" lon="-1.50029">
        <ele>58</ele>
        <time>2021-05-30T16:12:30.000Z</time>
      </trkpt>
      <trkpt lat="47.09527" lon="-1.50014">
        <ele>59</ele>
        <time>2021-05-30T16:12:32.000Z</time>
      </trkpt>
      <trkpt lat="47.09529" lon="-1.49998">
        <ele>59</ele>
        <time>2021-05-30T16:12:34.000Z</time>
      </trkpt>
      <trkpt lat="47.09531" lon="-1.49981">
        <ele>59</ele>
        <time>2021-05-30T16:12:36.000Z</time>
      </trkpt>
      <trkpt lat="47.09532" lon="-1.49966">
        <ele>58</ele>
        <time>2021-05-30T16:12:38.000Z</time>
      </trkpt>
      <trkpt lat="47.09535" lon="-1.49949">
        <ele>58</ele>
        <time>2021-05-30T16:12:40.000Z</time>
      </trkpt>
      <trkpt lat="47.09539" lon="-1.49933">
        <ele>57</ele>
        <time>2021-05-30T16:12:42.000Z</time>
      </trkpt>
      <trkpt lat="47.09542" lon="-1.49919">
        <ele>59</ele>
        <time>2021-05-30T16:12:44.000Z</time>
      </trkpt>
      <trkpt lat="47.09545" lon="-1.49904">
        <ele>60</ele>
        <time>2021-05-30T16:12:46.000Z</time>
      </trkpt>
      <trkpt lat="47.09549" lon="-1.49884">
        <ele>60</ele>
        <time>2021-05-30T16:12:49.000Z</time>
      </trkpt>
      <trkpt lat="47.09553" lon="-1.49867">
        <ele>61</ele>
        <time>2021-05-30T16:12:51.000Z</time>
      </trkpt>
      <trkpt lat="47.09559" lon="-1.49853">
        <ele>62</ele>
        <time>2021-05-30T16:12:53.000Z</time>
      </trkpt>
      <trkpt lat="47.09565" lon="-1.49838">
        <ele>61</ele>
        <time>2021-05-30T16:12:55.000Z</time>
      </trkpt>
      <trkpt lat="47.09571" lon="-1.49817">
        <ele>62</ele>
        <time>2021-05-30T16:12:58.000Z</time>
      </trkpt>
      <trkpt lat="47.09575" lon="-1.49803">
        <ele>64</ele>
        <time>2021-05-30T16:13:00.000Z</time>
      </trkpt>
      <trkpt lat="47.09581" lon="-1.49788">
        <ele>64</ele>
        <time>2021-05-30T16:13:02.000Z</time>
      </trkpt>
      <trkpt lat="47.09587" lon="-1.49765">
        <ele>64</ele>
        <time>2021-05-30T16:13:05.000Z</time>
      </trkpt>
      <trkpt lat="47.09592" lon="-1.49749">
        <ele>62</ele>
        <time>2021-05-30T16:13:07.000Z</time>
      </trkpt>
      <trkpt lat="47.09596" lon="-1.49736">
        <ele>64</ele>
        <time>2021-05-30T16:13:09.000Z</time>
      </trkpt>
      <trkpt lat="47.09602" lon="-1.49723">
        <ele>65</ele>
        <time>2021-05-30T16:13:11.000Z</time>
      </trkpt>
      <trkpt lat="47.09613" lon="-1.49694">
        <ele>62</ele>
        <time>2021-05-30T16:13:15.000Z</time>
      </trkpt>
      <trkpt lat="47.09619" lon="-1.4968">
        <ele>62</ele>
        <time>2021-05-30T16:13:17.000Z</time>
      </trkpt>
      <trkpt lat="47.09624" lon="-1.49665">
        <ele>63</ele>
        <time>2021-05-30T16:13:19.000Z</time>
      </trkpt>
      <trkpt lat="47.09631" lon="-1.49643">
        <ele>63</ele>
        <time>2021-05-30T16:13:22.000Z</time>
      </trkpt>
      <trkpt lat="47.09635" lon="-1.49629">
        <ele>64</ele>
        <time>2021-05-30T16:13:24.000Z</time>
      </trkpt>
      <trkpt lat="47.09641" lon="-1.49612">
        <ele>65</ele>
        <time>2021-05-30T16:13:26.000Z</time>
      </trkpt>
      <trkpt lat="47.09646" lon="-1.49599">
        <ele>64</ele>
        <time>2021-05-30T16:13:28.000Z</time>
      </trkpt>
      <trkpt lat="47.09653" lon="-1.49578">
        <ele>65</ele>
        <time>2021-05-30T16:13:31.000Z</time>
      </trkpt>
      <trkpt lat="47.09658" lon="-1.4956">
        <ele>64</ele>
        <time>2021-05-30T16:13:33.000Z</time>
      </trkpt>
      <trkpt lat="47.09661" lon="-1.49544">
        <ele>63</ele>
        <time>2021-05-30T16:13:35.000Z</time>
      </trkpt>
      <trkpt lat="47.09668" lon="-1.49523">
        <ele>63</ele>
        <time>2021-05-30T16:13:38.000Z</time>
      </trkpt>
      <trkpt lat="47.09673" lon="-1.49506">
        <ele>65</ele>
        <time>2021-05-30T16:13:40.000Z</time>
      </trkpt>
      <trkpt lat="47.09674" lon="-1.4949">
        <ele>66</ele>
        <time>2021-05-30T16:13:42.000Z</time>
      </trkpt>
      <trkpt lat="47.09675" lon="-1.49474">
        <ele>67</ele>
        <time>2021-05-30T16:13:44.000Z</time>
      </trkpt>
      <trkpt lat="47.0968" lon="-1.49456">
        <ele>66</ele>
        <time>2021-05-30T16:13:46.000Z</time>
      </trkpt>
      <trkpt lat="47.09685" lon="-1.4944">
        <ele>66</ele>
        <time>2021-05-30T16:13:48.000Z</time>
      </trkpt>
      <trkpt lat="47.09688" lon="-1.49423">
        <ele>65</ele>
        <time>2021-05-30T16:13:50.000Z</time>
      </trkpt>
      <trkpt lat="47.09691" lon="-1.49406">
        <ele>65</ele>
        <time>2021-05-30T16:13:52.000Z</time>
      </trkpt>
      <trkpt lat="47.09692" lon="-1.49389">
        <ele>65</ele>
        <time>2021-05-30T16:13:54.000Z</time>
      </trkpt>
      <trkpt lat="47.09691" lon="-1.49374">
        <ele>65</ele>
        <time>2021-05-30T16:13:56.000Z</time>
      </trkpt>
      <trkpt lat="47.09694" lon="-1.49358">
        <ele>65</ele>
        <time>2021-05-30T16:13:58.000Z</time>
      </trkpt>
      <trkpt lat="47.09698" lon="-1.49341">
        <ele>66</ele>
        <time>2021-05-30T16:14:00.000Z</time>
      </trkpt>
      <trkpt lat="47.09699" lon="-1.49324">
        <ele>66</ele>
        <time>2021-05-30T16:14:02.000Z</time>
      </trkpt>
      <trkpt lat="47.09701" lon="-1.49309">
        <ele>66</ele>
        <time>2021-05-30T16:14:04.000Z</time>
      </trkpt>
      <trkpt lat="47.09702" lon="-1.49292">
        <ele>65</ele>
        <time>2021-05-30T16:14:06.000Z</time>
      </trkpt>
      <trkpt lat="47.09706" lon="-1.49275">
        <ele>65</ele>
        <time>2021-05-30T16:14:08.000Z</time>
      </trkpt>
      <trkpt lat="47.09712" lon="-1.49261">
        <ele>65</ele>
        <time>2021-05-30T16:14:10.000Z</time>
      </trkpt>
      <trkpt lat="47.09717" lon="-1.49248">
        <ele>65</ele>
        <time>2021-05-30T16:14:12.000Z</time>
      </trkpt>
      <trkpt lat="47.09721" lon="-1.49235">
        <ele>65</ele>
        <time>2021-05-30T16:14:14.000Z</time>
      </trkpt>
      <trkpt lat="47.09725" lon="-1.49217">
        <ele>65</ele>
        <time>2021-05-30T16:14:16.000Z</time>
      </trkpt>
      <trkpt lat="47.0973" lon="-1.492">
        <ele>65</ele>
        <time>2021-05-30T16:14:18.000Z</time>
      </trkpt>
      <trkpt lat="47.09735" lon="-1.49184">
        <ele>64</ele>
        <time>2021-05-30T16:14:20.000Z</time>
      </trkpt>
      <trkpt lat="47.09739" lon="-1.49167">
        <ele>64</ele>
        <time>2021-05-30T16:14:22.000Z</time>
      </trkpt>
      <trkpt lat="47.09744" lon="-1.49151">
        <ele>64</ele>
        <time>2021-05-30T16:14:24.000Z</time>
      </trkpt>
      <trkpt lat="47.0975" lon="-1.49133">
        <ele>63</ele>
        <time>2021-05-30T16:14:26.000Z</time>
      </trkpt>
      <trkpt lat="47.09756" lon="-1.49115">
        <ele>62</ele>
        <time>2021-05-30T16:14:28.000Z</time>
      </trkpt>
      <trkpt lat="47.09764" lon="-1.49088">
        <ele>63</ele>
        <time>2021-05-30T16:14:31.000Z</time>
      </trkpt>
      <trkpt lat="47.0977" lon="-1.49071">
        <ele>61</ele>
        <time>2021-05-30T16:14:33.000Z</time>
      </trkpt>
      <trkpt lat="47.09775" lon="-1.49052">
        <ele>61</ele>
        <time>2021-05-30T16:14:35.000Z</time>
      </trkpt>
      <trkpt lat="47.09782" lon="-1.49021">
        <ele>61</ele>
        <time>2021-05-30T16:14:38.000Z</time>
      </trkpt>
      <trkpt lat="47.09784" lon="-1.49">
        <ele>65</ele>
        <time>2021-05-30T16:14:40.000Z</time>
      </trkpt>
      <trkpt lat="47.09784" lon="-1.48985">
        <ele>64</ele>
        <time>2021-05-30T16:14:42.000Z</time>
      </trkpt>
      <trkpt lat="47.09787" lon="-1.48968">
        <ele>63</ele>
        <time>2021-05-30T16:14:44.000Z</time>
      </trkpt>
      <trkpt lat="47.09789" lon="-1.48946">
        <ele>64</ele>
        <time>2021-05-30T16:14:47.000Z</time>
      </trkpt>
      <trkpt lat="47.09793" lon="-1.48924">
        <ele>63</ele>
        <time>2021-05-30T16:14:49.000Z</time>
      </trkpt>
      <trkpt lat="47.09794" lon="-1.48904">
        <ele>61</ele>
        <time>2021-05-30T16:14:51.000Z</time>
      </trkpt>
      <trkpt lat="47.09792" lon="-1.4889">
        <ele>59</ele>
        <time>2021-05-30T16:14:53.000Z</time>
      </trkpt>
      <trkpt lat="47.09787" lon="-1.48873">
        <ele>59</ele>
        <time>2021-05-30T16:14:55.000Z</time>
      </trkpt>
      <trkpt lat="47.09778" lon="-1.48849">
        <ele>59</ele>
        <time>2021-05-30T16:14:58.000Z</time>
      </trkpt>
      <trkpt lat="47.09772" lon="-1.48832">
        <ele>59</ele>
        <time>2021-05-30T16:15:00.000Z</time>
      </trkpt>
      <trkpt lat="47.09768" lon="-1.48814">
        <ele>61</ele>
        <time>2021-05-30T16:15:02.000Z</time>
      </trkpt>
      <trkpt lat="47.09765" lon="-1.48797">
        <ele>61</ele>
        <time>2021-05-30T16:15:04.000Z</time>
      </trkpt>
      <trkpt lat="47.09763" lon="-1.48778">
        <ele>62</ele>
        <time>2021-05-30T16:15:06.000Z</time>
      </trkpt>
      <trkpt lat="47.09761" lon="-1.48761">
        <ele>63</ele>
        <time>2021-05-30T16:15:08.000Z</time>
      </trkpt>
      <trkpt lat="47.0977" lon="-1.48748">
        <ele>65</ele>
        <time>2021-05-30T16:15:10.000Z</time>
      </trkpt>
      <trkpt lat="47.09779" lon="-1.48736">
        <ele>65</ele>
        <time>2021-05-30T16:15:12.000Z</time>
      </trkpt>
      <trkpt lat="47.09794" lon="-1.48713">
        <ele>66</ele>
        <time>2021-05-30T16:15:15.000Z</time>
      </trkpt>
      <trkpt lat="47.098" lon="-1.48701">
        <ele>65</ele>
        <time>2021-05-30T16:15:17.000Z</time>
      </trkpt>
      <trkpt lat="47.0981" lon="-1.48687">
        <ele>65</ele>
        <time>2021-05-30T16:15:19.000Z</time>
      </trkpt>
      <trkpt lat="47.09818" lon="-1.48673">
        <ele>65</ele>
        <time>2021-05-30T16:15:21.000Z</time>
      </trkpt>
      <trkpt lat="47.09824" lon="-1.48659">
        <ele>64</ele>
        <time>2021-05-30T16:15:23.000Z</time>
      </trkpt>
      <trkpt lat="47.09828" lon="-1.48643">
        <ele>64</ele>
        <time>2021-05-30T16:15:25.000Z</time>
      </trkpt>
      <trkpt lat="47.09836" lon="-1.4863">
        <ele>64</ele>
        <time>2021-05-30T16:15:27.000Z</time>
      </trkpt>
      <trkpt lat="47.09845" lon="-1.48616">
        <ele>64</ele>
        <time>2021-05-30T16:15:29.000Z</time>
      </trkpt>
      <trkpt lat="47.09852" lon="-1.48602">
        <ele>64</ele>
        <time>2021-05-30T16:15:31.000Z</time>
      </trkpt>
      <trkpt lat="47.09857" lon="-1.48586">
        <ele>64</ele>
        <time>2021-05-30T16:15:33.000Z</time>
      </trkpt>
      <trkpt lat="47.09862" lon="-1.48569">
        <ele>64</ele>
        <time>2021-05-30T16:15:35.000Z</time>
      </trkpt>
      <trkpt lat="47.09865" lon="-1.48552">
        <ele>62</ele>
        <time>2021-05-30T16:15:37.000Z</time>
      </trkpt>
      <trkpt lat="47.09864" lon="-1.48534">
        <ele>61</ele>
        <time>2021-05-30T16:15:39.000Z</time>
      </trkpt>
      <trkpt lat="47.09865" lon="-1.48516">
        <ele>62</ele>
        <time>2021-05-30T16:15:41.000Z</time>
      </trkpt>
      <trkpt lat="47.09864" lon="-1.48489">
        <ele>62</ele>
        <time>2021-05-30T16:15:44.000Z</time>
      </trkpt>
      <trkpt lat="47.09862" lon="-1.48472">
        <ele>62</ele>
        <time>2021-05-30T16:15:46.000Z</time>
      </trkpt>
      <trkpt lat="47.09859" lon="-1.48458">
        <ele>62</ele>
        <time>2021-05-30T16:15:48.000Z</time>
      </trkpt>
      <trkpt lat="47.09856" lon="-1.48429">
        <ele>63</ele>
        <time>2021-05-30T16:15:51.000Z</time>
      </trkpt>
      <trkpt lat="47.09854" lon="-1.48409">
        <ele>61</ele>
        <time>2021-05-30T16:15:53.000Z</time>
      </trkpt>
      <trkpt lat="47.09851" lon="-1.48386">
        <ele>59</ele>
        <time>2021-05-30T16:15:55.000Z</time>
      </trkpt>
      <trkpt lat="47.09847" lon="-1.48366">
        <ele>63</ele>
        <time>2021-05-30T16:15:58.000Z</time>
      </trkpt>
      <trkpt lat="47.09848" lon="-1.48348">
        <ele>63</ele>
        <time>2021-05-30T16:16:00.000Z</time>
      </trkpt>
      <trkpt lat="47.09846" lon="-1.48329">
        <ele>62</ele>
        <time>2021-05-30T16:16:02.000Z</time>
      </trkpt>
      <trkpt lat="47.09843" lon="-1.48313">
        <ele>61</ele>
        <time>2021-05-30T16:16:04.000Z</time>
      </trkpt>
      <trkpt lat="47.09839" lon="-1.48296">
        <ele>61</ele>
        <time>2021-05-30T16:16:06.000Z</time>
      </trkpt>
      <trkpt lat="47.09839" lon="-1.48279">
        <ele>63</ele>
        <time>2021-05-30T16:16:08.000Z</time>
      </trkpt>
      <trkpt lat="47.09838" lon="-1.48261">
        <ele>63</ele>
        <time>2021-05-30T16:16:10.000Z</time>
      </trkpt>
      <trkpt lat="47.09837" lon="-1.48243">
        <ele>63</ele>
        <time>2021-05-30T16:16:12.000Z</time>
      </trkpt>
      <trkpt lat="47.09835" lon="-1.48228">
        <ele>64</ele>
        <time>2021-05-30T16:16:14.000Z</time>
      </trkpt>
      <trkpt lat="47.09835" lon="-1.48209">
        <ele>64</ele>
        <time>2021-05-30T16:16:16.000Z</time>
      </trkpt>
      <trkpt lat="47.09836" lon="-1.48188">
        <ele>64</ele>
        <time>2021-05-30T16:16:18.000Z</time>
      </trkpt>
      <trkpt lat="47.09838" lon="-1.48151">
        <ele>65</ele>
        <time>2021-05-30T16:16:22.000Z</time>
      </trkpt>
      <trkpt lat="47.09839" lon="-1.48133">
        <ele>66</ele>
        <time>2021-05-30T16:16:24.000Z</time>
      </trkpt>
      <trkpt lat="47.09839" lon="-1.48117">
        <ele>65</ele>
        <time>2021-05-30T16:16:26.000Z</time>
      </trkpt>
      <trkpt lat="47.09838" lon="-1.48092">
        <ele>65</ele>
        <time>2021-05-30T16:16:29.000Z</time>
      </trkpt>
      <trkpt lat="47.09835" lon="-1.48077">
        <ele>69</ele>
        <time>2021-05-30T16:16:31.000Z</time>
      </trkpt>
      <trkpt lat="47.09833" lon="-1.48058">
        <ele>70</ele>
        <time>2021-05-30T16:16:33.000Z</time>
      </trkpt>
      <trkpt lat="47.0983" lon="-1.48041">
        <ele>71</ele>
        <time>2021-05-30T16:16:35.000Z</time>
      </trkpt>
      <trkpt lat="47.09828" lon="-1.48021">
        <ele>69</ele>
        <time>2021-05-30T16:16:37.000Z</time>
      </trkpt>
      <trkpt lat="47.09827" lon="-1.48003">
        <ele>68</ele>
        <time>2021-05-30T16:16:39.000Z</time>
      </trkpt>
      <trkpt lat="47.09828" lon="-1.47984">
        <ele>67</ele>
        <time>2021-05-30T16:16:41.000Z</time>
      </trkpt>
      <trkpt lat="47.09828" lon="-1.47965">
        <ele>66</ele>
        <time>2021-05-30T16:16:43.000Z</time>
      </trkpt>
      <trkpt lat="47.09826" lon="-1.47947">
        <ele>67</ele>
        <time>2021-05-30T16:16:45.000Z</time>
      </trkpt>
      <trkpt lat="47.09826" lon="-1.47928">
        <ele>66</ele>
        <time>2021-05-30T16:16:47.000Z</time>
      </trkpt>
      <trkpt lat="47.09825" lon="-1.4791">
        <ele>66</ele>
        <time>2021-05-30T16:16:49.000Z</time>
      </trkpt>
      <trkpt lat="47.09822" lon="-1.47894">
        <ele>63</ele>
        <time>2021-05-30T16:16:51.000Z</time>
      </trkpt>
      <trkpt lat="47.09821" lon="-1.4788">
        <ele>64</ele>
        <time>2021-05-30T16:16:53.000Z</time>
      </trkpt>
      <trkpt lat="47.0982" lon="-1.4786">
        <ele>66</ele>
        <time>2021-05-30T16:16:55.000Z</time>
      </trkpt>
      <trkpt lat="47.09818" lon="-1.47831">
        <ele>67</ele>
        <time>2021-05-30T16:16:58.000Z</time>
      </trkpt>
      <trkpt lat="47.09818" lon="-1.47818">
        <ele>68</ele>
        <time>2021-05-30T16:17:00.000Z</time>
      </trkpt>
      <trkpt lat="47.09816" lon="-1.47798">
        <ele>68</ele>
        <time>2021-05-30T16:17:02.000Z</time>
      </trkpt>
      <trkpt lat="47.09815" lon="-1.47769">
        <ele>69</ele>
        <time>2021-05-30T16:17:05.000Z</time>
      </trkpt>
      <trkpt lat="47.09813" lon="-1.47752">
        <ele>66</ele>
        <time>2021-05-30T16:17:07.000Z</time>
      </trkpt>
      <trkpt lat="47.09811" lon="-1.47735">
        <ele>67</ele>
        <time>2021-05-30T16:17:09.000Z</time>
      </trkpt>
      <trkpt lat="47.09812" lon="-1.47715">
        <ele>69</ele>
        <time>2021-05-30T16:17:11.000Z</time>
      </trkpt>
      <trkpt lat="47.09812" lon="-1.47697">
        <ele>69</ele>
        <time>2021-05-30T16:17:13.000Z</time>
      </trkpt>
      <trkpt lat="47.09812" lon="-1.47677">
        <ele>69</ele>
        <time>2021-05-30T16:17:15.000Z</time>
      </trkpt>
      <trkpt lat="47.09814" lon="-1.47659">
        <ele>68</ele>
        <time>2021-05-30T16:17:17.000Z</time>
      </trkpt>
      <trkpt lat="47.09818" lon="-1.47644">
        <ele>68</ele>
        <time>2021-05-30T16:17:19.000Z</time>
      </trkpt>
      <trkpt lat="47.09821" lon="-1.47629">
        <ele>68</ele>
        <time>2021-05-30T16:17:21.000Z</time>
      </trkpt>
      <trkpt lat="47.09825" lon="-1.47615">
        <ele>68</ele>
        <time>2021-05-30T16:17:23.000Z</time>
      </trkpt>
      <trkpt lat="47.09828" lon="-1.47602">
        <ele>69</ele>
        <time>2021-05-30T16:17:25.000Z</time>
      </trkpt>
      <trkpt lat="47.09832" lon="-1.47585">
        <ele>69</ele>
        <time>2021-05-30T16:17:28.000Z</time>
      </trkpt>
      <trkpt lat="47.09838" lon="-1.47568">
        <ele>70</ele>
        <time>2021-05-30T16:17:31.000Z</time>
      </trkpt>
      <trkpt lat="47.09844" lon="-1.47552">
        <ele>71</ele>
        <time>2021-05-30T16:17:34.000Z</time>
      </trkpt>
      <trkpt lat="47.09851" lon="-1.47537">
        <ele>71</ele>
        <time>2021-05-30T16:17:37.000Z</time>
      </trkpt>
      <trkpt lat="47.09858" lon="-1.47519">
        <ele>71</ele>
        <time>2021-05-30T16:17:41.000Z</time>
      </trkpt>
      <trkpt lat="47.09865" lon="-1.47503">
        <ele>71</ele>
        <time>2021-05-30T16:17:44.000Z</time>
      </trkpt>
      <trkpt lat="47.0987" lon="-1.47488">
        <ele>71</ele>
        <time>2021-05-30T16:17:47.000Z</time>
      </trkpt>
      <trkpt lat="47.0988" lon="-1.47473">
        <ele>72</ele>
        <time>2021-05-30T16:17:50.000Z</time>
      </trkpt>
      <trkpt lat="47.09888" lon="-1.4746">
        <ele>72</ele>
        <time>2021-05-30T16:17:53.000Z</time>
      </trkpt>
      <trkpt lat="47.09895" lon="-1.47449">
        <ele>73</ele>
        <time>2021-05-30T16:17:55.000Z</time>
      </trkpt>
      <trkpt lat="47.09901" lon="-1.47436">
        <ele>74</ele>
        <time>2021-05-30T16:17:58.000Z</time>
      </trkpt>
      <trkpt lat="47.09909" lon="-1.4742">
        <ele>75</ele>
        <time>2021-05-30T16:18:01.000Z</time>
      </trkpt>
      <trkpt lat="47.0992" lon="-1.47402">
        <ele>76</ele>
        <time>2021-05-30T16:18:05.000Z</time>
      </trkpt>
      <trkpt lat="47.09927" lon="-1.47386">
        <ele>76</ele>
        <time>2021-05-30T16:18:08.000Z</time>
      </trkpt>
      <trkpt lat="47.09936" lon="-1.47374">
        <ele>77</ele>
        <time>2021-05-30T16:18:11.000Z</time>
      </trkpt>
      <trkpt lat="47.09943" lon="-1.47359">
        <ele>77</ele>
        <time>2021-05-30T16:18:14.000Z</time>
      </trkpt>
      <trkpt lat="47.0995" lon="-1.47344">
        <ele>78</ele>
        <time>2021-05-30T16:18:17.000Z</time>
      </trkpt>
      <trkpt lat="47.09958" lon="-1.4733">
        <ele>79</ele>
        <time>2021-05-30T16:18:20.000Z</time>
      </trkpt>
      <trkpt lat="47.09965" lon="-1.47317">
        <ele>79</ele>
        <time>2021-05-30T16:18:23.000Z</time>
      </trkpt>
      <trkpt lat="47.09972" lon="-1.47303">
        <ele>78</ele>
        <time>2021-05-30T16:18:26.000Z</time>
      </trkpt>
      <trkpt lat="47.09976" lon="-1.47287">
        <ele>79</ele>
        <time>2021-05-30T16:18:29.000Z</time>
      </trkpt>
      <trkpt lat="47.09986" lon="-1.47278">
        <ele>80</ele>
        <time>2021-05-30T16:18:31.000Z</time>
      </trkpt>
      <trkpt lat="47.09993" lon="-1.47269">
        <ele>79</ele>
        <time>2021-05-30T16:18:33.000Z</time>
      </trkpt>
      <trkpt lat="47.09998" lon="-1.47254">
        <ele>78</ele>
        <time>2021-05-30T16:18:36.000Z</time>
      </trkpt>
      <trkpt lat="47.10006" lon="-1.47242">
        <ele>79</ele>
        <time>2021-05-30T16:18:38.000Z</time>
      </trkpt>
      <trkpt lat="47.10014" lon="-1.47228">
        <ele>80</ele>
        <time>2021-05-30T16:18:40.000Z</time>
      </trkpt>
      <trkpt lat="47.10021" lon="-1.47217">
        <ele>79</ele>
        <time>2021-05-30T16:18:42.000Z</time>
      </trkpt>
      <trkpt lat="47.10029" lon="-1.47202">
        <ele>77</ele>
        <time>2021-05-30T16:18:44.000Z</time>
      </trkpt>
      <trkpt lat="47.10036" lon="-1.47189">
        <ele>78</ele>
        <time>2021-05-30T16:18:46.000Z</time>
      </trkpt>
      <trkpt lat="47.10043" lon="-1.47177">
        <ele>77</ele>
        <time>2021-05-30T16:18:48.000Z</time>
      </trkpt>
      <trkpt lat="47.1005" lon="-1.47162">
        <ele>77</ele>
        <time>2021-05-30T16:18:50.000Z</time>
      </trkpt>
      <trkpt lat="47.10056" lon="-1.47145">
        <ele>77</ele>
        <time>2021-05-30T16:18:52.000Z</time>
      </trkpt>
      <trkpt lat="47.10066" lon="-1.47122">
        <ele>77</ele>
        <time>2021-05-30T16:18:55.000Z</time>
      </trkpt>
      <trkpt lat="47.10072" lon="-1.47106">
        <ele>77</ele>
        <time>2021-05-30T16:18:57.000Z</time>
      </trkpt>
      <trkpt lat="47.1008" lon="-1.47087">
        <ele>76</ele>
        <time>2021-05-30T16:18:59.000Z</time>
      </trkpt>
      <trkpt lat="47.10085" lon="-1.47067">
        <ele>76</ele>
        <time>2021-05-30T16:19:01.000Z</time>
      </trkpt>
      <trkpt lat="47.10092" lon="-1.47041">
        <ele>75</ele>
        <time>2021-05-30T16:19:04.000Z</time>
      </trkpt>
      <trkpt lat="47.10095" lon="-1.47023">
        <ele>74</ele>
        <time>2021-05-30T16:19:06.000Z</time>
      </trkpt>
      <trkpt lat="47.10097" lon="-1.47005">
        <ele>74</ele>
        <time>2021-05-30T16:19:08.000Z</time>
      </trkpt>
      <trkpt lat="47.10104" lon="-1.46988">
        <ele>75</ele>
        <time>2021-05-30T16:19:10.000Z</time>
      </trkpt>
      <trkpt lat="47.10112" lon="-1.46964">
        <ele>76</ele>
        <time>2021-05-30T16:19:13.000Z</time>
      </trkpt>
      <trkpt lat="47.10114" lon="-1.4695">
        <ele>76</ele>
        <time>2021-05-30T16:19:15.000Z</time>
      </trkpt>
      <trkpt lat="47.10119" lon="-1.46935">
        <ele>77</ele>
        <time>2021-05-30T16:19:17.000Z</time>
      </trkpt>
      <trkpt lat="47.10124" lon="-1.46919">
        <ele>78</ele>
        <time>2021-05-30T16:19:19.000Z</time>
      </trkpt>
      <trkpt lat="47.10129" lon="-1.46904">
        <ele>77</ele>
        <time>2021-05-30T16:19:21.000Z</time>
      </trkpt>
      <trkpt lat="47.10133" lon="-1.46887">
        <ele>76</ele>
        <time>2021-05-30T16:19:23.000Z</time>
      </trkpt>
      <trkpt lat="47.10135" lon="-1.4687">
        <ele>77</ele>
        <time>2021-05-30T16:19:25.000Z</time>
      </trkpt>
      <trkpt lat="47.1014" lon="-1.46857">
        <ele>77</ele>
        <time>2021-05-30T16:19:27.000Z</time>
      </trkpt>
      <trkpt lat="47.10143" lon="-1.46842">
        <ele>77</ele>
        <time>2021-05-30T16:19:29.000Z</time>
      </trkpt>
      <trkpt lat="47.10147" lon="-1.46827">
        <ele>75</ele>
        <time>2021-05-30T16:19:31.000Z</time>
      </trkpt>
      <trkpt lat="47.1015" lon="-1.46813">
        <ele>77</ele>
        <time>2021-05-30T16:19:33.000Z</time>
      </trkpt>
      <trkpt lat="47.10154" lon="-1.46799">
        <ele>77</ele>
        <time>2021-05-30T16:19:35.000Z</time>
      </trkpt>
      <trkpt lat="47.10159" lon="-1.46781">
        <ele>78</ele>
        <time>2021-05-30T16:19:38.000Z</time>
      </trkpt>
      <trkpt lat="47.1016" lon="-1.46762">
        <ele>78</ele>
        <time>2021-05-30T16:19:41.000Z</time>
      </trkpt>
      <trkpt lat="47.10163" lon="-1.46745">
        <ele>79</ele>
        <time>2021-05-30T16:19:43.000Z</time>
      </trkpt>
      <trkpt lat="47.10166" lon="-1.46729">
        <ele>79</ele>
        <time>2021-05-30T16:19:45.000Z</time>
      </trkpt>
      <trkpt lat="47.10168" lon="-1.46708">
        <ele>79</ele>
        <time>2021-05-30T16:19:48.000Z</time>
      </trkpt>
      <trkpt lat="47.10168" lon="-1.46694">
        <ele>79</ele>
        <time>2021-05-30T16:19:50.000Z</time>
      </trkpt>
      <trkpt lat="47.10171" lon="-1.46681">
        <ele>81</ele>
        <time>2021-05-30T16:19:52.000Z</time>
      </trkpt>
      <trkpt lat="47.10171" lon="-1.4666">
        <ele>82</ele>
        <time>2021-05-30T16:19:55.000Z</time>
      </trkpt>
      <trkpt lat="47.10173" lon="-1.46645">
        <ele>82</ele>
        <time>2021-05-30T16:19:57.000Z</time>
      </trkpt>
      <trkpt lat="47.10178" lon="-1.46628">
        <ele>84</ele>
        <time>2021-05-30T16:20:00.000Z</time>
      </trkpt>
      <trkpt lat="47.10181" lon="-1.4661">
        <ele>85</ele>
        <time>2021-05-30T16:20:03.000Z</time>
      </trkpt>
      <trkpt lat="47.10184" lon="-1.46592">
        <ele>85</ele>
        <time>2021-05-30T16:20:06.000Z</time>
      </trkpt>
      <trkpt lat="47.10186" lon="-1.46576">
        <ele>85</ele>
        <time>2021-05-30T16:20:09.000Z</time>
      </trkpt>
      <trkpt lat="47.10188" lon="-1.46559">
        <ele>86</ele>
        <time>2021-05-30T16:20:12.000Z</time>
      </trkpt>
      <trkpt lat="47.10189" lon="-1.46542">
        <ele>85</ele>
        <time>2021-05-30T16:20:15.000Z</time>
      </trkpt>
      <trkpt lat="47.10189" lon="-1.46525">
        <ele>87</ele>
        <time>2021-05-30T16:20:18.000Z</time>
      </trkpt>
      <trkpt lat="47.10189" lon="-1.46506">
        <ele>88</ele>
        <time>2021-05-30T16:20:21.000Z</time>
      </trkpt>
      <trkpt lat="47.10191" lon="-1.4649">
        <ele>89</ele>
        <time>2021-05-30T16:20:24.000Z</time>
      </trkpt>
      <trkpt lat="47.10191" lon="-1.46474">
        <ele>88</ele>
        <time>2021-05-30T16:20:27.000Z</time>
      </trkpt>
      <trkpt lat="47.10193" lon="-1.46457">
        <ele>88</ele>
        <time>2021-05-30T16:20:30.000Z</time>
      </trkpt>
      <trkpt lat="47.10196" lon="-1.46439">
        <ele>89</ele>
        <time>2021-05-30T16:20:33.000Z</time>
      </trkpt>
      <trkpt lat="47.10198" lon="-1.46417">
        <ele>89</ele>
        <time>2021-05-30T16:20:37.000Z</time>
      </trkpt>
      <trkpt lat="47.102" lon="-1.464">
        <ele>90</ele>
        <time>2021-05-30T16:20:40.000Z</time>
      </trkpt>
      <trkpt lat="47.10203" lon="-1.46377">
        <ele>91</ele>
        <time>2021-05-30T16:20:44.000Z</time>
      </trkpt>
      <trkpt lat="47.10205" lon="-1.46362">
        <ele>92</ele>
        <time>2021-05-30T16:20:47.000Z</time>
      </trkpt>
      <trkpt lat="47.1021" lon="-1.4635">
        <ele>92</ele>
        <time>2021-05-30T16:20:49.000Z</time>
      </trkpt>
      <trkpt lat="47.10218" lon="-1.46336">
        <ele>93</ele>
        <time>2021-05-30T16:20:52.000Z</time>
      </trkpt>
      <trkpt lat="47.10225" lon="-1.46322">
        <ele>93</ele>
        <time>2021-05-30T16:20:55.000Z</time>
      </trkpt>
      <trkpt lat="47.10235" lon="-1.46308">
        <ele>94</ele>
        <time>2021-05-30T16:20:58.000Z</time>
      </trkpt>
      <trkpt lat="47.10243" lon="-1.46293">
        <ele>94</ele>
        <time>2021-05-30T16:21:01.000Z</time>
      </trkpt>
      <trkpt lat="47.10251" lon="-1.46283">
        <ele>94</ele>
        <time>2021-05-30T16:21:03.000Z</time>
      </trkpt>
      <trkpt lat="47.10257" lon="-1.46274">
        <ele>94</ele>
        <time>2021-05-30T16:21:05.000Z</time>
      </trkpt>
      <trkpt lat="47.10265" lon="-1.46259">
        <ele>92</ele>
        <time>2021-05-30T16:21:08.000Z</time>
      </trkpt>
      <trkpt lat="47.10272" lon="-1.4625">
        <ele>93</ele>
        <time>2021-05-30T16:21:10.000Z</time>
      </trkpt>
      <trkpt lat="47.10279" lon="-1.4624">
        <ele>93</ele>
        <time>2021-05-30T16:21:12.000Z</time>
      </trkpt>
      <trkpt lat="47.10287" lon="-1.46227">
        <ele>93</ele>
        <time>2021-05-30T16:21:15.000Z</time>
      </trkpt>
      <trkpt lat="47.10284" lon="-1.46209">
        <ele>94</ele>
        <time>2021-05-30T16:21:18.000Z</time>
      </trkpt>
      <trkpt lat="47.10278" lon="-1.46199">
        <ele>95</ele>
        <time>2021-05-30T16:21:20.000Z</time>
      </trkpt>
      <trkpt lat="47.10268" lon="-1.46186">
        <ele>94</ele>
        <time>2021-05-30T16:21:23.000Z</time>
      </trkpt>
      <trkpt lat="47.10261" lon="-1.46174">
        <ele>95</ele>
        <time>2021-05-30T16:21:25.000Z</time>
      </trkpt>
      <trkpt lat="47.10255" lon="-1.46162">
        <ele>96</ele>
        <time>2021-05-30T16:21:27.000Z</time>
      </trkpt>
      <trkpt lat="47.10248" lon="-1.46149">
        <ele>97</ele>
        <time>2021-05-30T16:21:29.000Z</time>
      </trkpt>
      <trkpt lat="47.10241" lon="-1.46136">
        <ele>96</ele>
        <time>2021-05-30T16:21:31.000Z</time>
      </trkpt>
      <trkpt lat="47.10231" lon="-1.46115">
        <ele>96</ele>
        <time>2021-05-30T16:21:34.000Z</time>
      </trkpt>
      <trkpt lat="47.10223" lon="-1.46103">
        <ele>98</ele>
        <time>2021-05-30T16:21:36.000Z</time>
      </trkpt>
      <trkpt lat="47.10216" lon="-1.4609">
        <ele>97</ele>
        <time>2021-05-30T16:21:38.000Z</time>
      </trkpt>
      <trkpt lat="47.10207" lon="-1.4608">
        <ele>96</ele>
        <time>2021-05-30T16:21:40.000Z</time>
      </trkpt>
      <trkpt lat="47.10195" lon="-1.46061">
        <ele>96</ele>
        <time>2021-05-30T16:21:43.000Z</time>
      </trkpt>
      <trkpt lat="47.10188" lon="-1.46046">
        <ele>97</ele>
        <time>2021-05-30T16:21:45.000Z</time>
      </trkpt>
      <trkpt lat="47.10182" lon="-1.46031">
        <ele>97</ele>
        <time>2021-05-30T16:21:47.000Z</time>
      </trkpt>
      <trkpt lat="47.10175" lon="-1.4602">
        <ele>94</ele>
        <time>2021-05-30T16:21:49.000Z</time>
      </trkpt>
      <trkpt lat="47.10167" lon="-1.46002">
        <ele>94</ele>
        <time>2021-05-30T16:21:51.000Z</time>
      </trkpt>
      <trkpt lat="47.1016" lon="-1.45986">
        <ele>95</ele>
        <time>2021-05-30T16:21:53.000Z</time>
      </trkpt>
      <trkpt lat="47.10153" lon="-1.45972">
        <ele>95</ele>
        <time>2021-05-30T16:21:55.000Z</time>
      </trkpt>
      <trkpt lat="47.10145" lon="-1.45959">
        <ele>96</ele>
        <time>2021-05-30T16:21:57.000Z</time>
      </trkpt>
      <trkpt lat="47.10138" lon="-1.45945">
        <ele>96</ele>
        <time>2021-05-30T16:21:59.000Z</time>
      </trkpt>
      <trkpt lat="47.10132" lon="-1.45929">
        <ele>97</ele>
        <time>2021-05-30T16:22:01.000Z</time>
      </trkpt>
      <trkpt lat="47.10124" lon="-1.45916">
        <ele>97</ele>
        <time>2021-05-30T16:22:03.000Z</time>
      </trkpt>
      <trkpt lat="47.10116" lon="-1.45905">
        <ele>96</ele>
        <time>2021-05-30T16:22:05.000Z</time>
      </trkpt>
      <trkpt lat="47.10109" lon="-1.45892">
        <ele>97</ele>
        <time>2021-05-30T16:22:07.000Z</time>
      </trkpt>
      <trkpt lat="47.10102" lon="-1.45879">
        <ele>96</ele>
        <time>2021-05-30T16:22:09.000Z</time>
      </trkpt>
      <trkpt lat="47.10094" lon="-1.45866">
        <ele>97</ele>
        <time>2021-05-30T16:22:11.000Z</time>
      </trkpt>
      <trkpt lat="47.10086" lon="-1.45852">
        <ele>96</ele>
        <time>2021-05-30T16:22:13.000Z</time>
      </trkpt>
      <trkpt lat="47.10078" lon="-1.45839">
        <ele>96</ele>
        <time>2021-05-30T16:22:15.000Z</time>
      </trkpt>
      <trkpt lat="47.10071" lon="-1.45826">
        <ele>96</ele>
        <time>2021-05-30T16:22:17.000Z</time>
      </trkpt>
      <trkpt lat="47.10064" lon="-1.45811">
        <ele>96</ele>
        <time>2021-05-30T16:22:19.000Z</time>
      </trkpt>
      <trkpt lat="47.10056" lon="-1.45796">
        <ele>96</ele>
        <time>2021-05-30T16:22:21.000Z</time>
      </trkpt>
      <trkpt lat="47.1005" lon="-1.45781">
        <ele>96</ele>
        <time>2021-05-30T16:22:23.000Z</time>
      </trkpt>
      <trkpt lat="47.10042" lon="-1.45767">
        <ele>96</ele>
        <time>2021-05-30T16:22:25.000Z</time>
      </trkpt>
      <trkpt lat="47.10035" lon="-1.45752">
        <ele>96</ele>
        <time>2021-05-30T16:22:27.000Z</time>
      </trkpt>
      <trkpt lat="47.10028" lon="-1.45737">
        <ele>96</ele>
        <time>2021-05-30T16:22:29.000Z</time>
      </trkpt>
      <trkpt lat="47.10021" lon="-1.45724">
        <ele>95</ele>
        <time>2021-05-30T16:22:31.000Z</time>
      </trkpt>
      <trkpt lat="47.10011" lon="-1.45704">
        <ele>95</ele>
        <time>2021-05-30T16:22:34.000Z</time>
      </trkpt>
      <trkpt lat="47.10003" lon="-1.4569">
        <ele>96</ele>
        <time>2021-05-30T16:22:36.000Z</time>
      </trkpt>
      <trkpt lat="47.09995" lon="-1.45676">
        <ele>95</ele>
        <time>2021-05-30T16:22:38.000Z</time>
      </trkpt>
      <trkpt lat="47.09987" lon="-1.45662">
        <ele>96</ele>
        <time>2021-05-30T16:22:40.000Z</time>
      </trkpt>
      <trkpt lat="47.09979" lon="-1.45648">
        <ele>97</ele>
        <time>2021-05-30T16:22:42.000Z</time>
      </trkpt>
      <trkpt lat="47.09967" lon="-1.45625">
        <ele>96</ele>
        <time>2021-05-30T16:22:45.000Z</time>
      </trkpt>
      <trkpt lat="47.0996" lon="-1.45609">
        <ele>96</ele>
        <time>2021-05-30T16:22:47.000Z</time>
      </trkpt>
      <trkpt lat="47.09953" lon="-1.45594">
        <ele>96</ele>
        <time>2021-05-30T16:22:49.000Z</time>
      </trkpt>
      <trkpt lat="47.09945" lon="-1.45579">
        <ele>96</ele>
        <time>2021-05-30T16:22:51.000Z</time>
      </trkpt>
      <trkpt lat="47.09938" lon="-1.45564">
        <ele>96</ele>
        <time>2021-05-30T16:22:53.000Z</time>
      </trkpt>
      <trkpt lat="47.09931" lon="-1.45548">
        <ele>95</ele>
        <time>2021-05-30T16:22:55.000Z</time>
      </trkpt>
      <trkpt lat="47.09919" lon="-1.45526">
        <ele>96</ele>
        <time>2021-05-30T16:22:58.000Z</time>
      </trkpt>
      <trkpt lat="47.0991" lon="-1.45511">
        <ele>97</ele>
        <time>2021-05-30T16:23:00.000Z</time>
      </trkpt>
      <trkpt lat="47.09903" lon="-1.45494">
        <ele>97</ele>
        <time>2021-05-30T16:23:02.000Z</time>
      </trkpt>
      <trkpt lat="47.09897" lon="-1.45476">
        <ele>96</ele>
        <time>2021-05-30T16:23:04.000Z</time>
      </trkpt>
      <trkpt lat="47.0989" lon="-1.4546">
        <ele>96</ele>
        <time>2021-05-30T16:23:06.000Z</time>
      </trkpt>
      <trkpt lat="47.09882" lon="-1.45443">
        <ele>95</ele>
        <time>2021-05-30T16:23:08.000Z</time>
      </trkpt>
      <trkpt lat="47.09871" lon="-1.45419">
        <ele>95</ele>
        <time>2021-05-30T16:23:11.000Z</time>
      </trkpt>
      <trkpt lat="47.09863" lon="-1.45402">
        <ele>95</ele>
        <time>2021-05-30T16:23:13.000Z</time>
      </trkpt>
      <trkpt lat="47.09856" lon="-1.45386">
        <ele>95</ele>
        <time>2021-05-30T16:23:15.000Z</time>
      </trkpt>
      <trkpt lat="47.09848" lon="-1.45367">
        <ele>95</ele>
        <time>2021-05-30T16:23:17.000Z</time>
      </trkpt>
      <trkpt lat="47.09841" lon="-1.45348">
        <ele>94</ele>
        <time>2021-05-30T16:23:19.000Z</time>
      </trkpt>
      <trkpt lat="47.09834" lon="-1.45331">
        <ele>94</ele>
        <time>2021-05-30T16:23:21.000Z</time>
      </trkpt>
      <trkpt lat="47.09826" lon="-1.45313">
        <ele>93</ele>
        <time>2021-05-30T16:23:23.000Z</time>
      </trkpt>
      <trkpt lat="47.09818" lon="-1.45294">
        <ele>93</ele>
        <time>2021-05-30T16:23:25.000Z</time>
      </trkpt>
      <trkpt lat="47.0981" lon="-1.45275">
        <ele>93</ele>
        <time>2021-05-30T16:23:27.000Z</time>
      </trkpt>
      <trkpt lat="47.09799" lon="-1.45249">
        <ele>92</ele>
        <time>2021-05-30T16:23:30.000Z</time>
      </trkpt>
      <trkpt lat="47.09791" lon="-1.45233">
        <ele>91</ele>
        <time>2021-05-30T16:23:32.000Z</time>
      </trkpt>
      <trkpt lat="47.09783" lon="-1.45214">
        <ele>91</ele>
        <time>2021-05-30T16:23:34.000Z</time>
      </trkpt>
      <trkpt lat="47.09776" lon="-1.45198">
        <ele>92</ele>
        <time>2021-05-30T16:23:36.000Z</time>
      </trkpt>
      <trkpt lat="47.0977" lon="-1.45185">
        <ele>91</ele>
        <time>2021-05-30T16:23:38.000Z</time>
      </trkpt>
      <trkpt lat="47.09761" lon="-1.45167">
        <ele>89</ele>
        <time>2021-05-30T16:23:40.000Z</time>
      </trkpt>
      <trkpt lat="47.09753" lon="-1.4515">
        <ele>91</ele>
        <time>2021-05-30T16:23:42.000Z</time>
      </trkpt>
      <trkpt lat="47.09745" lon="-1.45133">
        <ele>92</ele>
        <time>2021-05-30T16:23:44.000Z</time>
      </trkpt>
      <trkpt lat="47.09735" lon="-1.45106">
        <ele>92</ele>
        <time>2021-05-30T16:23:47.000Z</time>
      </trkpt>
      <trkpt lat="47.09727" lon="-1.45089">
        <ele>91</ele>
        <time>2021-05-30T16:23:49.000Z</time>
      </trkpt>
      <trkpt lat="47.09719" lon="-1.45072">
        <ele>92</ele>
        <time>2021-05-30T16:23:51.000Z</time>
      </trkpt>
      <trkpt lat="47.09711" lon="-1.45055">
        <ele>91</ele>
        <time>2021-05-30T16:23:53.000Z</time>
      </trkpt>
      <trkpt lat="47.09703" lon="-1.45039">
        <ele>91</ele>
        <time>2021-05-30T16:23:55.000Z</time>
      </trkpt>
      <trkpt lat="47.09696" lon="-1.45023">
        <ele>92</ele>
        <time>2021-05-30T16:23:57.000Z</time>
      </trkpt>
      <trkpt lat="47.09688" lon="-1.45008">
        <ele>92</ele>
        <time>2021-05-30T16:23:59.000Z</time>
      </trkpt>
      <trkpt lat="47.09675" lon="-1.44986">
        <ele>91</ele>
        <time>2021-05-30T16:24:02.000Z</time>
      </trkpt>
      <trkpt lat="47.09665" lon="-1.44972">
        <ele>92</ele>
        <time>2021-05-30T16:24:04.000Z</time>
      </trkpt>
      <trkpt lat="47.09653" lon="-1.44964">
        <ele>93</ele>
        <time>2021-05-30T16:24:06.000Z</time>
      </trkpt>
      <trkpt lat="47.09635" lon="-1.44957">
        <ele>93</ele>
        <time>2021-05-30T16:24:09.000Z</time>
      </trkpt>
      <trkpt lat="47.09624" lon="-1.44948">
        <ele>92</ele>
        <time>2021-05-30T16:24:11.000Z</time>
      </trkpt>
      <trkpt lat="47.09624" lon="-1.44922">
        <ele>92</ele>
        <time>2021-05-30T16:24:13.000Z</time>
      </trkpt>
      <trkpt lat="47.09629" lon="-1.4491">
        <ele>93</ele>
        <time>2021-05-30T16:24:14.000Z</time>
      </trkpt>
      <trkpt lat="47.09639" lon="-1.44892">
        <ele>93</ele>
        <time>2021-05-30T16:24:16.000Z</time>
      </trkpt>
      <trkpt lat="47.0965" lon="-1.4488">
        <ele>93</ele>
        <time>2021-05-30T16:24:18.000Z</time>
      </trkpt>
      <trkpt lat="47.09663" lon="-1.44871">
        <ele>93</ele>
        <time>2021-05-30T16:24:20.000Z</time>
      </trkpt>
      <trkpt lat="47.09673" lon="-1.44856">
        <ele>93</ele>
        <time>2021-05-30T16:24:22.000Z</time>
      </trkpt>
      <trkpt lat="47.09681" lon="-1.4484">
        <ele>93</ele>
        <time>2021-05-30T16:24:24.000Z</time>
      </trkpt>
      <trkpt lat="47.09686" lon="-1.44823">
        <ele>92</ele>
        <time>2021-05-30T16:24:26.000Z</time>
      </trkpt>
      <trkpt lat="47.09686" lon="-1.44805">
        <ele>91</ele>
        <time>2021-05-30T16:24:28.000Z</time>
      </trkpt>
      <trkpt lat="47.09683" lon="-1.44784">
        <ele>92</ele>
        <time>2021-05-30T16:24:30.000Z</time>
      </trkpt>
      <trkpt lat="47.09675" lon="-1.44766">
        <ele>92</ele>
        <time>2021-05-30T16:24:32.000Z</time>
      </trkpt>
      <trkpt lat="47.09665" lon="-1.44751">
        <ele>92</ele>
        <time>2021-05-30T16:24:34.000Z</time>
      </trkpt>
      <trkpt lat="47.09656" lon="-1.44735">
        <ele>92</ele>
        <time>2021-05-30T16:24:36.000Z</time>
      </trkpt>
      <trkpt lat="47.09646" lon="-1.44708">
        <ele>94</ele>
        <time>2021-05-30T16:24:39.000Z</time>
      </trkpt>
      <trkpt lat="47.09644" lon="-1.4469">
        <ele>94</ele>
        <time>2021-05-30T16:24:41.000Z</time>
      </trkpt>
      <trkpt lat="47.09645" lon="-1.44671">
        <ele>94</ele>
        <time>2021-05-30T16:24:43.000Z</time>
      </trkpt>
      <trkpt lat="47.09651" lon="-1.44646">
        <ele>95</ele>
        <time>2021-05-30T16:24:46.000Z</time>
      </trkpt>
      <trkpt lat="47.09657" lon="-1.44632">
        <ele>95</ele>
        <time>2021-05-30T16:24:48.000Z</time>
      </trkpt>
      <trkpt lat="47.09665" lon="-1.4462">
        <ele>95</ele>
        <time>2021-05-30T16:24:50.000Z</time>
      </trkpt>
      <trkpt lat="47.09675" lon="-1.44609">
        <ele>95</ele>
        <time>2021-05-30T16:24:52.000Z</time>
      </trkpt>
      <trkpt lat="47.09692" lon="-1.44596">
        <ele>93</ele>
        <time>2021-05-30T16:24:55.000Z</time>
      </trkpt>
      <trkpt lat="47.09702" lon="-1.44588">
        <ele>93</ele>
        <time>2021-05-30T16:24:57.000Z</time>
      </trkpt>
      <trkpt lat="47.09714" lon="-1.44582">
        <ele>93</ele>
        <time>2021-05-30T16:24:59.000Z</time>
      </trkpt>
      <trkpt lat="47.09725" lon="-1.44576">
        <ele>92</ele>
        <time>2021-05-30T16:25:01.000Z</time>
      </trkpt>
      <trkpt lat="47.09735" lon="-1.4457">
        <ele>92</ele>
        <time>2021-05-30T16:25:03.000Z</time>
      </trkpt>
      <trkpt lat="47.09755" lon="-1.44559">
        <ele>93</ele>
        <time>2021-05-30T16:25:06.000Z</time>
      </trkpt>
      <trkpt lat="47.09768" lon="-1.44554">
        <ele>92</ele>
        <time>2021-05-30T16:25:08.000Z</time>
      </trkpt>
      <trkpt lat="47.0978" lon="-1.44547">
        <ele>90</ele>
        <time>2021-05-30T16:25:10.000Z</time>
      </trkpt>
      <trkpt lat="47.09792" lon="-1.44542">
        <ele>90</ele>
        <time>2021-05-30T16:25:12.000Z</time>
      </trkpt>
      <trkpt lat="47.09806" lon="-1.44538">
        <ele>90</ele>
        <time>2021-05-30T16:25:14.000Z</time>
      </trkpt>
      <trkpt lat="47.0982" lon="-1.44533">
        <ele>88</ele>
        <time>2021-05-30T16:25:16.000Z</time>
      </trkpt>
      <trkpt lat="47.09832" lon="-1.44528">
        <ele>88</ele>
        <time>2021-05-30T16:25:18.000Z</time>
      </trkpt>
      <trkpt lat="47.09846" lon="-1.44522">
        <ele>89</ele>
        <time>2021-05-30T16:25:20.000Z</time>
      </trkpt>
      <trkpt lat="47.0986" lon="-1.44517">
        <ele>87</ele>
        <time>2021-05-30T16:25:22.000Z</time>
      </trkpt>
      <trkpt lat="47.09874" lon="-1.44512">
        <ele>87</ele>
        <time>2021-05-30T16:25:24.000Z</time>
      </trkpt>
      <trkpt lat="47.09888" lon="-1.44508">
        <ele>86</ele>
        <time>2021-05-30T16:25:26.000Z</time>
      </trkpt>
      <trkpt lat="47.09903" lon="-1.44502">
        <ele>85</ele>
        <time>2021-05-30T16:25:28.000Z</time>
      </trkpt>
      <trkpt lat="47.09919" lon="-1.44496">
        <ele>84</ele>
        <time>2021-05-30T16:25:30.000Z</time>
      </trkpt>
      <trkpt lat="47.09942" lon="-1.44487">
        <ele>82</ele>
        <time>2021-05-30T16:25:33.000Z</time>
      </trkpt>
      <trkpt lat="47.09957" lon="-1.44481">
        <ele>81</ele>
        <time>2021-05-30T16:25:35.000Z</time>
      </trkpt>
      <trkpt lat="47.09974" lon="-1.44475">
        <ele>80</ele>
        <time>2021-05-30T16:25:37.000Z</time>
      </trkpt>
      <trkpt lat="47.09998" lon="-1.44466">
        <ele>79</ele>
        <time>2021-05-30T16:25:40.000Z</time>
      </trkpt>
      <trkpt lat="47.10014" lon="-1.44461">
        <ele>78</ele>
        <time>2021-05-30T16:25:42.000Z</time>
      </trkpt>
      <trkpt lat="47.1003" lon="-1.44454">
        <ele>78</ele>
        <time>2021-05-30T16:25:44.000Z</time>
      </trkpt>
      <trkpt lat="47.10046" lon="-1.44447">
        <ele>77</ele>
        <time>2021-05-30T16:25:46.000Z</time>
      </trkpt>
      <trkpt lat="47.10062" lon="-1.44441">
        <ele>75</ele>
        <time>2021-05-30T16:25:48.000Z</time>
      </trkpt>
      <trkpt lat="47.10077" lon="-1.44435">
        <ele>77</ele>
        <time>2021-05-30T16:25:50.000Z</time>
      </trkpt>
      <trkpt lat="47.10093" lon="-1.44429">
        <ele>77</ele>
        <time>2021-05-30T16:25:52.000Z</time>
      </trkpt>
      <trkpt lat="47.10108" lon="-1.44423">
        <ele>77</ele>
        <time>2021-05-30T16:25:54.000Z</time>
      </trkpt>
      <trkpt lat="47.10122" lon="-1.44416">
        <ele>76</ele>
        <time>2021-05-30T16:25:56.000Z</time>
      </trkpt>
      <trkpt lat="47.10135" lon="-1.44406">
        <ele>76</ele>
        <time>2021-05-30T16:25:58.000Z</time>
      </trkpt>
      <trkpt lat="47.10149" lon="-1.44392">
        <ele>75</ele>
        <time>2021-05-30T16:26:00.000Z</time>
      </trkpt>
      <trkpt lat="47.10161" lon="-1.44378">
        <ele>75</ele>
        <time>2021-05-30T16:26:02.000Z</time>
      </trkpt>
      <trkpt lat="47.10178" lon="-1.44358">
        <ele>74</ele>
        <time>2021-05-30T16:26:05.000Z</time>
      </trkpt>
      <trkpt lat="47.10189" lon="-1.44346">
        <ele>75</ele>
        <time>2021-05-30T16:26:07.000Z</time>
      </trkpt>
      <trkpt lat="47.102" lon="-1.44332">
        <ele>74</ele>
        <time>2021-05-30T16:26:09.000Z</time>
      </trkpt>
      <trkpt lat="47.10211" lon="-1.4432">
        <ele>75</ele>
        <time>2021-05-30T16:26:11.000Z</time>
      </trkpt>
      <trkpt lat="47.10221" lon="-1.44307">
        <ele>71</ele>
        <time>2021-05-30T16:26:13.000Z</time>
      </trkpt>
      <trkpt lat="47.10227" lon="-1.44292">
        <ele>71</ele>
        <time>2021-05-30T16:26:15.000Z</time>
      </trkpt>
      <trkpt lat="47.10236" lon="-1.4428">
        <ele>73</ele>
        <time>2021-05-30T16:26:17.000Z</time>
      </trkpt>
      <trkpt lat="47.10245" lon="-1.44274">
        <ele>74</ele>
        <time>2021-05-30T16:26:18.000Z</time>
      </trkpt>
      <trkpt lat="47.10257" lon="-1.44263">
        <ele>74</ele>
        <time>2021-05-30T16:26:20.000Z</time>
      </trkpt>
      <trkpt lat="47.10269" lon="-1.44252">
        <ele>74</ele>
        <time>2021-05-30T16:26:22.000Z</time>
      </trkpt>
      <trkpt lat="47.1028" lon="-1.44242">
        <ele>74</ele>
        <time>2021-05-30T16:26:24.000Z</time>
      </trkpt>
      <trkpt lat="47.10292" lon="-1.44234">
        <ele>73</ele>
        <time>2021-05-30T16:26:26.000Z</time>
      </trkpt>
      <trkpt lat="47.1031" lon="-1.44223">
        <ele>74</ele>
        <time>2021-05-30T16:26:29.000Z</time>
      </trkpt>
      <trkpt lat="47.10322" lon="-1.44216">
        <ele>74</ele>
        <time>2021-05-30T16:26:31.000Z</time>
      </trkpt>
      <trkpt lat="47.10335" lon="-1.44211">
        <ele>74</ele>
        <time>2021-05-30T16:26:33.000Z</time>
      </trkpt>
      <trkpt lat="47.10348" lon="-1.44205">
        <ele>73</ele>
        <time>2021-05-30T16:26:35.000Z</time>
      </trkpt>
      <trkpt lat="47.1036" lon="-1.44199">
        <ele>73</ele>
        <time>2021-05-30T16:26:37.000Z</time>
      </trkpt>
      <trkpt lat="47.10371" lon="-1.44194">
        <ele>73</ele>
        <time>2021-05-30T16:26:39.000Z</time>
      </trkpt>
      <trkpt lat="47.10384" lon="-1.44189">
        <ele>73</ele>
        <time>2021-05-30T16:26:41.000Z</time>
      </trkpt>
      <trkpt lat="47.10396" lon="-1.44183">
        <ele>73</ele>
        <time>2021-05-30T16:26:43.000Z</time>
      </trkpt>
      <trkpt lat="47.10407" lon="-1.4418">
        <ele>73</ele>
        <time>2021-05-30T16:26:45.000Z</time>
      </trkpt>
      <trkpt lat="47.1042" lon="-1.44172">
        <ele>73</ele>
        <time>2021-05-30T16:26:47.000Z</time>
      </trkpt>
      <trkpt lat="47.10432" lon="-1.44167">
        <ele>72</ele>
        <time>2021-05-30T16:26:49.000Z</time>
      </trkpt>
      <trkpt lat="47.10444" lon="-1.44162">
        <ele>72</ele>
        <time>2021-05-30T16:26:51.000Z</time>
      </trkpt>
      <trkpt lat="47.10456" lon="-1.44156">
        <ele>72</ele>
        <time>2021-05-30T16:26:53.000Z</time>
      </trkpt>
      <trkpt lat="47.10467" lon="-1.4415">
        <ele>71</ele>
        <time>2021-05-30T16:26:55.000Z</time>
      </trkpt>
      <trkpt lat="47.10479" lon="-1.44145">
        <ele>71</ele>
        <time>2021-05-30T16:26:57.000Z</time>
      </trkpt>
      <trkpt lat="47.10489" lon="-1.44138">
        <ele>71</ele>
        <time>2021-05-30T16:26:59.000Z</time>
      </trkpt>
      <trkpt lat="47.10498" lon="-1.44133">
        <ele>71</ele>
        <time>2021-05-30T16:27:01.000Z</time>
      </trkpt>
      <trkpt lat="47.10508" lon="-1.44126">
        <ele>71</ele>
        <time>2021-05-30T16:27:03.000Z</time>
      </trkpt>
      <trkpt lat="47.10518" lon="-1.44117">
        <ele>72</ele>
        <time>2021-05-30T16:27:05.000Z</time>
      </trkpt>
      <trkpt lat="47.10528" lon="-1.44109">
        <ele>73</ele>
        <time>2021-05-30T16:27:07.000Z</time>
      </trkpt>
      <trkpt lat="47.10539" lon="-1.44101">
        <ele>72</ele>
        <time>2021-05-30T16:27:09.000Z</time>
      </trkpt>
      <trkpt lat="47.10547" lon="-1.44092">
        <ele>73</ele>
        <time>2021-05-30T16:27:11.000Z</time>
      </trkpt>
      <trkpt lat="47.10557" lon="-1.44084">
        <ele>73</ele>
        <time>2021-05-30T16:27:13.000Z</time>
      </trkpt>
      <trkpt lat="47.10567" lon="-1.44075">
        <ele>73</ele>
        <time>2021-05-30T16:27:15.000Z</time>
      </trkpt>
      <trkpt lat="47.10576" lon="-1.44065">
        <ele>74</ele>
        <time>2021-05-30T16:27:17.000Z</time>
      </trkpt>
      <trkpt lat="47.10585" lon="-1.44056">
        <ele>74</ele>
        <time>2021-05-30T16:27:19.000Z</time>
      </trkpt>
      <trkpt lat="47.10595" lon="-1.44048">
        <ele>74</ele>
        <time>2021-05-30T16:27:21.000Z</time>
      </trkpt>
      <trkpt lat="47.10605" lon="-1.4404">
        <ele>74</ele>
        <time>2021-05-30T16:27:23.000Z</time>
      </trkpt>
      <trkpt lat="47.10615" lon="-1.44034">
        <ele>74</ele>
        <time>2021-05-30T16:27:25.000Z</time>
      </trkpt>
      <trkpt lat="47.10624" lon="-1.44029">
        <ele>74</ele>
        <time>2021-05-30T16:27:27.000Z</time>
      </trkpt>
      <trkpt lat="47.10634" lon="-1.44023">
        <ele>74</ele>
        <time>2021-05-30T16:27:29.000Z</time>
      </trkpt>
      <trkpt lat="47.10643" lon="-1.44017">
        <ele>75</ele>
        <time>2021-05-30T16:27:31.000Z</time>
      </trkpt>
      <trkpt lat="47.10651" lon="-1.44011">
        <ele>75</ele>
        <time>2021-05-30T16:27:33.000Z</time>
      </trkpt>
      <trkpt lat="47.10669" lon="-1.44002">
        <ele>75</ele>
        <time>2021-05-30T16:27:37.000Z</time>
      </trkpt>
      <trkpt lat="47.10681" lon="-1.43997">
        <ele>75</ele>
        <time>2021-05-30T16:27:40.000Z</time>
      </trkpt>
      <trkpt lat="47.10693" lon="-1.43989">
        <ele>76</ele>
        <time>2021-05-30T16:27:43.000Z</time>
      </trkpt>
      <trkpt lat="47.10702" lon="-1.43983">
        <ele>76</ele>
        <time>2021-05-30T16:27:45.000Z</time>
      </trkpt>
      <trkpt lat="47.10714" lon="-1.43974">
        <ele>76</ele>
        <time>2021-05-30T16:27:48.000Z</time>
      </trkpt>
      <trkpt lat="47.10725" lon="-1.43964">
        <ele>77</ele>
        <time>2021-05-30T16:27:51.000Z</time>
      </trkpt>
      <trkpt lat="47.10733" lon="-1.43955">
        <ele>77</ele>
        <time>2021-05-30T16:27:53.000Z</time>
      </trkpt>
      <trkpt lat="47.10744" lon="-1.43943">
        <ele>78</ele>
        <time>2021-05-30T16:27:56.000Z</time>
      </trkpt>
      <trkpt lat="47.10754" lon="-1.4393">
        <ele>78</ele>
        <time>2021-05-30T16:27:59.000Z</time>
      </trkpt>
      <trkpt lat="47.10764" lon="-1.43923">
        <ele>79</ele>
        <time>2021-05-30T16:28:01.000Z</time>
      </trkpt>
      <trkpt lat="47.10775" lon="-1.43914">
        <ele>80</ele>
        <time>2021-05-30T16:28:04.000Z</time>
      </trkpt>
      <trkpt lat="47.10784" lon="-1.43907">
        <ele>80</ele>
        <time>2021-05-30T16:28:06.000Z</time>
      </trkpt>
      <trkpt lat="47.10795" lon="-1.43897">
        <ele>81</ele>
        <time>2021-05-30T16:28:09.000Z</time>
      </trkpt>
      <trkpt lat="47.10803" lon="-1.4389">
        <ele>81</ele>
        <time>2021-05-30T16:28:11.000Z</time>
      </trkpt>
      <trkpt lat="47.10811" lon="-1.43884">
        <ele>81</ele>
        <time>2021-05-30T16:28:13.000Z</time>
      </trkpt>
      <trkpt lat="47.10823" lon="-1.43876">
        <ele>81</ele>
        <time>2021-05-30T16:28:16.000Z</time>
      </trkpt>
      <trkpt lat="47.10831" lon="-1.43869">
        <ele>81</ele>
        <time>2021-05-30T16:28:18.000Z</time>
      </trkpt>
      <trkpt lat="47.10838" lon="-1.4386">
        <ele>81</ele>
        <time>2021-05-30T16:28:20.000Z</time>
      </trkpt>
      <trkpt lat="47.10848" lon="-1.43847">
        <ele>82</ele>
        <time>2021-05-30T16:28:23.000Z</time>
      </trkpt>
      <trkpt lat="47.10858" lon="-1.4384">
        <ele>83</ele>
        <time>2021-05-30T16:28:25.000Z</time>
      </trkpt>
      <trkpt lat="47.10866" lon="-1.43834">
        <ele>83</ele>
        <time>2021-05-30T16:28:27.000Z</time>
      </trkpt>
      <trkpt lat="47.10874" lon="-1.43828">
        <ele>83</ele>
        <time>2021-05-30T16:28:29.000Z</time>
      </trkpt>
      <trkpt lat="47.10883" lon="-1.43818">
        <ele>83</ele>
        <time>2021-05-30T16:28:32.000Z</time>
      </trkpt>
      <trkpt lat="47.10893" lon="-1.43808">
        <ele>84</ele>
        <time>2021-05-30T16:28:34.000Z</time>
      </trkpt>
      <trkpt lat="47.10902" lon="-1.43798">
        <ele>82</ele>
        <time>2021-05-30T16:28:36.000Z</time>
      </trkpt>
      <trkpt lat="47.1091" lon="-1.43788">
        <ele>82</ele>
        <time>2021-05-30T16:28:38.000Z</time>
      </trkpt>
      <trkpt lat="47.1092" lon="-1.43779">
        <ele>83</ele>
        <time>2021-05-30T16:28:41.000Z</time>
      </trkpt>
      <trkpt lat="47.10932" lon="-1.43769">
        <ele>84</ele>
        <time>2021-05-30T16:28:44.000Z</time>
      </trkpt>
      <trkpt lat="47.1094" lon="-1.43761">
        <ele>85</ele>
        <time>2021-05-30T16:28:46.000Z</time>
      </trkpt>
      <trkpt lat="47.10947" lon="-1.43753">
        <ele>85</ele>
        <time>2021-05-30T16:28:48.000Z</time>
      </trkpt>
      <trkpt lat="47.10955" lon="-1.43745">
        <ele>85</ele>
        <time>2021-05-30T16:28:50.000Z</time>
      </trkpt>
      <trkpt lat="47.10963" lon="-1.43737">
        <ele>85</ele>
        <time>2021-05-30T16:28:52.000Z</time>
      </trkpt>
      <trkpt lat="47.10976" lon="-1.43727">
        <ele>85</ele>
        <time>2021-05-30T16:28:55.000Z</time>
      </trkpt>
      <trkpt lat="47.10987" lon="-1.43714">
        <ele>87</ele>
        <time>2021-05-30T16:28:58.000Z</time>
      </trkpt>
      <trkpt lat="47.10993" lon="-1.43704">
        <ele>88</ele>
        <time>2021-05-30T16:29:00.000Z</time>
      </trkpt>
      <trkpt lat="47.11" lon="-1.43692">
        <ele>88</ele>
        <time>2021-05-30T16:29:03.000Z</time>
      </trkpt>
      <trkpt lat="47.11015" lon="-1.43678">
        <ele>88</ele>
        <time>2021-05-30T16:29:06.000Z</time>
      </trkpt>
      <trkpt lat="47.11022" lon="-1.43668">
        <ele>87</ele>
        <time>2021-05-30T16:29:08.000Z</time>
      </trkpt>
      <trkpt lat="47.11029" lon="-1.43653">
        <ele>86</ele>
        <time>2021-05-30T16:29:11.000Z</time>
      </trkpt>
      <trkpt lat="47.11038" lon="-1.43643">
        <ele>86</ele>
        <time>2021-05-30T16:29:13.000Z</time>
      </trkpt>
      <trkpt lat="47.11046" lon="-1.43634">
        <ele>87</ele>
        <time>2021-05-30T16:29:15.000Z</time>
      </trkpt>
      <trkpt lat="47.11054" lon="-1.43626">
        <ele>88</ele>
        <time>2021-05-30T16:29:17.000Z</time>
      </trkpt>
      <trkpt lat="47.11061" lon="-1.43618">
        <ele>88</ele>
        <time>2021-05-30T16:29:19.000Z</time>
      </trkpt>
      <trkpt lat="47.11069" lon="-1.4361">
        <ele>87</ele>
        <time>2021-05-30T16:29:21.000Z</time>
      </trkpt>
      <trkpt lat="47.11076" lon="-1.43601">
        <ele>88</ele>
        <time>2021-05-30T16:29:23.000Z</time>
      </trkpt>
      <trkpt lat="47.11084" lon="-1.43593">
        <ele>88</ele>
        <time>2021-05-30T16:29:25.000Z</time>
      </trkpt>
      <trkpt lat="47.11096" lon="-1.43583">
        <ele>89</ele>
        <time>2021-05-30T16:29:28.000Z</time>
      </trkpt>
      <trkpt lat="47.11103" lon="-1.43575">
        <ele>90</ele>
        <time>2021-05-30T16:29:30.000Z</time>
      </trkpt>
      <trkpt lat="47.11111" lon="-1.43561">
        <ele>88</ele>
        <time>2021-05-30T16:29:33.000Z</time>
      </trkpt>
      <trkpt lat="47.11121" lon="-1.43546">
        <ele>87</ele>
        <time>2021-05-30T16:29:36.000Z</time>
      </trkpt>
      <trkpt lat="47.11129" lon="-1.43531">
        <ele>89</ele>
        <time>2021-05-30T16:29:39.000Z</time>
      </trkpt>
      <trkpt lat="47.11139" lon="-1.43514">
        <ele>86</ele>
        <time>2021-05-30T16:29:42.000Z</time>
      </trkpt>
      <trkpt lat="47.11146" lon="-1.43504">
        <ele>87</ele>
        <time>2021-05-30T16:29:44.000Z</time>
      </trkpt>
      <trkpt lat="47.11153" lon="-1.43494">
        <ele>87</ele>
        <time>2021-05-30T16:29:46.000Z</time>
      </trkpt>
      <trkpt lat="47.11158" lon="-1.43483">
        <ele>88</ele>
        <time>2021-05-30T16:29:48.000Z</time>
      </trkpt>
      <trkpt lat="47.11171" lon="-1.43461">
        <ele>89</ele>
        <time>2021-05-30T16:29:52.000Z</time>
      </trkpt>
      <trkpt lat="47.1118" lon="-1.43445">
        <ele>89</ele>
        <time>2021-05-30T16:29:55.000Z</time>
      </trkpt>
      <trkpt lat="47.11186" lon="-1.43434">
        <ele>90</ele>
        <time>2021-05-30T16:29:57.000Z</time>
      </trkpt>
      <trkpt lat="47.11192" lon="-1.43423">
        <ele>90</ele>
        <time>2021-05-30T16:29:59.000Z</time>
      </trkpt>
      <trkpt lat="47.11199" lon="-1.43411">
        <ele>91</ele>
        <time>2021-05-30T16:30:01.000Z</time>
      </trkpt>
      <trkpt lat="47.11205" lon="-1.434">
        <ele>91</ele>
        <time>2021-05-30T16:30:03.000Z</time>
      </trkpt>
      <trkpt lat="47.11212" lon="-1.43389">
        <ele>90</ele>
        <time>2021-05-30T16:30:05.000Z</time>
      </trkpt>
      <trkpt lat="47.11218" lon="-1.43378">
        <ele>91</ele>
        <time>2021-05-30T16:30:07.000Z</time>
      </trkpt>
      <trkpt lat="47.11224" lon="-1.43368">
        <ele>90</ele>
        <time>2021-05-30T16:30:09.000Z</time>
      </trkpt>
      <trkpt lat="47.11231" lon="-1.43357">
        <ele>90</ele>
        <time>2021-05-30T16:30:11.000Z</time>
      </trkpt>
      <trkpt lat="47.11239" lon="-1.43344">
        <ele>87</ele>
        <time>2021-05-30T16:30:13.000Z</time>
      </trkpt>
      <trkpt lat="47.11246" lon="-1.43332">
        <ele>87</ele>
        <time>2021-05-30T16:30:15.000Z</time>
      </trkpt>
      <trkpt lat="47.11253" lon="-1.43323">
        <ele>88</ele>
        <time>2021-05-30T16:30:17.000Z</time>
      </trkpt>
      <trkpt lat="47.11263" lon="-1.43308">
        <ele>89</ele>
        <time>2021-05-30T16:30:20.000Z</time>
      </trkpt>
      <trkpt lat="47.1127" lon="-1.43297">
        <ele>88</ele>
        <time>2021-05-30T16:30:22.000Z</time>
      </trkpt>
      <trkpt lat="47.1128" lon="-1.43287">
        <ele>88</ele>
        <time>2021-05-30T16:30:24.000Z</time>
      </trkpt>
      <trkpt lat="47.11289" lon="-1.43276">
        <ele>88</ele>
        <time>2021-05-30T16:30:26.000Z</time>
      </trkpt>
      <trkpt lat="47.11299" lon="-1.43265">
        <ele>87</ele>
        <time>2021-05-30T16:30:28.000Z</time>
      </trkpt>
      <trkpt lat="47.11308" lon="-1.43253">
        <ele>88</ele>
        <time>2021-05-30T16:30:30.000Z</time>
      </trkpt>
      <trkpt lat="47.11317" lon="-1.43243">
        <ele>87</ele>
        <time>2021-05-30T16:30:32.000Z</time>
      </trkpt>
      <trkpt lat="47.11332" lon="-1.43225">
        <ele>87</ele>
        <time>2021-05-30T16:30:35.000Z</time>
      </trkpt>
      <trkpt lat="47.11341" lon="-1.43213">
        <ele>86</ele>
        <time>2021-05-30T16:30:37.000Z</time>
      </trkpt>
      <trkpt lat="47.11351" lon="-1.43201">
        <ele>87</ele>
        <time>2021-05-30T16:30:39.000Z</time>
      </trkpt>
      <trkpt lat="47.1136" lon="-1.4319">
        <ele>87</ele>
        <time>2021-05-30T16:30:41.000Z</time>
      </trkpt>
      <trkpt lat="47.1137" lon="-1.43179">
        <ele>86</ele>
        <time>2021-05-30T16:30:43.000Z</time>
      </trkpt>
      <trkpt lat="47.11379" lon="-1.43166">
        <ele>87</ele>
        <time>2021-05-30T16:30:45.000Z</time>
      </trkpt>
      <trkpt lat="47.11387" lon="-1.43154">
        <ele>86</ele>
        <time>2021-05-30T16:30:47.000Z</time>
      </trkpt>
      <trkpt lat="47.11397" lon="-1.43143">
        <ele>86</ele>
        <time>2021-05-30T16:30:49.000Z</time>
      </trkpt>
      <trkpt lat="47.11407" lon="-1.43132">
        <ele>86</ele>
        <time>2021-05-30T16:30:51.000Z</time>
      </trkpt>
      <trkpt lat="47.11422" lon="-1.43113">
        <ele>86</ele>
        <time>2021-05-30T16:30:54.000Z</time>
      </trkpt>
      <trkpt lat="47.1143" lon="-1.43102">
        <ele>86</ele>
        <time>2021-05-30T16:30:56.000Z</time>
      </trkpt>
      <trkpt lat="47.11441" lon="-1.4309">
        <ele>86</ele>
        <time>2021-05-30T16:30:58.000Z</time>
      </trkpt>
      <trkpt lat="47.11451" lon="-1.4308">
        <ele>86</ele>
        <time>2021-05-30T16:31:00.000Z</time>
      </trkpt>
      <trkpt lat="47.11466" lon="-1.43064">
        <ele>83</ele>
        <time>2021-05-30T16:31:03.000Z</time>
      </trkpt>
      <trkpt lat="47.11478" lon="-1.43055">
        <ele>84</ele>
        <time>2021-05-30T16:31:05.000Z</time>
      </trkpt>
      <trkpt lat="47.1149" lon="-1.43045">
        <ele>84</ele>
        <time>2021-05-30T16:31:07.000Z</time>
      </trkpt>
      <trkpt lat="47.11501" lon="-1.43034">
        <ele>84</ele>
        <time>2021-05-30T16:31:09.000Z</time>
      </trkpt>
      <trkpt lat="47.11511" lon="-1.43022">
        <ele>85</ele>
        <time>2021-05-30T16:31:11.000Z</time>
      </trkpt>
      <trkpt lat="47.11523" lon="-1.43012">
        <ele>85</ele>
        <time>2021-05-30T16:31:13.000Z</time>
      </trkpt>
      <trkpt lat="47.11535" lon="-1.43002">
        <ele>83</ele>
        <time>2021-05-30T16:31:15.000Z</time>
      </trkpt>
      <trkpt lat="47.11548" lon="-1.42991">
        <ele>82</ele>
        <time>2021-05-30T16:31:17.000Z</time>
      </trkpt>
      <trkpt lat="47.1156" lon="-1.4298">
        <ele>81</ele>
        <time>2021-05-30T16:31:19.000Z</time>
      </trkpt>
      <trkpt lat="47.11572" lon="-1.42969">
        <ele>80</ele>
        <time>2021-05-30T16:31:21.000Z</time>
      </trkpt>
      <trkpt lat="47.11585" lon="-1.42956">
        <ele>79</ele>
        <time>2021-05-30T16:31:23.000Z</time>
      </trkpt>
      <trkpt lat="47.11597" lon="-1.42945">
        <ele>78</ele>
        <time>2021-05-30T16:31:25.000Z</time>
      </trkpt>
      <trkpt lat="47.11609" lon="-1.42932">
        <ele>77</ele>
        <time>2021-05-30T16:31:27.000Z</time>
      </trkpt>
      <trkpt lat="47.11626" lon="-1.42909">
        <ele>77</ele>
        <time>2021-05-30T16:31:30.000Z</time>
      </trkpt>
      <trkpt lat="47.11638" lon="-1.42883">
        <ele>77</ele>
        <time>2021-05-30T16:31:33.000Z</time>
      </trkpt>
      <trkpt lat="47.11646" lon="-1.42866">
        <ele>77</ele>
        <time>2021-05-30T16:31:35.000Z</time>
      </trkpt>
      <trkpt lat="47.11653" lon="-1.42851">
        <ele>77</ele>
        <time>2021-05-30T16:31:37.000Z</time>
      </trkpt>
      <trkpt lat="47.11662" lon="-1.42827">
        <ele>78</ele>
        <time>2021-05-30T16:31:40.000Z</time>
      </trkpt>
      <trkpt lat="47.11669" lon="-1.4281">
        <ele>78</ele>
        <time>2021-05-30T16:31:42.000Z</time>
      </trkpt>
      <trkpt lat="47.11675" lon="-1.42796">
        <ele>79</ele>
        <time>2021-05-30T16:31:44.000Z</time>
      </trkpt>
      <trkpt lat="47.11681" lon="-1.4278">
        <ele>78</ele>
        <time>2021-05-30T16:31:46.000Z</time>
      </trkpt>
      <trkpt lat="47.11684" lon="-1.42764">
        <ele>77</ele>
        <time>2021-05-30T16:31:48.000Z</time>
      </trkpt>
      <trkpt lat="47.11686" lon="-1.4275">
        <ele>78</ele>
        <time>2021-05-30T16:31:51.000Z</time>
      </trkpt>
      <trkpt lat="47.1169" lon="-1.42733">
        <ele>80</ele>
        <time>2021-05-30T16:31:54.000Z</time>
      </trkpt>
      <trkpt lat="47.11693" lon="-1.42721">
        <ele>82</ele>
        <time>2021-05-30T16:31:56.000Z</time>
      </trkpt>
      <trkpt lat="47.11709" lon="-1.42707">
        <ele>83</ele>
        <time>2021-05-30T16:32:00.000Z</time>
      </trkpt>
      <trkpt lat="47.11719" lon="-1.42704">
        <ele>83</ele>
        <time>2021-05-30T16:32:02.000Z</time>
      </trkpt>
      <trkpt lat="47.11725" lon="-1.4269">
        <ele>83</ele>
        <time>2021-05-30T16:32:05.000Z</time>
      </trkpt>
      <trkpt lat="47.11734" lon="-1.42683">
        <ele>83</ele>
        <time>2021-05-30T16:32:08.000Z</time>
      </trkpt>
      <trkpt lat="47.11745" lon="-1.42673">
        <ele>85</ele>
        <time>2021-05-30T16:32:11.000Z</time>
      </trkpt>
      <trkpt lat="47.11755" lon="-1.42667">
        <ele>85</ele>
        <time>2021-05-30T16:32:14.000Z</time>
      </trkpt>
      <trkpt lat="47.11769" lon="-1.42659">
        <ele>86</ele>
        <time>2021-05-30T16:32:18.000Z</time>
      </trkpt>
      <trkpt lat="47.1178" lon="-1.42653">
        <ele>86</ele>
        <time>2021-05-30T16:32:21.000Z</time>
      </trkpt>
      <trkpt lat="47.11791" lon="-1.42647">
        <ele>84</ele>
        <time>2021-05-30T16:32:24.000Z</time>
      </trkpt>
      <trkpt lat="47.11799" lon="-1.4264">
        <ele>87</ele>
        <time>2021-05-30T16:32:27.000Z</time>
      </trkpt>
      <trkpt lat="47.11808" lon="-1.42634">
        <ele>88</ele>
        <time>2021-05-30T16:32:30.000Z</time>
      </trkpt>
      <trkpt lat="47.11822" lon="-1.42625">
        <ele>88</ele>
        <time>2021-05-30T16:32:34.000Z</time>
      </trkpt>
      <trkpt lat="47.11831" lon="-1.42621">
        <ele>89</ele>
        <time>2021-05-30T16:32:37.000Z</time>
      </trkpt>
      <trkpt lat="47.1184" lon="-1.42612">
        <ele>89</ele>
        <time>2021-05-30T16:32:40.000Z</time>
      </trkpt>
      <trkpt lat="47.11851" lon="-1.42606">
        <ele>91</ele>
        <time>2021-05-30T16:32:43.000Z</time>
      </trkpt>
      <trkpt lat="47.11861" lon="-1.42599">
        <ele>92</ele>
        <time>2021-05-30T16:32:46.000Z</time>
      </trkpt>
      <trkpt lat="47.1187" lon="-1.4259">
        <ele>93</ele>
        <time>2021-05-30T16:32:49.000Z</time>
      </trkpt>
      <trkpt lat="47.1188" lon="-1.42582">
        <ele>94</ele>
        <time>2021-05-30T16:32:52.000Z</time>
      </trkpt>
      <trkpt lat="47.11889" lon="-1.42574">
        <ele>94</ele>
        <time>2021-05-30T16:32:55.000Z</time>
      </trkpt>
      <trkpt lat="47.11898" lon="-1.42564">
        <ele>95</ele>
        <time>2021-05-30T16:32:58.000Z</time>
      </trkpt>
      <trkpt lat="47.11905" lon="-1.42553">
        <ele>93</ele>
        <time>2021-05-30T16:33:01.000Z</time>
      </trkpt>
      <trkpt lat="47.11914" lon="-1.42545">
        <ele>94</ele>
        <time>2021-05-30T16:33:04.000Z</time>
      </trkpt>
      <trkpt lat="47.11924" lon="-1.42538">
        <ele>94</ele>
        <time>2021-05-30T16:33:07.000Z</time>
      </trkpt>
      <trkpt lat="47.11932" lon="-1.42529">
        <ele>94</ele>
        <time>2021-05-30T16:33:10.000Z</time>
      </trkpt>
      <trkpt lat="47.11943" lon="-1.4252">
        <ele>94</ele>
        <time>2021-05-30T16:33:13.000Z</time>
      </trkpt>
      <trkpt lat="47.11953" lon="-1.42511">
        <ele>96</ele>
        <time>2021-05-30T16:33:16.000Z</time>
      </trkpt>
      <trkpt lat="47.11963" lon="-1.425">
        <ele>97</ele>
        <time>2021-05-30T16:33:19.000Z</time>
      </trkpt>
      <trkpt lat="47.11974" lon="-1.42491">
        <ele>97</ele>
        <time>2021-05-30T16:33:22.000Z</time>
      </trkpt>
      <trkpt lat="47.11982" lon="-1.42479">
        <ele>98</ele>
        <time>2021-05-30T16:33:25.000Z</time>
      </trkpt>
      <trkpt lat="47.1199" lon="-1.42473">
        <ele>98</ele>
        <time>2021-05-30T16:33:27.000Z</time>
      </trkpt>
      <trkpt lat="47.12001" lon="-1.42464">
        <ele>98</ele>
        <time>2021-05-30T16:33:30.000Z</time>
      </trkpt>
      <trkpt lat="47.12012" lon="-1.42453">
        <ele>98</ele>
        <time>2021-05-30T16:33:33.000Z</time>
      </trkpt>
      <trkpt lat="47.1202" lon="-1.42444">
        <ele>99</ele>
        <time>2021-05-30T16:33:36.000Z</time>
      </trkpt>
      <trkpt lat="47.12029" lon="-1.42437">
        <ele>99</ele>
        <time>2021-05-30T16:33:38.000Z</time>
      </trkpt>
      <trkpt lat="47.12039" lon="-1.42427">
        <ele>100</ele>
        <time>2021-05-30T16:33:41.000Z</time>
      </trkpt>
      <trkpt lat="47.12047" lon="-1.42416">
        <ele>100</ele>
        <time>2021-05-30T16:33:44.000Z</time>
      </trkpt>
      <trkpt lat="47.12054" lon="-1.42403">
        <ele>100</ele>
        <time>2021-05-30T16:33:46.000Z</time>
      </trkpt>
      <trkpt lat="47.1206" lon="-1.42393">
        <ele>100</ele>
        <time>2021-05-30T16:33:48.000Z</time>
      </trkpt>
      <trkpt lat="47.12068" lon="-1.42376">
        <ele>100</ele>
        <time>2021-05-30T16:33:51.000Z</time>
      </trkpt>
      <trkpt lat="47.12071" lon="-1.42362">
        <ele>100</ele>
        <time>2021-05-30T16:33:53.000Z</time>
      </trkpt>
      <trkpt lat="47.12075" lon="-1.42345">
        <ele>102</ele>
        <time>2021-05-30T16:33:55.000Z</time>
      </trkpt>
      <trkpt lat="47.12079" lon="-1.4233">
        <ele>101</ele>
        <time>2021-05-30T16:33:57.000Z</time>
      </trkpt>
      <trkpt lat="47.12084" lon="-1.42315">
        <ele>100</ele>
        <time>2021-05-30T16:33:59.000Z</time>
      </trkpt>
      <trkpt lat="47.12091" lon="-1.42292">
        <ele>100</ele>
        <time>2021-05-30T16:34:02.000Z</time>
      </trkpt>
      <trkpt lat="47.12096" lon="-1.42278">
        <ele>99</ele>
        <time>2021-05-30T16:34:04.000Z</time>
      </trkpt>
      <trkpt lat="47.121" lon="-1.42263">
        <ele>99</ele>
        <time>2021-05-30T16:34:06.000Z</time>
      </trkpt>
      <trkpt lat="47.12107" lon="-1.42239">
        <ele>99</ele>
        <time>2021-05-30T16:34:09.000Z</time>
      </trkpt>
      <trkpt lat="47.12111" lon="-1.42225">
        <ele>99</ele>
        <time>2021-05-30T16:34:11.000Z</time>
      </trkpt>
      <trkpt lat="47.12114" lon="-1.4221">
        <ele>100</ele>
        <time>2021-05-30T16:34:13.000Z</time>
      </trkpt>
      <trkpt lat="47.12121" lon="-1.42194">
        <ele>101</ele>
        <time>2021-05-30T16:34:15.000Z</time>
      </trkpt>
      <trkpt lat="47.12134" lon="-1.42179">
        <ele>101</ele>
        <time>2021-05-30T16:34:18.000Z</time>
      </trkpt>
      <trkpt lat="47.12143" lon="-1.4217">
        <ele>101</ele>
        <time>2021-05-30T16:34:20.000Z</time>
      </trkpt>
      <trkpt lat="47.12153" lon="-1.42162">
        <ele>101</ele>
        <time>2021-05-30T16:34:22.000Z</time>
      </trkpt>
      <trkpt lat="47.12163" lon="-1.42154">
        <ele>102</ele>
        <time>2021-05-30T16:34:24.000Z</time>
      </trkpt>
      <trkpt lat="47.12179" lon="-1.42144">
        <ele>101</ele>
        <time>2021-05-30T16:34:27.000Z</time>
      </trkpt>
      <trkpt lat="47.1219" lon="-1.42138">
        <ele>101</ele>
        <time>2021-05-30T16:34:29.000Z</time>
      </trkpt>
      <trkpt lat="47.12204" lon="-1.42131">
        <ele>99</ele>
        <time>2021-05-30T16:34:32.000Z</time>
      </trkpt>
      <trkpt lat="47.12216" lon="-1.42126">
        <ele>99</ele>
        <time>2021-05-30T16:34:34.000Z</time>
      </trkpt>
      <trkpt lat="47.1223" lon="-1.42114">
        <ele>99</ele>
        <time>2021-05-30T16:34:37.000Z</time>
      </trkpt>
      <trkpt lat="47.1224" lon="-1.42107">
        <ele>100</ele>
        <time>2021-05-30T16:34:39.000Z</time>
      </trkpt>
      <trkpt lat="47.12249" lon="-1.42098">
        <ele>101</ele>
        <time>2021-05-30T16:34:41.000Z</time>
      </trkpt>
      <trkpt lat="47.12258" lon="-1.4209">
        <ele>100</ele>
        <time>2021-05-30T16:34:43.000Z</time>
      </trkpt>
      <trkpt lat="47.12271" lon="-1.42079">
        <ele>100</ele>
        <time>2021-05-30T16:34:46.000Z</time>
      </trkpt>
      <trkpt lat="47.12283" lon="-1.4207">
        <ele>100</ele>
        <time>2021-05-30T16:34:48.000Z</time>
      </trkpt>
      <trkpt lat="47.12291" lon="-1.42061">
        <ele>100</ele>
        <time>2021-05-30T16:34:50.000Z</time>
      </trkpt>
      <trkpt lat="47.12299" lon="-1.42053">
        <ele>100</ele>
        <time>2021-05-30T16:34:52.000Z</time>
      </trkpt>
      <trkpt lat="47.12315" lon="-1.42047">
        <ele>100</ele>
        <time>2021-05-30T16:34:55.000Z</time>
      </trkpt>
      <trkpt lat="47.12324" lon="-1.42041">
        <ele>101</ele>
        <time>2021-05-30T16:34:57.000Z</time>
      </trkpt>
      <trkpt lat="47.12334" lon="-1.42045">
        <ele>100</ele>
        <time>2021-05-30T16:34:59.000Z</time>
      </trkpt>
      <trkpt lat="47.12342" lon="-1.42059">
        <ele>99</ele>
        <time>2021-05-30T16:35:02.000Z</time>
      </trkpt>
      <trkpt lat="47.12348" lon="-1.42072">
        <ele>101</ele>
        <time>2021-05-30T16:35:04.000Z</time>
      </trkpt>
      <trkpt lat="47.12356" lon="-1.42091">
        <ele>101</ele>
        <time>2021-05-30T16:35:06.000Z</time>
      </trkpt>
      <trkpt lat="47.12367" lon="-1.42108">
        <ele>100</ele>
        <time>2021-05-30T16:35:09.000Z</time>
      </trkpt>
      <trkpt lat="47.12374" lon="-1.42118">
        <ele>99</ele>
        <time>2021-05-30T16:35:11.000Z</time>
      </trkpt>
      <trkpt lat="47.12381" lon="-1.42132">
        <ele>99</ele>
        <time>2021-05-30T16:35:13.000Z</time>
      </trkpt>
      <trkpt lat="47.12386" lon="-1.42145">
        <ele>99</ele>
        <time>2021-05-30T16:35:15.000Z</time>
      </trkpt>
      <trkpt lat="47.12392" lon="-1.42168">
        <ele>99</ele>
        <time>2021-05-30T16:35:18.000Z</time>
      </trkpt>
      <trkpt lat="47.12395" lon="-1.42183">
        <ele>99</ele>
        <time>2021-05-30T16:35:20.000Z</time>
      </trkpt>
      <trkpt lat="47.12399" lon="-1.422">
        <ele>98</ele>
        <time>2021-05-30T16:35:22.000Z</time>
      </trkpt>
      <trkpt lat="47.12403" lon="-1.42215">
        <ele>99</ele>
        <time>2021-05-30T16:35:24.000Z</time>
      </trkpt>
      <trkpt lat="47.12406" lon="-1.42233">
        <ele>97</ele>
        <time>2021-05-30T16:35:26.000Z</time>
      </trkpt>
      <trkpt lat="47.1241" lon="-1.42248">
        <ele>99</ele>
        <time>2021-05-30T16:35:28.000Z</time>
      </trkpt>
      <trkpt lat="47.12416" lon="-1.42263">
        <ele>99</ele>
        <time>2021-05-30T16:35:30.000Z</time>
      </trkpt>
      <trkpt lat="47.12419" lon="-1.42278">
        <ele>100</ele>
        <time>2021-05-30T16:35:32.000Z</time>
      </trkpt>
      <trkpt lat="47.12422" lon="-1.42292">
        <ele>101</ele>
        <time>2021-05-30T16:35:34.000Z</time>
      </trkpt>
      <trkpt lat="47.12425" lon="-1.42309">
        <ele>101</ele>
        <time>2021-05-30T16:35:36.000Z</time>
      </trkpt>
      <trkpt lat="47.12428" lon="-1.42334">
        <ele>101</ele>
        <time>2021-05-30T16:35:39.000Z</time>
      </trkpt>
      <trkpt lat="47.12431" lon="-1.42349">
        <ele>100</ele>
        <time>2021-05-30T16:35:41.000Z</time>
      </trkpt>
      <trkpt lat="47.12435" lon="-1.42363">
        <ele>100</ele>
        <time>2021-05-30T16:35:43.000Z</time>
      </trkpt>
      <trkpt lat="47.1244" lon="-1.42379">
        <ele>102</ele>
        <time>2021-05-30T16:35:45.000Z</time>
      </trkpt>
      <trkpt lat="47.12444" lon="-1.42392">
        <ele>104</ele>
        <time>2021-05-30T16:35:47.000Z</time>
      </trkpt>
      <trkpt lat="47.12444" lon="-1.42408">
        <ele>103</ele>
        <time>2021-05-30T16:35:49.000Z</time>
      </trkpt>
      <trkpt lat="47.12445" lon="-1.42425">
        <ele>102</ele>
        <time>2021-05-30T16:35:51.000Z</time>
      </trkpt>
      <trkpt lat="47.12448" lon="-1.42443">
        <ele>102</ele>
        <time>2021-05-30T16:35:53.000Z</time>
      </trkpt>
      <trkpt lat="47.1245" lon="-1.4246">
        <ele>102</ele>
        <time>2021-05-30T16:35:55.000Z</time>
      </trkpt>
      <trkpt lat="47.12452" lon="-1.42477">
        <ele>102</ele>
        <time>2021-05-30T16:35:57.000Z</time>
      </trkpt>
      <trkpt lat="47.12453" lon="-1.42495">
        <ele>102</ele>
        <time>2021-05-30T16:35:59.000Z</time>
      </trkpt>
      <trkpt lat="47.12454" lon="-1.42512">
        <ele>102</ele>
        <time>2021-05-30T16:36:01.000Z</time>
      </trkpt>
      <trkpt lat="47.12454" lon="-1.4253">
        <ele>102</ele>
        <time>2021-05-30T16:36:03.000Z</time>
      </trkpt>
      <trkpt lat="47.12454" lon="-1.42547">
        <ele>103</ele>
        <time>2021-05-30T16:36:05.000Z</time>
      </trkpt>
      <trkpt lat="47.12455" lon="-1.42564">
        <ele>103</ele>
        <time>2021-05-30T16:36:07.000Z</time>
      </trkpt>
      <trkpt lat="47.12457" lon="-1.42582">
        <ele>103</ele>
        <time>2021-05-30T16:36:09.000Z</time>
      </trkpt>
      <trkpt lat="47.12458" lon="-1.42609">
        <ele>102</ele>
        <time>2021-05-30T16:36:12.000Z</time>
      </trkpt>
      <trkpt lat="47.12459" lon="-1.42625">
        <ele>103</ele>
        <time>2021-05-30T16:36:14.000Z</time>
      </trkpt>
      <trkpt lat="47.12461" lon="-1.42642">
        <ele>102</ele>
        <time>2021-05-30T16:36:16.000Z</time>
      </trkpt>
      <trkpt lat="47.12457" lon="-1.42659">
        <ele>101</ele>
        <time>2021-05-30T16:36:18.000Z</time>
      </trkpt>
      <trkpt lat="47.12456" lon="-1.42675">
        <ele>102</ele>
        <time>2021-05-30T16:36:20.000Z</time>
      </trkpt>
      <trkpt lat="47.12454" lon="-1.42691">
        <ele>100</ele>
        <time>2021-05-30T16:36:22.000Z</time>
      </trkpt>
      <trkpt lat="47.12452" lon="-1.42708">
        <ele>99</ele>
        <time>2021-05-30T16:36:24.000Z</time>
      </trkpt>
      <trkpt lat="47.12454" lon="-1.42727">
        <ele>101</ele>
        <time>2021-05-30T16:36:26.000Z</time>
      </trkpt>
      <trkpt lat="47.12461" lon="-1.42751">
        <ele>101</ele>
        <time>2021-05-30T16:36:29.000Z</time>
      </trkpt>
      <trkpt lat="47.12466" lon="-1.42765">
        <ele>102</ele>
        <time>2021-05-30T16:36:31.000Z</time>
      </trkpt>
      <trkpt lat="47.12472" lon="-1.42779">
        <ele>102</ele>
        <time>2021-05-30T16:36:33.000Z</time>
      </trkpt>
      <trkpt lat="47.12478" lon="-1.42793">
        <ele>102</ele>
        <time>2021-05-30T16:36:35.000Z</time>
      </trkpt>
      <trkpt lat="47.12485" lon="-1.42806">
        <ele>103</ele>
        <time>2021-05-30T16:36:37.000Z</time>
      </trkpt>
      <trkpt lat="47.12491" lon="-1.42819">
        <ele>103</ele>
        <time>2021-05-30T16:36:39.000Z</time>
      </trkpt>
      <trkpt lat="47.12502" lon="-1.42841">
        <ele>102</ele>
        <time>2021-05-30T16:36:42.000Z</time>
      </trkpt>
      <trkpt lat="47.12512" lon="-1.42863">
        <ele>101</ele>
        <time>2021-05-30T16:36:45.000Z</time>
      </trkpt>
      <trkpt lat="47.12519" lon="-1.42877">
        <ele>102</ele>
        <time>2021-05-30T16:36:47.000Z</time>
      </trkpt>
      <trkpt lat="47.12526" lon="-1.42889">
        <ele>103</ele>
        <time>2021-05-30T16:36:49.000Z</time>
      </trkpt>
      <trkpt lat="47.12536" lon="-1.4291">
        <ele>103</ele>
        <time>2021-05-30T16:36:52.000Z</time>
      </trkpt>
      <trkpt lat="47.12541" lon="-1.42926">
        <ele>101</ele>
        <time>2021-05-30T16:36:54.000Z</time>
      </trkpt>
      <trkpt lat="47.12547" lon="-1.4294">
        <ele>100</ele>
        <time>2021-05-30T16:36:56.000Z</time>
      </trkpt>
      <trkpt lat="47.12554" lon="-1.42953">
        <ele>100</ele>
        <time>2021-05-30T16:36:58.000Z</time>
      </trkpt>
      <trkpt lat="47.12562" lon="-1.42966">
        <ele>101</ele>
        <time>2021-05-30T16:37:00.000Z</time>
      </trkpt>
      <trkpt lat="47.12569" lon="-1.4298">
        <ele>102</ele>
        <time>2021-05-30T16:37:02.000Z</time>
      </trkpt>
      <trkpt lat="47.12575" lon="-1.42994">
        <ele>102</ele>
        <time>2021-05-30T16:37:04.000Z</time>
      </trkpt>
      <trkpt lat="47.12582" lon="-1.43008">
        <ele>103</ele>
        <time>2021-05-30T16:37:06.000Z</time>
      </trkpt>
      <trkpt lat="47.12591" lon="-1.43031">
        <ele>104</ele>
        <time>2021-05-30T16:37:09.000Z</time>
      </trkpt>
      <trkpt lat="47.12598" lon="-1.43047">
        <ele>104</ele>
        <time>2021-05-30T16:37:11.000Z</time>
      </trkpt>
      <trkpt lat="47.12604" lon="-1.43062">
        <ele>104</ele>
        <time>2021-05-30T16:37:13.000Z</time>
      </trkpt>
      <trkpt lat="47.1261" lon="-1.43076">
        <ele>104</ele>
        <time>2021-05-30T16:37:15.000Z</time>
      </trkpt>
      <trkpt lat="47.12618" lon="-1.43098">
        <ele>103</ele>
        <time>2021-05-30T16:37:18.000Z</time>
      </trkpt>
      <trkpt lat="47.12623" lon="-1.4311">
        <ele>105</ele>
        <time>2021-05-30T16:37:20.000Z</time>
      </trkpt>
      <trkpt lat="47.12631" lon="-1.43126">
        <ele>106</ele>
        <time>2021-05-30T16:37:22.000Z</time>
      </trkpt>
      <trkpt lat="47.12636" lon="-1.43142">
        <ele>106</ele>
        <time>2021-05-30T16:37:24.000Z</time>
      </trkpt>
      <trkpt lat="47.12643" lon="-1.43161">
        <ele>106</ele>
        <time>2021-05-30T16:37:26.000Z</time>
      </trkpt>
      <trkpt lat="47.12652" lon="-1.43184">
        <ele>105</ele>
        <time>2021-05-30T16:37:29.000Z</time>
      </trkpt>
      <trkpt lat="47.12655" lon="-1.43201">
        <ele>105</ele>
        <time>2021-05-30T16:37:31.000Z</time>
      </trkpt>
      <trkpt lat="47.12663" lon="-1.4323">
        <ele>105</ele>
        <time>2021-05-30T16:37:34.000Z</time>
      </trkpt>
      <trkpt lat="47.12669" lon="-1.43254">
        <ele>104</ele>
        <time>2021-05-30T16:37:37.000Z</time>
      </trkpt>
      <trkpt lat="47.12672" lon="-1.4327">
        <ele>103</ele>
        <time>2021-05-30T16:37:39.000Z</time>
      </trkpt>
      <trkpt lat="47.12677" lon="-1.43285">
        <ele>105</ele>
        <time>2021-05-30T16:37:41.000Z</time>
      </trkpt>
      <trkpt lat="47.12683" lon="-1.43301">
        <ele>104</ele>
        <time>2021-05-30T16:37:43.000Z</time>
      </trkpt>
      <trkpt lat="47.12689" lon="-1.43318">
        <ele>105</ele>
        <time>2021-05-30T16:37:45.000Z</time>
      </trkpt>
      <trkpt lat="47.12696" lon="-1.43335">
        <ele>104</ele>
        <time>2021-05-30T16:37:47.000Z</time>
      </trkpt>
      <trkpt lat="47.12704" lon="-1.43352">
        <ele>104</ele>
        <time>2021-05-30T16:37:49.000Z</time>
      </trkpt>
      <trkpt lat="47.12712" lon="-1.4337">
        <ele>104</ele>
        <time>2021-05-30T16:37:51.000Z</time>
      </trkpt>
      <trkpt lat="47.12718" lon="-1.43386">
        <ele>104</ele>
        <time>2021-05-30T16:37:53.000Z</time>
      </trkpt>
      <trkpt lat="47.12725" lon="-1.43402">
        <ele>104</ele>
        <time>2021-05-30T16:37:55.000Z</time>
      </trkpt>
      <trkpt lat="47.12732" lon="-1.43419">
        <ele>103</ele>
        <time>2021-05-30T16:37:57.000Z</time>
      </trkpt>
      <trkpt lat="47.12739" lon="-1.43437">
        <ele>103</ele>
        <time>2021-05-30T16:37:59.000Z</time>
      </trkpt>
      <trkpt lat="47.12746" lon="-1.43456">
        <ele>103</ele>
        <time>2021-05-30T16:38:01.000Z</time>
      </trkpt>
      <trkpt lat="47.12753" lon="-1.43474">
        <ele>103</ele>
        <time>2021-05-30T16:38:03.000Z</time>
      </trkpt>
      <trkpt lat="47.12759" lon="-1.43488">
        <ele>103</ele>
        <time>2021-05-30T16:38:05.000Z</time>
      </trkpt>
      <trkpt lat="47.12766" lon="-1.43505">
        <ele>103</ele>
        <time>2021-05-30T16:38:07.000Z</time>
      </trkpt>
      <trkpt lat="47.12772" lon="-1.43522">
        <ele>101</ele>
        <time>2021-05-30T16:38:09.000Z</time>
      </trkpt>
      <trkpt lat="47.12778" lon="-1.43539">
        <ele>102</ele>
        <time>2021-05-30T16:38:11.000Z</time>
      </trkpt>
      <trkpt lat="47.12783" lon="-1.43557">
        <ele>103</ele>
        <time>2021-05-30T16:38:13.000Z</time>
      </trkpt>
      <trkpt lat="47.12789" lon="-1.43577">
        <ele>103</ele>
        <time>2021-05-30T16:38:15.000Z</time>
      </trkpt>
      <trkpt lat="47.12797" lon="-1.43606">
        <ele>102</ele>
        <time>2021-05-30T16:38:18.000Z</time>
      </trkpt>
      <trkpt lat="47.12803" lon="-1.43625">
        <ele>102</ele>
        <time>2021-05-30T16:38:20.000Z</time>
      </trkpt>
      <trkpt lat="47.1281" lon="-1.43643">
        <ele>102</ele>
        <time>2021-05-30T16:38:22.000Z</time>
      </trkpt>
      <trkpt lat="47.12817" lon="-1.43662">
        <ele>102</ele>
        <time>2021-05-30T16:38:24.000Z</time>
      </trkpt>
      <trkpt lat="47.12824" lon="-1.43681">
        <ele>101</ele>
        <time>2021-05-30T16:38:26.000Z</time>
      </trkpt>
      <trkpt lat="47.12831" lon="-1.43699">
        <ele>102</ele>
        <time>2021-05-30T16:38:28.000Z</time>
      </trkpt>
      <trkpt lat="47.12838" lon="-1.43718">
        <ele>102</ele>
        <time>2021-05-30T16:38:30.000Z</time>
      </trkpt>
      <trkpt lat="47.12849" lon="-1.43747">
        <ele>102</ele>
        <time>2021-05-30T16:38:33.000Z</time>
      </trkpt>
      <trkpt lat="47.12855" lon="-1.43765">
        <ele>102</ele>
        <time>2021-05-30T16:38:35.000Z</time>
      </trkpt>
      <trkpt lat="47.12859" lon="-1.43784">
        <ele>102</ele>
        <time>2021-05-30T16:38:37.000Z</time>
      </trkpt>
      <trkpt lat="47.12863" lon="-1.438">
        <ele>103</ele>
        <time>2021-05-30T16:38:39.000Z</time>
      </trkpt>
      <trkpt lat="47.1287" lon="-1.43817">
        <ele>102</ele>
        <time>2021-05-30T16:38:41.000Z</time>
      </trkpt>
      <trkpt lat="47.12876" lon="-1.43835">
        <ele>102</ele>
        <time>2021-05-30T16:38:43.000Z</time>
      </trkpt>
      <trkpt lat="47.12881" lon="-1.43855">
        <ele>103</ele>
        <time>2021-05-30T16:38:45.000Z</time>
      </trkpt>
      <trkpt lat="47.12887" lon="-1.43874">
        <ele>102</ele>
        <time>2021-05-30T16:38:47.000Z</time>
      </trkpt>
      <trkpt lat="47.12896" lon="-1.43901">
        <ele>101</ele>
        <time>2021-05-30T16:38:50.000Z</time>
      </trkpt>
      <trkpt lat="47.12904" lon="-1.43919">
        <ele>100</ele>
        <time>2021-05-30T16:38:52.000Z</time>
      </trkpt>
      <trkpt lat="47.1291" lon="-1.43939">
        <ele>100</ele>
        <time>2021-05-30T16:38:54.000Z</time>
      </trkpt>
      <trkpt lat="47.12923" lon="-1.43964">
        <ele>100</ele>
        <time>2021-05-30T16:38:57.000Z</time>
      </trkpt>
      <trkpt lat="47.1293" lon="-1.43981">
        <ele>99</ele>
        <time>2021-05-30T16:38:59.000Z</time>
      </trkpt>
      <trkpt lat="47.12937" lon="-1.43998">
        <ele>99</ele>
        <time>2021-05-30T16:39:01.000Z</time>
      </trkpt>
      <trkpt lat="47.12945" lon="-1.44016">
        <ele>98</ele>
        <time>2021-05-30T16:39:03.000Z</time>
      </trkpt>
      <trkpt lat="47.12951" lon="-1.44034">
        <ele>97</ele>
        <time>2021-05-30T16:39:05.000Z</time>
      </trkpt>
      <trkpt lat="47.12959" lon="-1.44054">
        <ele>97</ele>
        <time>2021-05-30T16:39:07.000Z</time>
      </trkpt>
      <trkpt lat="47.12966" lon="-1.4407">
        <ele>98</ele>
        <time>2021-05-30T16:39:09.000Z</time>
      </trkpt>
      <trkpt lat="47.12972" lon="-1.44086">
        <ele>98</ele>
        <time>2021-05-30T16:39:11.000Z</time>
      </trkpt>
      <trkpt lat="47.12981" lon="-1.44113">
        <ele>98</ele>
        <time>2021-05-30T16:39:14.000Z</time>
      </trkpt>
      <trkpt lat="47.12989" lon="-1.44129">
        <ele>98</ele>
        <time>2021-05-30T16:39:16.000Z</time>
      </trkpt>
      <trkpt lat="47.12995" lon="-1.44147">
        <ele>98</ele>
        <time>2021-05-30T16:39:18.000Z</time>
      </trkpt>
      <trkpt lat="47.13001" lon="-1.44164">
        <ele>98</ele>
        <time>2021-05-30T16:39:20.000Z</time>
      </trkpt>
      <trkpt lat="47.13007" lon="-1.44181">
        <ele>98</ele>
        <time>2021-05-30T16:39:22.000Z</time>
      </trkpt>
      <trkpt lat="47.13012" lon="-1.44199">
        <ele>98</ele>
        <time>2021-05-30T16:39:24.000Z</time>
      </trkpt>
      <trkpt lat="47.13017" lon="-1.44217">
        <ele>98</ele>
        <time>2021-05-30T16:39:26.000Z</time>
      </trkpt>
      <trkpt lat="47.13022" lon="-1.44239">
        <ele>99</ele>
        <time>2021-05-30T16:39:28.000Z</time>
      </trkpt>
      <trkpt lat="47.13025" lon="-1.44252">
        <ele>98</ele>
        <time>2021-05-30T16:39:29.000Z</time>
      </trkpt>
      <trkpt lat="47.13032" lon="-1.44273">
        <ele>98</ele>
        <time>2021-05-30T16:39:31.000Z</time>
      </trkpt>
      <trkpt lat="47.13034" lon="-1.4429">
        <ele>98</ele>
        <time>2021-05-30T16:39:34.000Z</time>
      </trkpt>
      <trkpt lat="47.13039" lon="-1.44306">
        <ele>97</ele>
        <time>2021-05-30T16:39:36.000Z</time>
      </trkpt>
      <trkpt lat="47.13041" lon="-1.44323">
        <ele>97</ele>
        <time>2021-05-30T16:39:38.000Z</time>
      </trkpt>
      <trkpt lat="47.13044" lon="-1.44343">
        <ele>97</ele>
        <time>2021-05-30T16:39:40.000Z</time>
      </trkpt>
      <trkpt lat="47.13047" lon="-1.44374">
        <ele>96</ele>
        <time>2021-05-30T16:39:43.000Z</time>
      </trkpt>
      <trkpt lat="47.13049" lon="-1.44397">
        <ele>97</ele>
        <time>2021-05-30T16:39:45.000Z</time>
      </trkpt>
      <trkpt lat="47.13054" lon="-1.44414">
        <ele>96</ele>
        <time>2021-05-30T16:39:47.000Z</time>
      </trkpt>
      <trkpt lat="47.1306" lon="-1.44431">
        <ele>97</ele>
        <time>2021-05-30T16:39:49.000Z</time>
      </trkpt>
      <trkpt lat="47.13067" lon="-1.44448">
        <ele>97</ele>
        <time>2021-05-30T16:39:51.000Z</time>
      </trkpt>
      <trkpt lat="47.13074" lon="-1.44465">
        <ele>98</ele>
        <time>2021-05-30T16:39:53.000Z</time>
      </trkpt>
      <trkpt lat="47.13079" lon="-1.44484">
        <ele>98</ele>
        <time>2021-05-30T16:39:55.000Z</time>
      </trkpt>
      <trkpt lat="47.13087" lon="-1.44512">
        <ele>98</ele>
        <time>2021-05-30T16:39:58.000Z</time>
      </trkpt>
      <trkpt lat="47.13095" lon="-1.4454">
        <ele>98</ele>
        <time>2021-05-30T16:40:01.000Z</time>
      </trkpt>
      <trkpt lat="47.131" lon="-1.44559">
        <ele>99</ele>
        <time>2021-05-30T16:40:03.000Z</time>
      </trkpt>
      <trkpt lat="47.13102" lon="-1.4458">
        <ele>98</ele>
        <time>2021-05-30T16:40:05.000Z</time>
      </trkpt>
      <trkpt lat="47.13104" lon="-1.44601">
        <ele>99</ele>
        <time>2021-05-30T16:40:07.000Z</time>
      </trkpt>
      <trkpt lat="47.13104" lon="-1.44624">
        <ele>99</ele>
        <time>2021-05-30T16:40:09.000Z</time>
      </trkpt>
      <trkpt lat="47.13106" lon="-1.44653">
        <ele>99</ele>
        <time>2021-05-30T16:40:12.000Z</time>
      </trkpt>
      <trkpt lat="47.13107" lon="-1.44673">
        <ele>99</ele>
        <time>2021-05-30T16:40:14.000Z</time>
      </trkpt>
      <trkpt lat="47.1311" lon="-1.44694">
        <ele>97</ele>
        <time>2021-05-30T16:40:16.000Z</time>
      </trkpt>
      <trkpt lat="47.13112" lon="-1.44714">
        <ele>96</ele>
        <time>2021-05-30T16:40:18.000Z</time>
      </trkpt>
      <trkpt lat="47.13117" lon="-1.4474">
        <ele>94</ele>
        <time>2021-05-30T16:40:21.000Z</time>
      </trkpt>
      <trkpt lat="47.13124" lon="-1.44769">
        <ele>95</ele>
        <time>2021-05-30T16:40:24.000Z</time>
      </trkpt>
      <trkpt lat="47.13129" lon="-1.44788">
        <ele>95</ele>
        <time>2021-05-30T16:40:26.000Z</time>
      </trkpt>
      <trkpt lat="47.13133" lon="-1.44807">
        <ele>96</ele>
        <time>2021-05-30T16:40:28.000Z</time>
      </trkpt>
      <trkpt lat="47.13135" lon="-1.44836">
        <ele>97</ele>
        <time>2021-05-30T16:40:31.000Z</time>
      </trkpt>
      <trkpt lat="47.13132" lon="-1.44856">
        <ele>97</ele>
        <time>2021-05-30T16:40:33.000Z</time>
      </trkpt>
      <trkpt lat="47.1313" lon="-1.44875">
        <ele>97</ele>
        <time>2021-05-30T16:40:35.000Z</time>
      </trkpt>
      <trkpt lat="47.13128" lon="-1.44894">
        <ele>97</ele>
        <time>2021-05-30T16:40:37.000Z</time>
      </trkpt>
      <trkpt lat="47.13126" lon="-1.44914">
        <ele>97</ele>
        <time>2021-05-30T16:40:39.000Z</time>
      </trkpt>
      <trkpt lat="47.13123" lon="-1.44933">
        <ele>97</ele>
        <time>2021-05-30T16:40:41.000Z</time>
      </trkpt>
      <trkpt lat="47.13121" lon="-1.4495">
        <ele>97</ele>
        <time>2021-05-30T16:40:43.000Z</time>
      </trkpt>
      <trkpt lat="47.13118" lon="-1.4497">
        <ele>97</ele>
        <time>2021-05-30T16:40:45.000Z</time>
      </trkpt>
      <trkpt lat="47.13116" lon="-1.4499">
        <ele>97</ele>
        <time>2021-05-30T16:40:47.000Z</time>
      </trkpt>
      <trkpt lat="47.13113" lon="-1.45008">
        <ele>98</ele>
        <time>2021-05-30T16:40:49.000Z</time>
      </trkpt>
      <trkpt lat="47.13112" lon="-1.45028">
        <ele>97</ele>
        <time>2021-05-30T16:40:51.000Z</time>
      </trkpt>
      <trkpt lat="47.13109" lon="-1.45047">
        <ele>95</ele>
        <time>2021-05-30T16:40:53.000Z</time>
      </trkpt>
      <trkpt lat="47.13108" lon="-1.45065">
        <ele>95</ele>
        <time>2021-05-30T16:40:55.000Z</time>
      </trkpt>
      <trkpt lat="47.13107" lon="-1.45084">
        <ele>97</ele>
        <time>2021-05-30T16:40:57.000Z</time>
      </trkpt>
      <trkpt lat="47.13104" lon="-1.45103">
        <ele>98</ele>
        <time>2021-05-30T16:40:59.000Z</time>
      </trkpt>
      <trkpt lat="47.131" lon="-1.45122">
        <ele>98</ele>
        <time>2021-05-30T16:41:01.000Z</time>
      </trkpt>
      <trkpt lat="47.13097" lon="-1.45139">
        <ele>99</ele>
        <time>2021-05-30T16:41:03.000Z</time>
      </trkpt>
      <trkpt lat="47.13092" lon="-1.45159">
        <ele>98</ele>
        <time>2021-05-30T16:41:05.000Z</time>
      </trkpt>
      <trkpt lat="47.13087" lon="-1.45178">
        <ele>98</ele>
        <time>2021-05-30T16:41:07.000Z</time>
      </trkpt>
      <trkpt lat="47.13083" lon="-1.45196">
        <ele>99</ele>
        <time>2021-05-30T16:41:09.000Z</time>
      </trkpt>
      <trkpt lat="47.13081" lon="-1.45214">
        <ele>100</ele>
        <time>2021-05-30T16:41:11.000Z</time>
      </trkpt>
      <trkpt lat="47.13078" lon="-1.4524">
        <ele>97</ele>
        <time>2021-05-30T16:41:14.000Z</time>
      </trkpt>
      <trkpt lat="47.13077" lon="-1.45258">
        <ele>98</ele>
        <time>2021-05-30T16:41:16.000Z</time>
      </trkpt>
      <trkpt lat="47.13078" lon="-1.45288">
        <ele>96</ele>
        <time>2021-05-30T16:41:20.000Z</time>
      </trkpt>
      <trkpt lat="47.13088" lon="-1.45298">
        <ele>96</ele>
        <time>2021-05-30T16:41:22.000Z</time>
      </trkpt>
      <trkpt lat="47.13101" lon="-1.45305">
        <ele>97</ele>
        <time>2021-05-30T16:41:24.000Z</time>
      </trkpt>
      <trkpt lat="47.13114" lon="-1.45314">
        <ele>98</ele>
        <time>2021-05-30T16:41:26.000Z</time>
      </trkpt>
      <trkpt lat="47.13127" lon="-1.45324">
        <ele>98</ele>
        <time>2021-05-30T16:41:28.000Z</time>
      </trkpt>
      <trkpt lat="47.13139" lon="-1.45333">
        <ele>98</ele>
        <time>2021-05-30T16:41:30.000Z</time>
      </trkpt>
      <trkpt lat="47.13151" lon="-1.45341">
        <ele>100</ele>
        <time>2021-05-30T16:41:32.000Z</time>
      </trkpt>
      <trkpt lat="47.13163" lon="-1.45353">
        <ele>99</ele>
        <time>2021-05-30T16:41:34.000Z</time>
      </trkpt>
      <trkpt lat="47.13174" lon="-1.45365">
        <ele>99</ele>
        <time>2021-05-30T16:41:36.000Z</time>
      </trkpt>
      <trkpt lat="47.13189" lon="-1.45384">
        <ele>100</ele>
        <time>2021-05-30T16:41:39.000Z</time>
      </trkpt>
      <trkpt lat="47.13199" lon="-1.45397">
        <ele>101</ele>
        <time>2021-05-30T16:41:41.000Z</time>
      </trkpt>
      <trkpt lat="47.13209" lon="-1.4541">
        <ele>101</ele>
        <time>2021-05-30T16:41:43.000Z</time>
      </trkpt>
      <trkpt lat="47.13218" lon="-1.45424">
        <ele>101</ele>
        <time>2021-05-30T16:41:45.000Z</time>
      </trkpt>
      <trkpt lat="47.13227" lon="-1.45439">
        <ele>101</ele>
        <time>2021-05-30T16:41:47.000Z</time>
      </trkpt>
      <trkpt lat="47.13237" lon="-1.45453">
        <ele>100</ele>
        <time>2021-05-30T16:41:49.000Z</time>
      </trkpt>
      <trkpt lat="47.13246" lon="-1.45467">
        <ele>100</ele>
        <time>2021-05-30T16:41:51.000Z</time>
      </trkpt>
      <trkpt lat="47.13256" lon="-1.45481">
        <ele>100</ele>
        <time>2021-05-30T16:41:53.000Z</time>
      </trkpt>
      <trkpt lat="47.13265" lon="-1.45496">
        <ele>100</ele>
        <time>2021-05-30T16:41:55.000Z</time>
      </trkpt>
      <trkpt lat="47.13274" lon="-1.45511">
        <ele>99</ele>
        <time>2021-05-30T16:41:57.000Z</time>
      </trkpt>
      <trkpt lat="47.13283" lon="-1.45527">
        <ele>99</ele>
        <time>2021-05-30T16:41:59.000Z</time>
      </trkpt>
      <trkpt lat="47.13298" lon="-1.45552">
        <ele>98</ele>
        <time>2021-05-30T16:42:02.000Z</time>
      </trkpt>
      <trkpt lat="47.13307" lon="-1.45565">
        <ele>99</ele>
        <time>2021-05-30T16:42:04.000Z</time>
      </trkpt>
      <trkpt lat="47.13317" lon="-1.45579">
        <ele>98</ele>
        <time>2021-05-30T16:42:06.000Z</time>
      </trkpt>
      <trkpt lat="47.13327" lon="-1.45595">
        <ele>96</ele>
        <time>2021-05-30T16:42:08.000Z</time>
      </trkpt>
      <trkpt lat="47.13338" lon="-1.45609">
        <ele>97</ele>
        <time>2021-05-30T16:42:10.000Z</time>
      </trkpt>
      <trkpt lat="47.13348" lon="-1.45624">
        <ele>98</ele>
        <time>2021-05-30T16:42:12.000Z</time>
      </trkpt>
      <trkpt lat="47.13356" lon="-1.45639">
        <ele>98</ele>
        <time>2021-05-30T16:42:14.000Z</time>
      </trkpt>
      <trkpt lat="47.13365" lon="-1.45654">
        <ele>98</ele>
        <time>2021-05-30T16:42:16.000Z</time>
      </trkpt>
      <trkpt lat="47.13374" lon="-1.45669">
        <ele>98</ele>
        <time>2021-05-30T16:42:18.000Z</time>
      </trkpt>
      <trkpt lat="47.13383" lon="-1.45683">
        <ele>98</ele>
        <time>2021-05-30T16:42:20.000Z</time>
      </trkpt>
      <trkpt lat="47.13393" lon="-1.45698">
        <ele>97</ele>
        <time>2021-05-30T16:42:22.000Z</time>
      </trkpt>
      <trkpt lat="47.13402" lon="-1.45712">
        <ele>99</ele>
        <time>2021-05-30T16:42:24.000Z</time>
      </trkpt>
      <trkpt lat="47.13411" lon="-1.45725">
        <ele>99</ele>
        <time>2021-05-30T16:42:26.000Z</time>
      </trkpt>
      <trkpt lat="47.13424" lon="-1.45744">
        <ele>99</ele>
        <time>2021-05-30T16:42:29.000Z</time>
      </trkpt>
      <trkpt lat="47.13437" lon="-1.45763">
        <ele>99</ele>
        <time>2021-05-30T16:42:32.000Z</time>
      </trkpt>
      <trkpt lat="47.13445" lon="-1.45775">
        <ele>99</ele>
        <time>2021-05-30T16:42:34.000Z</time>
      </trkpt>
      <trkpt lat="47.13454" lon="-1.45788">
        <ele>98</ele>
        <time>2021-05-30T16:42:36.000Z</time>
      </trkpt>
      <trkpt lat="47.13467" lon="-1.45807">
        <ele>99</ele>
        <time>2021-05-30T16:42:39.000Z</time>
      </trkpt>
      <trkpt lat="47.13479" lon="-1.45827">
        <ele>100</ele>
        <time>2021-05-30T16:42:42.000Z</time>
      </trkpt>
      <trkpt lat="47.13492" lon="-1.45846">
        <ele>100</ele>
        <time>2021-05-30T16:42:45.000Z</time>
      </trkpt>
      <trkpt lat="47.13505" lon="-1.45864">
        <ele>100</ele>
        <time>2021-05-30T16:42:48.000Z</time>
      </trkpt>
      <trkpt lat="47.13518" lon="-1.45884">
        <ele>98</ele>
        <time>2021-05-30T16:42:51.000Z</time>
      </trkpt>
      <trkpt lat="47.13526" lon="-1.45896">
        <ele>101</ele>
        <time>2021-05-30T16:42:53.000Z</time>
      </trkpt>
      <trkpt lat="47.13535" lon="-1.45908">
        <ele>101</ele>
        <time>2021-05-30T16:42:55.000Z</time>
      </trkpt>
      <trkpt lat="47.13543" lon="-1.45921">
        <ele>101</ele>
        <time>2021-05-30T16:42:57.000Z</time>
      </trkpt>
      <trkpt lat="47.1355" lon="-1.45935">
        <ele>100</ele>
        <time>2021-05-30T16:42:59.000Z</time>
      </trkpt>
      <trkpt lat="47.13558" lon="-1.45949">
        <ele>102</ele>
        <time>2021-05-30T16:43:01.000Z</time>
      </trkpt>
      <trkpt lat="47.13565" lon="-1.45963">
        <ele>102</ele>
        <time>2021-05-30T16:43:03.000Z</time>
      </trkpt>
      <trkpt lat="47.13571" lon="-1.45979">
        <ele>102</ele>
        <time>2021-05-30T16:43:05.000Z</time>
      </trkpt>
      <trkpt lat="47.13576" lon="-1.45994">
        <ele>102</ele>
        <time>2021-05-30T16:43:07.000Z</time>
      </trkpt>
      <trkpt lat="47.13581" lon="-1.46011">
        <ele>102</ele>
        <time>2021-05-30T16:43:09.000Z</time>
      </trkpt>
      <trkpt lat="47.13587" lon="-1.46026">
        <ele>102</ele>
        <time>2021-05-30T16:43:11.000Z</time>
      </trkpt>
      <trkpt lat="47.13591" lon="-1.46042">
        <ele>102</ele>
        <time>2021-05-30T16:43:13.000Z</time>
      </trkpt>
      <trkpt lat="47.13597" lon="-1.46065">
        <ele>102</ele>
        <time>2021-05-30T16:43:16.000Z</time>
      </trkpt>
      <trkpt lat="47.13605" lon="-1.46089">
        <ele>102</ele>
        <time>2021-05-30T16:43:19.000Z</time>
      </trkpt>
      <trkpt lat="47.13611" lon="-1.46106">
        <ele>103</ele>
        <time>2021-05-30T16:43:21.000Z</time>
      </trkpt>
      <trkpt lat="47.13619" lon="-1.46125">
        <ele>102</ele>
        <time>2021-05-30T16:43:23.000Z</time>
      </trkpt>
      <trkpt lat="47.13626" lon="-1.46155">
        <ele>101</ele>
        <time>2021-05-30T16:43:27.000Z</time>
      </trkpt>
      <trkpt lat="47.13631" lon="-1.46171">
        <ele>102</ele>
        <time>2021-05-30T16:43:29.000Z</time>
      </trkpt>
      <trkpt lat="47.13636" lon="-1.46187">
        <ele>102</ele>
        <time>2021-05-30T16:43:31.000Z</time>
      </trkpt>
      <trkpt lat="47.13641" lon="-1.46204">
        <ele>102</ele>
        <time>2021-05-30T16:43:33.000Z</time>
      </trkpt>
      <trkpt lat="47.13649" lon="-1.4623">
        <ele>102</ele>
        <time>2021-05-30T16:43:36.000Z</time>
      </trkpt>
      <trkpt lat="47.13654" lon="-1.46245">
        <ele>102</ele>
        <time>2021-05-30T16:43:38.000Z</time>
      </trkpt>
      <trkpt lat="47.13658" lon="-1.46262">
        <ele>102</ele>
        <time>2021-05-30T16:43:40.000Z</time>
      </trkpt>
      <trkpt lat="47.13662" lon="-1.46277">
        <ele>102</ele>
        <time>2021-05-30T16:43:42.000Z</time>
      </trkpt>
      <trkpt lat="47.13668" lon="-1.46302">
        <ele>101</ele>
        <time>2021-05-30T16:43:45.000Z</time>
      </trkpt>
      <trkpt lat="47.1367" lon="-1.4632">
        <ele>99</ele>
        <time>2021-05-30T16:43:47.000Z</time>
      </trkpt>
      <trkpt lat="47.13674" lon="-1.46338">
        <ele>99</ele>
        <time>2021-05-30T16:43:49.000Z</time>
      </trkpt>
      <trkpt lat="47.13677" lon="-1.46356">
        <ele>99</ele>
        <time>2021-05-30T16:43:51.000Z</time>
      </trkpt>
      <trkpt lat="47.13677" lon="-1.46373">
        <ele>100</ele>
        <time>2021-05-30T16:43:53.000Z</time>
      </trkpt>
      <trkpt lat="47.13678" lon="-1.46391">
        <ele>100</ele>
        <time>2021-05-30T16:43:55.000Z</time>
      </trkpt>
      <trkpt lat="47.13676" lon="-1.46409">
        <ele>100</ele>
        <time>2021-05-30T16:43:57.000Z</time>
      </trkpt>
      <trkpt lat="47.13674" lon="-1.46426">
        <ele>100</ele>
        <time>2021-05-30T16:43:59.000Z</time>
      </trkpt>
      <trkpt lat="47.13674" lon="-1.46445">
        <ele>100</ele>
        <time>2021-05-30T16:44:01.000Z</time>
      </trkpt>
      <trkpt lat="47.13676" lon="-1.46462">
        <ele>97</ele>
        <time>2021-05-30T16:44:03.000Z</time>
      </trkpt>
      <trkpt lat="47.13678" lon="-1.46479">
        <ele>97</ele>
        <time>2021-05-30T16:44:05.000Z</time>
      </trkpt>
      <trkpt lat="47.13682" lon="-1.46495">
        <ele>98</ele>
        <time>2021-05-30T16:44:07.000Z</time>
      </trkpt>
      <trkpt lat="47.13688" lon="-1.46512">
        <ele>99</ele>
        <time>2021-05-30T16:44:09.000Z</time>
      </trkpt>
      <trkpt lat="47.13696" lon="-1.46535">
        <ele>97</ele>
        <time>2021-05-30T16:44:12.000Z</time>
      </trkpt>
      <trkpt lat="47.13706" lon="-1.46558">
        <ele>98</ele>
        <time>2021-05-30T16:44:15.000Z</time>
      </trkpt>
      <trkpt lat="47.13713" lon="-1.46575">
        <ele>99</ele>
        <time>2021-05-30T16:44:17.000Z</time>
      </trkpt>
      <trkpt lat="47.13718" lon="-1.46593">
        <ele>98</ele>
        <time>2021-05-30T16:44:19.000Z</time>
      </trkpt>
      <trkpt lat="47.13722" lon="-1.46611">
        <ele>98</ele>
        <time>2021-05-30T16:44:21.000Z</time>
      </trkpt>
      <trkpt lat="47.13726" lon="-1.4663">
        <ele>98</ele>
        <time>2021-05-30T16:44:23.000Z</time>
      </trkpt>
      <trkpt lat="47.1373" lon="-1.46648">
        <ele>98</ele>
        <time>2021-05-30T16:44:25.000Z</time>
      </trkpt>
      <trkpt lat="47.13734" lon="-1.46664">
        <ele>98</ele>
        <time>2021-05-30T16:44:27.000Z</time>
      </trkpt>
      <trkpt lat="47.13738" lon="-1.46683">
        <ele>98</ele>
        <time>2021-05-30T16:44:29.000Z</time>
      </trkpt>
      <trkpt lat="47.13742" lon="-1.46701">
        <ele>98</ele>
        <time>2021-05-30T16:44:31.000Z</time>
      </trkpt>
      <trkpt lat="47.13746" lon="-1.46719">
        <ele>98</ele>
        <time>2021-05-30T16:44:33.000Z</time>
      </trkpt>
      <trkpt lat="47.13748" lon="-1.46736">
        <ele>98</ele>
        <time>2021-05-30T16:44:35.000Z</time>
      </trkpt>
      <trkpt lat="47.1375" lon="-1.46753">
        <ele>98</ele>
        <time>2021-05-30T16:44:37.000Z</time>
      </trkpt>
      <trkpt lat="47.13758" lon="-1.46763">
        <ele>97</ele>
        <time>2021-05-30T16:44:39.000Z</time>
      </trkpt>
      <trkpt lat="47.1377" lon="-1.46761">
        <ele>97</ele>
        <time>2021-05-30T16:44:41.000Z</time>
      </trkpt>
      <trkpt lat="47.13782" lon="-1.46758">
        <ele>97</ele>
        <time>2021-05-30T16:44:43.000Z</time>
      </trkpt>
      <trkpt lat="47.13796" lon="-1.46755">
        <ele>96</ele>
        <time>2021-05-30T16:44:45.000Z</time>
      </trkpt>
      <trkpt lat="47.13808" lon="-1.46751">
        <ele>96</ele>
        <time>2021-05-30T16:44:47.000Z</time>
      </trkpt>
      <trkpt lat="47.13828" lon="-1.46746">
        <ele>97</ele>
        <time>2021-05-30T16:44:50.000Z</time>
      </trkpt>
      <trkpt lat="47.13841" lon="-1.46742">
        <ele>97</ele>
        <time>2021-05-30T16:44:52.000Z</time>
      </trkpt>
      <trkpt lat="47.13853" lon="-1.4674">
        <ele>96</ele>
        <time>2021-05-30T16:44:54.000Z</time>
      </trkpt>
      <trkpt lat="47.13867" lon="-1.46737">
        <ele>96</ele>
        <time>2021-05-30T16:44:56.000Z</time>
      </trkpt>
      <trkpt lat="47.13881" lon="-1.46734">
        <ele>96</ele>
        <time>2021-05-30T16:44:58.000Z</time>
      </trkpt>
      <trkpt lat="47.13894" lon="-1.46732">
        <ele>94</ele>
        <time>2021-05-30T16:45:00.000Z</time>
      </trkpt>
      <trkpt lat="47.13909" lon="-1.46727">
        <ele>94</ele>
        <time>2021-05-30T16:45:02.000Z</time>
      </trkpt>
      <trkpt lat="47.13923" lon="-1.46724">
        <ele>94</ele>
        <time>2021-05-30T16:45:04.000Z</time>
      </trkpt>
      <trkpt lat="47.13938" lon="-1.46723">
        <ele>96</ele>
        <time>2021-05-30T16:45:06.000Z</time>
      </trkpt>
      <trkpt lat="47.13952" lon="-1.46722">
        <ele>96</ele>
        <time>2021-05-30T16:45:08.000Z</time>
      </trkpt>
      <trkpt lat="47.13968" lon="-1.46722">
        <ele>95</ele>
        <time>2021-05-30T16:45:10.000Z</time>
      </trkpt>
      <trkpt lat="47.13984" lon="-1.46722">
        <ele>95</ele>
        <time>2021-05-30T16:45:12.000Z</time>
      </trkpt>
      <trkpt lat="47.13998" lon="-1.46723">
        <ele>94</ele>
        <time>2021-05-30T16:45:14.000Z</time>
      </trkpt>
      <trkpt lat="47.14013" lon="-1.46725">
        <ele>93</ele>
        <time>2021-05-30T16:45:16.000Z</time>
      </trkpt>
      <trkpt lat="47.14029" lon="-1.46728">
        <ele>92</ele>
        <time>2021-05-30T16:45:18.000Z</time>
      </trkpt>
      <trkpt lat="47.14056" lon="-1.46735">
        <ele>91</ele>
        <time>2021-05-30T16:45:21.000Z</time>
      </trkpt>
      <trkpt lat="47.14071" lon="-1.46737">
        <ele>90</ele>
        <time>2021-05-30T16:45:23.000Z</time>
      </trkpt>
      <trkpt lat="47.14086" lon="-1.4674">
        <ele>89</ele>
        <time>2021-05-30T16:45:25.000Z</time>
      </trkpt>
      <trkpt lat="47.14102" lon="-1.46743">
        <ele>89</ele>
        <time>2021-05-30T16:45:27.000Z</time>
      </trkpt>
      <trkpt lat="47.14117" lon="-1.46748">
        <ele>89</ele>
        <time>2021-05-30T16:45:29.000Z</time>
      </trkpt>
      <trkpt lat="47.14134" lon="-1.4675">
        <ele>89</ele>
        <time>2021-05-30T16:45:31.000Z</time>
      </trkpt>
      <trkpt lat="47.14151" lon="-1.46754">
        <ele>88</ele>
        <time>2021-05-30T16:45:33.000Z</time>
      </trkpt>
      <trkpt lat="47.14168" lon="-1.46757">
        <ele>88</ele>
        <time>2021-05-30T16:45:35.000Z</time>
      </trkpt>
      <trkpt lat="47.14187" lon="-1.46762">
        <ele>88</ele>
        <time>2021-05-30T16:45:37.000Z</time>
      </trkpt>
      <trkpt lat="47.14204" lon="-1.46764">
        <ele>87</ele>
        <time>2021-05-30T16:45:39.000Z</time>
      </trkpt>
      <trkpt lat="47.14219" lon="-1.46767">
        <ele>86</ele>
        <time>2021-05-30T16:45:41.000Z</time>
      </trkpt>
      <trkpt lat="47.14237" lon="-1.4677">
        <ele>85</ele>
        <time>2021-05-30T16:45:43.000Z</time>
      </trkpt>
      <trkpt lat="47.14246" lon="-1.46772">
        <ele>85</ele>
        <time>2021-05-30T16:45:44.000Z</time>
      </trkpt>
      <trkpt lat="47.14255" lon="-1.46773">
        <ele>85</ele>
        <time>2021-05-30T16:45:45.000Z</time>
      </trkpt>
      <trkpt lat="47.14273" lon="-1.46776">
        <ele>84</ele>
        <time>2021-05-30T16:45:47.000Z</time>
      </trkpt>
      <trkpt lat="47.14289" lon="-1.46779">
        <ele>84</ele>
        <time>2021-05-30T16:45:49.000Z</time>
      </trkpt>
      <trkpt lat="47.14307" lon="-1.46782">
        <ele>83</ele>
        <time>2021-05-30T16:45:51.000Z</time>
      </trkpt>
      <trkpt lat="47.14324" lon="-1.46784">
        <ele>79</ele>
        <time>2021-05-30T16:45:53.000Z</time>
      </trkpt>
      <trkpt lat="47.14333" lon="-1.46786">
        <ele>79</ele>
        <time>2021-05-30T16:45:54.000Z</time>
      </trkpt>
      <trkpt lat="47.14342" lon="-1.46787">
        <ele>79</ele>
        <time>2021-05-30T16:45:55.000Z</time>
      </trkpt>
      <trkpt lat="47.1436" lon="-1.4679">
        <ele>79</ele>
        <time>2021-05-30T16:45:57.000Z</time>
      </trkpt>
      <trkpt lat="47.14369" lon="-1.46792">
        <ele>79</ele>
        <time>2021-05-30T16:45:58.000Z</time>
      </trkpt>
      <trkpt lat="47.14385" lon="-1.46797">
        <ele>77</ele>
        <time>2021-05-30T16:46:00.000Z</time>
      </trkpt>
      <trkpt lat="47.14402" lon="-1.46799">
        <ele>76</ele>
        <time>2021-05-30T16:46:02.000Z</time>
      </trkpt>
      <trkpt lat="47.14412" lon="-1.46801">
        <ele>76</ele>
        <time>2021-05-30T16:46:03.000Z</time>
      </trkpt>
      <trkpt lat="47.14421" lon="-1.46804">
        <ele>76</ele>
        <time>2021-05-30T16:46:04.000Z</time>
      </trkpt>
      <trkpt lat="47.14431" lon="-1.46807">
        <ele>75</ele>
        <time>2021-05-30T16:46:05.000Z</time>
      </trkpt>
      <trkpt lat="47.14441" lon="-1.46811">
        <ele>75</ele>
        <time>2021-05-30T16:46:06.000Z</time>
      </trkpt>
      <trkpt lat="47.1445" lon="-1.46816">
        <ele>76</ele>
        <time>2021-05-30T16:46:07.000Z</time>
      </trkpt>
      <trkpt lat="47.14459" lon="-1.46821">
        <ele>75</ele>
        <time>2021-05-30T16:46:08.000Z</time>
      </trkpt>
      <trkpt lat="47.14467" lon="-1.46826">
        <ele>75</ele>
        <time>2021-05-30T16:46:09.000Z</time>
      </trkpt>
      <trkpt lat="47.14477" lon="-1.4683">
        <ele>74</ele>
        <time>2021-05-30T16:46:10.000Z</time>
      </trkpt>
      <trkpt lat="47.14487" lon="-1.46835">
        <ele>74</ele>
        <time>2021-05-30T16:46:11.000Z</time>
      </trkpt>
      <trkpt lat="47.14497" lon="-1.4684">
        <ele>73</ele>
        <time>2021-05-30T16:46:12.000Z</time>
      </trkpt>
      <trkpt lat="47.14507" lon="-1.46845">
        <ele>73</ele>
        <time>2021-05-30T16:46:13.000Z</time>
      </trkpt>
      <trkpt lat="47.14524" lon="-1.46855">
        <ele>72</ele>
        <time>2021-05-30T16:46:15.000Z</time>
      </trkpt>
      <trkpt lat="47.1454" lon="-1.46865">
        <ele>72</ele>
        <time>2021-05-30T16:46:17.000Z</time>
      </trkpt>
      <trkpt lat="47.14549" lon="-1.46871">
        <ele>71</ele>
        <time>2021-05-30T16:46:18.000Z</time>
      </trkpt>
      <trkpt lat="47.14558" lon="-1.46876">
        <ele>69</ele>
        <time>2021-05-30T16:46:19.000Z</time>
      </trkpt>
      <trkpt lat="47.14567" lon="-1.46881">
        <ele>66</ele>
        <time>2021-05-30T16:46:20.000Z</time>
      </trkpt>
      <trkpt lat="47.14578" lon="-1.46884">
        <ele>67</ele>
        <time>2021-05-30T16:46:21.000Z</time>
      </trkpt>
      <trkpt lat="47.14589" lon="-1.46884">
        <ele>68</ele>
        <time>2021-05-30T16:46:22.000Z</time>
      </trkpt>
      <trkpt lat="47.146" lon="-1.46883">
        <ele>67</ele>
        <time>2021-05-30T16:46:23.000Z</time>
      </trkpt>
      <trkpt lat="47.14618" lon="-1.46885">
        <ele>64</ele>
        <time>2021-05-30T16:46:25.000Z</time>
      </trkpt>
      <trkpt lat="47.14634" lon="-1.46885">
        <ele>66</ele>
        <time>2021-05-30T16:46:27.000Z</time>
      </trkpt>
      <trkpt lat="47.14652" lon="-1.46879">
        <ele>67</ele>
        <time>2021-05-30T16:46:29.000Z</time>
      </trkpt>
      <trkpt lat="47.14662" lon="-1.46876">
        <ele>67</ele>
        <time>2021-05-30T16:46:30.000Z</time>
      </trkpt>
      <trkpt lat="47.14671" lon="-1.46873">
        <ele>67</ele>
        <time>2021-05-30T16:46:31.000Z</time>
      </trkpt>
      <trkpt lat="47.14681" lon="-1.46871">
        <ele>68</ele>
        <time>2021-05-30T16:46:32.000Z</time>
      </trkpt>
      <trkpt lat="47.14691" lon="-1.46871">
        <ele>66</ele>
        <time>2021-05-30T16:46:33.000Z</time>
      </trkpt>
      <trkpt lat="47.14703" lon="-1.46869">
        <ele>64</ele>
        <time>2021-05-30T16:46:34.000Z</time>
      </trkpt>
      <trkpt lat="47.14722" lon="-1.46868">
        <ele>64</ele>
        <time>2021-05-30T16:46:36.000Z</time>
      </trkpt>
      <trkpt lat="47.14731" lon="-1.46867">
        <ele>64</ele>
        <time>2021-05-30T16:46:37.000Z</time>
      </trkpt>
      <trkpt lat="47.14741" lon="-1.46867">
        <ele>65</ele>
        <time>2021-05-30T16:46:38.000Z</time>
      </trkpt>
      <trkpt lat="47.14751" lon="-1.46867">
        <ele>64</ele>
        <time>2021-05-30T16:46:39.000Z</time>
      </trkpt>
      <trkpt lat="47.14761" lon="-1.46866">
        <ele>64</ele>
        <time>2021-05-30T16:46:40.000Z</time>
      </trkpt>
      <trkpt lat="47.14771" lon="-1.46866">
        <ele>63</ele>
        <time>2021-05-30T16:46:41.000Z</time>
      </trkpt>
      <trkpt lat="47.1478" lon="-1.46866">
        <ele>64</ele>
        <time>2021-05-30T16:46:42.000Z</time>
      </trkpt>
      <trkpt lat="47.1479" lon="-1.46865">
        <ele>63</ele>
        <time>2021-05-30T16:46:43.000Z</time>
      </trkpt>
      <trkpt lat="47.14809" lon="-1.46865">
        <ele>62</ele>
        <time>2021-05-30T16:46:45.000Z</time>
      </trkpt>
      <trkpt lat="47.14828" lon="-1.46866">
        <ele>62</ele>
        <time>2021-05-30T16:46:47.000Z</time>
      </trkpt>
      <trkpt lat="47.14837" lon="-1.46865">
        <ele>61</ele>
        <time>2021-05-30T16:46:48.000Z</time>
      </trkpt>
      <trkpt lat="47.14855" lon="-1.46865">
        <ele>61</ele>
        <time>2021-05-30T16:46:50.000Z</time>
      </trkpt>
      <trkpt lat="47.14872" lon="-1.46864">
        <ele>61</ele>
        <time>2021-05-30T16:46:52.000Z</time>
      </trkpt>
      <trkpt lat="47.14889" lon="-1.46864">
        <ele>61</ele>
        <time>2021-05-30T16:46:54.000Z</time>
      </trkpt>
      <trkpt lat="47.14905" lon="-1.46864">
        <ele>61</ele>
        <time>2021-05-30T16:46:56.000Z</time>
      </trkpt>
      <trkpt lat="47.14919" lon="-1.46857">
        <ele>61</ele>
        <time>2021-05-30T16:46:58.000Z</time>
      </trkpt>
      <trkpt lat="47.14932" lon="-1.46857">
        <ele>61</ele>
        <time>2021-05-30T16:47:00.000Z</time>
      </trkpt>
      <trkpt lat="47.14947" lon="-1.46861">
        <ele>61</ele>
        <time>2021-05-30T16:47:02.000Z</time>
      </trkpt>
      <trkpt lat="47.1497" lon="-1.46863">
        <ele>61</ele>
        <time>2021-05-30T16:47:05.000Z</time>
      </trkpt>
      <trkpt lat="47.14983" lon="-1.46859">
        <ele>62</ele>
        <time>2021-05-30T16:47:07.000Z</time>
      </trkpt>
      <trkpt lat="47.14999" lon="-1.46857">
        <ele>62</ele>
        <time>2021-05-30T16:47:09.000Z</time>
      </trkpt>
      <trkpt lat="47.15015" lon="-1.46855">
        <ele>63</ele>
        <time>2021-05-30T16:47:11.000Z</time>
      </trkpt>
      <trkpt lat="47.15031" lon="-1.46851">
        <ele>63</ele>
        <time>2021-05-30T16:47:13.000Z</time>
      </trkpt>
      <trkpt lat="47.15044" lon="-1.46852">
        <ele>64</ele>
        <time>2021-05-30T16:47:15.000Z</time>
      </trkpt>
      <trkpt lat="47.15057" lon="-1.46853">
        <ele>63</ele>
        <time>2021-05-30T16:47:17.000Z</time>
      </trkpt>
      <trkpt lat="47.1507" lon="-1.46854">
        <ele>60</ele>
        <time>2021-05-30T16:47:19.000Z</time>
      </trkpt>
      <trkpt lat="47.15082" lon="-1.46854">
        <ele>60</ele>
        <time>2021-05-30T16:47:21.000Z</time>
      </trkpt>
      <trkpt lat="47.15096" lon="-1.46854">
        <ele>59</ele>
        <time>2021-05-30T16:47:23.000Z</time>
      </trkpt>
      <trkpt lat="47.15109" lon="-1.46853">
        <ele>58</ele>
        <time>2021-05-30T16:47:25.000Z</time>
      </trkpt>
      <trkpt lat="47.15122" lon="-1.46852">
        <ele>58</ele>
        <time>2021-05-30T16:47:27.000Z</time>
      </trkpt>
      <trkpt lat="47.15134" lon="-1.46851">
        <ele>57</ele>
        <time>2021-05-30T16:47:29.000Z</time>
      </trkpt>
      <trkpt lat="47.15147" lon="-1.4685">
        <ele>58</ele>
        <time>2021-05-30T16:47:31.000Z</time>
      </trkpt>
      <trkpt lat="47.15162" lon="-1.4685">
        <ele>58</ele>
        <time>2021-05-30T16:47:33.000Z</time>
      </trkpt>
      <trkpt lat="47.15177" lon="-1.4685">
        <ele>58</ele>
        <time>2021-05-30T16:47:35.000Z</time>
      </trkpt>
      <trkpt lat="47.15192" lon="-1.46848">
        <ele>58</ele>
        <time>2021-05-30T16:47:37.000Z</time>
      </trkpt>
      <trkpt lat="47.15207" lon="-1.46845">
        <ele>57</ele>
        <time>2021-05-30T16:47:39.000Z</time>
      </trkpt>
      <trkpt lat="47.15223" lon="-1.46843">
        <ele>56</ele>
        <time>2021-05-30T16:47:41.000Z</time>
      </trkpt>
      <trkpt lat="47.15239" lon="-1.4684">
        <ele>56</ele>
        <time>2021-05-30T16:47:43.000Z</time>
      </trkpt>
      <trkpt lat="47.15254" lon="-1.46836">
        <ele>56</ele>
        <time>2021-05-30T16:47:45.000Z</time>
      </trkpt>
      <trkpt lat="47.15267" lon="-1.46833">
        <ele>56</ele>
        <time>2021-05-30T16:47:47.000Z</time>
      </trkpt>
      <trkpt lat="47.15281" lon="-1.46828">
        <ele>56</ele>
        <time>2021-05-30T16:47:49.000Z</time>
      </trkpt>
      <trkpt lat="47.15296" lon="-1.46822">
        <ele>56</ele>
        <time>2021-05-30T16:47:51.000Z</time>
      </trkpt>
      <trkpt lat="47.1531" lon="-1.46815">
        <ele>57</ele>
        <time>2021-05-30T16:47:53.000Z</time>
      </trkpt>
      <trkpt lat="47.15322" lon="-1.4681">
        <ele>57</ele>
        <time>2021-05-30T16:47:55.000Z</time>
      </trkpt>
      <trkpt lat="47.15336" lon="-1.46804">
        <ele>58</ele>
        <time>2021-05-30T16:47:57.000Z</time>
      </trkpt>
      <trkpt lat="47.1535" lon="-1.46797">
        <ele>58</ele>
        <time>2021-05-30T16:47:59.000Z</time>
      </trkpt>
      <trkpt lat="47.15364" lon="-1.46791">
        <ele>55</ele>
        <time>2021-05-30T16:48:01.000Z</time>
      </trkpt>
      <trkpt lat="47.15377" lon="-1.46781">
        <ele>56</ele>
        <time>2021-05-30T16:48:03.000Z</time>
      </trkpt>
      <trkpt lat="47.15389" lon="-1.46773">
        <ele>57</ele>
        <time>2021-05-30T16:48:05.000Z</time>
      </trkpt>
      <trkpt lat="47.15401" lon="-1.46765">
        <ele>57</ele>
        <time>2021-05-30T16:48:07.000Z</time>
      </trkpt>
      <trkpt lat="47.15413" lon="-1.46758">
        <ele>57</ele>
        <time>2021-05-30T16:48:09.000Z</time>
      </trkpt>
      <trkpt lat="47.15424" lon="-1.46752">
        <ele>57</ele>
        <time>2021-05-30T16:48:11.000Z</time>
      </trkpt>
      <trkpt lat="47.15434" lon="-1.46745">
        <ele>57</ele>
        <time>2021-05-30T16:48:13.000Z</time>
      </trkpt>
      <trkpt lat="47.15444" lon="-1.46736">
        <ele>58</ele>
        <time>2021-05-30T16:48:15.000Z</time>
      </trkpt>
      <trkpt lat="47.15458" lon="-1.46726">
        <ele>58</ele>
        <time>2021-05-30T16:48:18.000Z</time>
      </trkpt>
      <trkpt lat="47.15468" lon="-1.46718">
        <ele>58</ele>
        <time>2021-05-30T16:48:20.000Z</time>
      </trkpt>
      <trkpt lat="47.15477" lon="-1.46712">
        <ele>59</ele>
        <time>2021-05-30T16:48:22.000Z</time>
      </trkpt>
      <trkpt lat="47.15485" lon="-1.46705">
        <ele>59</ele>
        <time>2021-05-30T16:48:24.000Z</time>
      </trkpt>
      <trkpt lat="47.15495" lon="-1.46697">
        <ele>60</ele>
        <time>2021-05-30T16:48:26.000Z</time>
      </trkpt>
      <trkpt lat="47.15509" lon="-1.46687">
        <ele>61</ele>
        <time>2021-05-30T16:48:29.000Z</time>
      </trkpt>
      <trkpt lat="47.15518" lon="-1.46682">
        <ele>61</ele>
        <time>2021-05-30T16:48:31.000Z</time>
      </trkpt>
      <trkpt lat="47.15531" lon="-1.46673">
        <ele>63</ele>
        <time>2021-05-30T16:48:34.000Z</time>
      </trkpt>
      <trkpt lat="47.1554" lon="-1.46667">
        <ele>64</ele>
        <time>2021-05-30T16:48:36.000Z</time>
      </trkpt>
      <trkpt lat="47.1555" lon="-1.46663">
        <ele>64</ele>
        <time>2021-05-30T16:48:38.000Z</time>
      </trkpt>
      <trkpt lat="47.15559" lon="-1.46657">
        <ele>64</ele>
        <time>2021-05-30T16:48:40.000Z</time>
      </trkpt>
      <trkpt lat="47.15568" lon="-1.46653">
        <ele>65</ele>
        <time>2021-05-30T16:48:42.000Z</time>
      </trkpt>
      <trkpt lat="47.15578" lon="-1.46648">
        <ele>65</ele>
        <time>2021-05-30T16:48:44.000Z</time>
      </trkpt>
      <trkpt lat="47.15587" lon="-1.46644">
        <ele>66</ele>
        <time>2021-05-30T16:48:46.000Z</time>
      </trkpt>
      <trkpt lat="47.15601" lon="-1.46641">
        <ele>65</ele>
        <time>2021-05-30T16:48:49.000Z</time>
      </trkpt>
      <trkpt lat="47.15611" lon="-1.46638">
        <ele>63</ele>
        <time>2021-05-30T16:48:51.000Z</time>
      </trkpt>
      <trkpt lat="47.1562" lon="-1.46635">
        <ele>65</ele>
        <time>2021-05-30T16:48:53.000Z</time>
      </trkpt>
      <trkpt lat="47.1563" lon="-1.46633">
        <ele>65</ele>
        <time>2021-05-30T16:48:55.000Z</time>
      </trkpt>
      <trkpt lat="47.1564" lon="-1.46631">
        <ele>65</ele>
        <time>2021-05-30T16:48:57.000Z</time>
      </trkpt>
      <trkpt lat="47.15654" lon="-1.46629">
        <ele>65</ele>
        <time>2021-05-30T16:49:00.000Z</time>
      </trkpt>
      <trkpt lat="47.15669" lon="-1.46628">
        <ele>66</ele>
        <time>2021-05-30T16:49:03.000Z</time>
      </trkpt>
      <trkpt lat="47.15685" lon="-1.46625">
        <ele>67</ele>
        <time>2021-05-30T16:49:06.000Z</time>
      </trkpt>
      <trkpt lat="47.15699" lon="-1.46624">
        <ele>68</ele>
        <time>2021-05-30T16:49:09.000Z</time>
      </trkpt>
      <trkpt lat="47.15714" lon="-1.46624">
        <ele>68</ele>
        <time>2021-05-30T16:49:12.000Z</time>
      </trkpt>
      <trkpt lat="47.1573" lon="-1.46623">
        <ele>69</ele>
        <time>2021-05-30T16:49:15.000Z</time>
      </trkpt>
      <trkpt lat="47.15742" lon="-1.46622">
        <ele>68</ele>
        <time>2021-05-30T16:49:17.000Z</time>
      </trkpt>
      <trkpt lat="47.15755" lon="-1.46622">
        <ele>69</ele>
        <time>2021-05-30T16:49:20.000Z</time>
      </trkpt>
      <trkpt lat="47.15765" lon="-1.46621">
        <ele>69</ele>
        <time>2021-05-30T16:49:22.000Z</time>
      </trkpt>
      <trkpt lat="47.15775" lon="-1.4662">
        <ele>69</ele>
        <time>2021-05-30T16:49:24.000Z</time>
      </trkpt>
      <trkpt lat="47.15788" lon="-1.46621">
        <ele>71</ele>
        <time>2021-05-30T16:49:27.000Z</time>
      </trkpt>
      <trkpt lat="47.15798" lon="-1.4662">
        <ele>71</ele>
        <time>2021-05-30T16:49:29.000Z</time>
      </trkpt>
      <trkpt lat="47.15807" lon="-1.4662">
        <ele>71</ele>
        <time>2021-05-30T16:49:31.000Z</time>
      </trkpt>
      <trkpt lat="47.15819" lon="-1.46617">
        <ele>71</ele>
        <time>2021-05-30T16:49:33.000Z</time>
      </trkpt>
      <trkpt lat="47.15828" lon="-1.46617">
        <ele>72</ele>
        <time>2021-05-30T16:49:35.000Z</time>
      </trkpt>
      <trkpt lat="47.15838" lon="-1.46619">
        <ele>72</ele>
        <time>2021-05-30T16:49:37.000Z</time>
      </trkpt>
      <trkpt lat="47.15849" lon="-1.4662">
        <ele>72</ele>
        <time>2021-05-30T16:49:39.000Z</time>
      </trkpt>
      <trkpt lat="47.15859" lon="-1.4662">
        <ele>72</ele>
        <time>2021-05-30T16:49:41.000Z</time>
      </trkpt>
      <trkpt lat="47.15872" lon="-1.46619">
        <ele>73</ele>
        <time>2021-05-30T16:49:44.000Z</time>
      </trkpt>
      <trkpt lat="47.15884" lon="-1.46618">
        <ele>74</ele>
        <time>2021-05-30T16:49:47.000Z</time>
      </trkpt>
      <trkpt lat="47.15898" lon="-1.46617">
        <ele>75</ele>
        <time>2021-05-30T16:49:50.000Z</time>
      </trkpt>
      <trkpt lat="47.15907" lon="-1.46618">
        <ele>75</ele>
        <time>2021-05-30T16:49:52.000Z</time>
      </trkpt>
      <trkpt lat="47.15916" lon="-1.46619">
        <ele>75</ele>
        <time>2021-05-30T16:49:54.000Z</time>
      </trkpt>
      <trkpt lat="47.15926" lon="-1.4662">
        <ele>76</ele>
        <time>2021-05-30T16:49:56.000Z</time>
      </trkpt>
      <trkpt lat="47.15936" lon="-1.4662">
        <ele>76</ele>
        <time>2021-05-30T16:49:58.000Z</time>
      </trkpt>
      <trkpt lat="47.15946" lon="-1.46621">
        <ele>76</ele>
        <time>2021-05-30T16:50:00.000Z</time>
      </trkpt>
      <trkpt lat="47.1596" lon="-1.46623">
        <ele>77</ele>
        <time>2021-05-30T16:50:03.000Z</time>
      </trkpt>
      <trkpt lat="47.15974" lon="-1.46628">
        <ele>77</ele>
        <time>2021-05-30T16:50:06.000Z</time>
      </trkpt>
      <trkpt lat="47.15984" lon="-1.46633">
        <ele>75</ele>
        <time>2021-05-30T16:50:08.000Z</time>
      </trkpt>
      <trkpt lat="47.15995" lon="-1.46634">
        <ele>77</ele>
        <time>2021-05-30T16:50:10.000Z</time>
      </trkpt>
      <trkpt lat="47.16004" lon="-1.46636">
        <ele>78</ele>
        <time>2021-05-30T16:50:12.000Z</time>
      </trkpt>
      <trkpt lat="47.16013" lon="-1.46643">
        <ele>78</ele>
        <time>2021-05-30T16:50:14.000Z</time>
      </trkpt>
      <trkpt lat="47.16027" lon="-1.46649">
        <ele>78</ele>
        <time>2021-05-30T16:50:17.000Z</time>
      </trkpt>
      <trkpt lat="47.16038" lon="-1.46653">
        <ele>78</ele>
        <time>2021-05-30T16:50:19.000Z</time>
      </trkpt>
      <trkpt lat="47.16048" lon="-1.46658">
        <ele>79</ele>
        <time>2021-05-30T16:50:21.000Z</time>
      </trkpt>
      <trkpt lat="47.16058" lon="-1.46663">
        <ele>79</ele>
        <time>2021-05-30T16:50:23.000Z</time>
      </trkpt>
      <trkpt lat="47.16067" lon="-1.46669">
        <ele>79</ele>
        <time>2021-05-30T16:50:25.000Z</time>
      </trkpt>
      <trkpt lat="47.16077" lon="-1.46676">
        <ele>79</ele>
        <time>2021-05-30T16:50:27.000Z</time>
      </trkpt>
      <trkpt lat="47.16087" lon="-1.46682">
        <ele>79</ele>
        <time>2021-05-30T16:50:29.000Z</time>
      </trkpt>
      <trkpt lat="47.16096" lon="-1.4669">
        <ele>78</ele>
        <time>2021-05-30T16:50:31.000Z</time>
      </trkpt>
      <trkpt lat="47.16106" lon="-1.46698">
        <ele>77</ele>
        <time>2021-05-30T16:50:33.000Z</time>
      </trkpt>
      <trkpt lat="47.16122" lon="-1.4671">
        <ele>77</ele>
        <time>2021-05-30T16:50:36.000Z</time>
      </trkpt>
      <trkpt lat="47.16133" lon="-1.46719">
        <ele>76</ele>
        <time>2021-05-30T16:50:38.000Z</time>
      </trkpt>
      <trkpt lat="47.16146" lon="-1.46727">
        <ele>75</ele>
        <time>2021-05-30T16:50:40.000Z</time>
      </trkpt>
      <trkpt lat="47.16162" lon="-1.46737">
        <ele>74</ele>
        <time>2021-05-30T16:50:42.000Z</time>
      </trkpt>
      <trkpt lat="47.16179" lon="-1.4675">
        <ele>73</ele>
        <time>2021-05-30T16:50:45.000Z</time>
      </trkpt>
      <trkpt lat="47.16191" lon="-1.46759">
        <ele>73</ele>
        <time>2021-05-30T16:50:47.000Z</time>
      </trkpt>
      <trkpt lat="47.16204" lon="-1.46766">
        <ele>71</ele>
        <time>2021-05-30T16:50:49.000Z</time>
      </trkpt>
      <trkpt lat="47.16224" lon="-1.46785">
        <ele>71</ele>
        <time>2021-05-30T16:50:52.000Z</time>
      </trkpt>
      <trkpt lat="47.16244" lon="-1.468">
        <ele>71</ele>
        <time>2021-05-30T16:50:55.000Z</time>
      </trkpt>
      <trkpt lat="47.16264" lon="-1.46805">
        <ele>72</ele>
        <time>2021-05-30T16:50:58.000Z</time>
      </trkpt>
      <trkpt lat="47.16277" lon="-1.46806">
        <ele>71</ele>
        <time>2021-05-30T16:51:00.000Z</time>
      </trkpt>
      <trkpt lat="47.16286" lon="-1.46816">
        <ele>71</ele>
        <time>2021-05-30T16:51:02.000Z</time>
      </trkpt>
      <trkpt lat="47.16295" lon="-1.4683">
        <ele>70</ele>
        <time>2021-05-30T16:51:04.000Z</time>
      </trkpt>
      <trkpt lat="47.16308" lon="-1.4684">
        <ele>70</ele>
        <time>2021-05-30T16:51:06.000Z</time>
      </trkpt>
      <trkpt lat="47.1632" lon="-1.46852">
        <ele>69</ele>
        <time>2021-05-30T16:51:08.000Z</time>
      </trkpt>
      <trkpt lat="47.16333" lon="-1.46864">
        <ele>68</ele>
        <time>2021-05-30T16:51:10.000Z</time>
      </trkpt>
      <trkpt lat="47.16347" lon="-1.46877">
        <ele>67</ele>
        <time>2021-05-30T16:51:12.000Z</time>
      </trkpt>
      <trkpt lat="47.16362" lon="-1.46889">
        <ele>66</ele>
        <time>2021-05-30T16:51:14.000Z</time>
      </trkpt>
      <trkpt lat="47.16377" lon="-1.46899">
        <ele>66</ele>
        <time>2021-05-30T16:51:16.000Z</time>
      </trkpt>
      <trkpt lat="47.16395" lon="-1.46923">
        <ele>64</ele>
        <time>2021-05-30T16:51:19.000Z</time>
      </trkpt>
      <trkpt lat="47.16406" lon="-1.46942">
        <ele>63</ele>
        <time>2021-05-30T16:51:21.000Z</time>
      </trkpt>
      <trkpt lat="47.16413" lon="-1.46958">
        <ele>63</ele>
        <time>2021-05-30T16:51:23.000Z</time>
      </trkpt>
      <trkpt lat="47.16418" lon="-1.46973">
        <ele>62</ele>
        <time>2021-05-30T16:51:25.000Z</time>
      </trkpt>
      <trkpt lat="47.16423" lon="-1.46989">
        <ele>61</ele>
        <time>2021-05-30T16:51:27.000Z</time>
      </trkpt>
      <trkpt lat="47.16433" lon="-1.47013">
        <ele>65</ele>
        <time>2021-05-30T16:51:30.000Z</time>
      </trkpt>
      <trkpt lat="47.16444" lon="-1.47023">
        <ele>67</ele>
        <time>2021-05-30T16:51:32.000Z</time>
      </trkpt>
      <trkpt lat="47.16457" lon="-1.4703">
        <ele>68</ele>
        <time>2021-05-30T16:51:34.000Z</time>
      </trkpt>
      <trkpt lat="47.16471" lon="-1.47034">
        <ele>69</ele>
        <time>2021-05-30T16:51:36.000Z</time>
      </trkpt>
      <trkpt lat="47.16483" lon="-1.47041">
        <ele>70</ele>
        <time>2021-05-30T16:51:38.000Z</time>
      </trkpt>
      <trkpt lat="47.16493" lon="-1.47047">
        <ele>71</ele>
        <time>2021-05-30T16:51:40.000Z</time>
      </trkpt>
      <trkpt lat="47.16508" lon="-1.47041">
        <ele>71</ele>
        <time>2021-05-30T16:51:44.000Z</time>
      </trkpt>
      <trkpt lat="47.16512" lon="-1.47026">
        <ele>71</ele>
        <time>2021-05-30T16:51:46.000Z</time>
      </trkpt>
      <trkpt lat="47.16516" lon="-1.47012">
        <ele>70</ele>
        <time>2021-05-30T16:51:48.000Z</time>
      </trkpt>
      <trkpt lat="47.16522" lon="-1.4699">
        <ele>72</ele>
        <time>2021-05-30T16:51:51.000Z</time>
      </trkpt>
      <trkpt lat="47.16526" lon="-1.46978">
        <ele>72</ele>
        <time>2021-05-30T16:51:53.000Z</time>
      </trkpt>
      <trkpt lat="47.16533" lon="-1.46961">
        <ele>73</ele>
        <time>2021-05-30T16:51:56.000Z</time>
      </trkpt>
      <trkpt lat="47.16538" lon="-1.46948">
        <ele>73</ele>
        <time>2021-05-30T16:51:58.000Z</time>
      </trkpt>
      <trkpt lat="47.16542" lon="-1.46935">
        <ele>73</ele>
        <time>2021-05-30T16:52:00.000Z</time>
      </trkpt>
      <trkpt lat="47.16546" lon="-1.46923">
        <ele>73</ele>
        <time>2021-05-30T16:52:02.000Z</time>
      </trkpt>
      <trkpt lat="47.1655" lon="-1.4691">
        <ele>72</ele>
        <time>2021-05-30T16:52:04.000Z</time>
      </trkpt>
      <trkpt lat="47.16553" lon="-1.46892">
        <ele>72</ele>
        <time>2021-05-30T16:52:07.000Z</time>
      </trkpt>
      <trkpt lat="47.16556" lon="-1.46875">
        <ele>73</ele>
        <time>2021-05-30T16:52:10.000Z</time>
      </trkpt>
      <trkpt lat="47.1656" lon="-1.46861">
        <ele>74</ele>
        <time>2021-05-30T16:52:12.000Z</time>
      </trkpt>
      <trkpt lat="47.16564" lon="-1.46848">
        <ele>74</ele>
        <time>2021-05-30T16:52:14.000Z</time>
      </trkpt>
      <trkpt lat="47.16571" lon="-1.46836">
        <ele>77</ele>
        <time>2021-05-30T16:52:17.000Z</time>
      </trkpt>
      <trkpt lat="47.1658" lon="-1.46818">
        <ele>78</ele>
        <time>2021-05-30T16:52:20.000Z</time>
      </trkpt>
      <trkpt lat="47.16587" lon="-1.46801">
        <ele>78</ele>
        <time>2021-05-30T16:52:23.000Z</time>
      </trkpt>
      <trkpt lat="47.16596" lon="-1.46785">
        <ele>78</ele>
        <time>2021-05-30T16:52:26.000Z</time>
      </trkpt>
      <trkpt lat="47.16606" lon="-1.46771">
        <ele>78</ele>
        <time>2021-05-30T16:52:29.000Z</time>
      </trkpt>
      <trkpt lat="47.16615" lon="-1.46757">
        <ele>79</ele>
        <time>2021-05-30T16:52:32.000Z</time>
      </trkpt>
      <trkpt lat="47.16624" lon="-1.46743">
        <ele>79</ele>
        <time>2021-05-30T16:52:35.000Z</time>
      </trkpt>
      <trkpt lat="47.16634" lon="-1.4673">
        <ele>79</ele>
        <time>2021-05-30T16:52:38.000Z</time>
      </trkpt>
      <trkpt lat="47.16643" lon="-1.46718">
        <ele>79</ele>
        <time>2021-05-30T16:52:41.000Z</time>
      </trkpt>
      <trkpt lat="47.16649" lon="-1.46707">
        <ele>78</ele>
        <time>2021-05-30T16:52:44.000Z</time>
      </trkpt>
      <trkpt lat="47.1665" lon="-1.46689">
        <ele>78</ele>
        <time>2021-05-30T16:52:48.000Z</time>
      </trkpt>
      <trkpt lat="47.16652" lon="-1.46673">
        <ele>79</ele>
        <time>2021-05-30T16:52:51.000Z</time>
      </trkpt>
      <trkpt lat="47.16648" lon="-1.46646">
        <ele>79</ele>
        <time>2021-05-30T16:52:55.000Z</time>
      </trkpt>
      <trkpt lat="47.16645" lon="-1.46629">
        <ele>79</ele>
        <time>2021-05-30T16:52:58.000Z</time>
      </trkpt>
      <trkpt lat="47.1664" lon="-1.46616">
        <ele>81</ele>
        <time>2021-05-30T16:53:00.000Z</time>
      </trkpt>
      <trkpt lat="47.16638" lon="-1.46599">
        <ele>81</ele>
        <time>2021-05-30T16:53:02.000Z</time>
      </trkpt>
      <trkpt lat="47.16636" lon="-1.46585">
        <ele>81</ele>
        <time>2021-05-30T16:53:04.000Z</time>
      </trkpt>
      <trkpt lat="47.16631" lon="-1.46568">
        <ele>81</ele>
        <time>2021-05-30T16:53:07.000Z</time>
      </trkpt>
      <trkpt lat="47.16629" lon="-1.46555">
        <ele>81</ele>
        <time>2021-05-30T16:53:09.000Z</time>
      </trkpt>
      <trkpt lat="47.16628" lon="-1.4654">
        <ele>81</ele>
        <time>2021-05-30T16:53:11.000Z</time>
      </trkpt>
      <trkpt lat="47.16627" lon="-1.46526">
        <ele>81</ele>
        <time>2021-05-30T16:53:13.000Z</time>
      </trkpt>
      <trkpt lat="47.16625" lon="-1.46513">
        <ele>80</ele>
        <time>2021-05-30T16:53:15.000Z</time>
      </trkpt>
      <trkpt lat="47.16625" lon="-1.46499">
        <ele>79</ele>
        <time>2021-05-30T16:53:17.000Z</time>
      </trkpt>
      <trkpt lat="47.1662" lon="-1.46481">
        <ele>78</ele>
        <time>2021-05-30T16:53:20.000Z</time>
      </trkpt>
      <trkpt lat="47.1662" lon="-1.46467">
        <ele>78</ele>
        <time>2021-05-30T16:53:22.000Z</time>
      </trkpt>
      <trkpt lat="47.16614" lon="-1.46443">
        <ele>80</ele>
        <time>2021-05-30T16:53:26.000Z</time>
      </trkpt>
      <trkpt lat="47.16612" lon="-1.46427">
        <ele>80</ele>
        <time>2021-05-30T16:53:29.000Z</time>
      </trkpt>
      <trkpt lat="47.16609" lon="-1.46407">
        <ele>81</ele>
        <time>2021-05-30T16:53:32.000Z</time>
      </trkpt>
      <trkpt lat="47.16607" lon="-1.46388">
        <ele>82</ele>
        <time>2021-05-30T16:53:35.000Z</time>
      </trkpt>
      <trkpt lat="47.16607" lon="-1.46369">
        <ele>83</ele>
        <time>2021-05-30T16:53:38.000Z</time>
      </trkpt>
      <trkpt lat="47.16607" lon="-1.46356">
        <ele>84</ele>
        <time>2021-05-30T16:53:40.000Z</time>
      </trkpt>
      <trkpt lat="47.16606" lon="-1.4633">
        <ele>84</ele>
        <time>2021-05-30T16:53:44.000Z</time>
      </trkpt>
      <trkpt lat="47.16606" lon="-1.46312">
        <ele>86</ele>
        <time>2021-05-30T16:53:47.000Z</time>
      </trkpt>
      <trkpt lat="47.16605" lon="-1.46294">
        <ele>86</ele>
        <time>2021-05-30T16:53:50.000Z</time>
      </trkpt>
      <trkpt lat="47.16607" lon="-1.46277">
        <ele>87</ele>
        <time>2021-05-30T16:53:53.000Z</time>
      </trkpt>
      <trkpt lat="47.16605" lon="-1.4625">
        <ele>86</ele>
        <time>2021-05-30T16:53:57.000Z</time>
      </trkpt>
      <trkpt lat="47.16605" lon="-1.46236">
        <ele>86</ele>
        <time>2021-05-30T16:53:59.000Z</time>
      </trkpt>
      <trkpt lat="47.16605" lon="-1.46222">
        <ele>85</ele>
        <time>2021-05-30T16:54:01.000Z</time>
      </trkpt>
      <trkpt lat="47.16613" lon="-1.46207">
        <ele>86</ele>
        <time>2021-05-30T16:54:04.000Z</time>
      </trkpt>
      <trkpt lat="47.16622" lon="-1.46208">
        <ele>86</ele>
        <time>2021-05-30T16:54:06.000Z</time>
      </trkpt>
      <trkpt lat="47.16627" lon="-1.4622">
        <ele>86</ele>
        <time>2021-05-30T16:54:08.000Z</time>
      </trkpt>
      <trkpt lat="47.16629" lon="-1.46235">
        <ele>86</ele>
        <time>2021-05-30T16:54:10.000Z</time>
      </trkpt>
      <trkpt lat="47.16633" lon="-1.46249">
        <ele>84</ele>
        <time>2021-05-30T16:54:12.000Z</time>
      </trkpt>
      <trkpt lat="47.16644" lon="-1.46268">
        <ele>85</ele>
        <time>2021-05-30T16:54:15.000Z</time>
      </trkpt>
      <trkpt lat="47.16651" lon="-1.46278">
        <ele>86</ele>
        <time>2021-05-30T16:54:17.000Z</time>
      </trkpt>
      <trkpt lat="47.16657" lon="-1.4629">
        <ele>86</ele>
        <time>2021-05-30T16:54:19.000Z</time>
      </trkpt>
      <trkpt lat="47.16662" lon="-1.46302">
        <ele>86</ele>
        <time>2021-05-30T16:54:21.000Z</time>
      </trkpt>
      <trkpt lat="47.16666" lon="-1.46316">
        <ele>87</ele>
        <time>2021-05-30T16:54:23.000Z</time>
      </trkpt>
      <trkpt lat="47.16674" lon="-1.46329">
        <ele>88</ele>
        <time>2021-05-30T16:54:25.000Z</time>
      </trkpt>
      <trkpt lat="47.16682" lon="-1.46342">
        <ele>89</ele>
        <time>2021-05-30T16:54:27.000Z</time>
      </trkpt>
      <trkpt lat="47.16693" lon="-1.46363">
        <ele>88</ele>
        <time>2021-05-30T16:54:30.000Z</time>
      </trkpt>
      <trkpt lat="47.16701" lon="-1.46377">
        <ele>89</ele>
        <time>2021-05-30T16:54:32.000Z</time>
      </trkpt>
      <trkpt lat="47.16709" lon="-1.46389">
        <ele>89</ele>
        <time>2021-05-30T16:54:34.000Z</time>
      </trkpt>
      <trkpt lat="47.16716" lon="-1.46403">
        <ele>89</ele>
        <time>2021-05-30T16:54:36.000Z</time>
      </trkpt>
      <trkpt lat="47.16728" lon="-1.46424">
        <ele>86</ele>
        <time>2021-05-30T16:54:39.000Z</time>
      </trkpt>
      <trkpt lat="47.16744" lon="-1.4645">
        <ele>87</ele>
        <time>2021-05-30T16:54:43.000Z</time>
      </trkpt>
      <trkpt lat="47.16754" lon="-1.46462">
        <ele>87</ele>
        <time>2021-05-30T16:54:45.000Z</time>
      </trkpt>
      <trkpt lat="47.16768" lon="-1.46488">
        <ele>85</ele>
        <time>2021-05-30T16:54:48.000Z</time>
      </trkpt>
      <trkpt lat="47.16778" lon="-1.465">
        <ele>85</ele>
        <time>2021-05-30T16:54:50.000Z</time>
      </trkpt>
      <trkpt lat="47.16788" lon="-1.46509">
        <ele>85</ele>
        <time>2021-05-30T16:54:52.000Z</time>
      </trkpt>
      <trkpt lat="47.16797" lon="-1.46519">
        <ele>85</ele>
        <time>2021-05-30T16:54:54.000Z</time>
      </trkpt>
      <trkpt lat="47.16807" lon="-1.4653">
        <ele>85</ele>
        <time>2021-05-30T16:54:56.000Z</time>
      </trkpt>
      <trkpt lat="47.16816" lon="-1.46541">
        <ele>85</ele>
        <time>2021-05-30T16:54:58.000Z</time>
      </trkpt>
      <trkpt lat="47.16826" lon="-1.46552">
        <ele>84</ele>
        <time>2021-05-30T16:55:00.000Z</time>
      </trkpt>
      <trkpt lat="47.16836" lon="-1.46562">
        <ele>84</ele>
        <time>2021-05-30T16:55:02.000Z</time>
      </trkpt>
      <trkpt lat="47.16845" lon="-1.46572">
        <ele>84</ele>
        <time>2021-05-30T16:55:04.000Z</time>
      </trkpt>
      <trkpt lat="47.16861" lon="-1.46587">
        <ele>83</ele>
        <time>2021-05-30T16:55:07.000Z</time>
      </trkpt>
      <trkpt lat="47.16872" lon="-1.46596">
        <ele>83</ele>
        <time>2021-05-30T16:55:09.000Z</time>
      </trkpt>
      <trkpt lat="47.16884" lon="-1.46606">
        <ele>82</ele>
        <time>2021-05-30T16:55:11.000Z</time>
      </trkpt>
      <trkpt lat="47.16901" lon="-1.46622">
        <ele>82</ele>
        <time>2021-05-30T16:55:14.000Z</time>
      </trkpt>
      <trkpt lat="47.16912" lon="-1.46632">
        <ele>82</ele>
        <time>2021-05-30T16:55:16.000Z</time>
      </trkpt>
      <trkpt lat="47.16923" lon="-1.46642">
        <ele>81</ele>
        <time>2021-05-30T16:55:18.000Z</time>
      </trkpt>
      <trkpt lat="47.1694" lon="-1.46656">
        <ele>79</ele>
        <time>2021-05-30T16:55:21.000Z</time>
      </trkpt>
      <trkpt lat="47.16951" lon="-1.46661">
        <ele>77</ele>
        <time>2021-05-30T16:55:23.000Z</time>
      </trkpt>
      <trkpt lat="47.16964" lon="-1.46664">
        <ele>77</ele>
        <time>2021-05-30T16:55:25.000Z</time>
      </trkpt>
      <trkpt lat="47.16976" lon="-1.4667">
        <ele>77</ele>
        <time>2021-05-30T16:55:27.000Z</time>
      </trkpt>
      <trkpt lat="47.16982" lon="-1.46681">
        <ele>75</ele>
        <time>2021-05-30T16:55:28.000Z</time>
      </trkpt>
      <trkpt lat="47.16987" lon="-1.46692">
        <ele>75</ele>
        <time>2021-05-30T16:55:29.000Z</time>
      </trkpt>
      <trkpt lat="47.16995" lon="-1.46703">
        <ele>74</ele>
        <time>2021-05-30T16:55:31.000Z</time>
      </trkpt>
      <trkpt lat="47.17009" lon="-1.46709">
        <ele>74</ele>
        <time>2021-05-30T16:55:33.000Z</time>
      </trkpt>
      <trkpt lat="47.1702" lon="-1.46718">
        <ele>75</ele>
        <time>2021-05-30T16:55:35.000Z</time>
      </trkpt>
      <trkpt lat="47.17031" lon="-1.46726">
        <ele>75</ele>
        <time>2021-05-30T16:55:37.000Z</time>
      </trkpt>
      <trkpt lat="47.17043" lon="-1.46735">
        <ele>75</ele>
        <time>2021-05-30T16:55:39.000Z</time>
      </trkpt>
      <trkpt lat="47.17055" lon="-1.46744">
        <ele>76</ele>
        <time>2021-05-30T16:55:41.000Z</time>
      </trkpt>
      <trkpt lat="47.17074" lon="-1.46761">
        <ele>75</ele>
        <time>2021-05-30T16:55:44.000Z</time>
      </trkpt>
      <trkpt lat="47.17087" lon="-1.46772">
        <ele>73</ele>
        <time>2021-05-30T16:55:46.000Z</time>
      </trkpt>
      <trkpt lat="47.17106" lon="-1.46794">
        <ele>73</ele>
        <time>2021-05-30T16:55:49.000Z</time>
      </trkpt>
      <trkpt lat="47.17123" lon="-1.46808">
        <ele>71</ele>
        <time>2021-05-30T16:55:51.000Z</time>
      </trkpt>
      <trkpt lat="47.17131" lon="-1.46815">
        <ele>70</ele>
        <time>2021-05-30T16:55:52.000Z</time>
      </trkpt>
      <trkpt lat="47.17144" lon="-1.46828">
        <ele>70</ele>
        <time>2021-05-30T16:55:54.000Z</time>
      </trkpt>
      <trkpt lat="47.17151" lon="-1.46848">
        <ele>69</ele>
        <time>2021-05-30T16:55:56.000Z</time>
      </trkpt>
      <trkpt lat="47.17166" lon="-1.46871">
        <ele>70</ele>
        <time>2021-05-30T16:55:59.000Z</time>
      </trkpt>
      <trkpt lat="47.17175" lon="-1.46885">
        <ele>67</ele>
        <time>2021-05-30T16:56:01.000Z</time>
      </trkpt>
      <trkpt lat="47.17183" lon="-1.469">
        <ele>69</ele>
        <time>2021-05-30T16:56:03.000Z</time>
      </trkpt>
      <trkpt lat="47.17189" lon="-1.46918">
        <ele>69</ele>
        <time>2021-05-30T16:56:05.000Z</time>
      </trkpt>
      <trkpt lat="47.17198" lon="-1.46936">
        <ele>67</ele>
        <time>2021-05-30T16:56:07.000Z</time>
      </trkpt>
      <trkpt lat="47.17207" lon="-1.46953">
        <ele>66</ele>
        <time>2021-05-30T16:56:09.000Z</time>
      </trkpt>
      <trkpt lat="47.17214" lon="-1.46973">
        <ele>66</ele>
        <time>2021-05-30T16:56:11.000Z</time>
      </trkpt>
      <trkpt lat="47.17222" lon="-1.46994">
        <ele>67</ele>
        <time>2021-05-30T16:56:13.000Z</time>
      </trkpt>
      <trkpt lat="47.1723" lon="-1.47014">
        <ele>67</ele>
        <time>2021-05-30T16:56:15.000Z</time>
      </trkpt>
      <trkpt lat="47.17238" lon="-1.47036">
        <ele>64</ele>
        <time>2021-05-30T16:56:17.000Z</time>
      </trkpt>
      <trkpt lat="47.17245" lon="-1.47057">
        <ele>65</ele>
        <time>2021-05-30T16:56:19.000Z</time>
      </trkpt>
      <trkpt lat="47.17252" lon="-1.47087">
        <ele>64</ele>
        <time>2021-05-30T16:56:22.000Z</time>
      </trkpt>
      <trkpt lat="47.17258" lon="-1.47106">
        <ele>61</ele>
        <time>2021-05-30T16:56:24.000Z</time>
      </trkpt>
      <trkpt lat="47.17262" lon="-1.47127">
        <ele>59</ele>
        <time>2021-05-30T16:56:26.000Z</time>
      </trkpt>
      <trkpt lat="47.17266" lon="-1.4715">
        <ele>60</ele>
        <time>2021-05-30T16:56:28.000Z</time>
      </trkpt>
      <trkpt lat="47.17272" lon="-1.4718">
        <ele>62</ele>
        <time>2021-05-30T16:56:31.000Z</time>
      </trkpt>
      <trkpt lat="47.17277" lon="-1.47199">
        <ele>63</ele>
        <time>2021-05-30T16:56:33.000Z</time>
      </trkpt>
      <trkpt lat="47.17283" lon="-1.47231">
        <ele>64</ele>
        <time>2021-05-30T16:56:36.000Z</time>
      </trkpt>
      <trkpt lat="47.1729" lon="-1.47264">
        <ele>63</ele>
        <time>2021-05-30T16:56:39.000Z</time>
      </trkpt>
      <trkpt lat="47.17295" lon="-1.47283">
        <ele>63</ele>
        <time>2021-05-30T16:56:41.000Z</time>
      </trkpt>
      <trkpt lat="47.17296" lon="-1.47307">
        <ele>63</ele>
        <time>2021-05-30T16:56:43.000Z</time>
      </trkpt>
      <trkpt lat="47.17298" lon="-1.47326">
        <ele>63</ele>
        <time>2021-05-30T16:56:45.000Z</time>
      </trkpt>
      <trkpt lat="47.17302" lon="-1.47346">
        <ele>61</ele>
        <time>2021-05-30T16:56:47.000Z</time>
      </trkpt>
      <trkpt lat="47.17309" lon="-1.47363">
        <ele>59</ele>
        <time>2021-05-30T16:56:49.000Z</time>
      </trkpt>
      <trkpt lat="47.17323" lon="-1.47369">
        <ele>59</ele>
        <time>2021-05-30T16:56:51.000Z</time>
      </trkpt>
      <trkpt lat="47.17337" lon="-1.47365">
        <ele>59</ele>
        <time>2021-05-30T16:56:53.000Z</time>
      </trkpt>
      <trkpt lat="47.17352" lon="-1.47361">
        <ele>59</ele>
        <time>2021-05-30T16:56:55.000Z</time>
      </trkpt>
      <trkpt lat="47.17366" lon="-1.47358">
        <ele>59</ele>
        <time>2021-05-30T16:56:57.000Z</time>
      </trkpt>
      <trkpt lat="47.1738" lon="-1.47355">
        <ele>59</ele>
        <time>2021-05-30T16:56:59.000Z</time>
      </trkpt>
      <trkpt lat="47.17393" lon="-1.47355">
        <ele>58</ele>
        <time>2021-05-30T16:57:01.000Z</time>
      </trkpt>
      <trkpt lat="47.17412" lon="-1.47351">
        <ele>61</ele>
        <time>2021-05-30T16:57:04.000Z</time>
      </trkpt>
      <trkpt lat="47.17426" lon="-1.47348">
        <ele>61</ele>
        <time>2021-05-30T16:57:06.000Z</time>
      </trkpt>
      <trkpt lat="47.1744" lon="-1.47349">
        <ele>59</ele>
        <time>2021-05-30T16:57:08.000Z</time>
      </trkpt>
      <trkpt lat="47.17455" lon="-1.47349">
        <ele>59</ele>
        <time>2021-05-30T16:57:10.000Z</time>
      </trkpt>
      <trkpt lat="47.17469" lon="-1.4735">
        <ele>58</ele>
        <time>2021-05-30T16:57:12.000Z</time>
      </trkpt>
      <trkpt lat="47.17484" lon="-1.47351">
        <ele>57</ele>
        <time>2021-05-30T16:57:14.000Z</time>
      </trkpt>
      <trkpt lat="47.17498" lon="-1.47352">
        <ele>56</ele>
        <time>2021-05-30T16:57:16.000Z</time>
      </trkpt>
      <trkpt lat="47.17512" lon="-1.47352">
        <ele>56</ele>
        <time>2021-05-30T16:57:18.000Z</time>
      </trkpt>
      <trkpt lat="47.17528" lon="-1.47351">
        <ele>56</ele>
        <time>2021-05-30T16:57:20.000Z</time>
      </trkpt>
      <trkpt lat="47.17537" lon="-1.47351">
        <ele>56</ele>
        <time>2021-05-30T16:57:21.000Z</time>
      </trkpt>
      <trkpt lat="47.17549" lon="-1.47353">
        <ele>54</ele>
        <time>2021-05-30T16:57:23.000Z</time>
      </trkpt>
      <trkpt lat="47.17563" lon="-1.47354">
        <ele>54</ele>
        <time>2021-05-30T16:57:25.000Z</time>
      </trkpt>
      <trkpt lat="47.17576" lon="-1.47357">
        <ele>53</ele>
        <time>2021-05-30T16:57:27.000Z</time>
      </trkpt>
      <trkpt lat="47.17591" lon="-1.4736">
        <ele>53</ele>
        <time>2021-05-30T16:57:29.000Z</time>
      </trkpt>
      <trkpt lat="47.17605" lon="-1.47362">
        <ele>52</ele>
        <time>2021-05-30T16:57:31.000Z</time>
      </trkpt>
      <trkpt lat="47.17618" lon="-1.47365">
        <ele>52</ele>
        <time>2021-05-30T16:57:33.000Z</time>
      </trkpt>
      <trkpt lat="47.17629" lon="-1.47367">
        <ele>53</ele>
        <time>2021-05-30T16:57:35.000Z</time>
      </trkpt>
      <trkpt lat="47.17641" lon="-1.47372">
        <ele>53</ele>
        <time>2021-05-30T16:57:37.000Z</time>
      </trkpt>
      <trkpt lat="47.17659" lon="-1.47382">
        <ele>53</ele>
        <time>2021-05-30T16:57:40.000Z</time>
      </trkpt>
      <trkpt lat="47.1767" lon="-1.47388">
        <ele>54</ele>
        <time>2021-05-30T16:57:42.000Z</time>
      </trkpt>
      <trkpt lat="47.17683" lon="-1.47391">
        <ele>54</ele>
        <time>2021-05-30T16:57:44.000Z</time>
      </trkpt>
      <trkpt lat="47.17701" lon="-1.47401">
        <ele>54</ele>
        <time>2021-05-30T16:57:47.000Z</time>
      </trkpt>
      <trkpt lat="47.17713" lon="-1.47408">
        <ele>54</ele>
        <time>2021-05-30T16:57:49.000Z</time>
      </trkpt>
      <trkpt lat="47.17725" lon="-1.47415">
        <ele>55</ele>
        <time>2021-05-30T16:57:51.000Z</time>
      </trkpt>
      <trkpt lat="47.17742" lon="-1.47424">
        <ele>54</ele>
        <time>2021-05-30T16:57:54.000Z</time>
      </trkpt>
      <trkpt lat="47.17753" lon="-1.4743">
        <ele>54</ele>
        <time>2021-05-30T16:57:56.000Z</time>
      </trkpt>
      <trkpt lat="47.17765" lon="-1.47436">
        <ele>53</ele>
        <time>2021-05-30T16:57:58.000Z</time>
      </trkpt>
      <trkpt lat="47.17778" lon="-1.47442">
        <ele>53</ele>
        <time>2021-05-30T16:58:00.000Z</time>
      </trkpt>
      <trkpt lat="47.17791" lon="-1.47448">
        <ele>53</ele>
        <time>2021-05-30T16:58:02.000Z</time>
      </trkpt>
      <trkpt lat="47.17803" lon="-1.47454">
        <ele>53</ele>
        <time>2021-05-30T16:58:04.000Z</time>
      </trkpt>
      <trkpt lat="47.17816" lon="-1.47459">
        <ele>53</ele>
        <time>2021-05-30T16:58:06.000Z</time>
      </trkpt>
      <trkpt lat="47.17828" lon="-1.47462">
        <ele>53</ele>
        <time>2021-05-30T16:58:08.000Z</time>
      </trkpt>
      <trkpt lat="47.17841" lon="-1.47466">
        <ele>52</ele>
        <time>2021-05-30T16:58:10.000Z</time>
      </trkpt>
      <trkpt lat="47.17854" lon="-1.4747">
        <ele>53</ele>
        <time>2021-05-30T16:58:12.000Z</time>
      </trkpt>
      <trkpt lat="47.17872" lon="-1.47474">
        <ele>53</ele>
        <time>2021-05-30T16:58:15.000Z</time>
      </trkpt>
      <trkpt lat="47.1789" lon="-1.47473">
        <ele>54</ele>
        <time>2021-05-30T16:58:18.000Z</time>
      </trkpt>
      <trkpt lat="47.17902" lon="-1.47468">
        <ele>55</ele>
        <time>2021-05-30T16:58:20.000Z</time>
      </trkpt>
      <trkpt lat="47.17914" lon="-1.47466">
        <ele>55</ele>
        <time>2021-05-30T16:58:22.000Z</time>
      </trkpt>
      <trkpt lat="47.17928" lon="-1.47478">
        <ele>57</ele>
        <time>2021-05-30T16:58:25.000Z</time>
      </trkpt>
      <trkpt lat="47.17934" lon="-1.47492">
        <ele>57</ele>
        <time>2021-05-30T16:58:27.000Z</time>
      </trkpt>
      <trkpt lat="47.17947" lon="-1.47494">
        <ele>57</ele>
        <time>2021-05-30T16:58:29.000Z</time>
      </trkpt>
      <trkpt lat="47.17959" lon="-1.47497">
        <ele>55</ele>
        <time>2021-05-30T16:58:31.000Z</time>
      </trkpt>
      <trkpt lat="47.17971" lon="-1.475">
        <ele>56</ele>
        <time>2021-05-30T16:58:33.000Z</time>
      </trkpt>
      <trkpt lat="47.17982" lon="-1.47503">
        <ele>56</ele>
        <time>2021-05-30T16:58:35.000Z</time>
      </trkpt>
      <trkpt lat="47.17995" lon="-1.47506">
        <ele>56</ele>
        <time>2021-05-30T16:58:37.000Z</time>
      </trkpt>
      <trkpt lat="47.18006" lon="-1.47507">
        <ele>56</ele>
        <time>2021-05-30T16:58:39.000Z</time>
      </trkpt>
      <trkpt lat="47.18018" lon="-1.4751">
        <ele>56</ele>
        <time>2021-05-30T16:58:41.000Z</time>
      </trkpt>
      <trkpt lat="47.1803" lon="-1.47513">
        <ele>56</ele>
        <time>2021-05-30T16:58:43.000Z</time>
      </trkpt>
      <trkpt lat="47.18041" lon="-1.47516">
        <ele>56</ele>
        <time>2021-05-30T16:58:45.000Z</time>
      </trkpt>
      <trkpt lat="47.18055" lon="-1.47519">
        <ele>55</ele>
        <time>2021-05-30T16:58:47.000Z</time>
      </trkpt>
      <trkpt lat="47.18067" lon="-1.47523">
        <ele>54</ele>
        <time>2021-05-30T16:58:49.000Z</time>
      </trkpt>
      <trkpt lat="47.18079" lon="-1.47526">
        <ele>54</ele>
        <time>2021-05-30T16:58:51.000Z</time>
      </trkpt>
      <trkpt lat="47.1809" lon="-1.4753">
        <ele>54</ele>
        <time>2021-05-30T16:58:53.000Z</time>
      </trkpt>
      <trkpt lat="47.18108" lon="-1.47534">
        <ele>56</ele>
        <time>2021-05-30T16:58:56.000Z</time>
      </trkpt>
      <trkpt lat="47.18121" lon="-1.47536">
        <ele>57</ele>
        <time>2021-05-30T16:58:58.000Z</time>
      </trkpt>
      <trkpt lat="47.18135" lon="-1.47538">
        <ele>56</ele>
        <time>2021-05-30T16:59:00.000Z</time>
      </trkpt>
      <trkpt lat="47.18145" lon="-1.47543">
        <ele>57</ele>
        <time>2021-05-30T16:59:02.000Z</time>
      </trkpt>
      <trkpt lat="47.18162" lon="-1.47548">
        <ele>58</ele>
        <time>2021-05-30T16:59:05.000Z</time>
      </trkpt>
      <trkpt lat="47.18175" lon="-1.47548">
        <ele>57</ele>
        <time>2021-05-30T16:59:07.000Z</time>
      </trkpt>
      <trkpt lat="47.18188" lon="-1.47547">
        <ele>58</ele>
        <time>2021-05-30T16:59:09.000Z</time>
      </trkpt>
      <trkpt lat="47.18198" lon="-1.47554">
        <ele>58</ele>
        <time>2021-05-30T16:59:11.000Z</time>
      </trkpt>
      <trkpt lat="47.18213" lon="-1.47558">
        <ele>59</ele>
        <time>2021-05-30T16:59:14.000Z</time>
      </trkpt>
      <trkpt lat="47.18225" lon="-1.47559">
        <ele>61</ele>
        <time>2021-05-30T16:59:16.000Z</time>
      </trkpt>
      <trkpt lat="47.18235" lon="-1.47564">
        <ele>62</ele>
        <time>2021-05-30T16:59:18.000Z</time>
      </trkpt>
      <trkpt lat="47.18246" lon="-1.47567">
        <ele>62</ele>
        <time>2021-05-30T16:59:20.000Z</time>
      </trkpt>
      <trkpt lat="47.18257" lon="-1.4757">
        <ele>62</ele>
        <time>2021-05-30T16:59:22.000Z</time>
      </trkpt>
      <trkpt lat="47.18267" lon="-1.47576">
        <ele>63</ele>
        <time>2021-05-30T16:59:24.000Z</time>
      </trkpt>
      <trkpt lat="47.18278" lon="-1.47578">
        <ele>61</ele>
        <time>2021-05-30T16:59:26.000Z</time>
      </trkpt>
      <trkpt lat="47.18288" lon="-1.47581">
        <ele>61</ele>
        <time>2021-05-30T16:59:28.000Z</time>
      </trkpt>
      <trkpt lat="47.18299" lon="-1.47584">
        <ele>62</ele>
        <time>2021-05-30T16:59:30.000Z</time>
      </trkpt>
      <trkpt lat="47.18311" lon="-1.47585">
        <ele>63</ele>
        <time>2021-05-30T16:59:32.000Z</time>
      </trkpt>
      <trkpt lat="47.18321" lon="-1.47587">
        <ele>62</ele>
        <time>2021-05-30T16:59:34.000Z</time>
      </trkpt>
      <trkpt lat="47.1833" lon="-1.47592">
        <ele>63</ele>
        <time>2021-05-30T16:59:36.000Z</time>
      </trkpt>
      <trkpt lat="47.18341" lon="-1.47595">
        <ele>63</ele>
        <time>2021-05-30T16:59:39.000Z</time>
      </trkpt>
      <trkpt lat="47.18358" lon="-1.47599">
        <ele>64</ele>
        <time>2021-05-30T16:59:42.000Z</time>
      </trkpt>
      <trkpt lat="47.18369" lon="-1.47601">
        <ele>63</ele>
        <time>2021-05-30T16:59:44.000Z</time>
      </trkpt>
      <trkpt lat="47.18381" lon="-1.47603">
        <ele>63</ele>
        <time>2021-05-30T16:59:46.000Z</time>
      </trkpt>
      <trkpt lat="47.18393" lon="-1.47606">
        <ele>64</ele>
        <time>2021-05-30T16:59:48.000Z</time>
      </trkpt>
      <trkpt lat="47.18402" lon="-1.47609">
        <ele>65</ele>
        <time>2021-05-30T16:59:50.000Z</time>
      </trkpt>
      <trkpt lat="47.18412" lon="-1.47612">
        <ele>65</ele>
        <time>2021-05-30T16:59:52.000Z</time>
      </trkpt>
      <trkpt lat="47.18421" lon="-1.47612">
        <ele>66</ele>
        <time>2021-05-30T16:59:54.000Z</time>
      </trkpt>
      <trkpt lat="47.1843" lon="-1.47616">
        <ele>68</ele>
        <time>2021-05-30T16:59:56.000Z</time>
      </trkpt>
      <trkpt lat="47.18441" lon="-1.47619">
        <ele>67</ele>
        <time>2021-05-30T16:59:58.000Z</time>
      </trkpt>
      <trkpt lat="47.18451" lon="-1.47623">
        <ele>67</ele>
        <time>2021-05-30T17:00:00.000Z</time>
      </trkpt>
      <trkpt lat="47.18463" lon="-1.47626">
        <ele>67</ele>
        <time>2021-05-30T17:00:02.000Z</time>
      </trkpt>
      <trkpt lat="47.18474" lon="-1.47631">
        <ele>67</ele>
        <time>2021-05-30T17:00:04.000Z</time>
      </trkpt>
      <trkpt lat="47.18485" lon="-1.47635">
        <ele>67</ele>
        <time>2021-05-30T17:00:07.000Z</time>
      </trkpt>
      <trkpt lat="47.18495" lon="-1.47638">
        <ele>68</ele>
        <time>2021-05-30T17:00:09.000Z</time>
      </trkpt>
      <trkpt lat="47.18504" lon="-1.47641">
        <ele>68</ele>
        <time>2021-05-30T17:00:11.000Z</time>
      </trkpt>
      <trkpt lat="47.18518" lon="-1.47643">
        <ele>69</ele>
        <time>2021-05-30T17:00:14.000Z</time>
      </trkpt>
      <trkpt lat="47.18536" lon="-1.47644">
        <ele>71</ele>
        <time>2021-05-30T17:00:18.000Z</time>
      </trkpt>
      <trkpt lat="47.18545" lon="-1.47647">
        <ele>71</ele>
        <time>2021-05-30T17:00:20.000Z</time>
      </trkpt>
      <trkpt lat="47.18557" lon="-1.47653">
        <ele>71</ele>
        <time>2021-05-30T17:00:23.000Z</time>
      </trkpt>
      <trkpt lat="47.18567" lon="-1.47656">
        <ele>71</ele>
        <time>2021-05-30T17:00:25.000Z</time>
      </trkpt>
      <trkpt lat="47.18577" lon="-1.47659">
        <ele>70</ele>
        <time>2021-05-30T17:00:27.000Z</time>
      </trkpt>
      <trkpt lat="47.18586" lon="-1.47662">
        <ele>70</ele>
        <time>2021-05-30T17:00:29.000Z</time>
      </trkpt>
      <trkpt lat="47.18595" lon="-1.47665">
        <ele>70</ele>
        <time>2021-05-30T17:00:31.000Z</time>
      </trkpt>
      <trkpt lat="47.18605" lon="-1.47665">
        <ele>71</ele>
        <time>2021-05-30T17:00:33.000Z</time>
      </trkpt>
      <trkpt lat="47.18617" lon="-1.47672">
        <ele>72</ele>
        <time>2021-05-30T17:00:36.000Z</time>
      </trkpt>
      <trkpt lat="47.1863" lon="-1.47675">
        <ele>73</ele>
        <time>2021-05-30T17:00:39.000Z</time>
      </trkpt>
      <trkpt lat="47.18644" lon="-1.47676">
        <ele>76</ele>
        <time>2021-05-30T17:00:42.000Z</time>
      </trkpt>
      <trkpt lat="47.18662" lon="-1.47682">
        <ele>76</ele>
        <time>2021-05-30T17:00:46.000Z</time>
      </trkpt>
      <trkpt lat="47.18672" lon="-1.47683">
        <ele>77</ele>
        <time>2021-05-30T17:00:48.000Z</time>
      </trkpt>
      <trkpt lat="47.18682" lon="-1.47686">
        <ele>78</ele>
        <time>2021-05-30T17:00:50.000Z</time>
      </trkpt>
      <trkpt lat="47.18692" lon="-1.47688">
        <ele>78</ele>
        <time>2021-05-30T17:00:52.000Z</time>
      </trkpt>
      <trkpt lat="47.18699" lon="-1.47698">
        <ele>79</ele>
        <time>2021-05-30T17:00:54.000Z</time>
      </trkpt>
      <trkpt lat="47.18703" lon="-1.47714">
        <ele>77</ele>
        <time>2021-05-30T17:00:56.000Z</time>
      </trkpt>
      <trkpt lat="47.18704" lon="-1.47731">
        <ele>76</ele>
        <time>2021-05-30T17:00:58.000Z</time>
      </trkpt>
      <trkpt lat="47.18706" lon="-1.47748">
        <ele>78</ele>
        <time>2021-05-30T17:01:00.000Z</time>
      </trkpt>
      <trkpt lat="47.18707" lon="-1.47772">
        <ele>79</ele>
        <time>2021-05-30T17:01:03.000Z</time>
      </trkpt>
      <trkpt lat="47.18708" lon="-1.47788">
        <ele>79</ele>
        <time>2021-05-30T17:01:05.000Z</time>
      </trkpt>
      <trkpt lat="47.18712" lon="-1.47805">
        <ele>77</ele>
        <time>2021-05-30T17:01:07.000Z</time>
      </trkpt>
      <trkpt lat="47.18712" lon="-1.47822">
        <ele>78</ele>
        <time>2021-05-30T17:01:09.000Z</time>
      </trkpt>
      <trkpt lat="47.18713" lon="-1.47839">
        <ele>77</ele>
        <time>2021-05-30T17:01:11.000Z</time>
      </trkpt>
      <trkpt lat="47.18713" lon="-1.47856">
        <ele>78</ele>
        <time>2021-05-30T17:01:13.000Z</time>
      </trkpt>
      <trkpt lat="47.18714" lon="-1.47873">
        <ele>79</ele>
        <time>2021-05-30T17:01:15.000Z</time>
      </trkpt>
      <trkpt lat="47.18715" lon="-1.47889">
        <ele>79</ele>
        <time>2021-05-30T17:01:17.000Z</time>
      </trkpt>
      <trkpt lat="47.18717" lon="-1.47906">
        <ele>78</ele>
        <time>2021-05-30T17:01:19.000Z</time>
      </trkpt>
      <trkpt lat="47.18717" lon="-1.47921">
        <ele>78</ele>
        <time>2021-05-30T17:01:21.000Z</time>
      </trkpt>
      <trkpt lat="47.18719" lon="-1.47938">
        <ele>78</ele>
        <time>2021-05-30T17:01:23.000Z</time>
      </trkpt>
      <trkpt lat="47.1872" lon="-1.47963">
        <ele>78</ele>
        <time>2021-05-30T17:01:26.000Z</time>
      </trkpt>
      <trkpt lat="47.18721" lon="-1.4798">
        <ele>78</ele>
        <time>2021-05-30T17:01:28.000Z</time>
      </trkpt>
      <trkpt lat="47.18723" lon="-1.47998">
        <ele>76</ele>
        <time>2021-05-30T17:01:30.000Z</time>
      </trkpt>
      <trkpt lat="47.18726" lon="-1.48023">
        <ele>80</ele>
        <time>2021-05-30T17:01:33.000Z</time>
      </trkpt>
      <trkpt lat="47.18726" lon="-1.48038">
        <ele>79</ele>
        <time>2021-05-30T17:01:35.000Z</time>
      </trkpt>
      <trkpt lat="47.18724" lon="-1.4806">
        <ele>75</ele>
        <time>2021-05-30T17:01:37.000Z</time>
      </trkpt>
      <trkpt lat="47.18727" lon="-1.48077">
        <ele>77</ele>
        <time>2021-05-30T17:01:39.000Z</time>
      </trkpt>
      <trkpt lat="47.1873" lon="-1.481">
        <ele>77</ele>
        <time>2021-05-30T17:01:42.000Z</time>
      </trkpt>
      <trkpt lat="47.18731" lon="-1.48116">
        <ele>79</ele>
        <time>2021-05-30T17:01:44.000Z</time>
      </trkpt>
      <trkpt lat="47.18733" lon="-1.48132">
        <ele>75</ele>
        <time>2021-05-30T17:01:46.000Z</time>
      </trkpt>
      <trkpt lat="47.18736" lon="-1.48151">
        <ele>77</ele>
        <time>2021-05-30T17:01:48.000Z</time>
      </trkpt>
      <trkpt lat="47.18737" lon="-1.48169">
        <ele>77</ele>
        <time>2021-05-30T17:01:50.000Z</time>
      </trkpt>
      <trkpt lat="47.18738" lon="-1.48186">
        <ele>77</ele>
        <time>2021-05-30T17:01:52.000Z</time>
      </trkpt>
      <trkpt lat="47.18739" lon="-1.48207">
        <ele>74</ele>
        <time>2021-05-30T17:01:55.000Z</time>
      </trkpt>
      <trkpt lat="47.18739" lon="-1.48225">
        <ele>79</ele>
        <time>2021-05-30T17:01:59.000Z</time>
      </trkpt>
      <trkpt lat="47.1874" lon="-1.4825">
        <ele>76</ele>
        <time>2021-05-30T17:02:02.000Z</time>
      </trkpt>
      <trkpt lat="47.18742" lon="-1.48266">
        <ele>78</ele>
        <time>2021-05-30T17:02:04.000Z</time>
      </trkpt>
      <trkpt lat="47.18744" lon="-1.48284">
        <ele>79</ele>
        <time>2021-05-30T17:02:06.000Z</time>
      </trkpt>
      <trkpt lat="47.18745" lon="-1.48301">
        <ele>79</ele>
        <time>2021-05-30T17:02:08.000Z</time>
      </trkpt>
      <trkpt lat="47.18748" lon="-1.4833">
        <ele>77</ele>
        <time>2021-05-30T17:02:11.000Z</time>
      </trkpt>
      <trkpt lat="47.18749" lon="-1.48349">
        <ele>79</ele>
        <time>2021-05-30T17:02:13.000Z</time>
      </trkpt>
      <trkpt lat="47.18749" lon="-1.48366">
        <ele>77</ele>
        <time>2021-05-30T17:02:15.000Z</time>
      </trkpt>
      <trkpt lat="47.18751" lon="-1.48383">
        <ele>75</ele>
        <time>2021-05-30T17:02:17.000Z</time>
      </trkpt>
      <trkpt lat="47.1875" lon="-1.48398">
        <ele>74</ele>
        <time>2021-05-30T17:02:19.000Z</time>
      </trkpt>
      <trkpt lat="47.18751" lon="-1.48417">
        <ele>75</ele>
        <time>2021-05-30T17:02:21.000Z</time>
      </trkpt>
      <trkpt lat="47.18752" lon="-1.48435">
        <ele>75</ele>
        <time>2021-05-30T17:02:23.000Z</time>
      </trkpt>
      <trkpt lat="47.18754" lon="-1.48453">
        <ele>75</ele>
        <time>2021-05-30T17:02:25.000Z</time>
      </trkpt>
      <trkpt lat="47.18756" lon="-1.48471">
        <ele>76</ele>
        <time>2021-05-30T17:02:27.000Z</time>
      </trkpt>
      <trkpt lat="47.18759" lon="-1.48499">
        <ele>77</ele>
        <time>2021-05-30T17:02:30.000Z</time>
      </trkpt>
      <trkpt lat="47.1876" lon="-1.48515">
        <ele>78</ele>
        <time>2021-05-30T17:02:32.000Z</time>
      </trkpt>
      <trkpt lat="47.18762" lon="-1.48533">
        <ele>79</ele>
        <time>2021-05-30T17:02:34.000Z</time>
      </trkpt>
      <trkpt lat="47.18764" lon="-1.48551">
        <ele>80</ele>
        <time>2021-05-30T17:02:36.000Z</time>
      </trkpt>
      <trkpt lat="47.18764" lon="-1.48569">
        <ele>80</ele>
        <time>2021-05-30T17:02:38.000Z</time>
      </trkpt>
      <trkpt lat="47.18765" lon="-1.48587">
        <ele>79</ele>
        <time>2021-05-30T17:02:40.000Z</time>
      </trkpt>
      <trkpt lat="47.18766" lon="-1.48603">
        <ele>79</ele>
        <time>2021-05-30T17:02:42.000Z</time>
      </trkpt>
      <trkpt lat="47.18764" lon="-1.48629">
        <ele>80</ele>
        <time>2021-05-30T17:02:45.000Z</time>
      </trkpt>
      <trkpt lat="47.18766" lon="-1.48657">
        <ele>81</ele>
        <time>2021-05-30T17:02:48.000Z</time>
      </trkpt>
      <trkpt lat="47.18767" lon="-1.48676">
        <ele>82</ele>
        <time>2021-05-30T17:02:50.000Z</time>
      </trkpt>
      <trkpt lat="47.18769" lon="-1.48694">
        <ele>80</ele>
        <time>2021-05-30T17:02:52.000Z</time>
      </trkpt>
      <trkpt lat="47.18772" lon="-1.48713">
        <ele>79</ele>
        <time>2021-05-30T17:02:54.000Z</time>
      </trkpt>
      <trkpt lat="47.18774" lon="-1.4874">
        <ele>76</ele>
        <time>2021-05-30T17:02:57.000Z</time>
      </trkpt>
      <trkpt lat="47.18775" lon="-1.48758">
        <ele>78</ele>
        <time>2021-05-30T17:02:59.000Z</time>
      </trkpt>
      <trkpt lat="47.18776" lon="-1.48777">
        <ele>78</ele>
        <time>2021-05-30T17:03:01.000Z</time>
      </trkpt>
      <trkpt lat="47.18778" lon="-1.48797">
        <ele>77</ele>
        <time>2021-05-30T17:03:03.000Z</time>
      </trkpt>
      <trkpt lat="47.1878" lon="-1.48817">
        <ele>74</ele>
        <time>2021-05-30T17:03:05.000Z</time>
      </trkpt>
      <trkpt lat="47.18781" lon="-1.48835">
        <ele>73</ele>
        <time>2021-05-30T17:03:07.000Z</time>
      </trkpt>
      <trkpt lat="47.18782" lon="-1.48854">
        <ele>73</ele>
        <time>2021-05-30T17:03:09.000Z</time>
      </trkpt>
      <trkpt lat="47.18784" lon="-1.48872">
        <ele>74</ele>
        <time>2021-05-30T17:03:11.000Z</time>
      </trkpt>
      <trkpt lat="47.18785" lon="-1.48891">
        <ele>74</ele>
        <time>2021-05-30T17:03:13.000Z</time>
      </trkpt>
      <trkpt lat="47.18786" lon="-1.48909">
        <ele>74</ele>
        <time>2021-05-30T17:03:15.000Z</time>
      </trkpt>
      <trkpt lat="47.18789" lon="-1.48937">
        <ele>76</ele>
        <time>2021-05-30T17:03:18.000Z</time>
      </trkpt>
      <trkpt lat="47.1879" lon="-1.48955">
        <ele>76</ele>
        <time>2021-05-30T17:03:20.000Z</time>
      </trkpt>
      <trkpt lat="47.18791" lon="-1.48973">
        <ele>76</ele>
        <time>2021-05-30T17:03:22.000Z</time>
      </trkpt>
      <trkpt lat="47.18792" lon="-1.48991">
        <ele>77</ele>
        <time>2021-05-30T17:03:24.000Z</time>
      </trkpt>
      <trkpt lat="47.18794" lon="-1.49018">
        <ele>76</ele>
        <time>2021-05-30T17:03:27.000Z</time>
      </trkpt>
      <trkpt lat="47.18796" lon="-1.49056">
        <ele>77</ele>
        <time>2021-05-30T17:03:31.000Z</time>
      </trkpt>
      <trkpt lat="47.18798" lon="-1.49082">
        <ele>76</ele>
        <time>2021-05-30T17:03:34.000Z</time>
      </trkpt>
      <trkpt lat="47.188" lon="-1.491">
        <ele>75</ele>
        <time>2021-05-30T17:03:36.000Z</time>
      </trkpt>
      <trkpt lat="47.18803" lon="-1.49127">
        <ele>75</ele>
        <time>2021-05-30T17:03:39.000Z</time>
      </trkpt>
      <trkpt lat="47.18804" lon="-1.49147">
        <ele>75</ele>
        <time>2021-05-30T17:03:41.000Z</time>
      </trkpt>
      <trkpt lat="47.18807" lon="-1.49166">
        <ele>75</ele>
        <time>2021-05-30T17:03:43.000Z</time>
      </trkpt>
      <trkpt lat="47.1881" lon="-1.49186">
        <ele>76</ele>
        <time>2021-05-30T17:03:45.000Z</time>
      </trkpt>
      <trkpt lat="47.18811" lon="-1.49205">
        <ele>76</ele>
        <time>2021-05-30T17:03:47.000Z</time>
      </trkpt>
      <trkpt lat="47.18812" lon="-1.49224">
        <ele>75</ele>
        <time>2021-05-30T17:03:49.000Z</time>
      </trkpt>
      <trkpt lat="47.18812" lon="-1.49244">
        <ele>75</ele>
        <time>2021-05-30T17:03:51.000Z</time>
      </trkpt>
      <trkpt lat="47.18812" lon="-1.49263">
        <ele>75</ele>
        <time>2021-05-30T17:03:53.000Z</time>
      </trkpt>
      <trkpt lat="47.18813" lon="-1.49283">
        <ele>75</ele>
        <time>2021-05-30T17:03:55.000Z</time>
      </trkpt>
      <trkpt lat="47.18814" lon="-1.49302">
        <ele>75</ele>
        <time>2021-05-30T17:03:57.000Z</time>
      </trkpt>
      <trkpt lat="47.18815" lon="-1.49321">
        <ele>74</ele>
        <time>2021-05-30T17:03:59.000Z</time>
      </trkpt>
      <trkpt lat="47.18817" lon="-1.49349">
        <ele>75</ele>
        <time>2021-05-30T17:04:02.000Z</time>
      </trkpt>
      <trkpt lat="47.18819" lon="-1.49366">
        <ele>74</ele>
        <time>2021-05-30T17:04:04.000Z</time>
      </trkpt>
      <trkpt lat="47.18821" lon="-1.49384">
        <ele>74</ele>
        <time>2021-05-30T17:04:06.000Z</time>
      </trkpt>
      <trkpt lat="47.18822" lon="-1.49403">
        <ele>73</ele>
        <time>2021-05-30T17:04:08.000Z</time>
      </trkpt>
      <trkpt lat="47.18822" lon="-1.4942">
        <ele>71</ele>
        <time>2021-05-30T17:04:10.000Z</time>
      </trkpt>
      <trkpt lat="47.18824" lon="-1.49438">
        <ele>74</ele>
        <time>2021-05-30T17:04:12.000Z</time>
      </trkpt>
      <trkpt lat="47.18825" lon="-1.49463">
        <ele>71</ele>
        <time>2021-05-30T17:04:16.000Z</time>
      </trkpt>
      <trkpt lat="47.18824" lon="-1.49478">
        <ele>71</ele>
        <time>2021-05-30T17:04:20.000Z</time>
      </trkpt>
      <trkpt lat="47.18827" lon="-1.49493">
        <ele>71</ele>
        <time>2021-05-30T17:04:34.000Z</time>
      </trkpt>
      <trkpt lat="47.18829" lon="-1.49516">
        <ele>71</ele>
        <time>2021-05-30T17:04:37.000Z</time>
      </trkpt>
      <trkpt lat="47.18829" lon="-1.49535">
        <ele>73</ele>
        <time>2021-05-30T17:04:39.000Z</time>
      </trkpt>
      <trkpt lat="47.18829" lon="-1.49554">
        <ele>74</ele>
        <time>2021-05-30T17:04:41.000Z</time>
      </trkpt>
      <trkpt lat="47.18831" lon="-1.49584">
        <ele>74</ele>
        <time>2021-05-30T17:04:44.000Z</time>
      </trkpt>
      <trkpt lat="47.18833" lon="-1.49605">
        <ele>73</ele>
        <time>2021-05-30T17:04:46.000Z</time>
      </trkpt>
      <trkpt lat="47.18834" lon="-1.49625">
        <ele>73</ele>
        <time>2021-05-30T17:04:48.000Z</time>
      </trkpt>
      <trkpt lat="47.18841" lon="-1.4965">
        <ele>71</ele>
        <time>2021-05-30T17:04:51.000Z</time>
      </trkpt>
      <trkpt lat="47.18844" lon="-1.49671">
        <ele>73</ele>
        <time>2021-05-30T17:04:53.000Z</time>
      </trkpt>
      <trkpt lat="47.18842" lon="-1.49691">
        <ele>74</ele>
        <time>2021-05-30T17:04:55.000Z</time>
      </trkpt>
      <trkpt lat="47.18842" lon="-1.49711">
        <ele>74</ele>
        <time>2021-05-30T17:04:57.000Z</time>
      </trkpt>
      <trkpt lat="47.18844" lon="-1.4973">
        <ele>74</ele>
        <time>2021-05-30T17:04:59.000Z</time>
      </trkpt>
      <trkpt lat="47.18844" lon="-1.49759">
        <ele>75</ele>
        <time>2021-05-30T17:05:02.000Z</time>
      </trkpt>
      <trkpt lat="47.18845" lon="-1.49778">
        <ele>74</ele>
        <time>2021-05-30T17:05:04.000Z</time>
      </trkpt>
      <trkpt lat="47.18846" lon="-1.49797">
        <ele>74</ele>
        <time>2021-05-30T17:05:06.000Z</time>
      </trkpt>
      <trkpt lat="47.18847" lon="-1.49816">
        <ele>74</ele>
        <time>2021-05-30T17:05:08.000Z</time>
      </trkpt>
      <trkpt lat="47.1885" lon="-1.49835">
        <ele>74</ele>
        <time>2021-05-30T17:05:10.000Z</time>
      </trkpt>
      <trkpt lat="47.18851" lon="-1.49854">
        <ele>75</ele>
        <time>2021-05-30T17:05:12.000Z</time>
      </trkpt>
      <trkpt lat="47.18852" lon="-1.49874">
        <ele>71</ele>
        <time>2021-05-30T17:05:14.000Z</time>
      </trkpt>
      <trkpt lat="47.18853" lon="-1.49892">
        <ele>71</ele>
        <time>2021-05-30T17:05:16.000Z</time>
      </trkpt>
      <trkpt lat="47.18854" lon="-1.49912">
        <ele>71</ele>
        <time>2021-05-30T17:05:18.000Z</time>
      </trkpt>
      <trkpt lat="47.18855" lon="-1.49931">
        <ele>71</ele>
        <time>2021-05-30T17:05:20.000Z</time>
      </trkpt>
      <trkpt lat="47.18856" lon="-1.4995">
        <ele>71</ele>
        <time>2021-05-30T17:05:22.000Z</time>
      </trkpt>
      <trkpt lat="47.1886" lon="-1.49977">
        <ele>73</ele>
        <time>2021-05-30T17:05:25.000Z</time>
      </trkpt>
      <trkpt lat="47.18863" lon="-1.49993">
        <ele>74</ele>
        <time>2021-05-30T17:05:27.000Z</time>
      </trkpt>
      <trkpt lat="47.18863" lon="-1.50015">
        <ele>74</ele>
        <time>2021-05-30T17:05:30.000Z</time>
      </trkpt>
      <trkpt lat="47.18863" lon="-1.5003">
        <ele>75</ele>
        <time>2021-05-30T17:05:33.000Z</time>
      </trkpt>
      <trkpt lat="47.18865" lon="-1.50046">
        <ele>74</ele>
        <time>2021-05-30T17:05:38.000Z</time>
      </trkpt>
      <trkpt lat="47.18866" lon="-1.5007">
        <ele>73</ele>
        <time>2021-05-30T17:05:41.000Z</time>
      </trkpt>
      <trkpt lat="47.18866" lon="-1.50089">
        <ele>74</ele>
        <time>2021-05-30T17:05:43.000Z</time>
      </trkpt>
      <trkpt lat="47.18867" lon="-1.50109">
        <ele>74</ele>
        <time>2021-05-30T17:05:45.000Z</time>
      </trkpt>
      <trkpt lat="47.18867" lon="-1.5013">
        <ele>74</ele>
        <time>2021-05-30T17:05:47.000Z</time>
      </trkpt>
      <trkpt lat="47.18869" lon="-1.5015">
        <ele>72</ele>
        <time>2021-05-30T17:05:49.000Z</time>
      </trkpt>
      <trkpt lat="47.1887" lon="-1.50173">
        <ele>73</ele>
        <time>2021-05-30T17:05:51.000Z</time>
      </trkpt>
      <trkpt lat="47.18872" lon="-1.5019">
        <ele>72</ele>
        <time>2021-05-30T17:05:53.000Z</time>
      </trkpt>
      <trkpt lat="47.18873" lon="-1.50208">
        <ele>72</ele>
        <time>2021-05-30T17:05:55.000Z</time>
      </trkpt>
      <trkpt lat="47.18874" lon="-1.50228">
        <ele>73</ele>
        <time>2021-05-30T17:05:57.000Z</time>
      </trkpt>
      <trkpt lat="47.18875" lon="-1.50246">
        <ele>72</ele>
        <time>2021-05-30T17:05:59.000Z</time>
      </trkpt>
      <trkpt lat="47.18877" lon="-1.50266">
        <ele>70</ele>
        <time>2021-05-30T17:06:01.000Z</time>
      </trkpt>
      <trkpt lat="47.18879" lon="-1.50283">
        <ele>72</ele>
        <time>2021-05-30T17:06:03.000Z</time>
      </trkpt>
      <trkpt lat="47.1888" lon="-1.50303">
        <ele>74</ele>
        <time>2021-05-30T17:06:05.000Z</time>
      </trkpt>
      <trkpt lat="47.18881" lon="-1.50322">
        <ele>74</ele>
        <time>2021-05-30T17:06:07.000Z</time>
      </trkpt>
      <trkpt lat="47.18882" lon="-1.50339">
        <ele>74</ele>
        <time>2021-05-30T17:06:09.000Z</time>
      </trkpt>
      <trkpt lat="47.18883" lon="-1.50361">
        <ele>74</ele>
        <time>2021-05-30T17:06:12.000Z</time>
      </trkpt>
      <trkpt lat="47.18883" lon="-1.50379">
        <ele>73</ele>
        <time>2021-05-30T17:06:15.000Z</time>
      </trkpt>
      <trkpt lat="47.18884" lon="-1.50398">
        <ele>74</ele>
        <time>2021-05-30T17:06:18.000Z</time>
      </trkpt>
      <trkpt lat="47.18887" lon="-1.50427">
        <ele>73</ele>
        <time>2021-05-30T17:06:21.000Z</time>
      </trkpt>
      <trkpt lat="47.18888" lon="-1.50448">
        <ele>73</ele>
        <time>2021-05-30T17:06:23.000Z</time>
      </trkpt>
      <trkpt lat="47.18889" lon="-1.50469">
        <ele>73</ele>
        <time>2021-05-30T17:06:25.000Z</time>
      </trkpt>
      <trkpt lat="47.18891" lon="-1.50498">
        <ele>73</ele>
        <time>2021-05-30T17:06:28.000Z</time>
      </trkpt>
      <trkpt lat="47.18892" lon="-1.50516">
        <ele>73</ele>
        <time>2021-05-30T17:06:30.000Z</time>
      </trkpt>
      <trkpt lat="47.18893" lon="-1.50535">
        <ele>73</ele>
        <time>2021-05-30T17:06:32.000Z</time>
      </trkpt>
      <trkpt lat="47.18895" lon="-1.50554">
        <ele>73</ele>
        <time>2021-05-30T17:06:34.000Z</time>
      </trkpt>
      <trkpt lat="47.18896" lon="-1.50583">
        <ele>72</ele>
        <time>2021-05-30T17:06:37.000Z</time>
      </trkpt>
      <trkpt lat="47.18898" lon="-1.50611">
        <ele>72</ele>
        <time>2021-05-30T17:06:40.000Z</time>
      </trkpt>
      <trkpt lat="47.18898" lon="-1.5063">
        <ele>73</ele>
        <time>2021-05-30T17:06:42.000Z</time>
      </trkpt>
      <trkpt lat="47.189" lon="-1.50648">
        <ele>72</ele>
        <time>2021-05-30T17:06:44.000Z</time>
      </trkpt>
      <trkpt lat="47.18902" lon="-1.50686">
        <ele>73</ele>
        <time>2021-05-30T17:06:48.000Z</time>
      </trkpt>
      <trkpt lat="47.18903" lon="-1.50713">
        <ele>74</ele>
        <time>2021-05-30T17:06:51.000Z</time>
      </trkpt>
      <trkpt lat="47.18904" lon="-1.50731">
        <ele>74</ele>
        <time>2021-05-30T17:06:53.000Z</time>
      </trkpt>
      <trkpt lat="47.18906" lon="-1.5075">
        <ele>73</ele>
        <time>2021-05-30T17:06:55.000Z</time>
      </trkpt>
      <trkpt lat="47.18907" lon="-1.50777">
        <ele>73</ele>
        <time>2021-05-30T17:06:58.000Z</time>
      </trkpt>
      <trkpt lat="47.18909" lon="-1.50794">
        <ele>74</ele>
        <time>2021-05-30T17:07:00.000Z</time>
      </trkpt>
      <trkpt lat="47.18912" lon="-1.50813">
        <ele>75</ele>
        <time>2021-05-30T17:07:02.000Z</time>
      </trkpt>
      <trkpt lat="47.18913" lon="-1.50831">
        <ele>74</ele>
        <time>2021-05-30T17:07:04.000Z</time>
      </trkpt>
      <trkpt lat="47.18914" lon="-1.50849">
        <ele>72</ele>
        <time>2021-05-30T17:07:06.000Z</time>
      </trkpt>
      <trkpt lat="47.18913" lon="-1.50866">
        <ele>74</ele>
        <time>2021-05-30T17:07:08.000Z</time>
      </trkpt>
      <trkpt lat="47.18914" lon="-1.50881">
        <ele>73</ele>
        <time>2021-05-30T17:07:10.000Z</time>
      </trkpt>
      <trkpt lat="47.18917" lon="-1.50905">
        <ele>73</ele>
        <time>2021-05-30T17:07:13.000Z</time>
      </trkpt>
      <trkpt lat="47.18919" lon="-1.50922">
        <ele>72</ele>
        <time>2021-05-30T17:07:16.000Z</time>
      </trkpt>
      <trkpt lat="47.18918" lon="-1.50935">
        <ele>69</ele>
        <time>2021-05-30T17:07:22.000Z</time>
      </trkpt>
      <trkpt lat="47.18918" lon="-1.50951">
        <ele>70</ele>
        <time>2021-05-30T17:07:28.000Z</time>
      </trkpt>
      <trkpt lat="47.18917" lon="-1.50967">
        <ele>71</ele>
        <time>2021-05-30T17:07:31.000Z</time>
      </trkpt>
      <trkpt lat="47.18919" lon="-1.50985">
        <ele>72</ele>
        <time>2021-05-30T17:07:33.000Z</time>
      </trkpt>
      <trkpt lat="47.18923" lon="-1.51019">
        <ele>71</ele>
        <time>2021-05-30T17:07:36.000Z</time>
      </trkpt>
      <trkpt lat="47.18925" lon="-1.51041">
        <ele>70</ele>
        <time>2021-05-30T17:07:38.000Z</time>
      </trkpt>
      <trkpt lat="47.18927" lon="-1.51063">
        <ele>71</ele>
        <time>2021-05-30T17:07:40.000Z</time>
      </trkpt>
      <trkpt lat="47.18929" lon="-1.51098">
        <ele>70</ele>
        <time>2021-05-30T17:07:43.000Z</time>
      </trkpt>
      <trkpt lat="47.18929" lon="-1.51124">
        <ele>68</ele>
        <time>2021-05-30T17:07:45.000Z</time>
      </trkpt>
      <trkpt lat="47.18931" lon="-1.51146">
        <ele>69</ele>
        <time>2021-05-30T17:07:47.000Z</time>
      </trkpt>
      <trkpt lat="47.18933" lon="-1.51169">
        <ele>69</ele>
        <time>2021-05-30T17:07:49.000Z</time>
      </trkpt>
      <trkpt lat="47.18935" lon="-1.51192">
        <ele>69</ele>
        <time>2021-05-30T17:07:51.000Z</time>
      </trkpt>
      <trkpt lat="47.18936" lon="-1.51214">
        <ele>69</ele>
        <time>2021-05-30T17:07:53.000Z</time>
      </trkpt>
      <trkpt lat="47.18941" lon="-1.51257">
        <ele>71</ele>
        <time>2021-05-30T17:07:57.000Z</time>
      </trkpt>
      <trkpt lat="47.18943" lon="-1.51291">
        <ele>71</ele>
        <time>2021-05-30T17:08:00.000Z</time>
      </trkpt>
      <trkpt lat="47.18945" lon="-1.51316">
        <ele>71</ele>
        <time>2021-05-30T17:08:02.000Z</time>
      </trkpt>
      <trkpt lat="47.18948" lon="-1.51339">
        <ele>72</ele>
        <time>2021-05-30T17:08:04.000Z</time>
      </trkpt>
      <trkpt lat="47.18947" lon="-1.51372">
        <ele>71</ele>
        <time>2021-05-30T17:08:07.000Z</time>
      </trkpt>
      <trkpt lat="47.18946" lon="-1.51392">
        <ele>72</ele>
        <time>2021-05-30T17:08:09.000Z</time>
      </trkpt>
      <trkpt lat="47.1895" lon="-1.51415">
        <ele>71</ele>
        <time>2021-05-30T17:08:11.000Z</time>
      </trkpt>
      <trkpt lat="47.18951" lon="-1.51438">
        <ele>71</ele>
        <time>2021-05-30T17:08:13.000Z</time>
      </trkpt>
      <trkpt lat="47.18952" lon="-1.5146">
        <ele>72</ele>
        <time>2021-05-30T17:08:15.000Z</time>
      </trkpt>
      <trkpt lat="47.18955" lon="-1.51481">
        <ele>73</ele>
        <time>2021-05-30T17:08:17.000Z</time>
      </trkpt>
      <trkpt lat="47.18957" lon="-1.51505">
        <ele>73</ele>
        <time>2021-05-30T17:08:19.000Z</time>
      </trkpt>
      <trkpt lat="47.18961" lon="-1.51538">
        <ele>73</ele>
        <time>2021-05-30T17:08:22.000Z</time>
      </trkpt>
      <trkpt lat="47.18962" lon="-1.5156">
        <ele>72</ele>
        <time>2021-05-30T17:08:24.000Z</time>
      </trkpt>
      <trkpt lat="47.18964" lon="-1.51583">
        <ele>72</ele>
        <time>2021-05-30T17:08:26.000Z</time>
      </trkpt>
      <trkpt lat="47.18964" lon="-1.51606">
        <ele>71</ele>
        <time>2021-05-30T17:08:28.000Z</time>
      </trkpt>
      <trkpt lat="47.18963" lon="-1.51627">
        <ele>71</ele>
        <time>2021-05-30T17:08:30.000Z</time>
      </trkpt>
      <trkpt lat="47.18963" lon="-1.51648">
        <ele>71</ele>
        <time>2021-05-30T17:08:32.000Z</time>
      </trkpt>
      <trkpt lat="47.18967" lon="-1.5167">
        <ele>72</ele>
        <time>2021-05-30T17:08:34.000Z</time>
      </trkpt>
      <trkpt lat="47.1897" lon="-1.51691">
        <ele>72</ele>
        <time>2021-05-30T17:08:36.000Z</time>
      </trkpt>
      <trkpt lat="47.18975" lon="-1.51723">
        <ele>73</ele>
        <time>2021-05-30T17:08:39.000Z</time>
      </trkpt>
      <trkpt lat="47.18976" lon="-1.51758">
        <ele>71</ele>
        <time>2021-05-30T17:08:42.000Z</time>
      </trkpt>
      <trkpt lat="47.18975" lon="-1.51777">
        <ele>73</ele>
        <time>2021-05-30T17:08:44.000Z</time>
      </trkpt>
      <trkpt lat="47.18976" lon="-1.51799">
        <ele>72</ele>
        <time>2021-05-30T17:08:46.000Z</time>
      </trkpt>
      <trkpt lat="47.18976" lon="-1.5182">
        <ele>72</ele>
        <time>2021-05-30T17:08:48.000Z</time>
      </trkpt>
      <trkpt lat="47.18979" lon="-1.51841">
        <ele>70</ele>
        <time>2021-05-30T17:08:50.000Z</time>
      </trkpt>
      <trkpt lat="47.18985" lon="-1.51862">
        <ele>69</ele>
        <time>2021-05-30T17:08:52.000Z</time>
      </trkpt>
      <trkpt lat="47.18989" lon="-1.51881">
        <ele>70</ele>
        <time>2021-05-30T17:08:54.000Z</time>
      </trkpt>
      <trkpt lat="47.18992" lon="-1.51901">
        <ele>70</ele>
        <time>2021-05-30T17:08:56.000Z</time>
      </trkpt>
      <trkpt lat="47.18999" lon="-1.51919">
        <ele>65</ele>
        <time>2021-05-30T17:08:58.000Z</time>
      </trkpt>
      <trkpt lat="47.19005" lon="-1.51938">
        <ele>66</ele>
        <time>2021-05-30T17:09:00.000Z</time>
      </trkpt>
      <trkpt lat="47.19009" lon="-1.51961">
        <ele>68</ele>
        <time>2021-05-30T17:09:02.000Z</time>
      </trkpt>
      <trkpt lat="47.19014" lon="-1.51982">
        <ele>68</ele>
        <time>2021-05-30T17:09:04.000Z</time>
      </trkpt>
      <trkpt lat="47.1902" lon="-1.52004">
        <ele>66</ele>
        <time>2021-05-30T17:09:06.000Z</time>
      </trkpt>
      <trkpt lat="47.19027" lon="-1.52023">
        <ele>65</ele>
        <time>2021-05-30T17:09:08.000Z</time>
      </trkpt>
      <trkpt lat="47.19036" lon="-1.52039">
        <ele>65</ele>
        <time>2021-05-30T17:09:10.000Z</time>
      </trkpt>
      <trkpt lat="47.19046" lon="-1.52069">
        <ele>67</ele>
        <time>2021-05-30T17:09:13.000Z</time>
      </trkpt>
      <trkpt lat="47.19054" lon="-1.52098">
        <ele>67</ele>
        <time>2021-05-30T17:09:16.000Z</time>
      </trkpt>
      <trkpt lat="47.19066" lon="-1.52136">
        <ele>68</ele>
        <time>2021-05-30T17:09:20.000Z</time>
      </trkpt>
      <trkpt lat="47.19071" lon="-1.52156">
        <ele>67</ele>
        <time>2021-05-30T17:09:22.000Z</time>
      </trkpt>
      <trkpt lat="47.19076" lon="-1.52177">
        <ele>66</ele>
        <time>2021-05-30T17:09:24.000Z</time>
      </trkpt>
      <trkpt lat="47.19085" lon="-1.52207">
        <ele>67</ele>
        <time>2021-05-30T17:09:27.000Z</time>
      </trkpt>
      <trkpt lat="47.19091" lon="-1.52225">
        <ele>66</ele>
        <time>2021-05-30T17:09:29.000Z</time>
      </trkpt>
      <trkpt lat="47.19097" lon="-1.52244">
        <ele>67</ele>
        <time>2021-05-30T17:09:31.000Z</time>
      </trkpt>
      <trkpt lat="47.19103" lon="-1.52262">
        <ele>68</ele>
        <time>2021-05-30T17:09:33.000Z</time>
      </trkpt>
      <trkpt lat="47.1911" lon="-1.52278">
        <ele>68</ele>
        <time>2021-05-30T17:09:35.000Z</time>
      </trkpt>
      <trkpt lat="47.19116" lon="-1.52295">
        <ele>67</ele>
        <time>2021-05-30T17:09:37.000Z</time>
      </trkpt>
      <trkpt lat="47.19122" lon="-1.52311">
        <ele>67</ele>
        <time>2021-05-30T17:09:39.000Z</time>
      </trkpt>
      <trkpt lat="47.19127" lon="-1.52327">
        <ele>68</ele>
        <time>2021-05-30T17:09:41.000Z</time>
      </trkpt>
      <trkpt lat="47.19135" lon="-1.52349">
        <ele>68</ele>
        <time>2021-05-30T17:09:44.000Z</time>
      </trkpt>
      <trkpt lat="47.1914" lon="-1.52363">
        <ele>67</ele>
        <time>2021-05-30T17:09:46.000Z</time>
      </trkpt>
      <trkpt lat="47.19143" lon="-1.52375">
        <ele>67</ele>
        <time>2021-05-30T17:09:48.000Z</time>
      </trkpt>
      <trkpt lat="47.19151" lon="-1.52395">
        <ele>68</ele>
        <time>2021-05-30T17:09:52.000Z</time>
      </trkpt>
      <trkpt lat="47.19157" lon="-1.5241">
        <ele>66</ele>
        <time>2021-05-30T17:09:54.000Z</time>
      </trkpt>
      <trkpt lat="47.19163" lon="-1.52426">
        <ele>65</ele>
        <time>2021-05-30T17:09:56.000Z</time>
      </trkpt>
      <trkpt lat="47.19169" lon="-1.52445">
        <ele>64</ele>
        <time>2021-05-30T17:09:58.000Z</time>
      </trkpt>
      <trkpt lat="47.19179" lon="-1.52472">
        <ele>64</ele>
        <time>2021-05-30T17:10:01.000Z</time>
      </trkpt>
      <trkpt lat="47.19187" lon="-1.52488">
        <ele>65</ele>
        <time>2021-05-30T17:10:03.000Z</time>
      </trkpt>
      <trkpt lat="47.19194" lon="-1.52507">
        <ele>64</ele>
        <time>2021-05-30T17:10:05.000Z</time>
      </trkpt>
      <trkpt lat="47.19198" lon="-1.52527">
        <ele>65</ele>
        <time>2021-05-30T17:10:07.000Z</time>
      </trkpt>
      <trkpt lat="47.19203" lon="-1.52545">
        <ele>65</ele>
        <time>2021-05-30T17:10:09.000Z</time>
      </trkpt>
      <trkpt lat="47.19208" lon="-1.52564">
        <ele>64</ele>
        <time>2021-05-30T17:10:11.000Z</time>
      </trkpt>
      <trkpt lat="47.19214" lon="-1.52583">
        <ele>64</ele>
        <time>2021-05-30T17:10:13.000Z</time>
      </trkpt>
      <trkpt lat="47.1922" lon="-1.52602">
        <ele>64</ele>
        <time>2021-05-30T17:10:15.000Z</time>
      </trkpt>
      <trkpt lat="47.19227" lon="-1.52621">
        <ele>63</ele>
        <time>2021-05-30T17:10:17.000Z</time>
      </trkpt>
      <trkpt lat="47.19234" lon="-1.52639">
        <ele>63</ele>
        <time>2021-05-30T17:10:19.000Z</time>
      </trkpt>
      <trkpt lat="47.1924" lon="-1.52658">
        <ele>63</ele>
        <time>2021-05-30T17:10:21.000Z</time>
      </trkpt>
      <trkpt lat="47.19247" lon="-1.52675">
        <ele>63</ele>
        <time>2021-05-30T17:10:23.000Z</time>
      </trkpt>
      <trkpt lat="47.19253" lon="-1.5269">
        <ele>64</ele>
        <time>2021-05-30T17:10:25.000Z</time>
      </trkpt>
      <trkpt lat="47.1926" lon="-1.52707">
        <ele>64</ele>
        <time>2021-05-30T17:10:27.000Z</time>
      </trkpt>
      <trkpt lat="47.19264" lon="-1.52727">
        <ele>65</ele>
        <time>2021-05-30T17:10:29.000Z</time>
      </trkpt>
      <trkpt lat="47.19274" lon="-1.52754">
        <ele>64</ele>
        <time>2021-05-30T17:10:32.000Z</time>
      </trkpt>
      <trkpt lat="47.19283" lon="-1.52775">
        <ele>64</ele>
        <time>2021-05-30T17:10:34.000Z</time>
      </trkpt>
      <trkpt lat="47.19288" lon="-1.52798">
        <ele>65</ele>
        <time>2021-05-30T17:10:37.000Z</time>
      </trkpt>
      <trkpt lat="47.19293" lon="-1.52817">
        <ele>65</ele>
        <time>2021-05-30T17:10:39.000Z</time>
      </trkpt>
      <trkpt lat="47.19299" lon="-1.52834">
        <ele>64</ele>
        <time>2021-05-30T17:10:41.000Z</time>
      </trkpt>
      <trkpt lat="47.19305" lon="-1.52852">
        <ele>64</ele>
        <time>2021-05-30T17:10:43.000Z</time>
      </trkpt>
      <trkpt lat="47.19311" lon="-1.52871">
        <ele>63</ele>
        <time>2021-05-30T17:10:45.000Z</time>
      </trkpt>
      <trkpt lat="47.19321" lon="-1.52888">
        <ele>64</ele>
        <time>2021-05-30T17:10:47.000Z</time>
      </trkpt>
      <trkpt lat="47.19329" lon="-1.52906">
        <ele>64</ele>
        <time>2021-05-30T17:10:49.000Z</time>
      </trkpt>
      <trkpt lat="47.19335" lon="-1.52928">
        <ele>63</ele>
        <time>2021-05-30T17:10:51.000Z</time>
      </trkpt>
      <trkpt lat="47.19341" lon="-1.52948">
        <ele>61</ele>
        <time>2021-05-30T17:10:53.000Z</time>
      </trkpt>
      <trkpt lat="47.19345" lon="-1.5297">
        <ele>60</ele>
        <time>2021-05-30T17:10:55.000Z</time>
      </trkpt>
      <trkpt lat="47.19351" lon="-1.52991">
        <ele>61</ele>
        <time>2021-05-30T17:10:57.000Z</time>
      </trkpt>
      <trkpt lat="47.19358" lon="-1.5301">
        <ele>61</ele>
        <time>2021-05-30T17:10:59.000Z</time>
      </trkpt>
      <trkpt lat="47.19372" lon="-1.53051">
        <ele>60</ele>
        <time>2021-05-30T17:11:03.000Z</time>
      </trkpt>
      <trkpt lat="47.19378" lon="-1.5307">
        <ele>60</ele>
        <time>2021-05-30T17:11:05.000Z</time>
      </trkpt>
      <trkpt lat="47.19386" lon="-1.53086">
        <ele>65</ele>
        <time>2021-05-30T17:11:07.000Z</time>
      </trkpt>
      <trkpt lat="47.1939" lon="-1.53104">
        <ele>64</ele>
        <time>2021-05-30T17:11:09.000Z</time>
      </trkpt>
      <trkpt lat="47.19399" lon="-1.53125">
        <ele>60</ele>
        <time>2021-05-30T17:11:11.000Z</time>
      </trkpt>
      <trkpt lat="47.19403" lon="-1.53143">
        <ele>60</ele>
        <time>2021-05-30T17:11:13.000Z</time>
      </trkpt>
      <trkpt lat="47.19412" lon="-1.53171">
        <ele>60</ele>
        <time>2021-05-30T17:11:16.000Z</time>
      </trkpt>
      <trkpt lat="47.19418" lon="-1.5319">
        <ele>60</ele>
        <time>2021-05-30T17:11:18.000Z</time>
      </trkpt>
      <trkpt lat="47.19427" lon="-1.53218">
        <ele>60</ele>
        <time>2021-05-30T17:11:21.000Z</time>
      </trkpt>
      <trkpt lat="47.19437" lon="-1.53244">
        <ele>61</ele>
        <time>2021-05-30T17:11:24.000Z</time>
      </trkpt>
      <trkpt lat="47.19443" lon="-1.53262">
        <ele>61</ele>
        <time>2021-05-30T17:11:26.000Z</time>
      </trkpt>
      <trkpt lat="47.1945" lon="-1.53278">
        <ele>61</ele>
        <time>2021-05-30T17:11:28.000Z</time>
      </trkpt>
      <trkpt lat="47.19459" lon="-1.53304">
        <ele>61</ele>
        <time>2021-05-30T17:11:31.000Z</time>
      </trkpt>
      <trkpt lat="47.19466" lon="-1.53321">
        <ele>61</ele>
        <time>2021-05-30T17:11:33.000Z</time>
      </trkpt>
      <trkpt lat="47.19472" lon="-1.53337">
        <ele>62</ele>
        <time>2021-05-30T17:11:35.000Z</time>
      </trkpt>
      <trkpt lat="47.19478" lon="-1.53354">
        <ele>61</ele>
        <time>2021-05-30T17:11:37.000Z</time>
      </trkpt>
      <trkpt lat="47.19485" lon="-1.53372">
        <ele>61</ele>
        <time>2021-05-30T17:11:39.000Z</time>
      </trkpt>
      <trkpt lat="47.19496" lon="-1.53406">
        <ele>62</ele>
        <time>2021-05-30T17:11:43.000Z</time>
      </trkpt>
      <trkpt lat="47.19504" lon="-1.53423">
        <ele>61</ele>
        <time>2021-05-30T17:11:45.000Z</time>
      </trkpt>
      <trkpt lat="47.1951" lon="-1.53443">
        <ele>61</ele>
        <time>2021-05-30T17:11:47.000Z</time>
      </trkpt>
      <trkpt lat="47.19519" lon="-1.53468">
        <ele>62</ele>
        <time>2021-05-30T17:11:50.000Z</time>
      </trkpt>
      <trkpt lat="47.19524" lon="-1.53485">
        <ele>59</ele>
        <time>2021-05-30T17:11:52.000Z</time>
      </trkpt>
      <trkpt lat="47.19528" lon="-1.53502">
        <ele>59</ele>
        <time>2021-05-30T17:11:54.000Z</time>
      </trkpt>
      <trkpt lat="47.19533" lon="-1.53521">
        <ele>61</ele>
        <time>2021-05-30T17:11:56.000Z</time>
      </trkpt>
      <trkpt lat="47.19541" lon="-1.53536">
        <ele>62</ele>
        <time>2021-05-30T17:11:58.000Z</time>
      </trkpt>
      <trkpt lat="47.19546" lon="-1.53551">
        <ele>62</ele>
        <time>2021-05-30T17:12:00.000Z</time>
      </trkpt>
      <trkpt lat="47.19551" lon="-1.53568">
        <ele>63</ele>
        <time>2021-05-30T17:12:02.000Z</time>
      </trkpt>
      <trkpt lat="47.19557" lon="-1.53579">
        <ele>63</ele>
        <time>2021-05-30T17:12:04.000Z</time>
      </trkpt>
      <trkpt lat="47.19562" lon="-1.53595">
        <ele>63</ele>
        <time>2021-05-30T17:12:08.000Z</time>
      </trkpt>
      <trkpt lat="47.19566" lon="-1.5361">
        <ele>62</ele>
        <time>2021-05-30T17:12:18.000Z</time>
      </trkpt>
      <trkpt lat="47.19569" lon="-1.53623">
        <ele>62</ele>
        <time>2021-05-30T17:12:23.000Z</time>
      </trkpt>
      <trkpt lat="47.19573" lon="-1.53636">
        <ele>62</ele>
        <time>2021-05-30T17:12:25.000Z</time>
      </trkpt>
      <trkpt lat="47.19579" lon="-1.53648">
        <ele>62</ele>
        <time>2021-05-30T17:12:27.000Z</time>
      </trkpt>
      <trkpt lat="47.19584" lon="-1.53664">
        <ele>63</ele>
        <time>2021-05-30T17:12:29.000Z</time>
      </trkpt>
      <trkpt lat="47.19587" lon="-1.53679">
        <ele>64</ele>
        <time>2021-05-30T17:12:31.000Z</time>
      </trkpt>
      <trkpt lat="47.19591" lon="-1.53696">
        <ele>63</ele>
        <time>2021-05-30T17:12:33.000Z</time>
      </trkpt>
      <trkpt lat="47.19596" lon="-1.53715">
        <ele>64</ele>
        <time>2021-05-30T17:12:35.000Z</time>
      </trkpt>
      <trkpt lat="47.19601" lon="-1.53733">
        <ele>64</ele>
        <time>2021-05-30T17:12:37.000Z</time>
      </trkpt>
      <trkpt lat="47.19604" lon="-1.53751">
        <ele>61</ele>
        <time>2021-05-30T17:12:39.000Z</time>
      </trkpt>
      <trkpt lat="47.19611" lon="-1.53776">
        <ele>60</ele>
        <time>2021-05-30T17:12:42.000Z</time>
      </trkpt>
      <trkpt lat="47.19616" lon="-1.53791">
        <ele>61</ele>
        <time>2021-05-30T17:12:44.000Z</time>
      </trkpt>
      <trkpt lat="47.19622" lon="-1.53809">
        <ele>59</ele>
        <time>2021-05-30T17:12:46.000Z</time>
      </trkpt>
      <trkpt lat="47.19627" lon="-1.53825">
        <ele>58</ele>
        <time>2021-05-30T17:12:48.000Z</time>
      </trkpt>
      <trkpt lat="47.19632" lon="-1.53839">
        <ele>59</ele>
        <time>2021-05-30T17:12:50.000Z</time>
      </trkpt>
      <trkpt lat="47.19641" lon="-1.53855">
        <ele>60</ele>
        <time>2021-05-30T17:12:52.000Z</time>
      </trkpt>
      <trkpt lat="47.19652" lon="-1.53878">
        <ele>60</ele>
        <time>2021-05-30T17:12:55.000Z</time>
      </trkpt>
      <trkpt lat="47.19658" lon="-1.53891">
        <ele>60</ele>
        <time>2021-05-30T17:12:57.000Z</time>
      </trkpt>
      <trkpt lat="47.19664" lon="-1.53904">
        <ele>62</ele>
        <time>2021-05-30T17:12:59.000Z</time>
      </trkpt>
      <trkpt lat="47.19669" lon="-1.53918">
        <ele>62</ele>
        <time>2021-05-30T17:13:01.000Z</time>
      </trkpt>
      <trkpt lat="47.19679" lon="-1.53941">
        <ele>62</ele>
        <time>2021-05-30T17:13:04.000Z</time>
      </trkpt>
      <trkpt lat="47.19686" lon="-1.53956">
        <ele>62</ele>
        <time>2021-05-30T17:13:06.000Z</time>
      </trkpt>
      <trkpt lat="47.19693" lon="-1.53971">
        <ele>62</ele>
        <time>2021-05-30T17:13:08.000Z</time>
      </trkpt>
      <trkpt lat="47.19699" lon="-1.53987">
        <ele>63</ele>
        <time>2021-05-30T17:13:10.000Z</time>
      </trkpt>
      <trkpt lat="47.19711" lon="-1.54009">
        <ele>63</ele>
        <time>2021-05-30T17:13:13.000Z</time>
      </trkpt>
      <trkpt lat="47.19721" lon="-1.54027">
        <ele>61</ele>
        <time>2021-05-30T17:13:15.000Z</time>
      </trkpt>
      <trkpt lat="47.19728" lon="-1.54046">
        <ele>61</ele>
        <time>2021-05-30T17:13:17.000Z</time>
      </trkpt>
      <trkpt lat="47.19735" lon="-1.54064">
        <ele>60</ele>
        <time>2021-05-30T17:13:19.000Z</time>
      </trkpt>
      <trkpt lat="47.19744" lon="-1.5408">
        <ele>59</ele>
        <time>2021-05-30T17:13:21.000Z</time>
      </trkpt>
      <trkpt lat="47.19752" lon="-1.54092">
        <ele>59</ele>
        <time>2021-05-30T17:13:23.000Z</time>
      </trkpt>
      <trkpt lat="47.19762" lon="-1.54103">
        <ele>58</ele>
        <time>2021-05-30T17:13:25.000Z</time>
      </trkpt>
      <trkpt lat="47.19774" lon="-1.54112">
        <ele>58</ele>
        <time>2021-05-30T17:13:27.000Z</time>
      </trkpt>
      <trkpt lat="47.19787" lon="-1.54117">
        <ele>57</ele>
        <time>2021-05-30T17:13:29.000Z</time>
      </trkpt>
      <trkpt lat="47.19801" lon="-1.54121">
        <ele>57</ele>
        <time>2021-05-30T17:13:31.000Z</time>
      </trkpt>
      <trkpt lat="47.19811" lon="-1.54166">
        <ele>68</ele>
        <time>2021-05-30T17:13:37.004Z</time>
      </trkpt>
      <trkpt lat="47.19806" lon="-1.54179">
        <ele>59</ele>
        <time>2021-05-30T17:13:39.000Z</time>
      </trkpt>
      <trkpt lat="47.19798" lon="-1.542">
        <ele>57</ele>
        <time>2021-05-30T17:13:41.000Z</time>
      </trkpt>
      <trkpt lat="47.19794" lon="-1.54213">
        <ele>57</ele>
        <time>2021-05-30T17:13:42.000Z</time>
      </trkpt>
      <trkpt lat="47.1979" lon="-1.54225">
        <ele>56</ele>
        <time>2021-05-30T17:13:43.000Z</time>
      </trkpt>
      <trkpt lat="47.19786" lon="-1.54237">
        <ele>57</ele>
        <time>2021-05-30T17:13:44.000Z</time>
      </trkpt>
      <trkpt lat="47.19775" lon="-1.54258">
        <ele>57</ele>
        <time>2021-05-30T17:13:46.000Z</time>
      </trkpt>
      <trkpt lat="47.19768" lon="-1.54267">
        <ele>57</ele>
        <time>2021-05-30T17:13:47.000Z</time>
      </trkpt>
      <trkpt lat="47.19754" lon="-1.54284">
        <ele>56</ele>
        <time>2021-05-30T17:13:49.000Z</time>
      </trkpt>
      <trkpt lat="47.19739" lon="-1.543">
        <ele>58</ele>
        <time>2021-05-30T17:13:51.000Z</time>
      </trkpt>
      <trkpt lat="47.19717" lon="-1.5432">
        <ele>57</ele>
        <time>2021-05-30T17:13:54.000Z</time>
      </trkpt>
      <trkpt lat="47.19702" lon="-1.54333">
        <ele>55</ele>
        <time>2021-05-30T17:13:56.000Z</time>
      </trkpt>
      <trkpt lat="47.19693" lon="-1.54338">
        <ele>53</ele>
        <time>2021-05-30T17:13:57.000Z</time>
      </trkpt>
      <trkpt lat="47.19683" lon="-1.54341">
        <ele>52</ele>
        <time>2021-05-30T17:13:58.000Z</time>
      </trkpt>
      <trkpt lat="47.19662" lon="-1.54358">
        <ele>53</ele>
        <time>2021-05-30T17:14:01.000Z</time>
      </trkpt>
      <trkpt lat="47.1965" lon="-1.54369">
        <ele>51</ele>
        <time>2021-05-30T17:14:03.000Z</time>
      </trkpt>
      <trkpt lat="47.19639" lon="-1.54382">
        <ele>50</ele>
        <time>2021-05-30T17:14:05.000Z</time>
      </trkpt>
      <trkpt lat="47.19625" lon="-1.54393">
        <ele>52</ele>
        <time>2021-05-30T17:14:07.000Z</time>
      </trkpt>
      <trkpt lat="47.19614" lon="-1.54406">
        <ele>53</ele>
        <time>2021-05-30T17:14:09.000Z</time>
      </trkpt>
      <trkpt lat="47.19603" lon="-1.5442">
        <ele>51</ele>
        <time>2021-05-30T17:14:11.000Z</time>
      </trkpt>
      <trkpt lat="47.19588" lon="-1.54433">
        <ele>53</ele>
        <time>2021-05-30T17:14:13.000Z</time>
      </trkpt>
      <trkpt lat="47.19576" lon="-1.54443">
        <ele>54</ele>
        <time>2021-05-30T17:14:15.000Z</time>
      </trkpt>
      <trkpt lat="47.19559" lon="-1.54458">
        <ele>54</ele>
        <time>2021-05-30T17:14:18.000Z</time>
      </trkpt>
      <trkpt lat="47.19548" lon="-1.54467">
        <ele>53</ele>
        <time>2021-05-30T17:14:20.000Z</time>
      </trkpt>
      <trkpt lat="47.19537" lon="-1.54476">
        <ele>54</ele>
        <time>2021-05-30T17:14:22.000Z</time>
      </trkpt>
      <trkpt lat="47.19524" lon="-1.5449">
        <ele>55</ele>
        <time>2021-05-30T17:14:24.000Z</time>
      </trkpt>
      <trkpt lat="47.19505" lon="-1.54507">
        <ele>54</ele>
        <time>2021-05-30T17:14:27.000Z</time>
      </trkpt>
      <trkpt lat="47.19494" lon="-1.54518">
        <ele>53</ele>
        <time>2021-05-30T17:14:29.000Z</time>
      </trkpt>
      <trkpt lat="47.19486" lon="-1.54529">
        <ele>54</ele>
        <time>2021-05-30T17:14:31.000Z</time>
      </trkpt>
      <trkpt lat="47.19473" lon="-1.54553">
        <ele>55</ele>
        <time>2021-05-30T17:14:34.000Z</time>
      </trkpt>
      <trkpt lat="47.19471" lon="-1.54571">
        <ele>54</ele>
        <time>2021-05-30T17:14:36.000Z</time>
      </trkpt>
      <trkpt lat="47.19472" lon="-1.54604">
        <ele>52</ele>
        <time>2021-05-30T17:14:39.000Z</time>
      </trkpt>
      <trkpt lat="47.19463" lon="-1.54621">
        <ele>52</ele>
        <time>2021-05-30T17:14:41.000Z</time>
      </trkpt>
      <trkpt lat="47.19452" lon="-1.54635">
        <ele>49</ele>
        <time>2021-05-30T17:14:43.000Z</time>
      </trkpt>
      <trkpt lat="47.19441" lon="-1.54648">
        <ele>47</ele>
        <time>2021-05-30T17:14:45.000Z</time>
      </trkpt>
      <trkpt lat="47.19437" lon="-1.54672">
        <ele>51</ele>
        <time>2021-05-30T17:14:47.000Z</time>
      </trkpt>
      <trkpt lat="47.19435" lon="-1.54695">
        <ele>52</ele>
        <time>2021-05-30T17:14:49.000Z</time>
      </trkpt>
      <trkpt lat="47.19429" lon="-1.54713">
        <ele>53</ele>
        <time>2021-05-30T17:14:51.000Z</time>
      </trkpt>
      <trkpt lat="47.19421" lon="-1.54731">
        <ele>54</ele>
        <time>2021-05-30T17:14:53.000Z</time>
      </trkpt>
      <trkpt lat="47.19416" lon="-1.54751">
        <ele>55</ele>
        <time>2021-05-30T17:14:55.000Z</time>
      </trkpt>
      <trkpt lat="47.19408" lon="-1.5478">
        <ele>55</ele>
        <time>2021-05-30T17:14:58.000Z</time>
      </trkpt>
      <trkpt lat="47.19403" lon="-1.54799">
        <ele>56</ele>
        <time>2021-05-30T17:15:00.000Z</time>
      </trkpt>
      <trkpt lat="47.19399" lon="-1.54818">
        <ele>57</ele>
        <time>2021-05-30T17:15:02.000Z</time>
      </trkpt>
      <trkpt lat="47.19394" lon="-1.54837">
        <ele>58</ele>
        <time>2021-05-30T17:15:04.000Z</time>
      </trkpt>
      <trkpt lat="47.19387" lon="-1.54858">
        <ele>59</ele>
        <time>2021-05-30T17:15:06.000Z</time>
      </trkpt>
      <trkpt lat="47.19381" lon="-1.54874">
        <ele>59</ele>
        <time>2021-05-30T17:15:08.000Z</time>
      </trkpt>
      <trkpt lat="47.19376" lon="-1.54893">
        <ele>59</ele>
        <time>2021-05-30T17:15:10.000Z</time>
      </trkpt>
      <trkpt lat="47.19372" lon="-1.54914">
        <ele>59</ele>
        <time>2021-05-30T17:15:12.000Z</time>
      </trkpt>
      <trkpt lat="47.19367" lon="-1.54934">
        <ele>59</ele>
        <time>2021-05-30T17:15:14.000Z</time>
      </trkpt>
      <trkpt lat="47.19364" lon="-1.54952">
        <ele>59</ele>
        <time>2021-05-30T17:15:16.000Z</time>
      </trkpt>
      <trkpt lat="47.1936" lon="-1.54972">
        <ele>61</ele>
        <time>2021-05-30T17:15:18.000Z</time>
      </trkpt>
      <trkpt lat="47.19357" lon="-1.54991">
        <ele>60</ele>
        <time>2021-05-30T17:15:20.000Z</time>
      </trkpt>
      <trkpt lat="47.19352" lon="-1.5501">
        <ele>61</ele>
        <time>2021-05-30T17:15:22.000Z</time>
      </trkpt>
      <trkpt lat="47.19345" lon="-1.55036">
        <ele>61</ele>
        <time>2021-05-30T17:15:25.000Z</time>
      </trkpt>
      <trkpt lat="47.19341" lon="-1.55057">
        <ele>62</ele>
        <time>2021-05-30T17:15:27.000Z</time>
      </trkpt>
      <trkpt lat="47.19336" lon="-1.55079">
        <ele>60</ele>
        <time>2021-05-30T17:15:29.000Z</time>
      </trkpt>
      <trkpt lat="47.1933" lon="-1.55101">
        <ele>59</ele>
        <time>2021-05-30T17:15:31.000Z</time>
      </trkpt>
      <trkpt lat="47.19324" lon="-1.55121">
        <ele>58</ele>
        <time>2021-05-30T17:15:33.000Z</time>
      </trkpt>
      <trkpt lat="47.19318" lon="-1.5514">
        <ele>57</ele>
        <time>2021-05-30T17:15:35.000Z</time>
      </trkpt>
      <trkpt lat="47.19313" lon="-1.55166">
        <ele>56</ele>
        <time>2021-05-30T17:15:37.000Z</time>
      </trkpt>
      <trkpt lat="47.1931" lon="-1.55179">
        <ele>55</ele>
        <time>2021-05-30T17:15:38.000Z</time>
      </trkpt>
      <trkpt lat="47.19304" lon="-1.55202">
        <ele>55</ele>
        <time>2021-05-30T17:15:40.000Z</time>
      </trkpt>
      <trkpt lat="47.19298" lon="-1.55223">
        <ele>54</ele>
        <time>2021-05-30T17:15:42.000Z</time>
      </trkpt>
      <trkpt lat="47.19292" lon="-1.55245">
        <ele>53</ele>
        <time>2021-05-30T17:15:44.000Z</time>
      </trkpt>
      <trkpt lat="47.19287" lon="-1.55267">
        <ele>55</ele>
        <time>2021-05-30T17:15:46.000Z</time>
      </trkpt>
      <trkpt lat="47.19283" lon="-1.55291">
        <ele>55</ele>
        <time>2021-05-30T17:15:48.000Z</time>
      </trkpt>
      <trkpt lat="47.19279" lon="-1.55314">
        <ele>55</ele>
        <time>2021-05-30T17:15:50.000Z</time>
      </trkpt>
      <trkpt lat="47.19275" lon="-1.55336">
        <ele>50</ele>
        <time>2021-05-30T17:15:52.000Z</time>
      </trkpt>
      <trkpt lat="47.19269" lon="-1.55357">
        <ele>51</ele>
        <time>2021-05-30T17:15:54.000Z</time>
      </trkpt>
      <trkpt lat="47.19262" lon="-1.55378">
        <ele>53</ele>
        <time>2021-05-30T17:15:56.000Z</time>
      </trkpt>
      <trkpt lat="47.19253" lon="-1.55408">
        <ele>50</ele>
        <time>2021-05-30T17:15:59.000Z</time>
      </trkpt>
      <trkpt lat="47.19254" lon="-1.55423">
        <ele>52</ele>
        <time>2021-05-30T17:16:02.000Z</time>
      </trkpt>
      <trkpt lat="47.19257" lon="-1.55439">
        <ele>53</ele>
        <time>2021-05-30T17:16:04.000Z</time>
      </trkpt>
      <trkpt lat="47.19253" lon="-1.55457">
        <ele>53</ele>
        <time>2021-05-30T17:16:06.000Z</time>
      </trkpt>
      <trkpt lat="47.19247" lon="-1.55478">
        <ele>54</ele>
        <time>2021-05-30T17:16:08.000Z</time>
      </trkpt>
      <trkpt lat="47.19248" lon="-1.55504">
        <ele>54</ele>
        <time>2021-05-30T17:16:10.000Z</time>
      </trkpt>
      <trkpt lat="47.19248" lon="-1.55529">
        <ele>54</ele>
        <time>2021-05-30T17:16:12.000Z</time>
      </trkpt>
      <trkpt lat="47.19246" lon="-1.55553">
        <ele>54</ele>
        <time>2021-05-30T17:16:14.000Z</time>
      </trkpt>
      <trkpt lat="47.19244" lon="-1.55576">
        <ele>55</ele>
        <time>2021-05-30T17:16:16.000Z</time>
      </trkpt>
      <trkpt lat="47.19243" lon="-1.55599">
        <ele>55</ele>
        <time>2021-05-30T17:16:18.000Z</time>
      </trkpt>
      <trkpt lat="47.19241" lon="-1.55634">
        <ele>54</ele>
        <time>2021-05-30T17:16:21.000Z</time>
      </trkpt>
      <trkpt lat="47.19239" lon="-1.55668">
        <ele>55</ele>
        <time>2021-05-30T17:16:24.000Z</time>
      </trkpt>
      <trkpt lat="47.19239" lon="-1.55691">
        <ele>55</ele>
        <time>2021-05-30T17:16:26.000Z</time>
      </trkpt>
      <trkpt lat="47.19239" lon="-1.55714">
        <ele>55</ele>
        <time>2021-05-30T17:16:28.000Z</time>
      </trkpt>
      <trkpt lat="47.19238" lon="-1.55749">
        <ele>55</ele>
        <time>2021-05-30T17:16:31.000Z</time>
      </trkpt>
      <trkpt lat="47.19241" lon="-1.55771">
        <ele>55</ele>
        <time>2021-05-30T17:16:33.000Z</time>
      </trkpt>
      <trkpt lat="47.19242" lon="-1.55794">
        <ele>55</ele>
        <time>2021-05-30T17:16:35.000Z</time>
      </trkpt>
      <trkpt lat="47.19241" lon="-1.55818">
        <ele>55</ele>
        <time>2021-05-30T17:16:37.000Z</time>
      </trkpt>
      <trkpt lat="47.19241" lon="-1.55839">
        <ele>55</ele>
        <time>2021-05-30T17:16:39.000Z</time>
      </trkpt>
      <trkpt lat="47.19243" lon="-1.55861">
        <ele>54</ele>
        <time>2021-05-30T17:16:41.000Z</time>
      </trkpt>
      <trkpt lat="47.19243" lon="-1.55884">
        <ele>54</ele>
        <time>2021-05-30T17:16:43.000Z</time>
      </trkpt>
      <trkpt lat="47.19244" lon="-1.55907">
        <ele>53</ele>
        <time>2021-05-30T17:16:45.000Z</time>
      </trkpt>
      <trkpt lat="47.19245" lon="-1.5593">
        <ele>53</ele>
        <time>2021-05-30T17:16:47.000Z</time>
      </trkpt>
      <trkpt lat="47.19249" lon="-1.5595">
        <ele>54</ele>
        <time>2021-05-30T17:16:49.000Z</time>
      </trkpt>
      <trkpt lat="47.19253" lon="-1.55972">
        <ele>55</ele>
        <time>2021-05-30T17:16:51.000Z</time>
      </trkpt>
      <trkpt lat="47.19253" lon="-1.55994">
        <ele>55</ele>
        <time>2021-05-30T17:16:53.000Z</time>
      </trkpt>
      <trkpt lat="47.19254" lon="-1.56017">
        <ele>55</ele>
        <time>2021-05-30T17:16:55.000Z</time>
      </trkpt>
      <trkpt lat="47.19255" lon="-1.56038">
        <ele>54</ele>
        <time>2021-05-30T17:16:57.000Z</time>
      </trkpt>
      <trkpt lat="47.19256" lon="-1.56062">
        <ele>56</ele>
        <time>2021-05-30T17:16:59.000Z</time>
      </trkpt>
      <trkpt lat="47.1926" lon="-1.56085">
        <ele>56</ele>
        <time>2021-05-30T17:17:01.000Z</time>
      </trkpt>
      <trkpt lat="47.19262" lon="-1.56107">
        <ele>55</ele>
        <time>2021-05-30T17:17:03.000Z</time>
      </trkpt>
      <trkpt lat="47.19263" lon="-1.56129">
        <ele>55</ele>
        <time>2021-05-30T17:17:05.000Z</time>
      </trkpt>
      <trkpt lat="47.19263" lon="-1.56149">
        <ele>55</ele>
        <time>2021-05-30T17:17:07.000Z</time>
      </trkpt>
      <trkpt lat="47.19264" lon="-1.56171">
        <ele>55</ele>
        <time>2021-05-30T17:17:09.000Z</time>
      </trkpt>
      <trkpt lat="47.19264" lon="-1.56201">
        <ele>53</ele>
        <time>2021-05-30T17:17:12.000Z</time>
      </trkpt>
      <trkpt lat="47.19267" lon="-1.56226">
        <ele>54</ele>
        <time>2021-05-30T17:17:15.000Z</time>
      </trkpt>
      <trkpt lat="47.19271" lon="-1.56239">
        <ele>55</ele>
        <time>2021-05-30T17:17:17.000Z</time>
      </trkpt>
      <trkpt lat="47.19281" lon="-1.56253">
        <ele>54</ele>
        <time>2021-05-30T17:17:19.000Z</time>
      </trkpt>
      <trkpt lat="47.19294" lon="-1.56289">
        <ele>56</ele>
        <time>2021-05-30T17:17:23.000Z</time>
      </trkpt>
      <trkpt lat="47.19288" lon="-1.56309">
        <ele>51</ele>
        <time>2021-05-30T17:17:25.000Z</time>
      </trkpt>
      <trkpt lat="47.19282" lon="-1.56324">
        <ele>53</ele>
        <time>2021-05-30T17:17:27.000Z</time>
      </trkpt>
      <trkpt lat="47.19281" lon="-1.56343">
        <ele>53</ele>
        <time>2021-05-30T17:17:29.000Z</time>
      </trkpt>
      <trkpt lat="47.19285" lon="-1.56366">
        <ele>55</ele>
        <time>2021-05-30T17:17:31.000Z</time>
      </trkpt>
      <trkpt lat="47.19287" lon="-1.56399">
        <ele>51</ele>
        <time>2021-05-30T17:17:34.000Z</time>
      </trkpt>
      <trkpt lat="47.19291" lon="-1.5643">
        <ele>50</ele>
        <time>2021-05-30T17:17:37.000Z</time>
      </trkpt>
      <trkpt lat="47.19292" lon="-1.56451">
        <ele>50</ele>
        <time>2021-05-30T17:17:39.000Z</time>
      </trkpt>
      <trkpt lat="47.19294" lon="-1.56473">
        <ele>50</ele>
        <time>2021-05-30T17:17:41.000Z</time>
      </trkpt>
      <trkpt lat="47.19296" lon="-1.56504">
        <ele>48</ele>
        <time>2021-05-30T17:17:44.000Z</time>
      </trkpt>
      <trkpt lat="47.19297" lon="-1.56526">
        <ele>48</ele>
        <time>2021-05-30T17:17:46.000Z</time>
      </trkpt>
      <trkpt lat="47.193" lon="-1.56558">
        <ele>49</ele>
        <time>2021-05-30T17:17:49.000Z</time>
      </trkpt>
      <trkpt lat="47.19302" lon="-1.56577">
        <ele>50</ele>
        <time>2021-05-30T17:17:51.000Z</time>
      </trkpt>
      <trkpt lat="47.19304" lon="-1.56596">
        <ele>50</ele>
        <time>2021-05-30T17:17:53.000Z</time>
      </trkpt>
      <trkpt lat="47.19307" lon="-1.56615">
        <ele>50</ele>
        <time>2021-05-30T17:17:55.000Z</time>
      </trkpt>
      <trkpt lat="47.19309" lon="-1.56638">
        <ele>52</ele>
        <time>2021-05-30T17:17:57.000Z</time>
      </trkpt>
      <trkpt lat="47.19311" lon="-1.56659">
        <ele>52</ele>
        <time>2021-05-30T17:17:59.000Z</time>
      </trkpt>
      <trkpt lat="47.19313" lon="-1.5668">
        <ele>52</ele>
        <time>2021-05-30T17:18:01.000Z</time>
      </trkpt>
      <trkpt lat="47.19315" lon="-1.56701">
        <ele>52</ele>
        <time>2021-05-30T17:18:03.000Z</time>
      </trkpt>
      <trkpt lat="47.19314" lon="-1.5672">
        <ele>52</ele>
        <time>2021-05-30T17:18:05.000Z</time>
      </trkpt>
      <trkpt lat="47.19317" lon="-1.56742">
        <ele>53</ele>
        <time>2021-05-30T17:18:07.000Z</time>
      </trkpt>
      <trkpt lat="47.1932" lon="-1.56762">
        <ele>54</ele>
        <time>2021-05-30T17:18:09.000Z</time>
      </trkpt>
      <trkpt lat="47.19322" lon="-1.56782">
        <ele>54</ele>
        <time>2021-05-30T17:18:11.000Z</time>
      </trkpt>
      <trkpt lat="47.19324" lon="-1.56802">
        <ele>54</ele>
        <time>2021-05-30T17:18:13.000Z</time>
      </trkpt>
      <trkpt lat="47.19326" lon="-1.56822">
        <ele>54</ele>
        <time>2021-05-30T17:18:15.000Z</time>
      </trkpt>
      <trkpt lat="47.19327" lon="-1.56842">
        <ele>54</ele>
        <time>2021-05-30T17:18:17.000Z</time>
      </trkpt>
      <trkpt lat="47.19326" lon="-1.56883">
        <ele>54</ele>
        <time>2021-05-30T17:18:21.000Z</time>
      </trkpt>
      <trkpt lat="47.19327" lon="-1.56904">
        <ele>54</ele>
        <time>2021-05-30T17:18:23.000Z</time>
      </trkpt>
      <trkpt lat="47.19328" lon="-1.56925">
        <ele>54</ele>
        <time>2021-05-30T17:18:25.000Z</time>
      </trkpt>
      <trkpt lat="47.19328" lon="-1.56943">
        <ele>49</ele>
        <time>2021-05-30T17:18:27.000Z</time>
      </trkpt>
      <trkpt lat="47.19326" lon="-1.56973">
        <ele>51</ele>
        <time>2021-05-30T17:18:30.000Z</time>
      </trkpt>
      <trkpt lat="47.19327" lon="-1.56992">
        <ele>53</ele>
        <time>2021-05-30T17:18:32.000Z</time>
      </trkpt>
      <trkpt lat="47.19326" lon="-1.57009">
        <ele>53</ele>
        <time>2021-05-30T17:18:34.000Z</time>
      </trkpt>
      <trkpt lat="47.19326" lon="-1.57038">
        <ele>56</ele>
        <time>2021-05-30T17:18:37.000Z</time>
      </trkpt>
      <trkpt lat="47.19339" lon="-1.57062">
        <ele>56</ele>
        <time>2021-05-30T17:18:40.000Z</time>
      </trkpt>
      <trkpt lat="47.19335" lon="-1.5708">
        <ele>53</ele>
        <time>2021-05-30T17:18:42.000Z</time>
      </trkpt>
      <trkpt lat="47.19322" lon="-1.57088">
        <ele>52</ele>
        <time>2021-05-30T17:18:44.000Z</time>
      </trkpt>
      <trkpt lat="47.19313" lon="-1.57102">
        <ele>53</ele>
        <time>2021-05-30T17:18:46.000Z</time>
      </trkpt>
      <trkpt lat="47.19311" lon="-1.57123">
        <ele>53</ele>
        <time>2021-05-30T17:18:48.000Z</time>
      </trkpt>
      <trkpt lat="47.19308" lon="-1.57143">
        <ele>54</ele>
        <time>2021-05-30T17:18:50.000Z</time>
      </trkpt>
      <trkpt lat="47.19305" lon="-1.57163">
        <ele>54</ele>
        <time>2021-05-30T17:18:52.000Z</time>
      </trkpt>
      <trkpt lat="47.19303" lon="-1.57184">
        <ele>54</ele>
        <time>2021-05-30T17:18:54.000Z</time>
      </trkpt>
      <trkpt lat="47.19299" lon="-1.57204">
        <ele>55</ele>
        <time>2021-05-30T17:18:56.000Z</time>
      </trkpt>
      <trkpt lat="47.19295" lon="-1.57224">
        <ele>55</ele>
        <time>2021-05-30T17:18:58.000Z</time>
      </trkpt>
      <trkpt lat="47.19291" lon="-1.57244">
        <ele>55</ele>
        <time>2021-05-30T17:19:00.000Z</time>
      </trkpt>
      <trkpt lat="47.19286" lon="-1.57264">
        <ele>55</ele>
        <time>2021-05-30T17:19:02.000Z</time>
      </trkpt>
      <trkpt lat="47.19281" lon="-1.57283">
        <ele>55</ele>
        <time>2021-05-30T17:19:04.000Z</time>
      </trkpt>
      <trkpt lat="47.19274" lon="-1.57303">
        <ele>55</ele>
        <time>2021-05-30T17:19:06.000Z</time>
      </trkpt>
      <trkpt lat="47.19266" lon="-1.57332">
        <ele>57</ele>
        <time>2021-05-30T17:19:09.000Z</time>
      </trkpt>
      <trkpt lat="47.19259" lon="-1.57351">
        <ele>57</ele>
        <time>2021-05-30T17:19:11.000Z</time>
      </trkpt>
      <trkpt lat="47.19253" lon="-1.57369">
        <ele>56</ele>
        <time>2021-05-30T17:19:13.000Z</time>
      </trkpt>
      <trkpt lat="47.19247" lon="-1.57388">
        <ele>57</ele>
        <time>2021-05-30T17:19:15.000Z</time>
      </trkpt>
      <trkpt lat="47.1924" lon="-1.57408">
        <ele>57</ele>
        <time>2021-05-30T17:19:17.000Z</time>
      </trkpt>
      <trkpt lat="47.19234" lon="-1.57427">
        <ele>57</ele>
        <time>2021-05-30T17:19:19.000Z</time>
      </trkpt>
      <trkpt lat="47.19227" lon="-1.57446">
        <ele>57</ele>
        <time>2021-05-30T17:19:21.000Z</time>
      </trkpt>
      <trkpt lat="47.19219" lon="-1.57466">
        <ele>57</ele>
        <time>2021-05-30T17:19:23.000Z</time>
      </trkpt>
      <trkpt lat="47.19213" lon="-1.57485">
        <ele>56</ele>
        <time>2021-05-30T17:19:25.000Z</time>
      </trkpt>
      <trkpt lat="47.19205" lon="-1.57504">
        <ele>56</ele>
        <time>2021-05-30T17:19:27.000Z</time>
      </trkpt>
      <trkpt lat="47.19198" lon="-1.57522">
        <ele>56</ele>
        <time>2021-05-30T17:19:29.000Z</time>
      </trkpt>
      <trkpt lat="47.19192" lon="-1.5754">
        <ele>56</ele>
        <time>2021-05-30T17:19:31.000Z</time>
      </trkpt>
      <trkpt lat="47.19186" lon="-1.57559">
        <ele>56</ele>
        <time>2021-05-30T17:19:33.000Z</time>
      </trkpt>
      <trkpt lat="47.19176" lon="-1.57587">
        <ele>56</ele>
        <time>2021-05-30T17:19:36.000Z</time>
      </trkpt>
      <trkpt lat="47.19169" lon="-1.57608">
        <ele>56</ele>
        <time>2021-05-30T17:19:38.000Z</time>
      </trkpt>
      <trkpt lat="47.19163" lon="-1.57625">
        <ele>56</ele>
        <time>2021-05-30T17:19:40.000Z</time>
      </trkpt>
      <trkpt lat="47.19156" lon="-1.57641">
        <ele>55</ele>
        <time>2021-05-30T17:19:42.000Z</time>
      </trkpt>
      <trkpt lat="47.1915" lon="-1.5766">
        <ele>55</ele>
        <time>2021-05-30T17:19:44.000Z</time>
      </trkpt>
      <trkpt lat="47.1914" lon="-1.57686">
        <ele>56</ele>
        <time>2021-05-30T17:19:47.000Z</time>
      </trkpt>
      <trkpt lat="47.19129" lon="-1.57713">
        <ele>55</ele>
        <time>2021-05-30T17:19:50.000Z</time>
      </trkpt>
      <trkpt lat="47.19123" lon="-1.57732">
        <ele>55</ele>
        <time>2021-05-30T17:19:52.000Z</time>
      </trkpt>
      <trkpt lat="47.19116" lon="-1.5775">
        <ele>54</ele>
        <time>2021-05-30T17:19:54.000Z</time>
      </trkpt>
      <trkpt lat="47.19109" lon="-1.57768">
        <ele>55</ele>
        <time>2021-05-30T17:19:56.000Z</time>
      </trkpt>
      <trkpt lat="47.19101" lon="-1.57797">
        <ele>55</ele>
        <time>2021-05-30T17:19:59.000Z</time>
      </trkpt>
      <trkpt lat="47.19094" lon="-1.57815">
        <ele>54</ele>
        <time>2021-05-30T17:20:01.000Z</time>
      </trkpt>
      <trkpt lat="47.19085" lon="-1.57842">
        <ele>54</ele>
        <time>2021-05-30T17:20:04.000Z</time>
      </trkpt>
      <trkpt lat="47.19079" lon="-1.5786">
        <ele>54</ele>
        <time>2021-05-30T17:20:06.000Z</time>
      </trkpt>
      <trkpt lat="47.19072" lon="-1.57877">
        <ele>54</ele>
        <time>2021-05-30T17:20:08.000Z</time>
      </trkpt>
      <trkpt lat="47.19065" lon="-1.57896">
        <ele>54</ele>
        <time>2021-05-30T17:20:10.000Z</time>
      </trkpt>
      <trkpt lat="47.19059" lon="-1.57914">
        <ele>54</ele>
        <time>2021-05-30T17:20:12.000Z</time>
      </trkpt>
      <trkpt lat="47.19052" lon="-1.57932">
        <ele>53</ele>
        <time>2021-05-30T17:20:14.000Z</time>
      </trkpt>
      <trkpt lat="47.19045" lon="-1.57951">
        <ele>54</ele>
        <time>2021-05-30T17:20:16.000Z</time>
      </trkpt>
      <trkpt lat="47.19039" lon="-1.57969">
        <ele>54</ele>
        <time>2021-05-30T17:20:18.000Z</time>
      </trkpt>
      <trkpt lat="47.19032" lon="-1.57985">
        <ele>53</ele>
        <time>2021-05-30T17:20:20.000Z</time>
      </trkpt>
      <trkpt lat="47.19026" lon="-1.58005">
        <ele>55</ele>
        <time>2021-05-30T17:20:22.000Z</time>
      </trkpt>
      <trkpt lat="47.1902" lon="-1.58023">
        <ele>56</ele>
        <time>2021-05-30T17:20:24.000Z</time>
      </trkpt>
      <trkpt lat="47.19015" lon="-1.58043">
        <ele>52</ele>
        <time>2021-05-30T17:20:26.000Z</time>
      </trkpt>
      <trkpt lat="47.19009" lon="-1.58058">
        <ele>53</ele>
        <time>2021-05-30T17:20:28.000Z</time>
      </trkpt>
      <trkpt lat="47.18998" lon="-1.58085">
        <ele>53</ele>
        <time>2021-05-30T17:20:31.000Z</time>
      </trkpt>
      <trkpt lat="47.18989" lon="-1.58113">
        <ele>51</ele>
        <time>2021-05-30T17:20:34.000Z</time>
      </trkpt>
      <trkpt lat="47.18982" lon="-1.58132">
        <ele>54</ele>
        <time>2021-05-30T17:20:36.000Z</time>
      </trkpt>
      <trkpt lat="47.18976" lon="-1.5815">
        <ele>54</ele>
        <time>2021-05-30T17:20:38.000Z</time>
      </trkpt>
      <trkpt lat="47.18966" lon="-1.58178">
        <ele>52</ele>
        <time>2021-05-30T17:20:41.000Z</time>
      </trkpt>
      <trkpt lat="47.18956" lon="-1.58204">
        <ele>51</ele>
        <time>2021-05-30T17:20:44.000Z</time>
      </trkpt>
      <trkpt lat="47.18949" lon="-1.58222">
        <ele>52</ele>
        <time>2021-05-30T17:20:46.000Z</time>
      </trkpt>
      <trkpt lat="47.18943" lon="-1.58241">
        <ele>53</ele>
        <time>2021-05-30T17:20:48.000Z</time>
      </trkpt>
      <trkpt lat="47.18937" lon="-1.58259">
        <ele>53</ele>
        <time>2021-05-30T17:20:50.000Z</time>
      </trkpt>
      <trkpt lat="47.18931" lon="-1.58279">
        <ele>54</ele>
        <time>2021-05-30T17:20:52.000Z</time>
      </trkpt>
      <trkpt lat="47.18924" lon="-1.58295">
        <ele>54</ele>
        <time>2021-05-30T17:20:54.000Z</time>
      </trkpt>
      <trkpt lat="47.18914" lon="-1.58322">
        <ele>54</ele>
        <time>2021-05-30T17:20:57.000Z</time>
      </trkpt>
      <trkpt lat="47.18908" lon="-1.5834">
        <ele>55</ele>
        <time>2021-05-30T17:20:59.000Z</time>
      </trkpt>
      <trkpt lat="47.18902" lon="-1.58357">
        <ele>55</ele>
        <time>2021-05-30T17:21:01.000Z</time>
      </trkpt>
      <trkpt lat="47.18892" lon="-1.58385">
        <ele>55</ele>
        <time>2021-05-30T17:21:04.000Z</time>
      </trkpt>
      <trkpt lat="47.18883" lon="-1.58413">
        <ele>55</ele>
        <time>2021-05-30T17:21:07.000Z</time>
      </trkpt>
      <trkpt lat="47.18874" lon="-1.58442">
        <ele>54</ele>
        <time>2021-05-30T17:21:10.000Z</time>
      </trkpt>
      <trkpt lat="47.18868" lon="-1.58461">
        <ele>54</ele>
        <time>2021-05-30T17:21:12.000Z</time>
      </trkpt>
      <trkpt lat="47.18863" lon="-1.5848">
        <ele>54</ele>
        <time>2021-05-30T17:21:14.000Z</time>
      </trkpt>
      <trkpt lat="47.18857" lon="-1.58498">
        <ele>54</ele>
        <time>2021-05-30T17:21:16.000Z</time>
      </trkpt>
      <trkpt lat="47.18849" lon="-1.58527">
        <ele>54</ele>
        <time>2021-05-30T17:21:19.000Z</time>
      </trkpt>
      <trkpt lat="47.18844" lon="-1.58546">
        <ele>54</ele>
        <time>2021-05-30T17:21:21.000Z</time>
      </trkpt>
      <trkpt lat="47.18839" lon="-1.58564">
        <ele>56</ele>
        <time>2021-05-30T17:21:23.000Z</time>
      </trkpt>
      <trkpt lat="47.18835" lon="-1.58586">
        <ele>56</ele>
        <time>2021-05-30T17:21:25.000Z</time>
      </trkpt>
      <trkpt lat="47.1883" lon="-1.58605">
        <ele>56</ele>
        <time>2021-05-30T17:21:27.000Z</time>
      </trkpt>
      <trkpt lat="47.18826" lon="-1.58625">
        <ele>56</ele>
        <time>2021-05-30T17:21:29.000Z</time>
      </trkpt>
      <trkpt lat="47.18822" lon="-1.58644">
        <ele>55</ele>
        <time>2021-05-30T17:21:31.000Z</time>
      </trkpt>
      <trkpt lat="47.18819" lon="-1.58664">
        <ele>55</ele>
        <time>2021-05-30T17:21:33.000Z</time>
      </trkpt>
      <trkpt lat="47.18817" lon="-1.58683">
        <ele>55</ele>
        <time>2021-05-30T17:21:35.000Z</time>
      </trkpt>
      <trkpt lat="47.18816" lon="-1.58702">
        <ele>55</ele>
        <time>2021-05-30T17:21:37.000Z</time>
      </trkpt>
      <trkpt lat="47.1882" lon="-1.58721">
        <ele>55</ele>
        <time>2021-05-30T17:21:39.000Z</time>
      </trkpt>
      <trkpt lat="47.18827" lon="-1.58738">
        <ele>55</ele>
        <time>2021-05-30T17:21:41.000Z</time>
      </trkpt>
      <trkpt lat="47.18828" lon="-1.58759">
        <ele>54</ele>
        <time>2021-05-30T17:21:43.000Z</time>
      </trkpt>
      <trkpt lat="47.18823" lon="-1.58779">
        <ele>54</ele>
        <time>2021-05-30T17:21:45.000Z</time>
      </trkpt>
      <trkpt lat="47.18814" lon="-1.58794">
        <ele>55</ele>
        <time>2021-05-30T17:21:47.000Z</time>
      </trkpt>
      <trkpt lat="47.18795" lon="-1.5881">
        <ele>54</ele>
        <time>2021-05-30T17:21:50.000Z</time>
      </trkpt>
      <trkpt lat="47.18789" lon="-1.5883">
        <ele>54</ele>
        <time>2021-05-30T17:21:52.000Z</time>
      </trkpt>
      <trkpt lat="47.18785" lon="-1.58851">
        <ele>55</ele>
        <time>2021-05-30T17:21:54.000Z</time>
      </trkpt>
      <trkpt lat="47.18782" lon="-1.58873">
        <ele>55</ele>
        <time>2021-05-30T17:21:56.000Z</time>
      </trkpt>
      <trkpt lat="47.18778" lon="-1.58894">
        <ele>56</ele>
        <time>2021-05-30T17:21:58.000Z</time>
      </trkpt>
      <trkpt lat="47.18776" lon="-1.58917">
        <ele>55</ele>
        <time>2021-05-30T17:22:00.000Z</time>
      </trkpt>
      <trkpt lat="47.18774" lon="-1.58939">
        <ele>55</ele>
        <time>2021-05-30T17:22:02.000Z</time>
      </trkpt>
      <trkpt lat="47.18771" lon="-1.58962">
        <ele>55</ele>
        <time>2021-05-30T17:22:04.000Z</time>
      </trkpt>
      <trkpt lat="47.18769" lon="-1.58986">
        <ele>55</ele>
        <time>2021-05-30T17:22:06.000Z</time>
      </trkpt>
      <trkpt lat="47.18764" lon="-1.59022">
        <ele>54</ele>
        <time>2021-05-30T17:22:09.000Z</time>
      </trkpt>
      <trkpt lat="47.18761" lon="-1.59046">
        <ele>53</ele>
        <time>2021-05-30T17:22:11.000Z</time>
      </trkpt>
      <trkpt lat="47.18758" lon="-1.5907">
        <ele>54</ele>
        <time>2021-05-30T17:22:13.000Z</time>
      </trkpt>
      <trkpt lat="47.18756" lon="-1.59093">
        <ele>55</ele>
        <time>2021-05-30T17:22:15.000Z</time>
      </trkpt>
      <trkpt lat="47.1875" lon="-1.59129">
        <ele>52</ele>
        <time>2021-05-30T17:22:18.000Z</time>
      </trkpt>
      <trkpt lat="47.18749" lon="-1.59152">
        <ele>52</ele>
        <time>2021-05-30T17:22:20.000Z</time>
      </trkpt>
      <trkpt lat="47.18746" lon="-1.59177">
        <ele>53</ele>
        <time>2021-05-30T17:22:22.000Z</time>
      </trkpt>
      <trkpt lat="47.18744" lon="-1.59202">
        <ele>54</ele>
        <time>2021-05-30T17:22:24.000Z</time>
      </trkpt>
      <trkpt lat="47.18741" lon="-1.59227">
        <ele>54</ele>
        <time>2021-05-30T17:22:26.000Z</time>
      </trkpt>
      <trkpt lat="47.18738" lon="-1.59253">
        <ele>54</ele>
        <time>2021-05-30T17:22:28.000Z</time>
      </trkpt>
      <trkpt lat="47.18736" lon="-1.59277">
        <ele>54</ele>
        <time>2021-05-30T17:22:30.000Z</time>
      </trkpt>
      <trkpt lat="47.18733" lon="-1.59302">
        <ele>55</ele>
        <time>2021-05-30T17:22:32.000Z</time>
      </trkpt>
      <trkpt lat="47.18731" lon="-1.59327">
        <ele>54</ele>
        <time>2021-05-30T17:22:34.000Z</time>
      </trkpt>
      <trkpt lat="47.18728" lon="-1.5935">
        <ele>55</ele>
        <time>2021-05-30T17:22:36.000Z</time>
      </trkpt>
      <trkpt lat="47.18726" lon="-1.59375">
        <ele>55</ele>
        <time>2021-05-30T17:22:38.000Z</time>
      </trkpt>
      <trkpt lat="47.18723" lon="-1.59399">
        <ele>55</ele>
        <time>2021-05-30T17:22:40.000Z</time>
      </trkpt>
      <trkpt lat="47.18721" lon="-1.59423">
        <ele>55</ele>
        <time>2021-05-30T17:22:42.000Z</time>
      </trkpt>
      <trkpt lat="47.18718" lon="-1.59447">
        <ele>55</ele>
        <time>2021-05-30T17:22:44.000Z</time>
      </trkpt>
      <trkpt lat="47.18715" lon="-1.5947">
        <ele>55</ele>
        <time>2021-05-30T17:22:46.000Z</time>
      </trkpt>
      <trkpt lat="47.18712" lon="-1.59494">
        <ele>54</ele>
        <time>2021-05-30T17:22:48.000Z</time>
      </trkpt>
      <trkpt lat="47.1871" lon="-1.59516">
        <ele>51</ele>
        <time>2021-05-30T17:22:50.000Z</time>
      </trkpt>
      <trkpt lat="47.18707" lon="-1.5954">
        <ele>52</ele>
        <time>2021-05-30T17:22:52.000Z</time>
      </trkpt>
      <trkpt lat="47.18705" lon="-1.59565">
        <ele>52</ele>
        <time>2021-05-30T17:22:54.000Z</time>
      </trkpt>
      <trkpt lat="47.18702" lon="-1.59588">
        <ele>53</ele>
        <time>2021-05-30T17:22:56.000Z</time>
      </trkpt>
      <trkpt lat="47.187" lon="-1.59613">
        <ele>50</ele>
        <time>2021-05-30T17:22:58.000Z</time>
      </trkpt>
      <trkpt lat="47.18697" lon="-1.59634">
        <ele>51</ele>
        <time>2021-05-30T17:23:00.000Z</time>
      </trkpt>
      <trkpt lat="47.18693" lon="-1.59656">
        <ele>52</ele>
        <time>2021-05-30T17:23:02.000Z</time>
      </trkpt>
      <trkpt lat="47.18689" lon="-1.59679">
        <ele>53</ele>
        <time>2021-05-30T17:23:04.000Z</time>
      </trkpt>
      <trkpt lat="47.18687" lon="-1.59702">
        <ele>54</ele>
        <time>2021-05-30T17:23:06.000Z</time>
      </trkpt>
      <trkpt lat="47.18685" lon="-1.59724">
        <ele>53</ele>
        <time>2021-05-30T17:23:08.000Z</time>
      </trkpt>
      <trkpt lat="47.18686" lon="-1.59744">
        <ele>54</ele>
        <time>2021-05-30T17:23:10.000Z</time>
      </trkpt>
      <trkpt lat="47.18686" lon="-1.5976">
        <ele>54</ele>
        <time>2021-05-30T17:23:12.000Z</time>
      </trkpt>
      <trkpt lat="47.18689" lon="-1.59773">
        <ele>54</ele>
        <time>2021-05-30T17:23:14.000Z</time>
      </trkpt>
      <trkpt lat="47.18693" lon="-1.59787">
        <ele>54</ele>
        <time>2021-05-30T17:23:16.000Z</time>
      </trkpt>
      <trkpt lat="47.18694" lon="-1.59803">
        <ele>54</ele>
        <time>2021-05-30T17:23:18.000Z</time>
      </trkpt>
      <trkpt lat="47.18688" lon="-1.5982">
        <ele>54</ele>
        <time>2021-05-30T17:23:20.000Z</time>
      </trkpt>
      <trkpt lat="47.18675" lon="-1.59834">
        <ele>54</ele>
        <time>2021-05-30T17:23:22.000Z</time>
      </trkpt>
      <trkpt lat="47.18661" lon="-1.59847">
        <ele>54</ele>
        <time>2021-05-30T17:23:24.000Z</time>
      </trkpt>
      <trkpt lat="47.18645" lon="-1.59842">
        <ele>54</ele>
        <time>2021-05-30T17:23:26.000Z</time>
      </trkpt>
      <trkpt lat="47.18632" lon="-1.59833">
        <ele>52</ele>
        <time>2021-05-30T17:23:28.000Z</time>
      </trkpt>
      <trkpt lat="47.18621" lon="-1.59833">
        <ele>52</ele>
        <time>2021-05-30T17:23:30.000Z</time>
      </trkpt>
      <trkpt lat="47.18621" lon="-1.59851">
        <ele>52</ele>
        <time>2021-05-30T17:23:32.000Z</time>
      </trkpt>
      <trkpt lat="47.18626" lon="-1.59869">
        <ele>52</ele>
        <time>2021-05-30T17:23:34.000Z</time>
      </trkpt>
      <trkpt lat="47.18624" lon="-1.59887">
        <ele>52</ele>
        <time>2021-05-30T17:23:36.000Z</time>
      </trkpt>
      <trkpt lat="47.18617" lon="-1.59908">
        <ele>52</ele>
        <time>2021-05-30T17:23:38.000Z</time>
      </trkpt>
      <trkpt lat="47.18611" lon="-1.5993">
        <ele>53</ele>
        <time>2021-05-30T17:23:40.000Z</time>
      </trkpt>
      <trkpt lat="47.18605" lon="-1.5995">
        <ele>52</ele>
        <time>2021-05-30T17:23:42.000Z</time>
      </trkpt>
      <trkpt lat="47.18599" lon="-1.5997">
        <ele>52</ele>
        <time>2021-05-30T17:23:44.000Z</time>
      </trkpt>
      <trkpt lat="47.18592" lon="-1.5999">
        <ele>53</ele>
        <time>2021-05-30T17:23:46.000Z</time>
      </trkpt>
      <trkpt lat="47.18583" lon="-1.60019">
        <ele>53</ele>
        <time>2021-05-30T17:23:49.000Z</time>
      </trkpt>
      <trkpt lat="47.18575" lon="-1.60039">
        <ele>52</ele>
        <time>2021-05-30T17:23:51.000Z</time>
      </trkpt>
      <trkpt lat="47.18568" lon="-1.60057">
        <ele>52</ele>
        <time>2021-05-30T17:23:53.000Z</time>
      </trkpt>
      <trkpt lat="47.18561" lon="-1.60076">
        <ele>52</ele>
        <time>2021-05-30T17:23:55.000Z</time>
      </trkpt>
      <trkpt lat="47.18554" lon="-1.60095">
        <ele>53</ele>
        <time>2021-05-30T17:23:57.000Z</time>
      </trkpt>
      <trkpt lat="47.18546" lon="-1.60113">
        <ele>53</ele>
        <time>2021-05-30T17:23:59.000Z</time>
      </trkpt>
      <trkpt lat="47.18531" lon="-1.60149">
        <ele>52</ele>
        <time>2021-05-30T17:24:03.000Z</time>
      </trkpt>
      <trkpt lat="47.18523" lon="-1.60165">
        <ele>52</ele>
        <time>2021-05-30T17:24:05.000Z</time>
      </trkpt>
      <trkpt lat="47.18511" lon="-1.60191">
        <ele>53</ele>
        <time>2021-05-30T17:24:08.000Z</time>
      </trkpt>
      <trkpt lat="47.18502" lon="-1.60208">
        <ele>53</ele>
        <time>2021-05-30T17:24:10.000Z</time>
      </trkpt>
      <trkpt lat="47.18493" lon="-1.60224">
        <ele>53</ele>
        <time>2021-05-30T17:24:12.000Z</time>
      </trkpt>
      <trkpt lat="47.1848" lon="-1.60249">
        <ele>54</ele>
        <time>2021-05-30T17:24:15.000Z</time>
      </trkpt>
      <trkpt lat="47.18472" lon="-1.60265">
        <ele>54</ele>
        <time>2021-05-30T17:24:17.000Z</time>
      </trkpt>
      <trkpt lat="47.18457" lon="-1.60289">
        <ele>52</ele>
        <time>2021-05-30T17:24:20.000Z</time>
      </trkpt>
      <trkpt lat="47.18448" lon="-1.60305">
        <ele>53</ele>
        <time>2021-05-30T17:24:22.000Z</time>
      </trkpt>
      <trkpt lat="47.18438" lon="-1.60321">
        <ele>53</ele>
        <time>2021-05-30T17:24:24.000Z</time>
      </trkpt>
      <trkpt lat="47.18429" lon="-1.60338">
        <ele>53</ele>
        <time>2021-05-30T17:24:26.000Z</time>
      </trkpt>
      <trkpt lat="47.18419" lon="-1.60353">
        <ele>53</ele>
        <time>2021-05-30T17:24:28.000Z</time>
      </trkpt>
      <trkpt lat="47.18408" lon="-1.60367">
        <ele>53</ele>
        <time>2021-05-30T17:24:30.000Z</time>
      </trkpt>
      <trkpt lat="47.18397" lon="-1.60381">
        <ele>53</ele>
        <time>2021-05-30T17:24:32.000Z</time>
      </trkpt>
      <trkpt lat="47.18387" lon="-1.60395">
        <ele>53</ele>
        <time>2021-05-30T17:24:34.000Z</time>
      </trkpt>
      <trkpt lat="47.18376" lon="-1.60409">
        <ele>53</ele>
        <time>2021-05-30T17:24:36.000Z</time>
      </trkpt>
      <trkpt lat="47.18359" lon="-1.60429">
        <ele>52</ele>
        <time>2021-05-30T17:24:39.000Z</time>
      </trkpt>
      <trkpt lat="47.18349" lon="-1.60442">
        <ele>52</ele>
        <time>2021-05-30T17:24:41.000Z</time>
      </trkpt>
      <trkpt lat="47.18334" lon="-1.60462">
        <ele>52</ele>
        <time>2021-05-30T17:24:44.000Z</time>
      </trkpt>
      <trkpt lat="47.18323" lon="-1.60475">
        <ele>52</ele>
        <time>2021-05-30T17:24:46.000Z</time>
      </trkpt>
      <trkpt lat="47.18312" lon="-1.60488">
        <ele>54</ele>
        <time>2021-05-30T17:24:48.000Z</time>
      </trkpt>
      <trkpt lat="47.18301" lon="-1.60499">
        <ele>54</ele>
        <time>2021-05-30T17:24:50.000Z</time>
      </trkpt>
      <trkpt lat="47.18289" lon="-1.60511">
        <ele>53</ele>
        <time>2021-05-30T17:24:52.000Z</time>
      </trkpt>
      <trkpt lat="47.18275" lon="-1.60527">
        <ele>52</ele>
        <time>2021-05-30T17:24:55.000Z</time>
      </trkpt>
      <trkpt lat="47.18257" lon="-1.60543">
        <ele>54</ele>
        <time>2021-05-30T17:24:58.000Z</time>
      </trkpt>
      <trkpt lat="47.1824" lon="-1.60557">
        <ele>55</ele>
        <time>2021-05-30T17:25:01.000Z</time>
      </trkpt>
      <trkpt lat="47.18224" lon="-1.60567">
        <ele>55</ele>
        <time>2021-05-30T17:25:04.000Z</time>
      </trkpt>
      <trkpt lat="47.18213" lon="-1.60573">
        <ele>56</ele>
        <time>2021-05-30T17:25:06.000Z</time>
      </trkpt>
      <trkpt lat="47.18203" lon="-1.60578">
        <ele>56</ele>
        <time>2021-05-30T17:25:08.000Z</time>
      </trkpt>
      <trkpt lat="47.18192" lon="-1.60585">
        <ele>55</ele>
        <time>2021-05-30T17:25:11.000Z</time>
      </trkpt>
      <trkpt lat="47.18191" lon="-1.60598">
        <ele>55</ele>
        <time>2021-05-30T17:25:13.000Z</time>
      </trkpt>
      <trkpt lat="47.18173" lon="-1.60604">
        <ele>54</ele>
        <time>2021-05-30T17:25:16.000Z</time>
      </trkpt>
      <trkpt lat="47.1816" lon="-1.60604">
        <ele>53</ele>
        <time>2021-05-30T17:25:18.000Z</time>
      </trkpt>
      <trkpt lat="47.18144" lon="-1.60607">
        <ele>53</ele>
        <time>2021-05-30T17:25:21.000Z</time>
      </trkpt>
      <trkpt lat="47.18129" lon="-1.60602">
        <ele>54</ele>
        <time>2021-05-30T17:25:23.000Z</time>
      </trkpt>
      <trkpt lat="47.18116" lon="-1.60598">
        <ele>54</ele>
        <time>2021-05-30T17:25:25.000Z</time>
      </trkpt>
      <trkpt lat="47.18104" lon="-1.60592">
        <ele>48</ele>
        <time>2021-05-30T17:25:27.000Z</time>
      </trkpt>
      <trkpt lat="47.18092" lon="-1.60587">
        <ele>49</ele>
        <time>2021-05-30T17:25:29.000Z</time>
      </trkpt>
      <trkpt lat="47.18073" lon="-1.60576">
        <ele>51</ele>
        <time>2021-05-30T17:25:32.000Z</time>
      </trkpt>
      <trkpt lat="47.18061" lon="-1.60569">
        <ele>51</ele>
        <time>2021-05-30T17:25:34.000Z</time>
      </trkpt>
      <trkpt lat="47.18049" lon="-1.60563">
        <ele>51</ele>
        <time>2021-05-30T17:25:36.000Z</time>
      </trkpt>
      <trkpt lat="47.18037" lon="-1.60557">
        <ele>51</ele>
        <time>2021-05-30T17:25:38.000Z</time>
      </trkpt>
      <trkpt lat="47.18025" lon="-1.60554">
        <ele>52</ele>
        <time>2021-05-30T17:25:40.000Z</time>
      </trkpt>
      <trkpt lat="47.18012" lon="-1.60555">
        <ele>52</ele>
        <time>2021-05-30T17:25:42.000Z</time>
      </trkpt>
      <trkpt lat="47.18" lon="-1.60557">
        <ele>52</ele>
        <time>2021-05-30T17:25:44.000Z</time>
      </trkpt>
      <trkpt lat="47.17988" lon="-1.60561">
        <ele>52</ele>
        <time>2021-05-30T17:25:46.000Z</time>
      </trkpt>
      <trkpt lat="47.17977" lon="-1.60566">
        <ele>53</ele>
        <time>2021-05-30T17:25:48.000Z</time>
      </trkpt>
      <trkpt lat="47.17964" lon="-1.60569">
        <ele>53</ele>
        <time>2021-05-30T17:25:50.000Z</time>
      </trkpt>
      <trkpt lat="47.17947" lon="-1.60576">
        <ele>53</ele>
        <time>2021-05-30T17:25:52.000Z</time>
      </trkpt>
      <trkpt lat="47.17937" lon="-1.60587">
        <ele>53</ele>
        <time>2021-05-30T17:25:55.000Z</time>
      </trkpt>
      <trkpt lat="47.17927" lon="-1.60589">
        <ele>55</ele>
        <time>2021-05-30T17:25:58.000Z</time>
      </trkpt>
      <trkpt lat="47.17917" lon="-1.6059">
        <ele>58</ele>
        <time>2021-05-30T17:26:04.000Z</time>
      </trkpt>
      <trkpt lat="47.17907" lon="-1.60598">
        <ele>55</ele>
        <time>2021-05-30T17:26:07.000Z</time>
      </trkpt>
      <trkpt lat="47.17905" lon="-1.6062">
        <ele>57</ele>
        <time>2021-05-30T17:26:09.000Z</time>
      </trkpt>
      <trkpt lat="47.17899" lon="-1.60638">
        <ele>57</ele>
        <time>2021-05-30T17:26:11.000Z</time>
      </trkpt>
      <trkpt lat="47.17892" lon="-1.60659">
        <ele>55</ele>
        <time>2021-05-30T17:26:13.000Z</time>
      </trkpt>
      <trkpt lat="47.17885" lon="-1.60678">
        <ele>55</ele>
        <time>2021-05-30T17:26:15.000Z</time>
      </trkpt>
      <trkpt lat="47.17879" lon="-1.60697">
        <ele>54</ele>
        <time>2021-05-30T17:26:17.000Z</time>
      </trkpt>
      <trkpt lat="47.17874" lon="-1.60716">
        <ele>54</ele>
        <time>2021-05-30T17:26:19.000Z</time>
      </trkpt>
      <trkpt lat="47.17869" lon="-1.60735">
        <ele>54</ele>
        <time>2021-05-30T17:26:21.000Z</time>
      </trkpt>
      <trkpt lat="47.17865" lon="-1.60753">
        <ele>53</ele>
        <time>2021-05-30T17:26:23.000Z</time>
      </trkpt>
      <trkpt lat="47.17861" lon="-1.6077">
        <ele>53</ele>
        <time>2021-05-30T17:26:25.000Z</time>
      </trkpt>
      <trkpt lat="47.17858" lon="-1.60788">
        <ele>53</ele>
        <time>2021-05-30T17:26:27.000Z</time>
      </trkpt>
      <trkpt lat="47.17852" lon="-1.60814">
        <ele>54</ele>
        <time>2021-05-30T17:26:30.000Z</time>
      </trkpt>
      <trkpt lat="47.17848" lon="-1.6083">
        <ele>54</ele>
        <time>2021-05-30T17:26:32.000Z</time>
      </trkpt>
      <trkpt lat="47.17841" lon="-1.60847">
        <ele>53</ele>
        <time>2021-05-30T17:26:34.000Z</time>
      </trkpt>
      <trkpt lat="47.17829" lon="-1.60869">
        <ele>53</ele>
        <time>2021-05-30T17:26:37.000Z</time>
      </trkpt>
      <trkpt lat="47.1782" lon="-1.60882">
        <ele>52</ele>
        <time>2021-05-30T17:26:39.000Z</time>
      </trkpt>
      <trkpt lat="47.1781" lon="-1.60893">
        <ele>52</ele>
        <time>2021-05-30T17:26:41.000Z</time>
      </trkpt>
      <trkpt lat="47.17799" lon="-1.60903">
        <ele>52</ele>
        <time>2021-05-30T17:26:43.000Z</time>
      </trkpt>
      <trkpt lat="47.17788" lon="-1.60911">
        <ele>51</ele>
        <time>2021-05-30T17:26:45.000Z</time>
      </trkpt>
      <trkpt lat="47.17777" lon="-1.6092">
        <ele>51</ele>
        <time>2021-05-30T17:26:47.000Z</time>
      </trkpt>
      <trkpt lat="47.1776" lon="-1.60934">
        <ele>51</ele>
        <time>2021-05-30T17:26:50.000Z</time>
      </trkpt>
      <trkpt lat="47.17749" lon="-1.60941">
        <ele>53</ele>
        <time>2021-05-30T17:26:52.000Z</time>
      </trkpt>
      <trkpt lat="47.17738" lon="-1.60949">
        <ele>53</ele>
        <time>2021-05-30T17:26:54.000Z</time>
      </trkpt>
      <trkpt lat="47.17721" lon="-1.60961">
        <ele>53</ele>
        <time>2021-05-30T17:26:57.000Z</time>
      </trkpt>
      <trkpt lat="47.1771" lon="-1.60968">
        <ele>53</ele>
        <time>2021-05-30T17:26:59.000Z</time>
      </trkpt>
      <trkpt lat="47.17699" lon="-1.60974">
        <ele>54</ele>
        <time>2021-05-30T17:27:01.000Z</time>
      </trkpt>
      <trkpt lat="47.17687" lon="-1.60974">
        <ele>53</ele>
        <time>2021-05-30T17:27:03.000Z</time>
      </trkpt>
      <trkpt lat="47.17673" lon="-1.60971">
        <ele>52</ele>
        <time>2021-05-30T17:27:05.000Z</time>
      </trkpt>
      <trkpt lat="47.17659" lon="-1.60975">
        <ele>51</ele>
        <time>2021-05-30T17:27:07.000Z</time>
      </trkpt>
      <trkpt lat="47.17648" lon="-1.60985">
        <ele>51</ele>
        <time>2021-05-30T17:27:09.000Z</time>
      </trkpt>
      <trkpt lat="47.17637" lon="-1.60996">
        <ele>49</ele>
        <time>2021-05-30T17:27:11.000Z</time>
      </trkpt>
      <trkpt lat="47.17624" lon="-1.61007">
        <ele>47</ele>
        <time>2021-05-30T17:27:13.000Z</time>
      </trkpt>
      <trkpt lat="47.17614" lon="-1.61015">
        <ele>48</ele>
        <time>2021-05-30T17:27:15.000Z</time>
      </trkpt>
      <trkpt lat="47.17599" lon="-1.61027">
        <ele>48</ele>
        <time>2021-05-30T17:27:18.000Z</time>
      </trkpt>
      <trkpt lat="47.17589" lon="-1.61035">
        <ele>50</ele>
        <time>2021-05-30T17:27:20.000Z</time>
      </trkpt>
      <trkpt lat="47.17578" lon="-1.61044">
        <ele>50</ele>
        <time>2021-05-30T17:27:22.000Z</time>
      </trkpt>
      <trkpt lat="47.17569" lon="-1.61054">
        <ele>51</ele>
        <time>2021-05-30T17:27:24.000Z</time>
      </trkpt>
      <trkpt lat="47.17557" lon="-1.61063">
        <ele>51</ele>
        <time>2021-05-30T17:27:26.000Z</time>
      </trkpt>
      <trkpt lat="47.17547" lon="-1.61072">
        <ele>50</ele>
        <time>2021-05-30T17:27:28.000Z</time>
      </trkpt>
      <trkpt lat="47.17536" lon="-1.61081">
        <ele>51</ele>
        <time>2021-05-30T17:27:30.000Z</time>
      </trkpt>
      <trkpt lat="47.17525" lon="-1.61091">
        <ele>51</ele>
        <time>2021-05-30T17:27:32.000Z</time>
      </trkpt>
      <trkpt lat="47.17515" lon="-1.611">
        <ele>51</ele>
        <time>2021-05-30T17:27:34.000Z</time>
      </trkpt>
      <trkpt lat="47.17496" lon="-1.61107">
        <ele>52</ele>
        <time>2021-05-30T17:27:37.000Z</time>
      </trkpt>
      <trkpt lat="47.17485" lon="-1.61106">
        <ele>52</ele>
        <time>2021-05-30T17:27:39.000Z</time>
      </trkpt>
      <trkpt lat="47.17474" lon="-1.611">
        <ele>53</ele>
        <time>2021-05-30T17:27:41.000Z</time>
      </trkpt>
      <trkpt lat="47.17459" lon="-1.61086">
        <ele>54</ele>
        <time>2021-05-30T17:27:44.000Z</time>
      </trkpt>
      <trkpt lat="47.17446" lon="-1.61068">
        <ele>54</ele>
        <time>2021-05-30T17:27:47.000Z</time>
      </trkpt>
      <trkpt lat="47.1744" lon="-1.61055">
        <ele>55</ele>
        <time>2021-05-30T17:27:49.000Z</time>
      </trkpt>
      <trkpt lat="47.17436" lon="-1.61041">
        <ele>56</ele>
        <time>2021-05-30T17:27:51.000Z</time>
      </trkpt>
      <trkpt lat="47.17431" lon="-1.61023">
        <ele>57</ele>
        <time>2021-05-30T17:27:54.000Z</time>
      </trkpt>
      <trkpt lat="47.17423" lon="-1.61032">
        <ele>56</ele>
        <time>2021-05-30T17:27:58.000Z</time>
      </trkpt>
      <trkpt lat="47.17425" lon="-1.61047">
        <ele>53</ele>
        <time>2021-05-30T17:28:00.000Z</time>
      </trkpt>
      <trkpt lat="47.17429" lon="-1.61059">
        <ele>54</ele>
        <time>2021-05-30T17:28:02.000Z</time>
      </trkpt>
      <trkpt lat="47.17434" lon="-1.61073">
        <ele>55</ele>
        <time>2021-05-30T17:28:04.000Z</time>
      </trkpt>
      <trkpt lat="47.1744" lon="-1.61087">
        <ele>56</ele>
        <time>2021-05-30T17:28:06.000Z</time>
      </trkpt>
      <trkpt lat="47.17445" lon="-1.61101">
        <ele>56</ele>
        <time>2021-05-30T17:28:08.000Z</time>
      </trkpt>
      <trkpt lat="47.17451" lon="-1.61114">
        <ele>57</ele>
        <time>2021-05-30T17:28:10.000Z</time>
      </trkpt>
      <trkpt lat="47.17456" lon="-1.61128">
        <ele>57</ele>
        <time>2021-05-30T17:28:12.000Z</time>
      </trkpt>
      <trkpt lat="47.17462" lon="-1.61141">
        <ele>58</ele>
        <time>2021-05-30T17:28:14.000Z</time>
      </trkpt>
      <trkpt lat="47.17468" lon="-1.61155">
        <ele>58</ele>
        <time>2021-05-30T17:28:16.000Z</time>
      </trkpt>
      <trkpt lat="47.17474" lon="-1.61169">
        <ele>59</ele>
        <time>2021-05-30T17:28:18.000Z</time>
      </trkpt>
      <trkpt lat="47.1748" lon="-1.61183">
        <ele>59</ele>
        <time>2021-05-30T17:28:20.000Z</time>
      </trkpt>
      <trkpt lat="47.17486" lon="-1.61197">
        <ele>59</ele>
        <time>2021-05-30T17:28:22.000Z</time>
      </trkpt>
      <trkpt lat="47.17495" lon="-1.61218">
        <ele>59</ele>
        <time>2021-05-30T17:28:25.000Z</time>
      </trkpt>
      <trkpt lat="47.17504" lon="-1.61239">
        <ele>59</ele>
        <time>2021-05-30T17:28:28.000Z</time>
      </trkpt>
      <trkpt lat="47.17511" lon="-1.61252">
        <ele>60</ele>
        <time>2021-05-30T17:28:30.000Z</time>
      </trkpt>
      <trkpt lat="47.17519" lon="-1.61266">
        <ele>59</ele>
        <time>2021-05-30T17:28:32.000Z</time>
      </trkpt>
      <trkpt lat="47.17527" lon="-1.61278">
        <ele>60</ele>
        <time>2021-05-30T17:28:34.000Z</time>
      </trkpt>
      <trkpt lat="47.17535" lon="-1.61288">
        <ele>60</ele>
        <time>2021-05-30T17:28:36.000Z</time>
      </trkpt>
      <trkpt lat="47.17545" lon="-1.61294">
        <ele>60</ele>
        <time>2021-05-30T17:28:38.000Z</time>
      </trkpt>
      <trkpt lat="47.17555" lon="-1.61301">
        <ele>60</ele>
        <time>2021-05-30T17:28:40.000Z</time>
      </trkpt>
      <trkpt lat="47.17563" lon="-1.61316">
        <ele>60</ele>
        <time>2021-05-30T17:28:42.000Z</time>
      </trkpt>
      <trkpt lat="47.17564" lon="-1.61334">
        <ele>60</ele>
        <time>2021-05-30T17:28:44.000Z</time>
      </trkpt>
      <trkpt lat="47.17558" lon="-1.61351">
        <ele>60</ele>
        <time>2021-05-30T17:28:46.000Z</time>
      </trkpt>
      <trkpt lat="47.17546" lon="-1.61359">
        <ele>60</ele>
        <time>2021-05-30T17:28:48.000Z</time>
      </trkpt>
      <trkpt lat="47.17536" lon="-1.61371">
        <ele>59</ele>
        <time>2021-05-30T17:28:50.000Z</time>
      </trkpt>
      <trkpt lat="47.1753" lon="-1.61389">
        <ele>60</ele>
        <time>2021-05-30T17:28:52.000Z</time>
      </trkpt>
      <trkpt lat="47.17525" lon="-1.61407">
        <ele>60</ele>
        <time>2021-05-30T17:28:54.000Z</time>
      </trkpt>
      <trkpt lat="47.17521" lon="-1.61425">
        <ele>62</ele>
        <time>2021-05-30T17:28:56.000Z</time>
      </trkpt>
      <trkpt lat="47.17518" lon="-1.61445">
        <ele>60</ele>
        <time>2021-05-30T17:28:58.000Z</time>
      </trkpt>
      <trkpt lat="47.17509" lon="-1.61468">
        <ele>61</ele>
        <time>2021-05-30T17:29:01.000Z</time>
      </trkpt>
      <trkpt lat="47.17494" lon="-1.6147">
        <ele>61</ele>
        <time>2021-05-30T17:29:03.000Z</time>
      </trkpt>
      <trkpt lat="47.17472" lon="-1.61477">
        <ele>65</ele>
        <time>2021-05-30T17:29:06.000Z</time>
      </trkpt>
      <trkpt lat="47.17458" lon="-1.61484">
        <ele>66</ele>
        <time>2021-05-30T17:29:08.000Z</time>
      </trkpt>
      <trkpt lat="47.17439" lon="-1.61494">
        <ele>66</ele>
        <time>2021-05-30T17:29:11.000Z</time>
      </trkpt>
      <trkpt lat="47.17427" lon="-1.61501">
        <ele>67</ele>
        <time>2021-05-30T17:29:13.000Z</time>
      </trkpt>
      <trkpt lat="47.17409" lon="-1.61515">
        <ele>68</ele>
        <time>2021-05-30T17:29:16.000Z</time>
      </trkpt>
      <trkpt lat="47.17398" lon="-1.61523">
        <ele>69</ele>
        <time>2021-05-30T17:29:18.000Z</time>
      </trkpt>
      <trkpt lat="47.17388" lon="-1.61532">
        <ele>69</ele>
        <time>2021-05-30T17:29:20.000Z</time>
      </trkpt>
      <trkpt lat="47.17377" lon="-1.61543">
        <ele>70</ele>
        <time>2021-05-30T17:29:22.000Z</time>
      </trkpt>
      <trkpt lat="47.17366" lon="-1.61554">
        <ele>70</ele>
        <time>2021-05-30T17:29:24.000Z</time>
      </trkpt>
      <trkpt lat="47.17356" lon="-1.61564">
        <ele>71</ele>
        <time>2021-05-30T17:29:26.000Z</time>
      </trkpt>
      <trkpt lat="47.17346" lon="-1.61576">
        <ele>71</ele>
        <time>2021-05-30T17:29:28.000Z</time>
      </trkpt>
      <trkpt lat="47.17336" lon="-1.61588">
        <ele>71</ele>
        <time>2021-05-30T17:29:30.000Z</time>
      </trkpt>
      <trkpt lat="47.17327" lon="-1.61601">
        <ele>71</ele>
        <time>2021-05-30T17:29:32.000Z</time>
      </trkpt>
      <trkpt lat="47.17313" lon="-1.61621">
        <ele>69</ele>
        <time>2021-05-30T17:29:35.000Z</time>
      </trkpt>
      <trkpt lat="47.17298" lon="-1.61649">
        <ele>68</ele>
        <time>2021-05-30T17:29:39.000Z</time>
      </trkpt>
      <trkpt lat="47.17286" lon="-1.6167">
        <ele>69</ele>
        <time>2021-05-30T17:29:42.000Z</time>
      </trkpt>
      <trkpt lat="47.17278" lon="-1.61684">
        <ele>69</ele>
        <time>2021-05-30T17:29:44.000Z</time>
      </trkpt>
      <trkpt lat="47.17268" lon="-1.61702">
        <ele>69</ele>
        <time>2021-05-30T17:29:47.000Z</time>
      </trkpt>
      <trkpt lat="47.17256" lon="-1.61728">
        <ele>70</ele>
        <time>2021-05-30T17:29:50.000Z</time>
      </trkpt>
      <trkpt lat="47.17251" lon="-1.61745">
        <ele>70</ele>
        <time>2021-05-30T17:29:52.000Z</time>
      </trkpt>
      <trkpt lat="47.17248" lon="-1.61762">
        <ele>70</ele>
        <time>2021-05-30T17:29:54.000Z</time>
      </trkpt>
      <trkpt lat="47.17233" lon="-1.6179">
        <ele>70</ele>
        <time>2021-05-30T17:29:58.000Z</time>
      </trkpt>
      <trkpt lat="47.1722" lon="-1.61801">
        <ele>70</ele>
        <time>2021-05-30T17:30:00.000Z</time>
      </trkpt>
      <trkpt lat="47.17208" lon="-1.61811">
        <ele>70</ele>
        <time>2021-05-30T17:30:02.000Z</time>
      </trkpt>
      <trkpt lat="47.17197" lon="-1.6182">
        <ele>70</ele>
        <time>2021-05-30T17:30:04.000Z</time>
      </trkpt>
      <trkpt lat="47.17187" lon="-1.61832">
        <ele>68</ele>
        <time>2021-05-30T17:30:06.000Z</time>
      </trkpt>
      <trkpt lat="47.17176" lon="-1.61842">
        <ele>67</ele>
        <time>2021-05-30T17:30:08.000Z</time>
      </trkpt>
      <trkpt lat="47.17165" lon="-1.61851">
        <ele>68</ele>
        <time>2021-05-30T17:30:10.000Z</time>
      </trkpt>
      <trkpt lat="47.17149" lon="-1.61866">
        <ele>69</ele>
        <time>2021-05-30T17:30:13.000Z</time>
      </trkpt>
      <trkpt lat="47.17133" lon="-1.61881">
        <ele>68</ele>
        <time>2021-05-30T17:30:16.000Z</time>
      </trkpt>
      <trkpt lat="47.17121" lon="-1.6189">
        <ele>66</ele>
        <time>2021-05-30T17:30:18.000Z</time>
      </trkpt>
      <trkpt lat="47.1711" lon="-1.619">
        <ele>67</ele>
        <time>2021-05-30T17:30:20.000Z</time>
      </trkpt>
      <trkpt lat="47.17099" lon="-1.61912">
        <ele>67</ele>
        <time>2021-05-30T17:30:22.000Z</time>
      </trkpt>
      <trkpt lat="47.17089" lon="-1.61923">
        <ele>68</ele>
        <time>2021-05-30T17:30:24.000Z</time>
      </trkpt>
      <trkpt lat="47.17079" lon="-1.61934">
        <ele>69</ele>
        <time>2021-05-30T17:30:26.000Z</time>
      </trkpt>
      <trkpt lat="47.17069" lon="-1.61945">
        <ele>69</ele>
        <time>2021-05-30T17:30:28.000Z</time>
      </trkpt>
      <trkpt lat="47.17059" lon="-1.61957">
        <ele>69</ele>
        <time>2021-05-30T17:30:30.000Z</time>
      </trkpt>
      <trkpt lat="47.17049" lon="-1.61971">
        <ele>70</ele>
        <time>2021-05-30T17:30:32.000Z</time>
      </trkpt>
      <trkpt lat="47.17035" lon="-1.61989">
        <ele>69</ele>
        <time>2021-05-30T17:30:35.000Z</time>
      </trkpt>
      <trkpt lat="47.17027" lon="-1.62002">
        <ele>70</ele>
        <time>2021-05-30T17:30:37.000Z</time>
      </trkpt>
      <trkpt lat="47.17017" lon="-1.62016">
        <ele>69</ele>
        <time>2021-05-30T17:30:39.000Z</time>
      </trkpt>
      <trkpt lat="47.17008" lon="-1.62031">
        <ele>69</ele>
        <time>2021-05-30T17:30:41.000Z</time>
      </trkpt>
      <trkpt lat="47.17001" lon="-1.62047">
        <ele>70</ele>
        <time>2021-05-30T17:30:43.000Z</time>
      </trkpt>
      <trkpt lat="47.16991" lon="-1.62062">
        <ele>71</ele>
        <time>2021-05-30T17:30:45.000Z</time>
      </trkpt>
      <trkpt lat="47.16983" lon="-1.62077">
        <ele>70</ele>
        <time>2021-05-30T17:30:47.000Z</time>
      </trkpt>
      <trkpt lat="47.16975" lon="-1.62092">
        <ele>70</ele>
        <time>2021-05-30T17:30:49.000Z</time>
      </trkpt>
      <trkpt lat="47.16964" lon="-1.62112">
        <ele>67</ele>
        <time>2021-05-30T17:30:52.000Z</time>
      </trkpt>
      <trkpt lat="47.16956" lon="-1.62127">
        <ele>68</ele>
        <time>2021-05-30T17:30:54.000Z</time>
      </trkpt>
      <trkpt lat="47.16947" lon="-1.62143">
        <ele>69</ele>
        <time>2021-05-30T17:30:56.000Z</time>
      </trkpt>
      <trkpt lat="47.16936" lon="-1.62167">
        <ele>70</ele>
        <time>2021-05-30T17:30:59.000Z</time>
      </trkpt>
      <trkpt lat="47.16925" lon="-1.6219">
        <ele>70</ele>
        <time>2021-05-30T17:31:02.000Z</time>
      </trkpt>
      <trkpt lat="47.16917" lon="-1.62204">
        <ele>69</ele>
        <time>2021-05-30T17:31:04.000Z</time>
      </trkpt>
      <trkpt lat="47.16903" lon="-1.62225">
        <ele>69</ele>
        <time>2021-05-30T17:31:07.000Z</time>
      </trkpt>
      <trkpt lat="47.16887" lon="-1.62243">
        <ele>70</ele>
        <time>2021-05-30T17:31:10.000Z</time>
      </trkpt>
      <trkpt lat="47.16877" lon="-1.62256">
        <ele>71</ele>
        <time>2021-05-30T17:31:12.000Z</time>
      </trkpt>
      <trkpt lat="47.16866" lon="-1.62268">
        <ele>71</ele>
        <time>2021-05-30T17:31:14.000Z</time>
      </trkpt>
      <trkpt lat="47.16856" lon="-1.6228">
        <ele>70</ele>
        <time>2021-05-30T17:31:16.000Z</time>
      </trkpt>
      <trkpt lat="47.16846" lon="-1.62292">
        <ele>71</ele>
        <time>2021-05-30T17:31:18.000Z</time>
      </trkpt>
      <trkpt lat="47.16837" lon="-1.62304">
        <ele>70</ele>
        <time>2021-05-30T17:31:20.000Z</time>
      </trkpt>
      <trkpt lat="47.16827" lon="-1.62314">
        <ele>69</ele>
        <time>2021-05-30T17:31:22.000Z</time>
      </trkpt>
      <trkpt lat="47.16816" lon="-1.62321">
        <ele>70</ele>
        <time>2021-05-30T17:31:24.000Z</time>
      </trkpt>
      <trkpt lat="47.16804" lon="-1.62329">
        <ele>70</ele>
        <time>2021-05-30T17:31:26.000Z</time>
      </trkpt>
      <trkpt lat="47.16791" lon="-1.62336">
        <ele>70</ele>
        <time>2021-05-30T17:31:28.000Z</time>
      </trkpt>
      <trkpt lat="47.16779" lon="-1.62343">
        <ele>70</ele>
        <time>2021-05-30T17:31:30.000Z</time>
      </trkpt>
      <trkpt lat="47.16767" lon="-1.6235">
        <ele>70</ele>
        <time>2021-05-30T17:31:32.000Z</time>
      </trkpt>
      <trkpt lat="47.16755" lon="-1.6236">
        <ele>70</ele>
        <time>2021-05-30T17:31:34.000Z</time>
      </trkpt>
      <trkpt lat="47.16745" lon="-1.62372">
        <ele>70</ele>
        <time>2021-05-30T17:31:36.000Z</time>
      </trkpt>
      <trkpt lat="47.16736" lon="-1.6239">
        <ele>66</ele>
        <time>2021-05-30T17:31:38.000Z</time>
      </trkpt>
      <trkpt lat="47.16732" lon="-1.62406">
        <ele>66</ele>
        <time>2021-05-30T17:31:40.000Z</time>
      </trkpt>
      <trkpt lat="47.1673" lon="-1.62423">
        <ele>67</ele>
        <time>2021-05-30T17:31:42.000Z</time>
      </trkpt>
      <trkpt lat="47.16728" lon="-1.62441">
        <ele>68</ele>
        <time>2021-05-30T17:31:44.000Z</time>
      </trkpt>
      <trkpt lat="47.16724" lon="-1.62459">
        <ele>68</ele>
        <time>2021-05-30T17:31:46.000Z</time>
      </trkpt>
      <trkpt lat="47.16721" lon="-1.62482">
        <ele>69</ele>
        <time>2021-05-30T17:31:48.000Z</time>
      </trkpt>
      <trkpt lat="47.16722" lon="-1.62496">
        <ele>70</ele>
        <time>2021-05-30T17:31:50.000Z</time>
      </trkpt>
      <trkpt lat="47.16731" lon="-1.62502">
        <ele>68</ele>
        <time>2021-05-30T17:31:52.000Z</time>
      </trkpt>
      <trkpt lat="47.16742" lon="-1.62505">
        <ele>69</ele>
        <time>2021-05-30T17:31:54.000Z</time>
      </trkpt>
      <trkpt lat="47.16758" lon="-1.62514">
        <ele>69</ele>
        <time>2021-05-30T17:31:57.000Z</time>
      </trkpt>
      <trkpt lat="47.1677" lon="-1.6252">
        <ele>69</ele>
        <time>2021-05-30T17:31:59.000Z</time>
      </trkpt>
      <trkpt lat="47.16781" lon="-1.62527">
        <ele>69</ele>
        <time>2021-05-30T17:32:01.000Z</time>
      </trkpt>
      <trkpt lat="47.16791" lon="-1.62535">
        <ele>69</ele>
        <time>2021-05-30T17:32:03.000Z</time>
      </trkpt>
      <trkpt lat="47.16802" lon="-1.62541">
        <ele>69</ele>
        <time>2021-05-30T17:32:05.000Z</time>
      </trkpt>
      <trkpt lat="47.16812" lon="-1.62545">
        <ele>69</ele>
        <time>2021-05-30T17:32:07.000Z</time>
      </trkpt>
      <trkpt lat="47.16821" lon="-1.62554">
        <ele>70</ele>
        <time>2021-05-30T17:32:09.000Z</time>
      </trkpt>
      <trkpt lat="47.1683" lon="-1.62566">
        <ele>70</ele>
        <time>2021-05-30T17:32:11.000Z</time>
      </trkpt>
      <trkpt lat="47.16835" lon="-1.62581">
        <ele>66</ele>
        <time>2021-05-30T17:32:13.000Z</time>
      </trkpt>
      <trkpt lat="47.16829" lon="-1.62597">
        <ele>68</ele>
        <time>2021-05-30T17:32:15.000Z</time>
      </trkpt>
      <trkpt lat="47.16821" lon="-1.62609">
        <ele>69</ele>
        <time>2021-05-30T17:32:17.000Z</time>
      </trkpt>
      <trkpt lat="47.16813" lon="-1.62621">
        <ele>70</ele>
        <time>2021-05-30T17:32:19.000Z</time>
      </trkpt>
      <trkpt lat="47.16807" lon="-1.62634">
        <ele>70</ele>
        <time>2021-05-30T17:32:21.000Z</time>
      </trkpt>
      <trkpt lat="47.168" lon="-1.62645">
        <ele>72</ele>
        <time>2021-05-30T17:32:23.000Z</time>
      </trkpt>
      <trkpt lat="47.16793" lon="-1.62655">
        <ele>72</ele>
        <time>2021-05-30T17:32:25.000Z</time>
      </trkpt>
      <trkpt lat="47.16783" lon="-1.62661">
        <ele>72</ele>
        <time>2021-05-30T17:32:28.000Z</time>
      </trkpt>
      <trkpt lat="47.16775" lon="-1.62655">
        <ele>68</ele>
        <time>2021-05-30T17:33:00.000Z</time>
      </trkpt>
      <trkpt lat="47.16778" lon="-1.62642">
        <ele>59</ele>
        <time>2021-05-30T17:33:11.000Z</time>
      </trkpt>
    </trkseg>
  </trk>
</gpx>